<?xml version="1.0" encoding="UTF-8" standalone="no" ?>
<gpx xmlns="http://www.topografix.com/GPX/1/1" xmlns:xsi="http://www.w3.org/2001/XMLSchema-instance" xsi:schemaLocation="http://www.topografix.com/GPX/1/1 http://www.topografix.com/GPX/1/1/gpx.xsd" version="1.1" creator="VisuGPX - https://www.visugpx.com">
  <metadata>
    <name>22-02-13 Gicon</name>
    <desc><![CDATA[22-02-13 Gicon]]></desc>
  </metadata>
  <trk>
    <name><![CDATA[22/02/2013 Gicon]]></name>
    <desc><![CDATA[]]></desc>
    <trkseg>
      <trkpt lat="44.73899" lon="5.90765">
        <ele>1425</ele>
        <time>2013-02-22T08:22:40.735Z</time>
      </trkpt>
      <trkpt lat="44.73877" lon="5.90838">
        <ele>1403</ele>
        <time>2013-02-22T08:22:41.731Z</time>
      </trkpt>
      <trkpt lat="44.73879" lon="5.90853">
        <ele>1395</ele>
        <time>2013-02-22T08:22:42.730Z</time>
      </trkpt>
      <trkpt lat="44.73879" lon="5.90853">
        <ele>1395</ele>
        <time>2013-02-22T08:22:56.000Z</time>
      </trkpt>
      <trkpt lat="44.73882" lon="5.90861">
        <ele>1385</ele>
        <time>2013-02-22T08:22:57.000Z</time>
      </trkpt>
      <trkpt lat="44.73878" lon="5.90859">
        <ele>1388</ele>
        <time>2013-02-22T08:23:18.000Z</time>
      </trkpt>
      <trkpt lat="44.73877" lon="5.90858">
        <ele>1386</ele>
        <time>2013-02-22T08:23:19.000Z</time>
      </trkpt>
      <trkpt lat="44.73873" lon="5.90858">
        <ele>1386</ele>
        <time>2013-02-22T08:23:21.000Z</time>
      </trkpt>
      <trkpt lat="44.73871" lon="5.90859">
        <ele>1388</ele>
        <time>2013-02-22T08:23:22.000Z</time>
      </trkpt>
      <trkpt lat="44.73867" lon="5.90861">
        <ele>1389</ele>
        <time>2013-02-22T08:23:25.000Z</time>
      </trkpt>
      <trkpt lat="44.73866" lon="5.90861">
        <ele>1389</ele>
        <time>2013-02-22T08:23:26.000Z</time>
      </trkpt>
      <trkpt lat="44.73863" lon="5.90864">
        <ele>1388</ele>
        <time>2013-02-22T08:23:28.000Z</time>
      </trkpt>
      <trkpt lat="44.73862" lon="5.90865">
        <ele>1388</ele>
        <time>2013-02-22T08:23:29.000Z</time>
      </trkpt>
      <trkpt lat="44.73859" lon="5.90867">
        <ele>1387</ele>
        <time>2013-02-22T08:23:32.000Z</time>
      </trkpt>
      <trkpt lat="44.73858" lon="5.90868">
        <ele>1386</ele>
        <time>2013-02-22T08:23:33.000Z</time>
      </trkpt>
      <trkpt lat="44.73854" lon="5.9087">
        <ele>1386</ele>
        <time>2013-02-22T08:23:37.000Z</time>
      </trkpt>
      <trkpt lat="44.73853" lon="5.90871">
        <ele>1388</ele>
        <time>2013-02-22T08:23:38.000Z</time>
      </trkpt>
      <trkpt lat="44.7385" lon="5.90874">
        <ele>1391</ele>
        <time>2013-02-22T08:23:42.000Z</time>
      </trkpt>
      <trkpt lat="44.73849" lon="5.90875">
        <ele>1391</ele>
        <time>2013-02-22T08:23:43.000Z</time>
      </trkpt>
      <trkpt lat="44.73846" lon="5.90878">
        <ele>1390</ele>
        <time>2013-02-22T08:23:47.000Z</time>
      </trkpt>
      <trkpt lat="44.73845" lon="5.90879">
        <ele>1390</ele>
        <time>2013-02-22T08:23:48.000Z</time>
      </trkpt>
      <trkpt lat="44.73842" lon="5.90882">
        <ele>1392</ele>
        <time>2013-02-22T08:23:52.000Z</time>
      </trkpt>
      <trkpt lat="44.73841" lon="5.90883">
        <ele>1392</ele>
        <time>2013-02-22T08:23:53.000Z</time>
      </trkpt>
      <trkpt lat="44.73838" lon="5.90884">
        <ele>1391</ele>
        <time>2013-02-22T08:23:57.000Z</time>
      </trkpt>
      <trkpt lat="44.73837" lon="5.90885">
        <ele>1392</ele>
        <time>2013-02-22T08:23:58.000Z</time>
      </trkpt>
      <trkpt lat="44.73833" lon="5.90888">
        <ele>1391</ele>
        <time>2013-02-22T08:24:03.000Z</time>
      </trkpt>
      <trkpt lat="44.73832" lon="5.90888">
        <ele>1391</ele>
        <time>2013-02-22T08:24:04.000Z</time>
      </trkpt>
      <trkpt lat="44.73828" lon="5.90889">
        <ele>1393</ele>
        <time>2013-02-22T08:24:09.000Z</time>
      </trkpt>
      <trkpt lat="44.73827" lon="5.9089">
        <ele>1393</ele>
        <time>2013-02-22T08:24:10.000Z</time>
      </trkpt>
      <trkpt lat="44.73824" lon="5.90894">
        <ele>1391</ele>
        <time>2013-02-22T08:24:18.000Z</time>
      </trkpt>
      <trkpt lat="44.73824" lon="5.90894">
        <ele>1391</ele>
        <time>2013-02-22T08:24:19.000Z</time>
      </trkpt>
      <trkpt lat="44.73822" lon="5.90899">
        <ele>1390</ele>
        <time>2013-02-22T08:25:56.000Z</time>
      </trkpt>
      <trkpt lat="44.73822" lon="5.909">
        <ele>1389</ele>
        <time>2013-02-22T08:25:57.000Z</time>
      </trkpt>
      <trkpt lat="44.73818" lon="5.90903">
        <ele>1387</ele>
        <time>2013-02-22T08:26:09.000Z</time>
      </trkpt>
      <trkpt lat="44.73817" lon="5.90903">
        <ele>1387</ele>
        <time>2013-02-22T08:26:10.000Z</time>
      </trkpt>
      <trkpt lat="44.73813" lon="5.90901">
        <ele>1389</ele>
        <time>2013-02-22T08:26:16.000Z</time>
      </trkpt>
      <trkpt lat="44.73812" lon="5.909">
        <ele>1391</ele>
        <time>2013-02-22T08:26:17.000Z</time>
      </trkpt>
      <trkpt lat="44.73808" lon="5.90897">
        <ele>1400</ele>
        <time>2013-02-22T08:26:26.000Z</time>
      </trkpt>
      <trkpt lat="44.73807" lon="5.90897">
        <ele>1396</ele>
        <time>2013-02-22T08:26:27.000Z</time>
      </trkpt>
      <trkpt lat="44.73809" lon="5.90892">
        <ele>1400</ele>
        <time>2013-02-22T08:26:39.000Z</time>
      </trkpt>
      <trkpt lat="44.73809" lon="5.90891">
        <ele>1400</ele>
        <time>2013-02-22T08:26:40.000Z</time>
      </trkpt>
      <trkpt lat="44.73809" lon="5.90897">
        <ele>1389</ele>
        <time>2013-02-22T08:27:21.000Z</time>
      </trkpt>
      <trkpt lat="44.73809" lon="5.90898">
        <ele>1389</ele>
        <time>2013-02-22T08:27:22.000Z</time>
      </trkpt>
      <trkpt lat="44.73813" lon="5.909">
        <ele>1383</ele>
        <time>2013-02-22T08:27:45.000Z</time>
      </trkpt>
      <trkpt lat="44.73814" lon="5.909">
        <ele>1383</ele>
        <time>2013-02-22T08:27:46.000Z</time>
      </trkpt>
      <trkpt lat="44.73813" lon="5.90894">
        <ele>1387</ele>
        <time>2013-02-22T08:28:15.000Z</time>
      </trkpt>
      <trkpt lat="44.73812" lon="5.90894">
        <ele>1384</ele>
        <time>2013-02-22T08:28:16.000Z</time>
      </trkpt>
      <trkpt lat="44.73808" lon="5.90893">
        <ele>1398</ele>
        <time>2013-02-22T08:28:38.000Z</time>
      </trkpt>
      <trkpt lat="44.73807" lon="5.90893">
        <ele>1398</ele>
        <time>2013-02-22T08:28:39.000Z</time>
      </trkpt>
      <trkpt lat="44.73802" lon="5.90893">
        <ele>1398</ele>
        <time>2013-02-22T08:28:44.000Z</time>
      </trkpt>
      <trkpt lat="44.73801" lon="5.90893">
        <ele>1396</ele>
        <time>2013-02-22T08:28:45.000Z</time>
      </trkpt>
      <trkpt lat="44.73797" lon="5.90894">
        <ele>1397</ele>
        <time>2013-02-22T08:28:49.000Z</time>
      </trkpt>
      <trkpt lat="44.73795" lon="5.90894">
        <ele>1397</ele>
        <time>2013-02-22T08:28:50.000Z</time>
      </trkpt>
      <trkpt lat="44.73792" lon="5.90895">
        <ele>1394</ele>
        <time>2013-02-22T08:28:53.000Z</time>
      </trkpt>
      <trkpt lat="44.73791" lon="5.90895">
        <ele>1394</ele>
        <time>2013-02-22T08:28:54.000Z</time>
      </trkpt>
      <trkpt lat="44.73787" lon="5.90897">
        <ele>1392</ele>
        <time>2013-02-22T08:28:57.000Z</time>
      </trkpt>
      <trkpt lat="44.73786" lon="5.90898">
        <ele>1391</ele>
        <time>2013-02-22T08:28:58.000Z</time>
      </trkpt>
      <trkpt lat="44.73782" lon="5.909">
        <ele>1387</ele>
        <time>2013-02-22T08:29:01.000Z</time>
      </trkpt>
      <trkpt lat="44.73781" lon="5.909">
        <ele>1386</ele>
        <time>2013-02-22T08:29:02.000Z</time>
      </trkpt>
      <trkpt lat="44.73777" lon="5.90902">
        <ele>1387</ele>
        <time>2013-02-22T08:29:05.000Z</time>
      </trkpt>
      <trkpt lat="44.73776" lon="5.90903">
        <ele>1388</ele>
        <time>2013-02-22T08:29:06.000Z</time>
      </trkpt>
      <trkpt lat="44.73772" lon="5.90903">
        <ele>1387</ele>
        <time>2013-02-22T08:29:09.000Z</time>
      </trkpt>
      <trkpt lat="44.7377" lon="5.90904">
        <ele>1387</ele>
        <time>2013-02-22T08:29:10.000Z</time>
      </trkpt>
      <trkpt lat="44.73767" lon="5.90906">
        <ele>1384</ele>
        <time>2013-02-22T08:29:13.000Z</time>
      </trkpt>
      <trkpt lat="44.73766" lon="5.90907">
        <ele>1385</ele>
        <time>2013-02-22T08:29:14.000Z</time>
      </trkpt>
      <trkpt lat="44.73763" lon="5.90909">
        <ele>1388</ele>
        <time>2013-02-22T08:29:17.000Z</time>
      </trkpt>
      <trkpt lat="44.73762" lon="5.90909">
        <ele>1390</ele>
        <time>2013-02-22T08:29:18.000Z</time>
      </trkpt>
      <trkpt lat="44.73759" lon="5.90911">
        <ele>1392</ele>
        <time>2013-02-22T08:29:21.000Z</time>
      </trkpt>
      <trkpt lat="44.73757" lon="5.90911">
        <ele>1392</ele>
        <time>2013-02-22T08:29:22.000Z</time>
      </trkpt>
      <trkpt lat="44.73753" lon="5.90914">
        <ele>1393</ele>
        <time>2013-02-22T08:29:26.000Z</time>
      </trkpt>
      <trkpt lat="44.73753" lon="5.90915">
        <ele>1393</ele>
        <time>2013-02-22T08:29:27.000Z</time>
      </trkpt>
      <trkpt lat="44.73749" lon="5.90918">
        <ele>1394</ele>
        <time>2013-02-22T08:29:31.000Z</time>
      </trkpt>
      <trkpt lat="44.73748" lon="5.90918">
        <ele>1394</ele>
        <time>2013-02-22T08:29:32.000Z</time>
      </trkpt>
      <trkpt lat="44.73745" lon="5.90921">
        <ele>1393</ele>
        <time>2013-02-22T08:29:35.000Z</time>
      </trkpt>
      <trkpt lat="44.73744" lon="5.90922">
        <ele>1393</ele>
        <time>2013-02-22T08:29:36.000Z</time>
      </trkpt>
      <trkpt lat="44.73741" lon="5.90926">
        <ele>1392</ele>
        <time>2013-02-22T08:29:40.000Z</time>
      </trkpt>
      <trkpt lat="44.7374" lon="5.90926">
        <ele>1392</ele>
        <time>2013-02-22T08:29:41.000Z</time>
      </trkpt>
      <trkpt lat="44.73737" lon="5.90927">
        <ele>1393</ele>
        <time>2013-02-22T08:29:43.000Z</time>
      </trkpt>
      <trkpt lat="44.73735" lon="5.90928">
        <ele>1395</ele>
        <time>2013-02-22T08:29:44.000Z</time>
      </trkpt>
      <trkpt lat="44.7373" lon="5.90928">
        <ele>1395</ele>
        <time>2013-02-22T08:29:46.000Z</time>
      </trkpt>
      <trkpt lat="44.73729" lon="5.90928">
        <ele>1395</ele>
        <time>2013-02-22T08:29:47.000Z</time>
      </trkpt>
      <trkpt lat="44.73725" lon="5.90927">
        <ele>1394</ele>
        <time>2013-02-22T08:29:50.000Z</time>
      </trkpt>
      <trkpt lat="44.73724" lon="5.90927">
        <ele>1395</ele>
        <time>2013-02-22T08:29:51.000Z</time>
      </trkpt>
      <trkpt lat="44.73721" lon="5.90926">
        <ele>1394</ele>
        <time>2013-02-22T08:29:53.000Z</time>
      </trkpt>
      <trkpt lat="44.73719" lon="5.90926">
        <ele>1396</ele>
        <time>2013-02-22T08:29:54.000Z</time>
      </trkpt>
      <trkpt lat="44.73715" lon="5.90924">
        <ele>1398</ele>
        <time>2013-02-22T08:29:57.000Z</time>
      </trkpt>
      <trkpt lat="44.73714" lon="5.90924">
        <ele>1398</ele>
        <time>2013-02-22T08:29:58.000Z</time>
      </trkpt>
      <trkpt lat="44.7371" lon="5.90921">
        <ele>1402</ele>
        <time>2013-02-22T08:30:01.000Z</time>
      </trkpt>
      <trkpt lat="44.73709" lon="5.90921">
        <ele>1401</ele>
        <time>2013-02-22T08:30:02.000Z</time>
      </trkpt>
      <trkpt lat="44.73705" lon="5.90919">
        <ele>1404</ele>
        <time>2013-02-22T08:30:05.000Z</time>
      </trkpt>
      <trkpt lat="44.73704" lon="5.90919">
        <ele>1405</ele>
        <time>2013-02-22T08:30:06.000Z</time>
      </trkpt>
      <trkpt lat="44.737" lon="5.90918">
        <ele>1403</ele>
        <time>2013-02-22T08:30:09.000Z</time>
      </trkpt>
      <trkpt lat="44.73699" lon="5.90918">
        <ele>1406</ele>
        <time>2013-02-22T08:30:10.000Z</time>
      </trkpt>
      <trkpt lat="44.73695" lon="5.90917">
        <ele>1407</ele>
        <time>2013-02-22T08:30:13.000Z</time>
      </trkpt>
      <trkpt lat="44.73694" lon="5.90917">
        <ele>1407</ele>
        <time>2013-02-22T08:30:14.000Z</time>
      </trkpt>
      <trkpt lat="44.7369" lon="5.90917">
        <ele>1409</ele>
        <time>2013-02-22T08:30:17.000Z</time>
      </trkpt>
      <trkpt lat="44.73688" lon="5.90917">
        <ele>1407</ele>
        <time>2013-02-22T08:30:18.000Z</time>
      </trkpt>
      <trkpt lat="44.73684" lon="5.90917">
        <ele>1410</ele>
        <time>2013-02-22T08:30:21.000Z</time>
      </trkpt>
      <trkpt lat="44.73684" lon="5.90917">
        <ele>1409</ele>
        <time>2013-02-22T08:30:22.000Z</time>
      </trkpt>
      <trkpt lat="44.73679" lon="5.90917">
        <ele>1408</ele>
        <time>2013-02-22T08:30:26.000Z</time>
      </trkpt>
      <trkpt lat="44.73678" lon="5.90917">
        <ele>1408</ele>
        <time>2013-02-22T08:30:27.000Z</time>
      </trkpt>
      <trkpt lat="44.73674" lon="5.90917">
        <ele>1408</ele>
        <time>2013-02-22T08:30:30.000Z</time>
      </trkpt>
      <trkpt lat="44.73673" lon="5.90917">
        <ele>1409</ele>
        <time>2013-02-22T08:30:31.000Z</time>
      </trkpt>
      <trkpt lat="44.73669" lon="5.90917">
        <ele>1409</ele>
        <time>2013-02-22T08:30:36.000Z</time>
      </trkpt>
      <trkpt lat="44.73668" lon="5.90917">
        <ele>1409</ele>
        <time>2013-02-22T08:30:37.000Z</time>
      </trkpt>
      <trkpt lat="44.73664" lon="5.90917">
        <ele>1411</ele>
        <time>2013-02-22T08:30:41.000Z</time>
      </trkpt>
      <trkpt lat="44.73663" lon="5.90917">
        <ele>1410</ele>
        <time>2013-02-22T08:30:42.000Z</time>
      </trkpt>
      <trkpt lat="44.73659" lon="5.90917">
        <ele>1410</ele>
        <time>2013-02-22T08:30:46.000Z</time>
      </trkpt>
      <trkpt lat="44.73657" lon="5.90917">
        <ele>1410</ele>
        <time>2013-02-22T08:30:47.000Z</time>
      </trkpt>
      <trkpt lat="44.73653" lon="5.90916">
        <ele>1411</ele>
        <time>2013-02-22T08:30:50.000Z</time>
      </trkpt>
      <trkpt lat="44.73651" lon="5.90916">
        <ele>1411</ele>
        <time>2013-02-22T08:30:51.000Z</time>
      </trkpt>
      <trkpt lat="44.73647" lon="5.90916">
        <ele>1412</ele>
        <time>2013-02-22T08:30:54.000Z</time>
      </trkpt>
      <trkpt lat="44.73646" lon="5.90916">
        <ele>1412</ele>
        <time>2013-02-22T08:30:55.000Z</time>
      </trkpt>
      <trkpt lat="44.73643" lon="5.90916">
        <ele>1409</ele>
        <time>2013-02-22T08:30:58.000Z</time>
      </trkpt>
      <trkpt lat="44.7364" lon="5.90916">
        <ele>1411</ele>
        <time>2013-02-22T08:30:59.000Z</time>
      </trkpt>
      <trkpt lat="44.73636" lon="5.90916">
        <ele>1409</ele>
        <time>2013-02-22T08:31:03.000Z</time>
      </trkpt>
      <trkpt lat="44.73635" lon="5.90916">
        <ele>1409</ele>
        <time>2013-02-22T08:31:04.000Z</time>
      </trkpt>
      <trkpt lat="44.73631" lon="5.90916">
        <ele>1410</ele>
        <time>2013-02-22T08:31:07.000Z</time>
      </trkpt>
      <trkpt lat="44.7363" lon="5.90916">
        <ele>1410</ele>
        <time>2013-02-22T08:31:08.000Z</time>
      </trkpt>
      <trkpt lat="44.73626" lon="5.90915">
        <ele>1411</ele>
        <time>2013-02-22T08:31:11.000Z</time>
      </trkpt>
      <trkpt lat="44.73625" lon="5.90915">
        <ele>1411</ele>
        <time>2013-02-22T08:31:12.000Z</time>
      </trkpt>
      <trkpt lat="44.73621" lon="5.90913">
        <ele>1416</ele>
        <time>2013-02-22T08:31:15.000Z</time>
      </trkpt>
      <trkpt lat="44.73619" lon="5.90913">
        <ele>1415</ele>
        <time>2013-02-22T08:31:16.000Z</time>
      </trkpt>
      <trkpt lat="44.73615" lon="5.90912">
        <ele>1416</ele>
        <time>2013-02-22T08:31:19.000Z</time>
      </trkpt>
      <trkpt lat="44.73614" lon="5.90913">
        <ele>1414</ele>
        <time>2013-02-22T08:31:20.000Z</time>
      </trkpt>
      <trkpt lat="44.73611" lon="5.90916">
        <ele>1416</ele>
        <time>2013-02-22T08:31:24.000Z</time>
      </trkpt>
      <trkpt lat="44.7361" lon="5.90917">
        <ele>1418</ele>
        <time>2013-02-22T08:31:25.000Z</time>
      </trkpt>
      <trkpt lat="44.73607" lon="5.9092">
        <ele>1418</ele>
        <time>2013-02-22T08:31:28.000Z</time>
      </trkpt>
      <trkpt lat="44.73606" lon="5.90921">
        <ele>1418</ele>
        <time>2013-02-22T08:31:29.000Z</time>
      </trkpt>
      <trkpt lat="44.73604" lon="5.90924">
        <ele>1419</ele>
        <time>2013-02-22T08:31:32.000Z</time>
      </trkpt>
      <trkpt lat="44.73603" lon="5.90926">
        <ele>1419</ele>
        <time>2013-02-22T08:31:33.000Z</time>
      </trkpt>
      <trkpt lat="44.73601" lon="5.90931">
        <ele>1416</ele>
        <time>2013-02-22T08:31:36.000Z</time>
      </trkpt>
      <trkpt lat="44.736" lon="5.90932">
        <ele>1415</ele>
        <time>2013-02-22T08:31:37.000Z</time>
      </trkpt>
      <trkpt lat="44.73599" lon="5.90937">
        <ele>1420</ele>
        <time>2013-02-22T08:31:41.000Z</time>
      </trkpt>
      <trkpt lat="44.73598" lon="5.90939">
        <ele>1419</ele>
        <time>2013-02-22T08:31:42.000Z</time>
      </trkpt>
      <trkpt lat="44.73596" lon="5.90943">
        <ele>1419</ele>
        <time>2013-02-22T08:31:45.000Z</time>
      </trkpt>
      <trkpt lat="44.73594" lon="5.90945">
        <ele>1419</ele>
        <time>2013-02-22T08:31:46.000Z</time>
      </trkpt>
      <trkpt lat="44.73591" lon="5.90949">
        <ele>1417</ele>
        <time>2013-02-22T08:31:49.000Z</time>
      </trkpt>
      <trkpt lat="44.7359" lon="5.9095">
        <ele>1415</ele>
        <time>2013-02-22T08:31:50.000Z</time>
      </trkpt>
      <trkpt lat="44.73587" lon="5.90954">
        <ele>1414</ele>
        <time>2013-02-22T08:31:54.000Z</time>
      </trkpt>
      <trkpt lat="44.73586" lon="5.90955">
        <ele>1417</ele>
        <time>2013-02-22T08:31:55.000Z</time>
      </trkpt>
      <trkpt lat="44.73583" lon="5.90958">
        <ele>1415</ele>
        <time>2013-02-22T08:31:57.000Z</time>
      </trkpt>
      <trkpt lat="44.73583" lon="5.9096">
        <ele>1414</ele>
        <time>2013-02-22T08:31:58.000Z</time>
      </trkpt>
      <trkpt lat="44.73581" lon="5.90965">
        <ele>1417</ele>
        <time>2013-02-22T08:32:01.000Z</time>
      </trkpt>
      <trkpt lat="44.7358" lon="5.90966">
        <ele>1416</ele>
        <time>2013-02-22T08:32:02.000Z</time>
      </trkpt>
      <trkpt lat="44.73579" lon="5.90972">
        <ele>1419</ele>
        <time>2013-02-22T08:32:08.000Z</time>
      </trkpt>
      <trkpt lat="44.73579" lon="5.90973">
        <ele>1419</ele>
        <time>2013-02-22T08:32:09.000Z</time>
      </trkpt>
      <trkpt lat="44.73578" lon="5.90979">
        <ele>1419</ele>
        <time>2013-02-22T08:32:18.000Z</time>
      </trkpt>
      <trkpt lat="44.73578" lon="5.9098">
        <ele>1420</ele>
        <time>2013-02-22T08:32:19.000Z</time>
      </trkpt>
      <trkpt lat="44.73579" lon="5.90986">
        <ele>1420</ele>
        <time>2013-02-22T08:32:22.000Z</time>
      </trkpt>
      <trkpt lat="44.73579" lon="5.90988">
        <ele>1420</ele>
        <time>2013-02-22T08:32:23.000Z</time>
      </trkpt>
      <trkpt lat="44.73581" lon="5.90993">
        <ele>1420</ele>
        <time>2013-02-22T08:32:26.000Z</time>
      </trkpt>
      <trkpt lat="44.73582" lon="5.90995">
        <ele>1419</ele>
        <time>2013-02-22T08:32:27.000Z</time>
      </trkpt>
      <trkpt lat="44.73584" lon="5.90999">
        <ele>1419</ele>
        <time>2013-02-22T08:32:29.000Z</time>
      </trkpt>
      <trkpt lat="44.73584" lon="5.91001">
        <ele>1418</ele>
        <time>2013-02-22T08:32:30.000Z</time>
      </trkpt>
      <trkpt lat="44.73586" lon="5.91006">
        <ele>1417</ele>
        <time>2013-02-22T08:32:33.000Z</time>
      </trkpt>
      <trkpt lat="44.73587" lon="5.91008">
        <ele>1417</ele>
        <time>2013-02-22T08:32:34.000Z</time>
      </trkpt>
      <trkpt lat="44.73588" lon="5.91013">
        <ele>1416</ele>
        <time>2013-02-22T08:32:37.000Z</time>
      </trkpt>
      <trkpt lat="44.73589" lon="5.91015">
        <ele>1417</ele>
        <time>2013-02-22T08:32:38.000Z</time>
      </trkpt>
      <trkpt lat="44.7359" lon="5.9102">
        <ele>1416</ele>
        <time>2013-02-22T08:32:40.000Z</time>
      </trkpt>
      <trkpt lat="44.7359" lon="5.91022">
        <ele>1415</ele>
        <time>2013-02-22T08:32:41.000Z</time>
      </trkpt>
      <trkpt lat="44.73591" lon="5.91027">
        <ele>1414</ele>
        <time>2013-02-22T08:32:44.000Z</time>
      </trkpt>
      <trkpt lat="44.73591" lon="5.91029">
        <ele>1414</ele>
        <time>2013-02-22T08:32:45.000Z</time>
      </trkpt>
      <trkpt lat="44.73592" lon="5.91034">
        <ele>1414</ele>
        <time>2013-02-22T08:32:47.000Z</time>
      </trkpt>
      <trkpt lat="44.73592" lon="5.91036">
        <ele>1415</ele>
        <time>2013-02-22T08:32:48.000Z</time>
      </trkpt>
      <trkpt lat="44.73592" lon="5.91042">
        <ele>1414</ele>
        <time>2013-02-22T08:32:51.000Z</time>
      </trkpt>
      <trkpt lat="44.73592" lon="5.91044">
        <ele>1415</ele>
        <time>2013-02-22T08:32:52.000Z</time>
      </trkpt>
      <trkpt lat="44.73592" lon="5.91049">
        <ele>1416</ele>
        <time>2013-02-22T08:32:55.000Z</time>
      </trkpt>
      <trkpt lat="44.73592" lon="5.91051">
        <ele>1415</ele>
        <time>2013-02-22T08:32:56.000Z</time>
      </trkpt>
      <trkpt lat="44.73593" lon="5.91056">
        <ele>1415</ele>
        <time>2013-02-22T08:32:59.000Z</time>
      </trkpt>
      <trkpt lat="44.73594" lon="5.91059">
        <ele>1415</ele>
        <time>2013-02-22T08:33:00.000Z</time>
      </trkpt>
      <trkpt lat="44.73596" lon="5.91062">
        <ele>1416</ele>
        <time>2013-02-22T08:33:02.000Z</time>
      </trkpt>
      <trkpt lat="44.73597" lon="5.91063">
        <ele>1415</ele>
        <time>2013-02-22T08:33:03.000Z</time>
      </trkpt>
      <trkpt lat="44.73599" lon="5.91067">
        <ele>1413</ele>
        <time>2013-02-22T08:33:05.000Z</time>
      </trkpt>
      <trkpt lat="44.736" lon="5.91068">
        <ele>1413</ele>
        <time>2013-02-22T08:33:06.000Z</time>
      </trkpt>
      <trkpt lat="44.73603" lon="5.91072">
        <ele>1415</ele>
        <time>2013-02-22T08:33:09.000Z</time>
      </trkpt>
      <trkpt lat="44.73604" lon="5.91073">
        <ele>1415</ele>
        <time>2013-02-22T08:33:10.000Z</time>
      </trkpt>
      <trkpt lat="44.73608" lon="5.91077">
        <ele>1417</ele>
        <time>2013-02-22T08:33:13.000Z</time>
      </trkpt>
      <trkpt lat="44.73609" lon="5.91079">
        <ele>1417</ele>
        <time>2013-02-22T08:33:14.000Z</time>
      </trkpt>
      <trkpt lat="44.73611" lon="5.91082">
        <ele>1416</ele>
        <time>2013-02-22T08:33:16.000Z</time>
      </trkpt>
      <trkpt lat="44.73612" lon="5.91084">
        <ele>1414</ele>
        <time>2013-02-22T08:33:17.000Z</time>
      </trkpt>
      <trkpt lat="44.73614" lon="5.91088">
        <ele>1418</ele>
        <time>2013-02-22T08:33:20.000Z</time>
      </trkpt>
      <trkpt lat="44.73615" lon="5.91089">
        <ele>1417</ele>
        <time>2013-02-22T08:33:21.000Z</time>
      </trkpt>
      <trkpt lat="44.73617" lon="5.91092">
        <ele>1417</ele>
        <time>2013-02-22T08:33:23.000Z</time>
      </trkpt>
      <trkpt lat="44.73618" lon="5.91094">
        <ele>1416</ele>
        <time>2013-02-22T08:33:24.000Z</time>
      </trkpt>
      <trkpt lat="44.7362" lon="5.91098">
        <ele>1415</ele>
        <time>2013-02-22T08:33:27.000Z</time>
      </trkpt>
      <trkpt lat="44.73621" lon="5.911">
        <ele>1415</ele>
        <time>2013-02-22T08:33:28.000Z</time>
      </trkpt>
      <trkpt lat="44.73623" lon="5.91103">
        <ele>1415</ele>
        <time>2013-02-22T08:33:30.000Z</time>
      </trkpt>
      <trkpt lat="44.73624" lon="5.91105">
        <ele>1414</ele>
        <time>2013-02-22T08:33:31.000Z</time>
      </trkpt>
      <trkpt lat="44.73627" lon="5.91109">
        <ele>1415</ele>
        <time>2013-02-22T08:33:34.000Z</time>
      </trkpt>
      <trkpt lat="44.73628" lon="5.9111">
        <ele>1415</ele>
        <time>2013-02-22T08:33:35.000Z</time>
      </trkpt>
      <trkpt lat="44.7363" lon="5.91114">
        <ele>1415</ele>
        <time>2013-02-22T08:33:38.000Z</time>
      </trkpt>
      <trkpt lat="44.73631" lon="5.91115">
        <ele>1415</ele>
        <time>2013-02-22T08:33:39.000Z</time>
      </trkpt>
      <trkpt lat="44.73634" lon="5.9112">
        <ele>1416</ele>
        <time>2013-02-22T08:33:42.000Z</time>
      </trkpt>
      <trkpt lat="44.73634" lon="5.91121">
        <ele>1416</ele>
        <time>2013-02-22T08:33:43.000Z</time>
      </trkpt>
      <trkpt lat="44.73637" lon="5.91125">
        <ele>1416</ele>
        <time>2013-02-22T08:33:46.000Z</time>
      </trkpt>
      <trkpt lat="44.73638" lon="5.91126">
        <ele>1416</ele>
        <time>2013-02-22T08:33:47.000Z</time>
      </trkpt>
      <trkpt lat="44.73641" lon="5.9113">
        <ele>1416</ele>
        <time>2013-02-22T08:33:50.000Z</time>
      </trkpt>
      <trkpt lat="44.73642" lon="5.91131">
        <ele>1417</ele>
        <time>2013-02-22T08:33:51.000Z</time>
      </trkpt>
      <trkpt lat="44.73644" lon="5.91134">
        <ele>1412</ele>
        <time>2013-02-22T08:33:54.000Z</time>
      </trkpt>
      <trkpt lat="44.73645" lon="5.91135">
        <ele>1411</ele>
        <time>2013-02-22T08:33:55.000Z</time>
      </trkpt>
      <trkpt lat="44.73648" lon="5.91138">
        <ele>1410</ele>
        <time>2013-02-22T08:33:57.000Z</time>
      </trkpt>
      <trkpt lat="44.73649" lon="5.9114">
        <ele>1411</ele>
        <time>2013-02-22T08:33:58.000Z</time>
      </trkpt>
      <trkpt lat="44.73652" lon="5.91144">
        <ele>1410</ele>
        <time>2013-02-22T08:34:02.000Z</time>
      </trkpt>
      <trkpt lat="44.73653" lon="5.91145">
        <ele>1410</ele>
        <time>2013-02-22T08:34:03.000Z</time>
      </trkpt>
      <trkpt lat="44.73656" lon="5.9115">
        <ele>1412</ele>
        <time>2013-02-22T08:34:07.000Z</time>
      </trkpt>
      <trkpt lat="44.73657" lon="5.91152">
        <ele>1413</ele>
        <time>2013-02-22T08:34:08.000Z</time>
      </trkpt>
      <trkpt lat="44.7366" lon="5.91156">
        <ele>1411</ele>
        <time>2013-02-22T08:34:11.000Z</time>
      </trkpt>
      <trkpt lat="44.7366" lon="5.91158">
        <ele>1411</ele>
        <time>2013-02-22T08:34:12.000Z</time>
      </trkpt>
      <trkpt lat="44.73663" lon="5.91162">
        <ele>1413</ele>
        <time>2013-02-22T08:34:17.000Z</time>
      </trkpt>
      <trkpt lat="44.73664" lon="5.91163">
        <ele>1414</ele>
        <time>2013-02-22T08:34:18.000Z</time>
      </trkpt>
      <trkpt lat="44.73666" lon="5.91168">
        <ele>1415</ele>
        <time>2013-02-22T08:34:23.000Z</time>
      </trkpt>
      <trkpt lat="44.73666" lon="5.9117">
        <ele>1416</ele>
        <time>2013-02-22T08:34:24.000Z</time>
      </trkpt>
      <trkpt lat="44.73666" lon="5.91175">
        <ele>1416</ele>
        <time>2013-02-22T08:34:27.000Z</time>
      </trkpt>
      <trkpt lat="44.73666" lon="5.91176">
        <ele>1418</ele>
        <time>2013-02-22T08:34:28.000Z</time>
      </trkpt>
      <trkpt lat="44.73666" lon="5.91181">
        <ele>1414</ele>
        <time>2013-02-22T08:34:31.000Z</time>
      </trkpt>
      <trkpt lat="44.73667" lon="5.91183">
        <ele>1411</ele>
        <time>2013-02-22T08:34:32.000Z</time>
      </trkpt>
      <trkpt lat="44.73668" lon="5.91187">
        <ele>1409</ele>
        <time>2013-02-22T08:34:35.000Z</time>
      </trkpt>
      <trkpt lat="44.73669" lon="5.91189">
        <ele>1410</ele>
        <time>2013-02-22T08:34:36.000Z</time>
      </trkpt>
      <trkpt lat="44.73669" lon="5.91194">
        <ele>1411</ele>
        <time>2013-02-22T08:34:39.000Z</time>
      </trkpt>
      <trkpt lat="44.73669" lon="5.91196">
        <ele>1412</ele>
        <time>2013-02-22T08:34:40.000Z</time>
      </trkpt>
      <trkpt lat="44.7367" lon="5.912">
        <ele>1411</ele>
        <time>2013-02-22T08:34:42.000Z</time>
      </trkpt>
      <trkpt lat="44.7367" lon="5.91203">
        <ele>1410</ele>
        <time>2013-02-22T08:34:43.000Z</time>
      </trkpt>
      <trkpt lat="44.73672" lon="5.91208">
        <ele>1411</ele>
        <time>2013-02-22T08:34:46.000Z</time>
      </trkpt>
      <trkpt lat="44.73672" lon="5.9121">
        <ele>1411</ele>
        <time>2013-02-22T08:34:47.000Z</time>
      </trkpt>
      <trkpt lat="44.73673" lon="5.91214">
        <ele>1411</ele>
        <time>2013-02-22T08:34:50.000Z</time>
      </trkpt>
      <trkpt lat="44.73673" lon="5.91216">
        <ele>1412</ele>
        <time>2013-02-22T08:34:51.000Z</time>
      </trkpt>
      <trkpt lat="44.73675" lon="5.91221">
        <ele>1413</ele>
        <time>2013-02-22T08:34:54.000Z</time>
      </trkpt>
      <trkpt lat="44.73675" lon="5.91222">
        <ele>1413</ele>
        <time>2013-02-22T08:34:55.000Z</time>
      </trkpt>
      <trkpt lat="44.73676" lon="5.91228">
        <ele>1412</ele>
        <time>2013-02-22T08:34:58.000Z</time>
      </trkpt>
      <trkpt lat="44.73676" lon="5.9123">
        <ele>1412</ele>
        <time>2013-02-22T08:34:59.000Z</time>
      </trkpt>
      <trkpt lat="44.73677" lon="5.91235">
        <ele>1412</ele>
        <time>2013-02-22T08:35:02.000Z</time>
      </trkpt>
      <trkpt lat="44.73677" lon="5.91237">
        <ele>1412</ele>
        <time>2013-02-22T08:35:03.000Z</time>
      </trkpt>
      <trkpt lat="44.73677" lon="5.91242">
        <ele>1410</ele>
        <time>2013-02-22T08:35:06.000Z</time>
      </trkpt>
      <trkpt lat="44.73676" lon="5.91244">
        <ele>1409</ele>
        <time>2013-02-22T08:35:07.000Z</time>
      </trkpt>
      <trkpt lat="44.73676" lon="5.91249">
        <ele>1408</ele>
        <time>2013-02-22T08:35:10.000Z</time>
      </trkpt>
      <trkpt lat="44.73675" lon="5.91251">
        <ele>1408</ele>
        <time>2013-02-22T08:35:11.000Z</time>
      </trkpt>
      <trkpt lat="44.73674" lon="5.91257">
        <ele>1405</ele>
        <time>2013-02-22T08:35:14.000Z</time>
      </trkpt>
      <trkpt lat="44.73674" lon="5.91259">
        <ele>1405</ele>
        <time>2013-02-22T08:35:15.000Z</time>
      </trkpt>
      <trkpt lat="44.73673" lon="5.91263">
        <ele>1406</ele>
        <time>2013-02-22T08:35:17.000Z</time>
      </trkpt>
      <trkpt lat="44.73673" lon="5.91265">
        <ele>1404</ele>
        <time>2013-02-22T08:35:18.000Z</time>
      </trkpt>
      <trkpt lat="44.73671" lon="5.91271">
        <ele>1405</ele>
        <time>2013-02-22T08:35:21.000Z</time>
      </trkpt>
      <trkpt lat="44.7367" lon="5.91273">
        <ele>1407</ele>
        <time>2013-02-22T08:35:22.000Z</time>
      </trkpt>
      <trkpt lat="44.73668" lon="5.91277">
        <ele>1410</ele>
        <time>2013-02-22T08:35:26.000Z</time>
      </trkpt>
      <trkpt lat="44.73668" lon="5.91278">
        <ele>1410</ele>
        <time>2013-02-22T08:35:27.000Z</time>
      </trkpt>
      <trkpt lat="44.73665" lon="5.91282">
        <ele>1410</ele>
        <time>2013-02-22T08:35:33.000Z</time>
      </trkpt>
      <trkpt lat="44.73664" lon="5.91284">
        <ele>1408</ele>
        <time>2013-02-22T08:35:34.000Z</time>
      </trkpt>
      <trkpt lat="44.73663" lon="5.91288">
        <ele>1407</ele>
        <time>2013-02-22T08:35:37.000Z</time>
      </trkpt>
      <trkpt lat="44.73662" lon="5.9129">
        <ele>1408</ele>
        <time>2013-02-22T08:35:38.000Z</time>
      </trkpt>
      <trkpt lat="44.73659" lon="5.91294">
        <ele>1405</ele>
        <time>2013-02-22T08:35:42.000Z</time>
      </trkpt>
      <trkpt lat="44.73659" lon="5.91296">
        <ele>1405</ele>
        <time>2013-02-22T08:35:43.000Z</time>
      </trkpt>
      <trkpt lat="44.73656" lon="5.91301">
        <ele>1404</ele>
        <time>2013-02-22T08:35:47.000Z</time>
      </trkpt>
      <trkpt lat="44.73656" lon="5.91302">
        <ele>1403</ele>
        <time>2013-02-22T08:35:48.000Z</time>
      </trkpt>
      <trkpt lat="44.73654" lon="5.91306">
        <ele>1404</ele>
        <time>2013-02-22T08:35:51.000Z</time>
      </trkpt>
      <trkpt lat="44.73654" lon="5.91308">
        <ele>1403</ele>
        <time>2013-02-22T08:35:52.000Z</time>
      </trkpt>
      <trkpt lat="44.73653" lon="5.91314">
        <ele>1407</ele>
        <time>2013-02-22T08:35:55.000Z</time>
      </trkpt>
      <trkpt lat="44.73652" lon="5.91315">
        <ele>1409</ele>
        <time>2013-02-22T08:35:56.000Z</time>
      </trkpt>
      <trkpt lat="44.73651" lon="5.91319">
        <ele>1407</ele>
        <time>2013-02-22T08:35:59.000Z</time>
      </trkpt>
      <trkpt lat="44.7365" lon="5.91321">
        <ele>1406</ele>
        <time>2013-02-22T08:36:00.000Z</time>
      </trkpt>
      <trkpt lat="44.73648" lon="5.91325">
        <ele>1408</ele>
        <time>2013-02-22T08:36:04.000Z</time>
      </trkpt>
      <trkpt lat="44.73647" lon="5.91326">
        <ele>1407</ele>
        <time>2013-02-22T08:36:05.000Z</time>
      </trkpt>
      <trkpt lat="44.73645" lon="5.91331">
        <ele>1405</ele>
        <time>2013-02-22T08:36:08.000Z</time>
      </trkpt>
      <trkpt lat="44.73645" lon="5.91332">
        <ele>1407</ele>
        <time>2013-02-22T08:36:09.000Z</time>
      </trkpt>
      <trkpt lat="44.73643" lon="5.91336">
        <ele>1408</ele>
        <time>2013-02-22T08:36:12.000Z</time>
      </trkpt>
      <trkpt lat="44.73642" lon="5.91338">
        <ele>1408</ele>
        <time>2013-02-22T08:36:13.000Z</time>
      </trkpt>
      <trkpt lat="44.7364" lon="5.91343">
        <ele>1406</ele>
        <time>2013-02-22T08:36:17.000Z</time>
      </trkpt>
      <trkpt lat="44.7364" lon="5.91345">
        <ele>1407</ele>
        <time>2013-02-22T08:36:18.000Z</time>
      </trkpt>
      <trkpt lat="44.73638" lon="5.9135">
        <ele>1409</ele>
        <time>2013-02-22T08:36:23.000Z</time>
      </trkpt>
      <trkpt lat="44.73638" lon="5.91352">
        <ele>1410</ele>
        <time>2013-02-22T08:36:24.000Z</time>
      </trkpt>
      <trkpt lat="44.73636" lon="5.91358">
        <ele>1408</ele>
        <time>2013-02-22T08:36:28.000Z</time>
      </trkpt>
      <trkpt lat="44.73636" lon="5.9136">
        <ele>1409</ele>
        <time>2013-02-22T08:36:29.000Z</time>
      </trkpt>
      <trkpt lat="44.73634" lon="5.91364">
        <ele>1410</ele>
        <time>2013-02-22T08:36:32.000Z</time>
      </trkpt>
      <trkpt lat="44.73634" lon="5.91366">
        <ele>1409</ele>
        <time>2013-02-22T08:36:33.000Z</time>
      </trkpt>
      <trkpt lat="44.73631" lon="5.9137">
        <ele>1410</ele>
        <time>2013-02-22T08:36:37.000Z</time>
      </trkpt>
      <trkpt lat="44.73631" lon="5.91371">
        <ele>1410</ele>
        <time>2013-02-22T08:36:38.000Z</time>
      </trkpt>
      <trkpt lat="44.73627" lon="5.91375">
        <ele>1407</ele>
        <time>2013-02-22T08:36:42.000Z</time>
      </trkpt>
      <trkpt lat="44.73627" lon="5.91376">
        <ele>1407</ele>
        <time>2013-02-22T08:36:43.000Z</time>
      </trkpt>
      <trkpt lat="44.73623" lon="5.9138">
        <ele>1408</ele>
        <time>2013-02-22T08:36:47.000Z</time>
      </trkpt>
      <trkpt lat="44.73622" lon="5.91381">
        <ele>1408</ele>
        <time>2013-02-22T08:36:48.000Z</time>
      </trkpt>
      <trkpt lat="44.7362" lon="5.91383">
        <ele>1409</ele>
        <time>2013-02-22T08:36:50.000Z</time>
      </trkpt>
      <trkpt lat="44.73618" lon="5.91384">
        <ele>1408</ele>
        <time>2013-02-22T08:36:51.000Z</time>
      </trkpt>
      <trkpt lat="44.73614" lon="5.91387">
        <ele>1408</ele>
        <time>2013-02-22T08:36:55.000Z</time>
      </trkpt>
      <trkpt lat="44.73613" lon="5.91388">
        <ele>1406</ele>
        <time>2013-02-22T08:36:56.000Z</time>
      </trkpt>
      <trkpt lat="44.73609" lon="5.91391">
        <ele>1407</ele>
        <time>2013-02-22T08:36:59.000Z</time>
      </trkpt>
      <trkpt lat="44.73608" lon="5.91392">
        <ele>1406</ele>
        <time>2013-02-22T08:37:00.000Z</time>
      </trkpt>
      <trkpt lat="44.73604" lon="5.91396">
        <ele>1405</ele>
        <time>2013-02-22T08:37:04.000Z</time>
      </trkpt>
      <trkpt lat="44.73603" lon="5.91396">
        <ele>1405</ele>
        <time>2013-02-22T08:37:05.000Z</time>
      </trkpt>
      <trkpt lat="44.73601" lon="5.914">
        <ele>1406</ele>
        <time>2013-02-22T08:37:08.000Z</time>
      </trkpt>
      <trkpt lat="44.736" lon="5.91401">
        <ele>1405</ele>
        <time>2013-02-22T08:37:09.000Z</time>
      </trkpt>
      <trkpt lat="44.73597" lon="5.91403">
        <ele>1405</ele>
        <time>2013-02-22T08:37:12.000Z</time>
      </trkpt>
      <trkpt lat="44.73596" lon="5.91404">
        <ele>1406</ele>
        <time>2013-02-22T08:37:13.000Z</time>
      </trkpt>
      <trkpt lat="44.73592" lon="5.91407">
        <ele>1407</ele>
        <time>2013-02-22T08:37:16.000Z</time>
      </trkpt>
      <trkpt lat="44.73591" lon="5.91407">
        <ele>1405</ele>
        <time>2013-02-22T08:37:17.000Z</time>
      </trkpt>
      <trkpt lat="44.73587" lon="5.9141">
        <ele>1408</ele>
        <time>2013-02-22T08:37:21.000Z</time>
      </trkpt>
      <trkpt lat="44.73586" lon="5.91411">
        <ele>1408</ele>
        <time>2013-02-22T08:37:22.000Z</time>
      </trkpt>
      <trkpt lat="44.73583" lon="5.91413">
        <ele>1406</ele>
        <time>2013-02-22T08:37:24.000Z</time>
      </trkpt>
      <trkpt lat="44.73581" lon="5.91414">
        <ele>1406</ele>
        <time>2013-02-22T08:37:25.000Z</time>
      </trkpt>
      <trkpt lat="44.73578" lon="5.91416">
        <ele>1406</ele>
        <time>2013-02-22T08:37:27.000Z</time>
      </trkpt>
      <trkpt lat="44.73577" lon="5.91417">
        <ele>1405</ele>
        <time>2013-02-22T08:37:28.000Z</time>
      </trkpt>
      <trkpt lat="44.73573" lon="5.91419">
        <ele>1406</ele>
        <time>2013-02-22T08:37:32.000Z</time>
      </trkpt>
      <trkpt lat="44.73572" lon="5.9142">
        <ele>1404</ele>
        <time>2013-02-22T08:37:33.000Z</time>
      </trkpt>
      <trkpt lat="44.73568" lon="5.91423">
        <ele>1411</ele>
        <time>2013-02-22T08:37:37.000Z</time>
      </trkpt>
      <trkpt lat="44.73567" lon="5.91423">
        <ele>1409</ele>
        <time>2013-02-22T08:37:38.000Z</time>
      </trkpt>
      <trkpt lat="44.73563" lon="5.91427">
        <ele>1412</ele>
        <time>2013-02-22T08:37:41.000Z</time>
      </trkpt>
      <trkpt lat="44.73562" lon="5.91428">
        <ele>1413</ele>
        <time>2013-02-22T08:37:42.000Z</time>
      </trkpt>
      <trkpt lat="44.73559" lon="5.91431">
        <ele>1411</ele>
        <time>2013-02-22T08:37:47.000Z</time>
      </trkpt>
      <trkpt lat="44.73558" lon="5.91432">
        <ele>1410</ele>
        <time>2013-02-22T08:37:48.000Z</time>
      </trkpt>
      <trkpt lat="44.73555" lon="5.91437">
        <ele>1406</ele>
        <time>2013-02-22T08:37:52.000Z</time>
      </trkpt>
      <trkpt lat="44.73555" lon="5.91438">
        <ele>1407</ele>
        <time>2013-02-22T08:37:53.000Z</time>
      </trkpt>
      <trkpt lat="44.73553" lon="5.91442">
        <ele>1408</ele>
        <time>2013-02-22T08:37:57.000Z</time>
      </trkpt>
      <trkpt lat="44.73552" lon="5.91444">
        <ele>1408</ele>
        <time>2013-02-22T08:37:58.000Z</time>
      </trkpt>
      <trkpt lat="44.7355" lon="5.91448">
        <ele>1407</ele>
        <time>2013-02-22T08:38:02.000Z</time>
      </trkpt>
      <trkpt lat="44.7355" lon="5.9145">
        <ele>1409</ele>
        <time>2013-02-22T08:38:03.000Z</time>
      </trkpt>
      <trkpt lat="44.73548" lon="5.91454">
        <ele>1407</ele>
        <time>2013-02-22T08:38:07.000Z</time>
      </trkpt>
      <trkpt lat="44.73548" lon="5.91456">
        <ele>1406</ele>
        <time>2013-02-22T08:38:08.000Z</time>
      </trkpt>
      <trkpt lat="44.73546" lon="5.91462">
        <ele>1405</ele>
        <time>2013-02-22T08:38:12.000Z</time>
      </trkpt>
      <trkpt lat="44.73546" lon="5.91463">
        <ele>1405</ele>
        <time>2013-02-22T08:38:13.000Z</time>
      </trkpt>
      <trkpt lat="44.73544" lon="5.91468">
        <ele>1404</ele>
        <time>2013-02-22T08:38:16.000Z</time>
      </trkpt>
      <trkpt lat="44.73544" lon="5.91469">
        <ele>1405</ele>
        <time>2013-02-22T08:38:17.000Z</time>
      </trkpt>
      <trkpt lat="44.73543" lon="5.91475">
        <ele>1403</ele>
        <time>2013-02-22T08:38:21.000Z</time>
      </trkpt>
      <trkpt lat="44.73542" lon="5.91476">
        <ele>1403</ele>
        <time>2013-02-22T08:38:22.000Z</time>
      </trkpt>
      <trkpt lat="44.7354" lon="5.91481">
        <ele>1405</ele>
        <time>2013-02-22T08:38:26.000Z</time>
      </trkpt>
      <trkpt lat="44.73539" lon="5.91482">
        <ele>1407</ele>
        <time>2013-02-22T08:38:27.000Z</time>
      </trkpt>
      <trkpt lat="44.73538" lon="5.91487">
        <ele>1407</ele>
        <time>2013-02-22T08:38:31.000Z</time>
      </trkpt>
      <trkpt lat="44.73537" lon="5.91488">
        <ele>1408</ele>
        <time>2013-02-22T08:38:32.000Z</time>
      </trkpt>
      <trkpt lat="44.73534" lon="5.91493">
        <ele>1409</ele>
        <time>2013-02-22T08:38:36.000Z</time>
      </trkpt>
      <trkpt lat="44.73534" lon="5.91494">
        <ele>1409</ele>
        <time>2013-02-22T08:38:37.000Z</time>
      </trkpt>
      <trkpt lat="44.73532" lon="5.91498">
        <ele>1410</ele>
        <time>2013-02-22T08:38:42.000Z</time>
      </trkpt>
      <trkpt lat="44.73532" lon="5.915">
        <ele>1408</ele>
        <time>2013-02-22T08:38:43.000Z</time>
      </trkpt>
      <trkpt lat="44.7353" lon="5.91505">
        <ele>1408</ele>
        <time>2013-02-22T08:38:47.000Z</time>
      </trkpt>
      <trkpt lat="44.7353" lon="5.91506">
        <ele>1407</ele>
        <time>2013-02-22T08:38:48.000Z</time>
      </trkpt>
      <trkpt lat="44.73528" lon="5.91511">
        <ele>1407</ele>
        <time>2013-02-22T08:38:52.000Z</time>
      </trkpt>
      <trkpt lat="44.73528" lon="5.91512">
        <ele>1408</ele>
        <time>2013-02-22T08:38:53.000Z</time>
      </trkpt>
      <trkpt lat="44.73526" lon="5.91517">
        <ele>1408</ele>
        <time>2013-02-22T08:38:58.000Z</time>
      </trkpt>
      <trkpt lat="44.73526" lon="5.91518">
        <ele>1409</ele>
        <time>2013-02-22T08:38:59.000Z</time>
      </trkpt>
      <trkpt lat="44.73524" lon="5.91524">
        <ele>1410</ele>
        <time>2013-02-22T08:39:04.000Z</time>
      </trkpt>
      <trkpt lat="44.73524" lon="5.91526">
        <ele>1410</ele>
        <time>2013-02-22T08:39:05.000Z</time>
      </trkpt>
      <trkpt lat="44.73523" lon="5.91531">
        <ele>1410</ele>
        <time>2013-02-22T08:39:09.000Z</time>
      </trkpt>
      <trkpt lat="44.73522" lon="5.91532">
        <ele>1410</ele>
        <time>2013-02-22T08:39:10.000Z</time>
      </trkpt>
      <trkpt lat="44.73521" lon="5.91537">
        <ele>1412</ele>
        <time>2013-02-22T08:39:14.000Z</time>
      </trkpt>
      <trkpt lat="44.7352" lon="5.91539">
        <ele>1412</ele>
        <time>2013-02-22T08:39:15.000Z</time>
      </trkpt>
      <trkpt lat="44.73519" lon="5.91545">
        <ele>1412</ele>
        <time>2013-02-22T08:39:21.000Z</time>
      </trkpt>
      <trkpt lat="44.73519" lon="5.91546">
        <ele>1413</ele>
        <time>2013-02-22T08:39:22.000Z</time>
      </trkpt>
      <trkpt lat="44.73519" lon="5.91552">
        <ele>1413</ele>
        <time>2013-02-22T08:39:26.000Z</time>
      </trkpt>
      <trkpt lat="44.73519" lon="5.91554">
        <ele>1414</ele>
        <time>2013-02-22T08:39:27.000Z</time>
      </trkpt>
      <trkpt lat="44.7352" lon="5.91559">
        <ele>1414</ele>
        <time>2013-02-22T08:39:32.000Z</time>
      </trkpt>
      <trkpt lat="44.7352" lon="5.9156">
        <ele>1414</ele>
        <time>2013-02-22T08:39:33.000Z</time>
      </trkpt>
      <trkpt lat="44.7352" lon="5.91566">
        <ele>1412</ele>
        <time>2013-02-22T08:39:37.000Z</time>
      </trkpt>
      <trkpt lat="44.7352" lon="5.91569">
        <ele>1411</ele>
        <time>2013-02-22T08:39:38.000Z</time>
      </trkpt>
      <trkpt lat="44.7352" lon="5.91575">
        <ele>1411</ele>
        <time>2013-02-22T08:39:42.000Z</time>
      </trkpt>
      <trkpt lat="44.73521" lon="5.91577">
        <ele>1410</ele>
        <time>2013-02-22T08:39:43.000Z</time>
      </trkpt>
      <trkpt lat="44.73521" lon="5.91583">
        <ele>1416</ele>
        <time>2013-02-22T08:39:49.000Z</time>
      </trkpt>
      <trkpt lat="44.73521" lon="5.91583">
        <ele>1417</ele>
        <time>2013-02-22T08:39:50.000Z</time>
      </trkpt>
      <trkpt lat="44.7352" lon="5.9159">
        <ele>1418</ele>
        <time>2013-02-22T08:39:56.000Z</time>
      </trkpt>
      <trkpt lat="44.7352" lon="5.91591">
        <ele>1418</ele>
        <time>2013-02-22T08:39:57.000Z</time>
      </trkpt>
      <trkpt lat="44.7352" lon="5.91596">
        <ele>1418</ele>
        <time>2013-02-22T08:40:01.000Z</time>
      </trkpt>
      <trkpt lat="44.7352" lon="5.91597">
        <ele>1418</ele>
        <time>2013-02-22T08:40:02.000Z</time>
      </trkpt>
      <trkpt lat="44.7352" lon="5.91603">
        <ele>1417</ele>
        <time>2013-02-22T08:40:06.000Z</time>
      </trkpt>
      <trkpt lat="44.7352" lon="5.91604">
        <ele>1417</ele>
        <time>2013-02-22T08:40:07.000Z</time>
      </trkpt>
      <trkpt lat="44.73521" lon="5.91611">
        <ele>1418</ele>
        <time>2013-02-22T08:40:12.000Z</time>
      </trkpt>
      <trkpt lat="44.7352" lon="5.91612">
        <ele>1418</ele>
        <time>2013-02-22T08:40:13.000Z</time>
      </trkpt>
      <trkpt lat="44.7352" lon="5.91617">
        <ele>1419</ele>
        <time>2013-02-22T08:40:17.000Z</time>
      </trkpt>
      <trkpt lat="44.7352" lon="5.91618">
        <ele>1419</ele>
        <time>2013-02-22T08:40:18.000Z</time>
      </trkpt>
      <trkpt lat="44.7352" lon="5.91624">
        <ele>1418</ele>
        <time>2013-02-22T08:40:22.000Z</time>
      </trkpt>
      <trkpt lat="44.7352" lon="5.91625">
        <ele>1419</ele>
        <time>2013-02-22T08:40:23.000Z</time>
      </trkpt>
      <trkpt lat="44.73519" lon="5.91631">
        <ele>1420</ele>
        <time>2013-02-22T08:40:28.000Z</time>
      </trkpt>
      <trkpt lat="44.73519" lon="5.91633">
        <ele>1420</ele>
        <time>2013-02-22T08:40:29.000Z</time>
      </trkpt>
      <trkpt lat="44.73519" lon="5.91638">
        <ele>1420</ele>
        <time>2013-02-22T08:40:34.000Z</time>
      </trkpt>
      <trkpt lat="44.73519" lon="5.9164">
        <ele>1420</ele>
        <time>2013-02-22T08:40:35.000Z</time>
      </trkpt>
      <trkpt lat="44.7352" lon="5.91645">
        <ele>1419</ele>
        <time>2013-02-22T08:40:40.000Z</time>
      </trkpt>
      <trkpt lat="44.73521" lon="5.91646">
        <ele>1420</ele>
        <time>2013-02-22T08:40:41.000Z</time>
      </trkpt>
      <trkpt lat="44.73523" lon="5.91651">
        <ele>1420</ele>
        <time>2013-02-22T08:40:45.000Z</time>
      </trkpt>
      <trkpt lat="44.73523" lon="5.91652">
        <ele>1420</ele>
        <time>2013-02-22T08:40:46.000Z</time>
      </trkpt>
      <trkpt lat="44.73525" lon="5.91657">
        <ele>1422</ele>
        <time>2013-02-22T08:40:50.000Z</time>
      </trkpt>
      <trkpt lat="44.73525" lon="5.91658">
        <ele>1422</ele>
        <time>2013-02-22T08:40:51.000Z</time>
      </trkpt>
      <trkpt lat="44.73527" lon="5.91662">
        <ele>1422</ele>
        <time>2013-02-22T08:40:56.000Z</time>
      </trkpt>
      <trkpt lat="44.73528" lon="5.91663">
        <ele>1422</ele>
        <time>2013-02-22T08:40:57.000Z</time>
      </trkpt>
      <trkpt lat="44.73531" lon="5.91667">
        <ele>1422</ele>
        <time>2013-02-22T08:41:02.000Z</time>
      </trkpt>
      <trkpt lat="44.73532" lon="5.91667">
        <ele>1422</ele>
        <time>2013-02-22T08:41:03.000Z</time>
      </trkpt>
      <trkpt lat="44.73535" lon="5.91671">
        <ele>1435</ele>
        <time>2013-02-22T08:41:51.000Z</time>
      </trkpt>
      <trkpt lat="44.73536" lon="5.91671">
        <ele>1434</ele>
        <time>2013-02-22T08:41:52.000Z</time>
      </trkpt>
      <trkpt lat="44.73537" lon="5.91676">
        <ele>1420</ele>
        <time>2013-02-22T08:41:56.000Z</time>
      </trkpt>
      <trkpt lat="44.73537" lon="5.91678">
        <ele>1417</ele>
        <time>2013-02-22T08:41:57.000Z</time>
      </trkpt>
      <trkpt lat="44.73538" lon="5.91684">
        <ele>1409</ele>
        <time>2013-02-22T08:42:02.000Z</time>
      </trkpt>
      <trkpt lat="44.73538" lon="5.91684">
        <ele>1408</ele>
        <time>2013-02-22T08:42:03.000Z</time>
      </trkpt>
      <trkpt lat="44.7354" lon="5.91679">
        <ele>1418</ele>
        <time>2013-02-22T08:42:23.000Z</time>
      </trkpt>
      <trkpt lat="44.73539" lon="5.91678">
        <ele>1419</ele>
        <time>2013-02-22T08:42:24.000Z</time>
      </trkpt>
      <trkpt lat="44.73536" lon="5.91673">
        <ele>1418</ele>
        <time>2013-02-22T08:42:31.000Z</time>
      </trkpt>
      <trkpt lat="44.73536" lon="5.91673">
        <ele>1418</ele>
        <time>2013-02-22T08:42:32.000Z</time>
      </trkpt>
      <trkpt lat="44.73533" lon="5.91669">
        <ele>1428</ele>
        <time>2013-02-22T08:43:01.000Z</time>
      </trkpt>
      <trkpt lat="44.73532" lon="5.91668">
        <ele>1426</ele>
        <time>2013-02-22T08:43:02.000Z</time>
      </trkpt>
      <trkpt lat="44.7353" lon="5.91664">
        <ele>1423</ele>
        <time>2013-02-22T08:43:09.000Z</time>
      </trkpt>
      <trkpt lat="44.73529" lon="5.91663">
        <ele>1424</ele>
        <time>2013-02-22T08:43:10.000Z</time>
      </trkpt>
      <trkpt lat="44.73528" lon="5.91658">
        <ele>1421</ele>
        <time>2013-02-22T08:43:24.000Z</time>
      </trkpt>
      <trkpt lat="44.73529" lon="5.91656">
        <ele>1422</ele>
        <time>2013-02-22T08:43:25.000Z</time>
      </trkpt>
      <trkpt lat="44.73531" lon="5.91652">
        <ele>1420</ele>
        <time>2013-02-22T08:43:31.000Z</time>
      </trkpt>
      <trkpt lat="44.73532" lon="5.91651">
        <ele>1419</ele>
        <time>2013-02-22T08:43:32.000Z</time>
      </trkpt>
      <trkpt lat="44.73531" lon="5.91645">
        <ele>1415</ele>
        <time>2013-02-22T08:43:48.000Z</time>
      </trkpt>
      <trkpt lat="44.7353" lon="5.91644">
        <ele>1415</ele>
        <time>2013-02-22T08:43:49.000Z</time>
      </trkpt>
      <trkpt lat="44.73528" lon="5.9164">
        <ele>1415</ele>
        <time>2013-02-22T08:43:54.000Z</time>
      </trkpt>
      <trkpt lat="44.73527" lon="5.91639">
        <ele>1415</ele>
        <time>2013-02-22T08:43:55.000Z</time>
      </trkpt>
      <trkpt lat="44.73524" lon="5.91635">
        <ele>1418</ele>
        <time>2013-02-22T08:43:59.000Z</time>
      </trkpt>
      <trkpt lat="44.73523" lon="5.91634">
        <ele>1419</ele>
        <time>2013-02-22T08:44:00.000Z</time>
      </trkpt>
      <trkpt lat="44.73524" lon="5.91639">
        <ele>1436</ele>
        <time>2013-02-22T08:44:17.000Z</time>
      </trkpt>
      <trkpt lat="44.73524" lon="5.91641">
        <ele>1440</ele>
        <time>2013-02-22T08:44:18.000Z</time>
      </trkpt>
      <trkpt lat="44.73525" lon="5.91646">
        <ele>1430</ele>
        <time>2013-02-22T08:44:24.000Z</time>
      </trkpt>
      <trkpt lat="44.73525" lon="5.91647">
        <ele>1430</ele>
        <time>2013-02-22T08:44:25.000Z</time>
      </trkpt>
      <trkpt lat="44.73527" lon="5.91652">
        <ele>1423</ele>
        <time>2013-02-22T08:44:36.000Z</time>
      </trkpt>
      <trkpt lat="44.73527" lon="5.91653">
        <ele>1422</ele>
        <time>2013-02-22T08:44:37.000Z</time>
      </trkpt>
      <trkpt lat="44.73526" lon="5.91658">
        <ele>1425</ele>
        <time>2013-02-22T08:44:50.000Z</time>
      </trkpt>
      <trkpt lat="44.73526" lon="5.91662">
        <ele>1425</ele>
        <time>2013-02-22T08:44:51.000Z</time>
      </trkpt>
      <trkpt lat="44.73526" lon="5.91666">
        <ele>1427</ele>
        <time>2013-02-22T08:44:52.000Z</time>
      </trkpt>
      <trkpt lat="44.73527" lon="5.9167">
        <ele>1429</ele>
        <time>2013-02-22T08:44:53.000Z</time>
      </trkpt>
      <trkpt lat="44.73526" lon="5.91665">
        <ele>1424</ele>
        <time>2013-02-22T08:45:01.000Z</time>
      </trkpt>
      <trkpt lat="44.73526" lon="5.91663">
        <ele>1424</ele>
        <time>2013-02-22T08:45:02.000Z</time>
      </trkpt>
      <trkpt lat="44.73529" lon="5.91666">
        <ele>1415</ele>
        <time>2013-02-22T08:45:33.000Z</time>
      </trkpt>
      <trkpt lat="44.7353" lon="5.91667">
        <ele>1419</ele>
        <time>2013-02-22T08:45:34.000Z</time>
      </trkpt>
      <trkpt lat="44.73534" lon="5.91667">
        <ele>1420</ele>
        <time>2013-02-22T08:46:45.000Z</time>
      </trkpt>
      <trkpt lat="44.73535" lon="5.91668">
        <ele>1422</ele>
        <time>2013-02-22T08:46:46.000Z</time>
      </trkpt>
      <trkpt lat="44.73538" lon="5.9167">
        <ele>1421</ele>
        <time>2013-02-22T08:46:50.000Z</time>
      </trkpt>
      <trkpt lat="44.73539" lon="5.91672">
        <ele>1421</ele>
        <time>2013-02-22T08:46:51.000Z</time>
      </trkpt>
      <trkpt lat="44.73543" lon="5.91675">
        <ele>1422</ele>
        <time>2013-02-22T08:46:55.000Z</time>
      </trkpt>
      <trkpt lat="44.73544" lon="5.91675">
        <ele>1421</ele>
        <time>2013-02-22T08:46:56.000Z</time>
      </trkpt>
      <trkpt lat="44.73548" lon="5.91678">
        <ele>1422</ele>
        <time>2013-02-22T08:47:00.000Z</time>
      </trkpt>
      <trkpt lat="44.73549" lon="5.91679">
        <ele>1422</ele>
        <time>2013-02-22T08:47:01.000Z</time>
      </trkpt>
      <trkpt lat="44.73552" lon="5.91682">
        <ele>1423</ele>
        <time>2013-02-22T08:47:06.000Z</time>
      </trkpt>
      <trkpt lat="44.73553" lon="5.91682">
        <ele>1423</ele>
        <time>2013-02-22T08:47:07.000Z</time>
      </trkpt>
      <trkpt lat="44.73556" lon="5.91685">
        <ele>1426</ele>
        <time>2013-02-22T08:47:12.000Z</time>
      </trkpt>
      <trkpt lat="44.73557" lon="5.91685">
        <ele>1426</ele>
        <time>2013-02-22T08:47:13.000Z</time>
      </trkpt>
      <trkpt lat="44.73561" lon="5.91689">
        <ele>1423</ele>
        <time>2013-02-22T08:47:17.000Z</time>
      </trkpt>
      <trkpt lat="44.73562" lon="5.91689">
        <ele>1423</ele>
        <time>2013-02-22T08:47:18.000Z</time>
      </trkpt>
      <trkpt lat="44.73564" lon="5.91693">
        <ele>1427</ele>
        <time>2013-02-22T08:47:23.000Z</time>
      </trkpt>
      <trkpt lat="44.73565" lon="5.91694">
        <ele>1427</ele>
        <time>2013-02-22T08:47:24.000Z</time>
      </trkpt>
      <trkpt lat="44.73567" lon="5.91699">
        <ele>1429</ele>
        <time>2013-02-22T08:47:29.000Z</time>
      </trkpt>
      <trkpt lat="44.73567" lon="5.917">
        <ele>1429</ele>
        <time>2013-02-22T08:47:30.000Z</time>
      </trkpt>
      <trkpt lat="44.73568" lon="5.91706">
        <ele>1433</ele>
        <time>2013-02-22T08:47:35.000Z</time>
      </trkpt>
      <trkpt lat="44.73568" lon="5.91707">
        <ele>1433</ele>
        <time>2013-02-22T08:47:36.000Z</time>
      </trkpt>
      <trkpt lat="44.73569" lon="5.91712">
        <ele>1435</ele>
        <time>2013-02-22T08:47:41.000Z</time>
      </trkpt>
      <trkpt lat="44.73569" lon="5.91713">
        <ele>1435</ele>
        <time>2013-02-22T08:47:42.000Z</time>
      </trkpt>
      <trkpt lat="44.73571" lon="5.91718">
        <ele>1436</ele>
        <time>2013-02-22T08:47:46.000Z</time>
      </trkpt>
      <trkpt lat="44.73572" lon="5.91719">
        <ele>1435</ele>
        <time>2013-02-22T08:47:47.000Z</time>
      </trkpt>
      <trkpt lat="44.73574" lon="5.91724">
        <ele>1441</ele>
        <time>2013-02-22T08:47:54.000Z</time>
      </trkpt>
      <trkpt lat="44.73575" lon="5.91725">
        <ele>1442</ele>
        <time>2013-02-22T08:47:55.000Z</time>
      </trkpt>
      <trkpt lat="44.73575" lon="5.91731">
        <ele>1441</ele>
        <time>2013-02-22T08:48:01.000Z</time>
      </trkpt>
      <trkpt lat="44.73575" lon="5.91732">
        <ele>1441</ele>
        <time>2013-02-22T08:48:02.000Z</time>
      </trkpt>
      <trkpt lat="44.73575" lon="5.91737">
        <ele>1442</ele>
        <time>2013-02-22T08:48:07.000Z</time>
      </trkpt>
      <trkpt lat="44.73576" lon="5.91738">
        <ele>1442</ele>
        <time>2013-02-22T08:48:08.000Z</time>
      </trkpt>
      <trkpt lat="44.73577" lon="5.91744">
        <ele>1441</ele>
        <time>2013-02-22T08:48:15.000Z</time>
      </trkpt>
      <trkpt lat="44.73577" lon="5.91745">
        <ele>1442</ele>
        <time>2013-02-22T08:48:16.000Z</time>
      </trkpt>
      <trkpt lat="44.73577" lon="5.91751">
        <ele>1444</ele>
        <time>2013-02-22T08:48:21.000Z</time>
      </trkpt>
      <trkpt lat="44.73577" lon="5.91752">
        <ele>1445</ele>
        <time>2013-02-22T08:48:22.000Z</time>
      </trkpt>
      <trkpt lat="44.73578" lon="5.91758">
        <ele>1443</ele>
        <time>2013-02-22T08:48:29.000Z</time>
      </trkpt>
      <trkpt lat="44.73579" lon="5.91759">
        <ele>1443</ele>
        <time>2013-02-22T08:48:30.000Z</time>
      </trkpt>
      <trkpt lat="44.7358" lon="5.91764">
        <ele>1442</ele>
        <time>2013-02-22T08:48:37.000Z</time>
      </trkpt>
      <trkpt lat="44.7358" lon="5.91765">
        <ele>1441</ele>
        <time>2013-02-22T08:48:38.000Z</time>
      </trkpt>
      <trkpt lat="44.73581" lon="5.91771">
        <ele>1441</ele>
        <time>2013-02-22T08:48:55.000Z</time>
      </trkpt>
      <trkpt lat="44.73582" lon="5.91772">
        <ele>1441</ele>
        <time>2013-02-22T08:48:56.000Z</time>
      </trkpt>
      <trkpt lat="44.73583" lon="5.91778">
        <ele>1446</ele>
        <time>2013-02-22T08:49:02.000Z</time>
      </trkpt>
      <trkpt lat="44.73583" lon="5.91779">
        <ele>1445</ele>
        <time>2013-02-22T08:49:03.000Z</time>
      </trkpt>
      <trkpt lat="44.73585" lon="5.91784">
        <ele>1444</ele>
        <time>2013-02-22T08:49:09.000Z</time>
      </trkpt>
      <trkpt lat="44.73585" lon="5.91785">
        <ele>1444</ele>
        <time>2013-02-22T08:49:10.000Z</time>
      </trkpt>
      <trkpt lat="44.73585" lon="5.91791">
        <ele>1448</ele>
        <time>2013-02-22T08:49:17.000Z</time>
      </trkpt>
      <trkpt lat="44.73585" lon="5.91792">
        <ele>1447</ele>
        <time>2013-02-22T08:49:18.000Z</time>
      </trkpt>
      <trkpt lat="44.73586" lon="5.91798">
        <ele>1451</ele>
        <time>2013-02-22T08:49:26.000Z</time>
      </trkpt>
      <trkpt lat="44.73586" lon="5.91798">
        <ele>1451</ele>
        <time>2013-02-22T08:49:27.000Z</time>
      </trkpt>
      <trkpt lat="44.73588" lon="5.91804">
        <ele>1451</ele>
        <time>2013-02-22T08:49:35.000Z</time>
      </trkpt>
      <trkpt lat="44.73588" lon="5.91804">
        <ele>1450</ele>
        <time>2013-02-22T08:49:36.000Z</time>
      </trkpt>
      <trkpt lat="44.73593" lon="5.91805">
        <ele>1450</ele>
        <time>2013-02-22T08:49:43.000Z</time>
      </trkpt>
      <trkpt lat="44.73593" lon="5.91805">
        <ele>1449</ele>
        <time>2013-02-22T08:49:44.000Z</time>
      </trkpt>
      <trkpt lat="44.73596" lon="5.918">
        <ele>1452</ele>
        <time>2013-02-22T08:50:15.000Z</time>
      </trkpt>
      <trkpt lat="44.73596" lon="5.918">
        <ele>1453</ele>
        <time>2013-02-22T08:50:16.000Z</time>
      </trkpt>
      <trkpt lat="44.73599" lon="5.91803">
        <ele>1454</ele>
        <time>2013-02-22T08:51:37.000Z</time>
      </trkpt>
      <trkpt lat="44.736" lon="5.91803">
        <ele>1454</ele>
        <time>2013-02-22T08:51:38.000Z</time>
      </trkpt>
      <trkpt lat="44.73604" lon="5.91803">
        <ele>1453</ele>
        <time>2013-02-22T08:52:00.000Z</time>
      </trkpt>
      <trkpt lat="44.73605" lon="5.91803">
        <ele>1455</ele>
        <time>2013-02-22T08:52:01.000Z</time>
      </trkpt>
      <trkpt lat="44.73609" lon="5.91801">
        <ele>1460</ele>
        <time>2013-02-22T08:52:14.000Z</time>
      </trkpt>
      <trkpt lat="44.73609" lon="5.91801">
        <ele>1458</ele>
        <time>2013-02-22T08:52:15.000Z</time>
      </trkpt>
      <trkpt lat="44.73613" lon="5.91804">
        <ele>1457</ele>
        <time>2013-02-22T08:52:26.000Z</time>
      </trkpt>
      <trkpt lat="44.73613" lon="5.91805">
        <ele>1456</ele>
        <time>2013-02-22T08:52:27.000Z</time>
      </trkpt>
      <trkpt lat="44.73617" lon="5.91804">
        <ele>1461</ele>
        <time>2013-02-22T08:52:46.000Z</time>
      </trkpt>
      <trkpt lat="44.73618" lon="5.91804">
        <ele>1461</ele>
        <time>2013-02-22T08:52:47.000Z</time>
      </trkpt>
      <trkpt lat="44.73619" lon="5.91798">
        <ele>1467</ele>
        <time>2013-02-22T08:53:13.000Z</time>
      </trkpt>
      <trkpt lat="44.73619" lon="5.91798">
        <ele>1466</ele>
        <time>2013-02-22T08:53:14.000Z</time>
      </trkpt>
      <trkpt lat="44.73624" lon="5.91796">
        <ele>1460</ele>
        <time>2013-02-22T08:53:29.000Z</time>
      </trkpt>
      <trkpt lat="44.73624" lon="5.91797">
        <ele>1462</ele>
        <time>2013-02-22T08:53:30.000Z</time>
      </trkpt>
      <trkpt lat="44.73628" lon="5.91801">
        <ele>1465</ele>
        <time>2013-02-22T08:53:57.000Z</time>
      </trkpt>
      <trkpt lat="44.73628" lon="5.91801">
        <ele>1465</ele>
        <time>2013-02-22T08:53:58.000Z</time>
      </trkpt>
      <trkpt lat="44.73631" lon="5.91805">
        <ele>1469</ele>
        <time>2013-02-22T08:54:20.000Z</time>
      </trkpt>
      <trkpt lat="44.73632" lon="5.91805">
        <ele>1468</ele>
        <time>2013-02-22T08:54:21.000Z</time>
      </trkpt>
      <trkpt lat="44.73634" lon="5.91799">
        <ele>1472</ele>
        <time>2013-02-22T08:54:43.000Z</time>
      </trkpt>
      <trkpt lat="44.73634" lon="5.91799">
        <ele>1472</ele>
        <time>2013-02-22T08:54:44.000Z</time>
      </trkpt>
      <trkpt lat="44.73638" lon="5.918">
        <ele>1472</ele>
        <time>2013-02-22T08:55:17.000Z</time>
      </trkpt>
      <trkpt lat="44.73638" lon="5.918">
        <ele>1471</ele>
        <time>2013-02-22T08:55:18.000Z</time>
      </trkpt>
      <trkpt lat="44.73641" lon="5.91795">
        <ele>1475</ele>
        <time>2013-02-22T08:55:27.000Z</time>
      </trkpt>
      <trkpt lat="44.73642" lon="5.91794">
        <ele>1475</ele>
        <time>2013-02-22T08:55:28.000Z</time>
      </trkpt>
      <trkpt lat="44.73642" lon="5.91788">
        <ele>1481</ele>
        <time>2013-02-22T08:56:04.000Z</time>
      </trkpt>
      <trkpt lat="44.73642" lon="5.91788">
        <ele>1480</ele>
        <time>2013-02-22T08:56:05.000Z</time>
      </trkpt>
      <trkpt lat="44.73644" lon="5.91783">
        <ele>1482</ele>
        <time>2013-02-22T08:56:18.000Z</time>
      </trkpt>
      <trkpt lat="44.73645" lon="5.91783">
        <ele>1482</ele>
        <time>2013-02-22T08:56:19.000Z</time>
      </trkpt>
      <trkpt lat="44.73648" lon="5.91779">
        <ele>1481</ele>
        <time>2013-02-22T08:56:27.000Z</time>
      </trkpt>
      <trkpt lat="44.73649" lon="5.91779">
        <ele>1480</ele>
        <time>2013-02-22T08:56:28.000Z</time>
      </trkpt>
      <trkpt lat="44.73651" lon="5.91774">
        <ele>1481</ele>
        <time>2013-02-22T08:56:36.000Z</time>
      </trkpt>
      <trkpt lat="44.73651" lon="5.91773">
        <ele>1480</ele>
        <time>2013-02-22T08:56:37.000Z</time>
      </trkpt>
      <trkpt lat="44.73653" lon="5.91767">
        <ele>1478</ele>
        <time>2013-02-22T08:57:29.000Z</time>
      </trkpt>
      <trkpt lat="44.73653" lon="5.91767">
        <ele>1478</ele>
        <time>2013-02-22T08:57:30.000Z</time>
      </trkpt>
      <trkpt lat="44.73656" lon="5.91771">
        <ele>1480</ele>
        <time>2013-02-22T08:57:37.000Z</time>
      </trkpt>
      <trkpt lat="44.73656" lon="5.91772">
        <ele>1479</ele>
        <time>2013-02-22T08:57:38.000Z</time>
      </trkpt>
      <trkpt lat="44.73659" lon="5.91776">
        <ele>1475</ele>
        <time>2013-02-22T08:57:45.000Z</time>
      </trkpt>
      <trkpt lat="44.73659" lon="5.91777">
        <ele>1475</ele>
        <time>2013-02-22T08:57:46.000Z</time>
      </trkpt>
      <trkpt lat="44.73663" lon="5.91779">
        <ele>1478</ele>
        <time>2013-02-22T08:58:09.000Z</time>
      </trkpt>
      <trkpt lat="44.73663" lon="5.91779">
        <ele>1477</ele>
        <time>2013-02-22T08:58:10.000Z</time>
      </trkpt>
      <trkpt lat="44.73667" lon="5.91778">
        <ele>1483</ele>
        <time>2013-02-22T08:58:29.000Z</time>
      </trkpt>
      <trkpt lat="44.73668" lon="5.91777">
        <ele>1484</ele>
        <time>2013-02-22T08:58:30.000Z</time>
      </trkpt>
      <trkpt lat="44.73669" lon="5.91772">
        <ele>1492</ele>
        <time>2013-02-22T08:59:14.000Z</time>
      </trkpt>
      <trkpt lat="44.73669" lon="5.91771">
        <ele>1493</ele>
        <time>2013-02-22T08:59:15.000Z</time>
      </trkpt>
      <trkpt lat="44.73672" lon="5.91766">
        <ele>1492</ele>
        <time>2013-02-22T08:59:39.000Z</time>
      </trkpt>
      <trkpt lat="44.73672" lon="5.91766">
        <ele>1492</ele>
        <time>2013-02-22T08:59:40.000Z</time>
      </trkpt>
      <trkpt lat="44.73671" lon="5.91759">
        <ele>1494</ele>
        <time>2013-02-22T08:59:47.000Z</time>
      </trkpt>
      <trkpt lat="44.73671" lon="5.91759">
        <ele>1495</ele>
        <time>2013-02-22T08:59:48.000Z</time>
      </trkpt>
      <trkpt lat="44.73669" lon="5.91753">
        <ele>1492</ele>
        <time>2013-02-22T09:00:01.000Z</time>
      </trkpt>
      <trkpt lat="44.73669" lon="5.91752">
        <ele>1494</ele>
        <time>2013-02-22T09:00:02.000Z</time>
      </trkpt>
      <trkpt lat="44.73672" lon="5.91747">
        <ele>1484</ele>
        <time>2013-02-22T09:00:13.000Z</time>
      </trkpt>
      <trkpt lat="44.73672" lon="5.91747">
        <ele>1482</ele>
        <time>2013-02-22T09:00:14.000Z</time>
      </trkpt>
      <trkpt lat="44.73676" lon="5.91744">
        <ele>1481</ele>
        <time>2013-02-22T09:01:47.000Z</time>
      </trkpt>
      <trkpt lat="44.73677" lon="5.91744">
        <ele>1481</ele>
        <time>2013-02-22T09:01:48.000Z</time>
      </trkpt>
      <trkpt lat="44.73675" lon="5.9175">
        <ele>1484</ele>
        <time>2013-02-22T09:03:20.000Z</time>
      </trkpt>
      <trkpt lat="44.73675" lon="5.9175">
        <ele>1484</ele>
        <time>2013-02-22T09:03:21.000Z</time>
      </trkpt>
      <trkpt lat="44.73673" lon="5.91745">
        <ele>1492</ele>
        <time>2013-02-22T09:05:02.000Z</time>
      </trkpt>
      <trkpt lat="44.73673" lon="5.91745">
        <ele>1491</ele>
        <time>2013-02-22T09:05:03.000Z</time>
      </trkpt>
      <trkpt lat="44.73676" lon="5.91749">
        <ele>1479</ele>
        <time>2013-02-22T09:06:31.000Z</time>
      </trkpt>
      <trkpt lat="44.73676" lon="5.91749">
        <ele>1479</ele>
        <time>2013-02-22T09:06:32.000Z</time>
      </trkpt>
      <trkpt lat="44.73675" lon="5.91743">
        <ele>1486</ele>
        <time>2013-02-22T09:08:12.000Z</time>
      </trkpt>
      <trkpt lat="44.73675" lon="5.91743">
        <ele>1486</ele>
        <time>2013-02-22T09:08:13.000Z</time>
      </trkpt>
      <trkpt lat="44.73674" lon="5.91749">
        <ele>1479</ele>
        <time>2013-02-22T09:19:29.000Z</time>
      </trkpt>
      <trkpt lat="44.73674" lon="5.91749">
        <ele>1480</ele>
        <time>2013-02-22T09:19:30.000Z</time>
      </trkpt>
      <trkpt lat="44.73671" lon="5.91754">
        <ele>1482</ele>
        <time>2013-02-22T09:19:41.000Z</time>
      </trkpt>
      <trkpt lat="44.7367" lon="5.91754">
        <ele>1480</ele>
        <time>2013-02-22T09:19:42.000Z</time>
      </trkpt>
      <trkpt lat="44.73666" lon="5.91755">
        <ele>1487</ele>
        <time>2013-02-22T09:19:52.000Z</time>
      </trkpt>
      <trkpt lat="44.73665" lon="5.91755">
        <ele>1486</ele>
        <time>2013-02-22T09:19:53.000Z</time>
      </trkpt>
      <trkpt lat="44.73661" lon="5.91755">
        <ele>1474</ele>
        <time>2013-02-22T09:20:04.000Z</time>
      </trkpt>
      <trkpt lat="44.7366" lon="5.91755">
        <ele>1475</ele>
        <time>2013-02-22T09:20:05.000Z</time>
      </trkpt>
      <trkpt lat="44.73657" lon="5.91759">
        <ele>1476</ele>
        <time>2013-02-22T09:20:14.000Z</time>
      </trkpt>
      <trkpt lat="44.73656" lon="5.9176">
        <ele>1475</ele>
        <time>2013-02-22T09:20:15.000Z</time>
      </trkpt>
      <trkpt lat="44.73653" lon="5.91764">
        <ele>1481</ele>
        <time>2013-02-22T09:20:19.000Z</time>
      </trkpt>
      <trkpt lat="44.73652" lon="5.91765">
        <ele>1480</ele>
        <time>2013-02-22T09:20:20.000Z</time>
      </trkpt>
      <trkpt lat="44.7365" lon="5.9177">
        <ele>1473</ele>
        <time>2013-02-22T09:20:26.000Z</time>
      </trkpt>
      <trkpt lat="44.7365" lon="5.91771">
        <ele>1473</ele>
        <time>2013-02-22T09:20:27.000Z</time>
      </trkpt>
      <trkpt lat="44.73649" lon="5.91776">
        <ele>1473</ele>
        <time>2013-02-22T09:20:34.000Z</time>
      </trkpt>
      <trkpt lat="44.73648" lon="5.91778">
        <ele>1472</ele>
        <time>2013-02-22T09:20:35.000Z</time>
      </trkpt>
      <trkpt lat="44.73645" lon="5.91782">
        <ele>1471</ele>
        <time>2013-02-22T09:20:42.000Z</time>
      </trkpt>
      <trkpt lat="44.73645" lon="5.91783">
        <ele>1471</ele>
        <time>2013-02-22T09:20:43.000Z</time>
      </trkpt>
      <trkpt lat="44.73645" lon="5.91789">
        <ele>1475</ele>
        <time>2013-02-22T09:20:54.000Z</time>
      </trkpt>
      <trkpt lat="44.73645" lon="5.9179">
        <ele>1471</ele>
        <time>2013-02-22T09:20:55.000Z</time>
      </trkpt>
      <trkpt lat="44.73642" lon="5.91794">
        <ele>1471</ele>
        <time>2013-02-22T09:21:00.000Z</time>
      </trkpt>
      <trkpt lat="44.73641" lon="5.91795">
        <ele>1470</ele>
        <time>2013-02-22T09:21:01.000Z</time>
      </trkpt>
      <trkpt lat="44.73638" lon="5.91799">
        <ele>1467</ele>
        <time>2013-02-22T09:21:08.000Z</time>
      </trkpt>
      <trkpt lat="44.73638" lon="5.91799">
        <ele>1468</ele>
        <time>2013-02-22T09:21:09.000Z</time>
      </trkpt>
      <trkpt lat="44.73634" lon="5.91802">
        <ele>1464</ele>
        <time>2013-02-22T09:21:18.000Z</time>
      </trkpt>
      <trkpt lat="44.73634" lon="5.91803">
        <ele>1465</ele>
        <time>2013-02-22T09:21:19.000Z</time>
      </trkpt>
      <trkpt lat="44.7363" lon="5.91805">
        <ele>1468</ele>
        <time>2013-02-22T09:21:25.000Z</time>
      </trkpt>
      <trkpt lat="44.73629" lon="5.91805">
        <ele>1469</ele>
        <time>2013-02-22T09:21:26.000Z</time>
      </trkpt>
      <trkpt lat="44.73626" lon="5.91801">
        <ele>1458</ele>
        <time>2013-02-22T09:21:37.000Z</time>
      </trkpt>
      <trkpt lat="44.73626" lon="5.918">
        <ele>1458</ele>
        <time>2013-02-22T09:21:38.000Z</time>
      </trkpt>
      <trkpt lat="44.73622" lon="5.91799">
        <ele>1461</ele>
        <time>2013-02-22T09:21:47.000Z</time>
      </trkpt>
      <trkpt lat="44.73621" lon="5.91799">
        <ele>1461</ele>
        <time>2013-02-22T09:21:48.000Z</time>
      </trkpt>
      <trkpt lat="44.73617" lon="5.91801">
        <ele>1460</ele>
        <time>2013-02-22T09:21:53.000Z</time>
      </trkpt>
      <trkpt lat="44.73617" lon="5.91801">
        <ele>1460</ele>
        <time>2013-02-22T09:21:54.000Z</time>
      </trkpt>
      <trkpt lat="44.73612" lon="5.91802">
        <ele>1459</ele>
        <time>2013-02-22T09:22:00.000Z</time>
      </trkpt>
      <trkpt lat="44.73612" lon="5.91801">
        <ele>1458</ele>
        <time>2013-02-22T09:22:01.000Z</time>
      </trkpt>
      <trkpt lat="44.73608" lon="5.91801">
        <ele>1459</ele>
        <time>2013-02-22T09:22:08.000Z</time>
      </trkpt>
      <trkpt lat="44.73607" lon="5.918">
        <ele>1459</ele>
        <time>2013-02-22T09:22:09.000Z</time>
      </trkpt>
      <trkpt lat="44.73603" lon="5.91802">
        <ele>1452</ele>
        <time>2013-02-22T09:22:15.000Z</time>
      </trkpt>
      <trkpt lat="44.73602" lon="5.91802">
        <ele>1453</ele>
        <time>2013-02-22T09:22:16.000Z</time>
      </trkpt>
      <trkpt lat="44.73598" lon="5.91802">
        <ele>1451</ele>
        <time>2013-02-22T09:22:24.000Z</time>
      </trkpt>
      <trkpt lat="44.73598" lon="5.918">
        <ele>1448</ele>
        <time>2013-02-22T09:22:25.000Z</time>
      </trkpt>
      <trkpt lat="44.73594" lon="5.91798">
        <ele>1447</ele>
        <time>2013-02-22T09:22:30.000Z</time>
      </trkpt>
      <trkpt lat="44.73594" lon="5.91797">
        <ele>1448</ele>
        <time>2013-02-22T09:22:31.000Z</time>
      </trkpt>
      <trkpt lat="44.73591" lon="5.91792">
        <ele>1443</ele>
        <time>2013-02-22T09:22:38.000Z</time>
      </trkpt>
      <trkpt lat="44.7359" lon="5.91792">
        <ele>1444</ele>
        <time>2013-02-22T09:22:39.000Z</time>
      </trkpt>
      <trkpt lat="44.73587" lon="5.91789">
        <ele>1448</ele>
        <time>2013-02-22T09:22:49.000Z</time>
      </trkpt>
      <trkpt lat="44.73586" lon="5.91788">
        <ele>1447</ele>
        <time>2013-02-22T09:22:50.000Z</time>
      </trkpt>
      <trkpt lat="44.73583" lon="5.91784">
        <ele>1444</ele>
        <time>2013-02-22T09:23:00.000Z</time>
      </trkpt>
      <trkpt lat="44.73583" lon="5.91783">
        <ele>1441</ele>
        <time>2013-02-22T09:23:01.000Z</time>
      </trkpt>
      <trkpt lat="44.73582" lon="5.91777">
        <ele>1443</ele>
        <time>2013-02-22T09:23:25.000Z</time>
      </trkpt>
      <trkpt lat="44.73582" lon="5.91777">
        <ele>1445</ele>
        <time>2013-02-22T09:23:26.000Z</time>
      </trkpt>
      <trkpt lat="44.73583" lon="5.91771">
        <ele>1439</ele>
        <time>2013-02-22T09:23:44.000Z</time>
      </trkpt>
      <trkpt lat="44.73583" lon="5.9177">
        <ele>1439</ele>
        <time>2013-02-22T09:23:45.000Z</time>
      </trkpt>
      <trkpt lat="44.73584" lon="5.91764">
        <ele>1438</ele>
        <time>2013-02-22T09:23:58.000Z</time>
      </trkpt>
      <trkpt lat="44.73584" lon="5.91764">
        <ele>1438</ele>
        <time>2013-02-22T09:23:59.000Z</time>
      </trkpt>
      <trkpt lat="44.73582" lon="5.91759">
        <ele>1437</ele>
        <time>2013-02-22T09:24:07.000Z</time>
      </trkpt>
      <trkpt lat="44.73582" lon="5.91758">
        <ele>1437</ele>
        <time>2013-02-22T09:24:08.000Z</time>
      </trkpt>
      <trkpt lat="44.73582" lon="5.91752">
        <ele>1433</ele>
        <time>2013-02-22T09:24:12.000Z</time>
      </trkpt>
      <trkpt lat="44.73582" lon="5.91751">
        <ele>1434</ele>
        <time>2013-02-22T09:24:13.000Z</time>
      </trkpt>
      <trkpt lat="44.73581" lon="5.91746">
        <ele>1434</ele>
        <time>2013-02-22T09:24:18.000Z</time>
      </trkpt>
      <trkpt lat="44.73581" lon="5.91744">
        <ele>1434</ele>
        <time>2013-02-22T09:24:19.000Z</time>
      </trkpt>
      <trkpt lat="44.73581" lon="5.91739">
        <ele>1434</ele>
        <time>2013-02-22T09:24:23.000Z</time>
      </trkpt>
      <trkpt lat="44.73581" lon="5.91737">
        <ele>1435</ele>
        <time>2013-02-22T09:24:24.000Z</time>
      </trkpt>
      <trkpt lat="44.7358" lon="5.91731">
        <ele>1433</ele>
        <time>2013-02-22T09:24:32.000Z</time>
      </trkpt>
      <trkpt lat="44.7358" lon="5.9173">
        <ele>1433</ele>
        <time>2013-02-22T09:24:33.000Z</time>
      </trkpt>
      <trkpt lat="44.7358" lon="5.91725">
        <ele>1429</ele>
        <time>2013-02-22T09:24:37.000Z</time>
      </trkpt>
      <trkpt lat="44.73579" lon="5.91723">
        <ele>1429</ele>
        <time>2013-02-22T09:24:38.000Z</time>
      </trkpt>
      <trkpt lat="44.73578" lon="5.91718">
        <ele>1434</ele>
        <time>2013-02-22T09:24:43.000Z</time>
      </trkpt>
      <trkpt lat="44.73578" lon="5.91717">
        <ele>1433</ele>
        <time>2013-02-22T09:24:44.000Z</time>
      </trkpt>
      <trkpt lat="44.73575" lon="5.91715">
        <ele>1426</ele>
        <time>2013-02-22T09:25:26.000Z</time>
      </trkpt>
      <trkpt lat="44.73574" lon="5.91715">
        <ele>1425</ele>
        <time>2013-02-22T09:25:27.000Z</time>
      </trkpt>
      <trkpt lat="44.7357" lon="5.91713">
        <ele>1424</ele>
        <time>2013-02-22T09:25:34.000Z</time>
      </trkpt>
      <trkpt lat="44.7357" lon="5.91713">
        <ele>1424</ele>
        <time>2013-02-22T09:25:35.000Z</time>
      </trkpt>
      <trkpt lat="44.7357" lon="5.91706">
        <ele>1431</ele>
        <time>2013-02-22T09:25:58.000Z</time>
      </trkpt>
      <trkpt lat="44.7357" lon="5.91706">
        <ele>1430</ele>
        <time>2013-02-22T09:25:59.000Z</time>
      </trkpt>
      <trkpt lat="44.73567" lon="5.9171">
        <ele>1431</ele>
        <time>2013-02-22T09:26:04.000Z</time>
      </trkpt>
      <trkpt lat="44.73565" lon="5.91711">
        <ele>1429</ele>
        <time>2013-02-22T09:26:05.000Z</time>
      </trkpt>
      <trkpt lat="44.73562" lon="5.91716">
        <ele>1425</ele>
        <time>2013-02-22T09:26:10.000Z</time>
      </trkpt>
      <trkpt lat="44.73562" lon="5.91717">
        <ele>1425</ele>
        <time>2013-02-22T09:26:11.000Z</time>
      </trkpt>
      <trkpt lat="44.73561" lon="5.91722">
        <ele>1425</ele>
        <time>2013-02-22T09:26:17.000Z</time>
      </trkpt>
      <trkpt lat="44.7356" lon="5.91724">
        <ele>1425</ele>
        <time>2013-02-22T09:26:18.000Z</time>
      </trkpt>
      <trkpt lat="44.73559" lon="5.91728">
        <ele>1421</ele>
        <time>2013-02-22T09:26:20.000Z</time>
      </trkpt>
      <trkpt lat="44.73559" lon="5.91731">
        <ele>1420</ele>
        <time>2013-02-22T09:26:21.000Z</time>
      </trkpt>
      <trkpt lat="44.73558" lon="5.91736">
        <ele>1421</ele>
        <time>2013-02-22T09:26:24.000Z</time>
      </trkpt>
      <trkpt lat="44.73558" lon="5.91738">
        <ele>1420</ele>
        <time>2013-02-22T09:26:25.000Z</time>
      </trkpt>
      <trkpt lat="44.73556" lon="5.91743">
        <ele>1423</ele>
        <time>2013-02-22T09:26:29.000Z</time>
      </trkpt>
      <trkpt lat="44.73556" lon="5.91744">
        <ele>1426</ele>
        <time>2013-02-22T09:26:30.000Z</time>
      </trkpt>
      <trkpt lat="44.73554" lon="5.91749">
        <ele>1425</ele>
        <time>2013-02-22T09:26:33.000Z</time>
      </trkpt>
      <trkpt lat="44.73554" lon="5.9175">
        <ele>1425</ele>
        <time>2013-02-22T09:26:34.000Z</time>
      </trkpt>
      <trkpt lat="44.73552" lon="5.91756">
        <ele>1426</ele>
        <time>2013-02-22T09:26:39.000Z</time>
      </trkpt>
      <trkpt lat="44.73552" lon="5.91756">
        <ele>1426</ele>
        <time>2013-02-22T09:26:40.000Z</time>
      </trkpt>
      <trkpt lat="44.73552" lon="5.91762">
        <ele>1426</ele>
        <time>2013-02-22T09:26:44.000Z</time>
      </trkpt>
      <trkpt lat="44.73551" lon="5.91763">
        <ele>1427</ele>
        <time>2013-02-22T09:26:45.000Z</time>
      </trkpt>
      <trkpt lat="44.7355" lon="5.91769">
        <ele>1426</ele>
        <time>2013-02-22T09:26:50.000Z</time>
      </trkpt>
      <trkpt lat="44.7355" lon="5.91769">
        <ele>1428</ele>
        <time>2013-02-22T09:26:51.000Z</time>
      </trkpt>
      <trkpt lat="44.73553" lon="5.91765">
        <ele>1435</ele>
        <time>2013-02-22T09:27:13.000Z</time>
      </trkpt>
      <trkpt lat="44.73553" lon="5.91764">
        <ele>1435</ele>
        <time>2013-02-22T09:27:14.000Z</time>
      </trkpt>
      <trkpt lat="44.73557" lon="5.91764">
        <ele>1428</ele>
        <time>2013-02-22T09:27:21.000Z</time>
      </trkpt>
      <trkpt lat="44.73558" lon="5.91764">
        <ele>1428</ele>
        <time>2013-02-22T09:27:22.000Z</time>
      </trkpt>
      <trkpt lat="44.73555" lon="5.91767">
        <ele>1433</ele>
        <time>2013-02-22T09:27:36.000Z</time>
      </trkpt>
      <trkpt lat="44.73554" lon="5.91768">
        <ele>1433</ele>
        <time>2013-02-22T09:27:37.000Z</time>
      </trkpt>
      <trkpt lat="44.7355" lon="5.9177">
        <ele>1427</ele>
        <time>2013-02-22T09:27:51.000Z</time>
      </trkpt>
      <trkpt lat="44.7355" lon="5.91771">
        <ele>1428</ele>
        <time>2013-02-22T09:27:52.000Z</time>
      </trkpt>
      <trkpt lat="44.73547" lon="5.91775">
        <ele>1432</ele>
        <time>2013-02-22T09:28:37.000Z</time>
      </trkpt>
      <trkpt lat="44.73547" lon="5.91775">
        <ele>1429</ele>
        <time>2013-02-22T09:28:38.000Z</time>
      </trkpt>
      <trkpt lat="44.73544" lon="5.91777">
        <ele>1430</ele>
        <time>2013-02-22T09:28:44.000Z</time>
      </trkpt>
      <trkpt lat="44.73543" lon="5.91778">
        <ele>1427</ele>
        <time>2013-02-22T09:28:45.000Z</time>
      </trkpt>
      <trkpt lat="44.73539" lon="5.91782">
        <ele>1429</ele>
        <time>2013-02-22T09:29:45.000Z</time>
      </trkpt>
      <trkpt lat="44.73539" lon="5.91782">
        <ele>1429</ele>
        <time>2013-02-22T09:29:46.000Z</time>
      </trkpt>
      <trkpt lat="44.73542" lon="5.91787">
        <ele>1431</ele>
        <time>2013-02-22T09:30:39.000Z</time>
      </trkpt>
      <trkpt lat="44.73542" lon="5.91788">
        <ele>1432</ele>
        <time>2013-02-22T09:30:40.000Z</time>
      </trkpt>
      <trkpt lat="44.73544" lon="5.91793">
        <ele>1429</ele>
        <time>2013-02-22T09:30:43.000Z</time>
      </trkpt>
      <trkpt lat="44.73545" lon="5.91794">
        <ele>1428</ele>
        <time>2013-02-22T09:30:44.000Z</time>
      </trkpt>
      <trkpt lat="44.73546" lon="5.91799">
        <ele>1428</ele>
        <time>2013-02-22T09:30:48.000Z</time>
      </trkpt>
      <trkpt lat="44.73546" lon="5.918">
        <ele>1428</ele>
        <time>2013-02-22T09:30:49.000Z</time>
      </trkpt>
      <trkpt lat="44.73547" lon="5.91806">
        <ele>1428</ele>
        <time>2013-02-22T09:30:53.000Z</time>
      </trkpt>
      <trkpt lat="44.73547" lon="5.91807">
        <ele>1427</ele>
        <time>2013-02-22T09:30:54.000Z</time>
      </trkpt>
      <trkpt lat="44.73549" lon="5.91812">
        <ele>1426</ele>
        <time>2013-02-22T09:30:58.000Z</time>
      </trkpt>
      <trkpt lat="44.73549" lon="5.91814">
        <ele>1427</ele>
        <time>2013-02-22T09:30:59.000Z</time>
      </trkpt>
      <trkpt lat="44.7355" lon="5.9182">
        <ele>1429</ele>
        <time>2013-02-22T09:31:03.000Z</time>
      </trkpt>
      <trkpt lat="44.7355" lon="5.91821">
        <ele>1429</ele>
        <time>2013-02-22T09:31:04.000Z</time>
      </trkpt>
      <trkpt lat="44.73551" lon="5.91827">
        <ele>1431</ele>
        <time>2013-02-22T09:31:09.000Z</time>
      </trkpt>
      <trkpt lat="44.73551" lon="5.91828">
        <ele>1431</ele>
        <time>2013-02-22T09:31:10.000Z</time>
      </trkpt>
      <trkpt lat="44.73553" lon="5.91834">
        <ele>1429</ele>
        <time>2013-02-22T09:31:14.000Z</time>
      </trkpt>
      <trkpt lat="44.73553" lon="5.91836">
        <ele>1429</ele>
        <time>2013-02-22T09:31:15.000Z</time>
      </trkpt>
      <trkpt lat="44.73554" lon="5.91841">
        <ele>1430</ele>
        <time>2013-02-22T09:31:19.000Z</time>
      </trkpt>
      <trkpt lat="44.73554" lon="5.91842">
        <ele>1430</ele>
        <time>2013-02-22T09:31:20.000Z</time>
      </trkpt>
      <trkpt lat="44.73555" lon="5.91847">
        <ele>1431</ele>
        <time>2013-02-22T09:31:24.000Z</time>
      </trkpt>
      <trkpt lat="44.73555" lon="5.91849">
        <ele>1431</ele>
        <time>2013-02-22T09:31:25.000Z</time>
      </trkpt>
      <trkpt lat="44.73555" lon="5.91854">
        <ele>1429</ele>
        <time>2013-02-22T09:31:29.000Z</time>
      </trkpt>
      <trkpt lat="44.73555" lon="5.91856">
        <ele>1428</ele>
        <time>2013-02-22T09:31:30.000Z</time>
      </trkpt>
      <trkpt lat="44.73556" lon="5.91862">
        <ele>1426</ele>
        <time>2013-02-22T09:31:34.000Z</time>
      </trkpt>
      <trkpt lat="44.73556" lon="5.91863">
        <ele>1425</ele>
        <time>2013-02-22T09:31:35.000Z</time>
      </trkpt>
      <trkpt lat="44.73556" lon="5.91867">
        <ele>1426</ele>
        <time>2013-02-22T09:31:38.000Z</time>
      </trkpt>
      <trkpt lat="44.73557" lon="5.9187">
        <ele>1426</ele>
        <time>2013-02-22T09:31:39.000Z</time>
      </trkpt>
      <trkpt lat="44.73557" lon="5.91875">
        <ele>1425</ele>
        <time>2013-02-22T09:31:42.000Z</time>
      </trkpt>
      <trkpt lat="44.73556" lon="5.91876">
        <ele>1426</ele>
        <time>2013-02-22T09:31:43.000Z</time>
      </trkpt>
      <trkpt lat="44.73556" lon="5.91882">
        <ele>1426</ele>
        <time>2013-02-22T09:31:47.000Z</time>
      </trkpt>
      <trkpt lat="44.73556" lon="5.91884">
        <ele>1426</ele>
        <time>2013-02-22T09:31:48.000Z</time>
      </trkpt>
      <trkpt lat="44.73557" lon="5.91889">
        <ele>1424</ele>
        <time>2013-02-22T09:31:52.000Z</time>
      </trkpt>
      <trkpt lat="44.73557" lon="5.91891">
        <ele>1424</ele>
        <time>2013-02-22T09:31:53.000Z</time>
      </trkpt>
      <trkpt lat="44.73557" lon="5.91897">
        <ele>1425</ele>
        <time>2013-02-22T09:31:56.000Z</time>
      </trkpt>
      <trkpt lat="44.73557" lon="5.91899">
        <ele>1425</ele>
        <time>2013-02-22T09:31:57.000Z</time>
      </trkpt>
      <trkpt lat="44.73556" lon="5.91904">
        <ele>1424</ele>
        <time>2013-02-22T09:32:00.000Z</time>
      </trkpt>
      <trkpt lat="44.73556" lon="5.91905">
        <ele>1424</ele>
        <time>2013-02-22T09:32:01.000Z</time>
      </trkpt>
      <trkpt lat="44.73556" lon="5.9191">
        <ele>1423</ele>
        <time>2013-02-22T09:32:05.000Z</time>
      </trkpt>
      <trkpt lat="44.73556" lon="5.91911">
        <ele>1424</ele>
        <time>2013-02-22T09:32:06.000Z</time>
      </trkpt>
      <trkpt lat="44.73557" lon="5.91917">
        <ele>1425</ele>
        <time>2013-02-22T09:32:11.000Z</time>
      </trkpt>
      <trkpt lat="44.73557" lon="5.91919">
        <ele>1426</ele>
        <time>2013-02-22T09:32:12.000Z</time>
      </trkpt>
      <trkpt lat="44.73557" lon="5.91925">
        <ele>1428</ele>
        <time>2013-02-22T09:32:16.000Z</time>
      </trkpt>
      <trkpt lat="44.73557" lon="5.91927">
        <ele>1428</ele>
        <time>2013-02-22T09:32:17.000Z</time>
      </trkpt>
      <trkpt lat="44.73558" lon="5.91932">
        <ele>1425</ele>
        <time>2013-02-22T09:32:21.000Z</time>
      </trkpt>
      <trkpt lat="44.73558" lon="5.91934">
        <ele>1426</ele>
        <time>2013-02-22T09:32:22.000Z</time>
      </trkpt>
      <trkpt lat="44.73558" lon="5.91939">
        <ele>1427</ele>
        <time>2013-02-22T09:32:25.000Z</time>
      </trkpt>
      <trkpt lat="44.73558" lon="5.91941">
        <ele>1427</ele>
        <time>2013-02-22T09:32:26.000Z</time>
      </trkpt>
      <trkpt lat="44.73559" lon="5.91947">
        <ele>1429</ele>
        <time>2013-02-22T09:32:31.000Z</time>
      </trkpt>
      <trkpt lat="44.73559" lon="5.91948">
        <ele>1429</ele>
        <time>2013-02-22T09:32:32.000Z</time>
      </trkpt>
      <trkpt lat="44.7356" lon="5.91954">
        <ele>1430</ele>
        <time>2013-02-22T09:32:36.000Z</time>
      </trkpt>
      <trkpt lat="44.7356" lon="5.91955">
        <ele>1430</ele>
        <time>2013-02-22T09:32:37.000Z</time>
      </trkpt>
      <trkpt lat="44.73562" lon="5.9196">
        <ele>1429</ele>
        <time>2013-02-22T09:32:41.000Z</time>
      </trkpt>
      <trkpt lat="44.73562" lon="5.91961">
        <ele>1429</ele>
        <time>2013-02-22T09:32:42.000Z</time>
      </trkpt>
      <trkpt lat="44.73564" lon="5.91967">
        <ele>1430</ele>
        <time>2013-02-22T09:32:47.000Z</time>
      </trkpt>
      <trkpt lat="44.73564" lon="5.91967">
        <ele>1430</ele>
        <time>2013-02-22T09:32:48.000Z</time>
      </trkpt>
      <trkpt lat="44.73566" lon="5.91973">
        <ele>1430</ele>
        <time>2013-02-22T09:32:53.000Z</time>
      </trkpt>
      <trkpt lat="44.73566" lon="5.91974">
        <ele>1430</ele>
        <time>2013-02-22T09:32:54.000Z</time>
      </trkpt>
      <trkpt lat="44.73566" lon="5.9198">
        <ele>1430</ele>
        <time>2013-02-22T09:32:59.000Z</time>
      </trkpt>
      <trkpt lat="44.73567" lon="5.91981">
        <ele>1430</ele>
        <time>2013-02-22T09:33:00.000Z</time>
      </trkpt>
      <trkpt lat="44.73568" lon="5.91986">
        <ele>1430</ele>
        <time>2013-02-22T09:33:04.000Z</time>
      </trkpt>
      <trkpt lat="44.73568" lon="5.91987">
        <ele>1430</ele>
        <time>2013-02-22T09:33:05.000Z</time>
      </trkpt>
      <trkpt lat="44.7357" lon="5.91992">
        <ele>1431</ele>
        <time>2013-02-22T09:33:09.000Z</time>
      </trkpt>
      <trkpt lat="44.7357" lon="5.91994">
        <ele>1432</ele>
        <time>2013-02-22T09:33:10.000Z</time>
      </trkpt>
      <trkpt lat="44.73572" lon="5.91999">
        <ele>1431</ele>
        <time>2013-02-22T09:33:14.000Z</time>
      </trkpt>
      <trkpt lat="44.73573" lon="5.92">
        <ele>1431</ele>
        <time>2013-02-22T09:33:15.000Z</time>
      </trkpt>
      <trkpt lat="44.73575" lon="5.92004">
        <ele>1434</ele>
        <time>2013-02-22T09:33:20.000Z</time>
      </trkpt>
      <trkpt lat="44.73576" lon="5.92005">
        <ele>1434</ele>
        <time>2013-02-22T09:33:21.000Z</time>
      </trkpt>
      <trkpt lat="44.73578" lon="5.9201">
        <ele>1436</ele>
        <time>2013-02-22T09:33:26.000Z</time>
      </trkpt>
      <trkpt lat="44.73578" lon="5.92011">
        <ele>1436</ele>
        <time>2013-02-22T09:33:27.000Z</time>
      </trkpt>
      <trkpt lat="44.7358" lon="5.92015">
        <ele>1435</ele>
        <time>2013-02-22T09:33:31.000Z</time>
      </trkpt>
      <trkpt lat="44.7358" lon="5.92016">
        <ele>1436</ele>
        <time>2013-02-22T09:33:32.000Z</time>
      </trkpt>
      <trkpt lat="44.73583" lon="5.92021">
        <ele>1436</ele>
        <time>2013-02-22T09:33:37.000Z</time>
      </trkpt>
      <trkpt lat="44.73584" lon="5.92021">
        <ele>1436</ele>
        <time>2013-02-22T09:33:38.000Z</time>
      </trkpt>
      <trkpt lat="44.73586" lon="5.92026">
        <ele>1437</ele>
        <time>2013-02-22T09:33:43.000Z</time>
      </trkpt>
      <trkpt lat="44.73586" lon="5.92027">
        <ele>1437</ele>
        <time>2013-02-22T09:33:44.000Z</time>
      </trkpt>
      <trkpt lat="44.73588" lon="5.92032">
        <ele>1437</ele>
        <time>2013-02-22T09:33:48.000Z</time>
      </trkpt>
      <trkpt lat="44.73589" lon="5.92033">
        <ele>1436</ele>
        <time>2013-02-22T09:33:49.000Z</time>
      </trkpt>
      <trkpt lat="44.73591" lon="5.92038">
        <ele>1438</ele>
        <time>2013-02-22T09:33:54.000Z</time>
      </trkpt>
      <trkpt lat="44.73591" lon="5.92039">
        <ele>1438</ele>
        <time>2013-02-22T09:33:55.000Z</time>
      </trkpt>
      <trkpt lat="44.73593" lon="5.92044">
        <ele>1438</ele>
        <time>2013-02-22T09:34:00.000Z</time>
      </trkpt>
      <trkpt lat="44.73594" lon="5.92045">
        <ele>1438</ele>
        <time>2013-02-22T09:34:01.000Z</time>
      </trkpt>
      <trkpt lat="44.73596" lon="5.92049">
        <ele>1440</ele>
        <time>2013-02-22T09:34:06.000Z</time>
      </trkpt>
      <trkpt lat="44.73596" lon="5.9205">
        <ele>1439</ele>
        <time>2013-02-22T09:34:07.000Z</time>
      </trkpt>
      <trkpt lat="44.73599" lon="5.92054">
        <ele>1441</ele>
        <time>2013-02-22T09:34:11.000Z</time>
      </trkpt>
      <trkpt lat="44.73599" lon="5.92055">
        <ele>1441</ele>
        <time>2013-02-22T09:34:12.000Z</time>
      </trkpt>
      <trkpt lat="44.73602" lon="5.9206">
        <ele>1441</ele>
        <time>2013-02-22T09:34:17.000Z</time>
      </trkpt>
      <trkpt lat="44.73602" lon="5.92061">
        <ele>1442</ele>
        <time>2013-02-22T09:34:18.000Z</time>
      </trkpt>
      <trkpt lat="44.73605" lon="5.92066">
        <ele>1441</ele>
        <time>2013-02-22T09:34:22.000Z</time>
      </trkpt>
      <trkpt lat="44.73605" lon="5.92067">
        <ele>1440</ele>
        <time>2013-02-22T09:34:23.000Z</time>
      </trkpt>
      <trkpt lat="44.73608" lon="5.92071">
        <ele>1440</ele>
        <time>2013-02-22T09:34:28.000Z</time>
      </trkpt>
      <trkpt lat="44.73608" lon="5.92072">
        <ele>1440</ele>
        <time>2013-02-22T09:34:29.000Z</time>
      </trkpt>
      <trkpt lat="44.7361" lon="5.92077">
        <ele>1441</ele>
        <time>2013-02-22T09:34:34.000Z</time>
      </trkpt>
      <trkpt lat="44.73611" lon="5.92078">
        <ele>1442</ele>
        <time>2013-02-22T09:34:35.000Z</time>
      </trkpt>
      <trkpt lat="44.73612" lon="5.92083">
        <ele>1442</ele>
        <time>2013-02-22T09:34:39.000Z</time>
      </trkpt>
      <trkpt lat="44.73613" lon="5.92084">
        <ele>1442</ele>
        <time>2013-02-22T09:34:40.000Z</time>
      </trkpt>
      <trkpt lat="44.73615" lon="5.92088">
        <ele>1441</ele>
        <time>2013-02-22T09:34:45.000Z</time>
      </trkpt>
      <trkpt lat="44.73616" lon="5.92089">
        <ele>1441</ele>
        <time>2013-02-22T09:34:46.000Z</time>
      </trkpt>
      <trkpt lat="44.73619" lon="5.92092">
        <ele>1442</ele>
        <time>2013-02-22T09:34:50.000Z</time>
      </trkpt>
      <trkpt lat="44.73619" lon="5.92093">
        <ele>1441</ele>
        <time>2013-02-22T09:34:51.000Z</time>
      </trkpt>
      <trkpt lat="44.73622" lon="5.92097">
        <ele>1442</ele>
        <time>2013-02-22T09:34:55.000Z</time>
      </trkpt>
      <trkpt lat="44.73623" lon="5.92098">
        <ele>1442</ele>
        <time>2013-02-22T09:34:56.000Z</time>
      </trkpt>
      <trkpt lat="44.73624" lon="5.92104">
        <ele>1444</ele>
        <time>2013-02-22T09:35:16.000Z</time>
      </trkpt>
      <trkpt lat="44.73624" lon="5.92104">
        <ele>1445</ele>
        <time>2013-02-22T09:35:17.000Z</time>
      </trkpt>
      <trkpt lat="44.73627" lon="5.92109">
        <ele>1445</ele>
        <time>2013-02-22T09:35:22.000Z</time>
      </trkpt>
      <trkpt lat="44.73627" lon="5.9211">
        <ele>1445</ele>
        <time>2013-02-22T09:35:23.000Z</time>
      </trkpt>
      <trkpt lat="44.7363" lon="5.92114">
        <ele>1445</ele>
        <time>2013-02-22T09:35:28.000Z</time>
      </trkpt>
      <trkpt lat="44.73631" lon="5.92115">
        <ele>1445</ele>
        <time>2013-02-22T09:35:29.000Z</time>
      </trkpt>
      <trkpt lat="44.73634" lon="5.92119">
        <ele>1446</ele>
        <time>2013-02-22T09:35:34.000Z</time>
      </trkpt>
      <trkpt lat="44.73634" lon="5.9212">
        <ele>1446</ele>
        <time>2013-02-22T09:35:35.000Z</time>
      </trkpt>
      <trkpt lat="44.73637" lon="5.92124">
        <ele>1446</ele>
        <time>2013-02-22T09:35:40.000Z</time>
      </trkpt>
      <trkpt lat="44.73638" lon="5.92125">
        <ele>1446</ele>
        <time>2013-02-22T09:35:41.000Z</time>
      </trkpt>
      <trkpt lat="44.73641" lon="5.92129">
        <ele>1446</ele>
        <time>2013-02-22T09:35:45.000Z</time>
      </trkpt>
      <trkpt lat="44.73641" lon="5.9213">
        <ele>1446</ele>
        <time>2013-02-22T09:35:46.000Z</time>
      </trkpt>
      <trkpt lat="44.73644" lon="5.92134">
        <ele>1447</ele>
        <time>2013-02-22T09:35:53.000Z</time>
      </trkpt>
      <trkpt lat="44.73645" lon="5.92134">
        <ele>1449</ele>
        <time>2013-02-22T09:35:54.000Z</time>
      </trkpt>
      <trkpt lat="44.73647" lon="5.92139">
        <ele>1449</ele>
        <time>2013-02-22T09:36:01.000Z</time>
      </trkpt>
      <trkpt lat="44.73648" lon="5.9214">
        <ele>1450</ele>
        <time>2013-02-22T09:36:02.000Z</time>
      </trkpt>
      <trkpt lat="44.7365" lon="5.92143">
        <ele>1451</ele>
        <time>2013-02-22T09:36:27.000Z</time>
      </trkpt>
      <trkpt lat="44.73651" lon="5.92144">
        <ele>1451</ele>
        <time>2013-02-22T09:36:28.000Z</time>
      </trkpt>
      <trkpt lat="44.73653" lon="5.92148">
        <ele>1452</ele>
        <time>2013-02-22T09:36:32.000Z</time>
      </trkpt>
      <trkpt lat="44.73654" lon="5.92148">
        <ele>1452</ele>
        <time>2013-02-22T09:36:33.000Z</time>
      </trkpt>
      <trkpt lat="44.73657" lon="5.92151">
        <ele>1452</ele>
        <time>2013-02-22T09:36:37.000Z</time>
      </trkpt>
      <trkpt lat="44.73658" lon="5.92151">
        <ele>1452</ele>
        <time>2013-02-22T09:36:38.000Z</time>
      </trkpt>
      <trkpt lat="44.73662" lon="5.92154">
        <ele>1453</ele>
        <time>2013-02-22T09:36:42.000Z</time>
      </trkpt>
      <trkpt lat="44.73662" lon="5.92155">
        <ele>1452</ele>
        <time>2013-02-22T09:36:43.000Z</time>
      </trkpt>
      <trkpt lat="44.73665" lon="5.9216">
        <ele>1454</ele>
        <time>2013-02-22T09:36:48.000Z</time>
      </trkpt>
      <trkpt lat="44.73666" lon="5.9216">
        <ele>1454</ele>
        <time>2013-02-22T09:36:49.000Z</time>
      </trkpt>
      <trkpt lat="44.73668" lon="5.92164">
        <ele>1455</ele>
        <time>2013-02-22T09:36:52.000Z</time>
      </trkpt>
      <trkpt lat="44.73669" lon="5.92165">
        <ele>1455</ele>
        <time>2013-02-22T09:36:53.000Z</time>
      </trkpt>
      <trkpt lat="44.73671" lon="5.92169">
        <ele>1454</ele>
        <time>2013-02-22T09:36:58.000Z</time>
      </trkpt>
      <trkpt lat="44.73672" lon="5.9217">
        <ele>1454</ele>
        <time>2013-02-22T09:36:59.000Z</time>
      </trkpt>
      <trkpt lat="44.73675" lon="5.92173">
        <ele>1453</ele>
        <time>2013-02-22T09:37:04.000Z</time>
      </trkpt>
      <trkpt lat="44.73676" lon="5.92174">
        <ele>1453</ele>
        <time>2013-02-22T09:37:05.000Z</time>
      </trkpt>
      <trkpt lat="44.73679" lon="5.92178">
        <ele>1455</ele>
        <time>2013-02-22T09:37:09.000Z</time>
      </trkpt>
      <trkpt lat="44.73679" lon="5.92179">
        <ele>1456</ele>
        <time>2013-02-22T09:37:10.000Z</time>
      </trkpt>
      <trkpt lat="44.73682" lon="5.92183">
        <ele>1461</ele>
        <time>2013-02-22T09:37:14.000Z</time>
      </trkpt>
      <trkpt lat="44.73683" lon="5.92185">
        <ele>1460</ele>
        <time>2013-02-22T09:37:15.000Z</time>
      </trkpt>
      <trkpt lat="44.73686" lon="5.92189">
        <ele>1460</ele>
        <time>2013-02-22T09:37:19.000Z</time>
      </trkpt>
      <trkpt lat="44.73687" lon="5.9219">
        <ele>1460</ele>
        <time>2013-02-22T09:37:20.000Z</time>
      </trkpt>
      <trkpt lat="44.7369" lon="5.92193">
        <ele>1459</ele>
        <time>2013-02-22T09:37:24.000Z</time>
      </trkpt>
      <trkpt lat="44.73691" lon="5.92194">
        <ele>1459</ele>
        <time>2013-02-22T09:37:25.000Z</time>
      </trkpt>
      <trkpt lat="44.73695" lon="5.92197">
        <ele>1458</ele>
        <time>2013-02-22T09:37:30.000Z</time>
      </trkpt>
      <trkpt lat="44.73695" lon="5.92197">
        <ele>1458</ele>
        <time>2013-02-22T09:37:31.000Z</time>
      </trkpt>
      <trkpt lat="44.73699" lon="5.922">
        <ele>1455</ele>
        <time>2013-02-22T09:37:36.000Z</time>
      </trkpt>
      <trkpt lat="44.737" lon="5.92201">
        <ele>1455</ele>
        <time>2013-02-22T09:37:37.000Z</time>
      </trkpt>
      <trkpt lat="44.73703" lon="5.92204">
        <ele>1456</ele>
        <time>2013-02-22T09:37:42.000Z</time>
      </trkpt>
      <trkpt lat="44.73704" lon="5.92204">
        <ele>1456</ele>
        <time>2013-02-22T09:37:43.000Z</time>
      </trkpt>
      <trkpt lat="44.73707" lon="5.92207">
        <ele>1456</ele>
        <time>2013-02-22T09:37:46.000Z</time>
      </trkpt>
      <trkpt lat="44.73708" lon="5.92207">
        <ele>1456</ele>
        <time>2013-02-22T09:37:47.000Z</time>
      </trkpt>
      <trkpt lat="44.73711" lon="5.92212">
        <ele>1456</ele>
        <time>2013-02-22T09:37:52.000Z</time>
      </trkpt>
      <trkpt lat="44.73712" lon="5.92213">
        <ele>1456</ele>
        <time>2013-02-22T09:37:53.000Z</time>
      </trkpt>
      <trkpt lat="44.73715" lon="5.92216">
        <ele>1457</ele>
        <time>2013-02-22T09:37:58.000Z</time>
      </trkpt>
      <trkpt lat="44.73715" lon="5.92217">
        <ele>1457</ele>
        <time>2013-02-22T09:37:59.000Z</time>
      </trkpt>
      <trkpt lat="44.73717" lon="5.92222">
        <ele>1458</ele>
        <time>2013-02-22T09:38:05.000Z</time>
      </trkpt>
      <trkpt lat="44.73718" lon="5.92223">
        <ele>1458</ele>
        <time>2013-02-22T09:38:06.000Z</time>
      </trkpt>
      <trkpt lat="44.7372" lon="5.92227">
        <ele>1462</ele>
        <time>2013-02-22T09:38:11.000Z</time>
      </trkpt>
      <trkpt lat="44.7372" lon="5.92228">
        <ele>1463</ele>
        <time>2013-02-22T09:38:12.000Z</time>
      </trkpt>
      <trkpt lat="44.73723" lon="5.92234">
        <ele>1464</ele>
        <time>2013-02-22T09:38:18.000Z</time>
      </trkpt>
      <trkpt lat="44.73723" lon="5.92234">
        <ele>1465</ele>
        <time>2013-02-22T09:38:19.000Z</time>
      </trkpt>
      <trkpt lat="44.73725" lon="5.92239">
        <ele>1465</ele>
        <time>2013-02-22T09:38:23.000Z</time>
      </trkpt>
      <trkpt lat="44.73726" lon="5.9224">
        <ele>1464</ele>
        <time>2013-02-22T09:38:24.000Z</time>
      </trkpt>
      <trkpt lat="44.73728" lon="5.92244">
        <ele>1464</ele>
        <time>2013-02-22T09:38:29.000Z</time>
      </trkpt>
      <trkpt lat="44.73729" lon="5.92245">
        <ele>1465</ele>
        <time>2013-02-22T09:38:30.000Z</time>
      </trkpt>
      <trkpt lat="44.73732" lon="5.92249">
        <ele>1465</ele>
        <time>2013-02-22T09:38:35.000Z</time>
      </trkpt>
      <trkpt lat="44.73732" lon="5.9225">
        <ele>1465</ele>
        <time>2013-02-22T09:38:36.000Z</time>
      </trkpt>
      <trkpt lat="44.73735" lon="5.92254">
        <ele>1464</ele>
        <time>2013-02-22T09:38:41.000Z</time>
      </trkpt>
      <trkpt lat="44.73737" lon="5.92255">
        <ele>1464</ele>
        <time>2013-02-22T09:38:42.000Z</time>
      </trkpt>
      <trkpt lat="44.7374" lon="5.92259">
        <ele>1464</ele>
        <time>2013-02-22T09:38:47.000Z</time>
      </trkpt>
      <trkpt lat="44.7374" lon="5.9226">
        <ele>1464</ele>
        <time>2013-02-22T09:38:48.000Z</time>
      </trkpt>
      <trkpt lat="44.73743" lon="5.92263">
        <ele>1461</ele>
        <time>2013-02-22T09:38:52.000Z</time>
      </trkpt>
      <trkpt lat="44.73743" lon="5.92264">
        <ele>1459</ele>
        <time>2013-02-22T09:38:53.000Z</time>
      </trkpt>
      <trkpt lat="44.73746" lon="5.92269">
        <ele>1462</ele>
        <time>2013-02-22T09:38:57.000Z</time>
      </trkpt>
      <trkpt lat="44.73747" lon="5.92269">
        <ele>1463</ele>
        <time>2013-02-22T09:38:58.000Z</time>
      </trkpt>
      <trkpt lat="44.73749" lon="5.92273">
        <ele>1462</ele>
        <time>2013-02-22T09:39:03.000Z</time>
      </trkpt>
      <trkpt lat="44.7375" lon="5.92274">
        <ele>1460</ele>
        <time>2013-02-22T09:39:04.000Z</time>
      </trkpt>
      <trkpt lat="44.73752" lon="5.9228">
        <ele>1466</ele>
        <time>2013-02-22T09:39:09.000Z</time>
      </trkpt>
      <trkpt lat="44.73753" lon="5.9228">
        <ele>1466</ele>
        <time>2013-02-22T09:39:10.000Z</time>
      </trkpt>
      <trkpt lat="44.73756" lon="5.92284">
        <ele>1467</ele>
        <time>2013-02-22T09:39:15.000Z</time>
      </trkpt>
      <trkpt lat="44.73756" lon="5.92285">
        <ele>1466</ele>
        <time>2013-02-22T09:39:16.000Z</time>
      </trkpt>
      <trkpt lat="44.73759" lon="5.92288">
        <ele>1465</ele>
        <time>2013-02-22T09:39:20.000Z</time>
      </trkpt>
      <trkpt lat="44.7376" lon="5.92289">
        <ele>1465</ele>
        <time>2013-02-22T09:39:21.000Z</time>
      </trkpt>
      <trkpt lat="44.73762" lon="5.92294">
        <ele>1465</ele>
        <time>2013-02-22T09:39:25.000Z</time>
      </trkpt>
      <trkpt lat="44.73762" lon="5.92296">
        <ele>1465</ele>
        <time>2013-02-22T09:39:26.000Z</time>
      </trkpt>
      <trkpt lat="44.73764" lon="5.923">
        <ele>1465</ele>
        <time>2013-02-22T09:39:31.000Z</time>
      </trkpt>
      <trkpt lat="44.73765" lon="5.92301">
        <ele>1465</ele>
        <time>2013-02-22T09:39:32.000Z</time>
      </trkpt>
      <trkpt lat="44.73767" lon="5.92306">
        <ele>1467</ele>
        <time>2013-02-22T09:39:37.000Z</time>
      </trkpt>
      <trkpt lat="44.73768" lon="5.92307">
        <ele>1467</ele>
        <time>2013-02-22T09:39:38.000Z</time>
      </trkpt>
      <trkpt lat="44.7377" lon="5.92311">
        <ele>1469</ele>
        <time>2013-02-22T09:39:42.000Z</time>
      </trkpt>
      <trkpt lat="44.7377" lon="5.92312">
        <ele>1469</ele>
        <time>2013-02-22T09:39:43.000Z</time>
      </trkpt>
      <trkpt lat="44.73773" lon="5.92316">
        <ele>1468</ele>
        <time>2013-02-22T09:39:48.000Z</time>
      </trkpt>
      <trkpt lat="44.73774" lon="5.92317">
        <ele>1467</ele>
        <time>2013-02-22T09:39:49.000Z</time>
      </trkpt>
      <trkpt lat="44.73777" lon="5.92321">
        <ele>1467</ele>
        <time>2013-02-22T09:39:54.000Z</time>
      </trkpt>
      <trkpt lat="44.73777" lon="5.92322">
        <ele>1466</ele>
        <time>2013-02-22T09:39:55.000Z</time>
      </trkpt>
      <trkpt lat="44.7378" lon="5.92326">
        <ele>1468</ele>
        <time>2013-02-22T09:39:59.000Z</time>
      </trkpt>
      <trkpt lat="44.73781" lon="5.92327">
        <ele>1469</ele>
        <time>2013-02-22T09:40:00.000Z</time>
      </trkpt>
      <trkpt lat="44.73783" lon="5.92332">
        <ele>1468</ele>
        <time>2013-02-22T09:40:05.000Z</time>
      </trkpt>
      <trkpt lat="44.73784" lon="5.92333">
        <ele>1468</ele>
        <time>2013-02-22T09:40:06.000Z</time>
      </trkpt>
      <trkpt lat="44.73786" lon="5.92337">
        <ele>1469</ele>
        <time>2013-02-22T09:40:10.000Z</time>
      </trkpt>
      <trkpt lat="44.73786" lon="5.92338">
        <ele>1469</ele>
        <time>2013-02-22T09:40:11.000Z</time>
      </trkpt>
      <trkpt lat="44.73789" lon="5.92342">
        <ele>1470</ele>
        <time>2013-02-22T09:40:15.000Z</time>
      </trkpt>
      <trkpt lat="44.73789" lon="5.92343">
        <ele>1471</ele>
        <time>2013-02-22T09:40:16.000Z</time>
      </trkpt>
      <trkpt lat="44.73792" lon="5.92347">
        <ele>1472</ele>
        <time>2013-02-22T09:40:19.000Z</time>
      </trkpt>
      <trkpt lat="44.73793" lon="5.92349">
        <ele>1472</ele>
        <time>2013-02-22T09:40:20.000Z</time>
      </trkpt>
      <trkpt lat="44.73796" lon="5.92353">
        <ele>1470</ele>
        <time>2013-02-22T09:40:25.000Z</time>
      </trkpt>
      <trkpt lat="44.73796" lon="5.92354">
        <ele>1471</ele>
        <time>2013-02-22T09:40:26.000Z</time>
      </trkpt>
      <trkpt lat="44.73799" lon="5.92358">
        <ele>1470</ele>
        <time>2013-02-22T09:40:32.000Z</time>
      </trkpt>
      <trkpt lat="44.738" lon="5.92359">
        <ele>1471</ele>
        <time>2013-02-22T09:40:33.000Z</time>
      </trkpt>
      <trkpt lat="44.73802" lon="5.92363">
        <ele>1472</ele>
        <time>2013-02-22T09:40:38.000Z</time>
      </trkpt>
      <trkpt lat="44.73803" lon="5.92363">
        <ele>1473</ele>
        <time>2013-02-22T09:40:39.000Z</time>
      </trkpt>
      <trkpt lat="44.73805" lon="5.92367">
        <ele>1473</ele>
        <time>2013-02-22T09:40:44.000Z</time>
      </trkpt>
      <trkpt lat="44.73806" lon="5.92368">
        <ele>1473</ele>
        <time>2013-02-22T09:40:45.000Z</time>
      </trkpt>
      <trkpt lat="44.7381" lon="5.9237">
        <ele>1472</ele>
        <time>2013-02-22T09:40:49.000Z</time>
      </trkpt>
      <trkpt lat="44.7381" lon="5.92371">
        <ele>1472</ele>
        <time>2013-02-22T09:40:50.000Z</time>
      </trkpt>
      <trkpt lat="44.73814" lon="5.92375">
        <ele>1472</ele>
        <time>2013-02-22T09:40:55.000Z</time>
      </trkpt>
      <trkpt lat="44.73814" lon="5.92376">
        <ele>1472</ele>
        <time>2013-02-22T09:40:56.000Z</time>
      </trkpt>
      <trkpt lat="44.73817" lon="5.9238">
        <ele>1471</ele>
        <time>2013-02-22T09:41:00.000Z</time>
      </trkpt>
      <trkpt lat="44.73818" lon="5.9238">
        <ele>1471</ele>
        <time>2013-02-22T09:41:01.000Z</time>
      </trkpt>
      <trkpt lat="44.73821" lon="5.92385">
        <ele>1472</ele>
        <time>2013-02-22T09:41:06.000Z</time>
      </trkpt>
      <trkpt lat="44.73822" lon="5.92385">
        <ele>1473</ele>
        <time>2013-02-22T09:41:07.000Z</time>
      </trkpt>
      <trkpt lat="44.73825" lon="5.92389">
        <ele>1474</ele>
        <time>2013-02-22T09:41:12.000Z</time>
      </trkpt>
      <trkpt lat="44.73825" lon="5.9239">
        <ele>1472</ele>
        <time>2013-02-22T09:41:13.000Z</time>
      </trkpt>
      <trkpt lat="44.73828" lon="5.92395">
        <ele>1469</ele>
        <time>2013-02-22T09:41:17.000Z</time>
      </trkpt>
      <trkpt lat="44.73828" lon="5.92396">
        <ele>1473</ele>
        <time>2013-02-22T09:41:18.000Z</time>
      </trkpt>
      <trkpt lat="44.73832" lon="5.92397">
        <ele>1484</ele>
        <time>2013-02-22T09:41:24.000Z</time>
      </trkpt>
      <trkpt lat="44.73833" lon="5.92398">
        <ele>1484</ele>
        <time>2013-02-22T09:41:25.000Z</time>
      </trkpt>
      <trkpt lat="44.73835" lon="5.92401">
        <ele>1484</ele>
        <time>2013-02-22T09:41:30.000Z</time>
      </trkpt>
      <trkpt lat="44.73836" lon="5.92402">
        <ele>1484</ele>
        <time>2013-02-22T09:41:31.000Z</time>
      </trkpt>
      <trkpt lat="44.73839" lon="5.92406">
        <ele>1486</ele>
        <time>2013-02-22T09:41:35.000Z</time>
      </trkpt>
      <trkpt lat="44.7384" lon="5.92407">
        <ele>1486</ele>
        <time>2013-02-22T09:41:36.000Z</time>
      </trkpt>
      <trkpt lat="44.73842" lon="5.9241">
        <ele>1485</ele>
        <time>2013-02-22T09:41:41.000Z</time>
      </trkpt>
      <trkpt lat="44.73843" lon="5.92412">
        <ele>1485</ele>
        <time>2013-02-22T09:41:42.000Z</time>
      </trkpt>
      <trkpt lat="44.73845" lon="5.92415">
        <ele>1483</ele>
        <time>2013-02-22T09:41:46.000Z</time>
      </trkpt>
      <trkpt lat="44.73846" lon="5.92417">
        <ele>1484</ele>
        <time>2013-02-22T09:41:47.000Z</time>
      </trkpt>
      <trkpt lat="44.73848" lon="5.92422">
        <ele>1483</ele>
        <time>2013-02-22T09:41:52.000Z</time>
      </trkpt>
      <trkpt lat="44.73849" lon="5.92422">
        <ele>1483</ele>
        <time>2013-02-22T09:41:53.000Z</time>
      </trkpt>
      <trkpt lat="44.73852" lon="5.92426">
        <ele>1482</ele>
        <time>2013-02-22T09:41:57.000Z</time>
      </trkpt>
      <trkpt lat="44.73853" lon="5.92427">
        <ele>1482</ele>
        <time>2013-02-22T09:41:58.000Z</time>
      </trkpt>
      <trkpt lat="44.73856" lon="5.9243">
        <ele>1481</ele>
        <time>2013-02-22T09:42:03.000Z</time>
      </trkpt>
      <trkpt lat="44.73857" lon="5.92431">
        <ele>1482</ele>
        <time>2013-02-22T09:42:04.000Z</time>
      </trkpt>
      <trkpt lat="44.7386" lon="5.92434">
        <ele>1483</ele>
        <time>2013-02-22T09:42:09.000Z</time>
      </trkpt>
      <trkpt lat="44.73861" lon="5.92435">
        <ele>1483</ele>
        <time>2013-02-22T09:42:10.000Z</time>
      </trkpt>
      <trkpt lat="44.73863" lon="5.92439">
        <ele>1483</ele>
        <time>2013-02-22T09:42:14.000Z</time>
      </trkpt>
      <trkpt lat="44.73864" lon="5.9244">
        <ele>1483</ele>
        <time>2013-02-22T09:42:15.000Z</time>
      </trkpt>
      <trkpt lat="44.73866" lon="5.92443">
        <ele>1482</ele>
        <time>2013-02-22T09:42:19.000Z</time>
      </trkpt>
      <trkpt lat="44.73867" lon="5.92444">
        <ele>1482</ele>
        <time>2013-02-22T09:42:20.000Z</time>
      </trkpt>
      <trkpt lat="44.7387" lon="5.92447">
        <ele>1481</ele>
        <time>2013-02-22T09:42:24.000Z</time>
      </trkpt>
      <trkpt lat="44.7387" lon="5.92448">
        <ele>1481</ele>
        <time>2013-02-22T09:42:25.000Z</time>
      </trkpt>
      <trkpt lat="44.73872" lon="5.92452">
        <ele>1481</ele>
        <time>2013-02-22T09:42:29.000Z</time>
      </trkpt>
      <trkpt lat="44.73873" lon="5.92453">
        <ele>1481</ele>
        <time>2013-02-22T09:42:30.000Z</time>
      </trkpt>
      <trkpt lat="44.73875" lon="5.92458">
        <ele>1482</ele>
        <time>2013-02-22T09:42:35.000Z</time>
      </trkpt>
      <trkpt lat="44.73876" lon="5.92459">
        <ele>1482</ele>
        <time>2013-02-22T09:42:36.000Z</time>
      </trkpt>
      <trkpt lat="44.73878" lon="5.92464">
        <ele>1483</ele>
        <time>2013-02-22T09:42:41.000Z</time>
      </trkpt>
      <trkpt lat="44.73878" lon="5.92465">
        <ele>1483</ele>
        <time>2013-02-22T09:42:42.000Z</time>
      </trkpt>
      <trkpt lat="44.73881" lon="5.92469">
        <ele>1485</ele>
        <time>2013-02-22T09:42:47.000Z</time>
      </trkpt>
      <trkpt lat="44.73881" lon="5.9247">
        <ele>1485</ele>
        <time>2013-02-22T09:42:48.000Z</time>
      </trkpt>
      <trkpt lat="44.73883" lon="5.92475">
        <ele>1483</ele>
        <time>2013-02-22T09:42:52.000Z</time>
      </trkpt>
      <trkpt lat="44.73883" lon="5.92476">
        <ele>1484</ele>
        <time>2013-02-22T09:42:53.000Z</time>
      </trkpt>
      <trkpt lat="44.73887" lon="5.9248">
        <ele>1487</ele>
        <time>2013-02-22T09:43:01.000Z</time>
      </trkpt>
      <trkpt lat="44.73888" lon="5.9248">
        <ele>1485</ele>
        <time>2013-02-22T09:43:02.000Z</time>
      </trkpt>
      <trkpt lat="44.73892" lon="5.92481">
        <ele>1483</ele>
        <time>2013-02-22T09:43:09.000Z</time>
      </trkpt>
      <trkpt lat="44.73892" lon="5.92481">
        <ele>1483</ele>
        <time>2013-02-22T09:43:10.000Z</time>
      </trkpt>
      <trkpt lat="44.73896" lon="5.92483">
        <ele>1486</ele>
        <time>2013-02-22T09:43:17.000Z</time>
      </trkpt>
      <trkpt lat="44.73897" lon="5.92483">
        <ele>1486</ele>
        <time>2013-02-22T09:43:18.000Z</time>
      </trkpt>
      <trkpt lat="44.739" lon="5.92486">
        <ele>1491</ele>
        <time>2013-02-22T09:43:24.000Z</time>
      </trkpt>
      <trkpt lat="44.73901" lon="5.92487">
        <ele>1491</ele>
        <time>2013-02-22T09:43:25.000Z</time>
      </trkpt>
      <trkpt lat="44.73904" lon="5.92491">
        <ele>1494</ele>
        <time>2013-02-22T09:43:31.000Z</time>
      </trkpt>
      <trkpt lat="44.73904" lon="5.92492">
        <ele>1495</ele>
        <time>2013-02-22T09:43:32.000Z</time>
      </trkpt>
      <trkpt lat="44.73906" lon="5.92496">
        <ele>1496</ele>
        <time>2013-02-22T09:43:37.000Z</time>
      </trkpt>
      <trkpt lat="44.73907" lon="5.92497">
        <ele>1495</ele>
        <time>2013-02-22T09:43:38.000Z</time>
      </trkpt>
      <trkpt lat="44.73909" lon="5.92501">
        <ele>1495</ele>
        <time>2013-02-22T09:43:45.000Z</time>
      </trkpt>
      <trkpt lat="44.7391" lon="5.92501">
        <ele>1495</ele>
        <time>2013-02-22T09:43:46.000Z</time>
      </trkpt>
      <trkpt lat="44.73914" lon="5.92504">
        <ele>1495</ele>
        <time>2013-02-22T09:43:52.000Z</time>
      </trkpt>
      <trkpt lat="44.73914" lon="5.92505">
        <ele>1495</ele>
        <time>2013-02-22T09:43:53.000Z</time>
      </trkpt>
      <trkpt lat="44.73917" lon="5.92508">
        <ele>1502</ele>
        <time>2013-02-22T09:45:12.000Z</time>
      </trkpt>
      <trkpt lat="44.73918" lon="5.92508">
        <ele>1501</ele>
        <time>2013-02-22T09:45:13.000Z</time>
      </trkpt>
      <trkpt lat="44.73914" lon="5.92511">
        <ele>1489</ele>
        <time>2013-02-22T09:47:27.000Z</time>
      </trkpt>
      <trkpt lat="44.73913" lon="5.92511">
        <ele>1482</ele>
        <time>2013-02-22T09:47:28.000Z</time>
      </trkpt>
      <trkpt lat="44.73915" lon="5.92505">
        <ele>1488</ele>
        <time>2013-02-22T09:47:47.000Z</time>
      </trkpt>
      <trkpt lat="44.73915" lon="5.92505">
        <ele>1492</ele>
        <time>2013-02-22T09:47:48.000Z</time>
      </trkpt>
      <trkpt lat="44.73919" lon="5.92506">
        <ele>1488</ele>
        <time>2013-02-22T09:48:21.000Z</time>
      </trkpt>
      <trkpt lat="44.7392" lon="5.92506">
        <ele>1489</ele>
        <time>2013-02-22T09:48:22.000Z</time>
      </trkpt>
      <trkpt lat="44.7392" lon="5.92512">
        <ele>1503</ele>
        <time>2013-02-22T09:48:50.000Z</time>
      </trkpt>
      <trkpt lat="44.7392" lon="5.92513">
        <ele>1504</ele>
        <time>2013-02-22T09:48:51.000Z</time>
      </trkpt>
      <trkpt lat="44.73916" lon="5.92515">
        <ele>1489</ele>
        <time>2013-02-22T09:49:21.000Z</time>
      </trkpt>
      <trkpt lat="44.73915" lon="5.92515">
        <ele>1491</ele>
        <time>2013-02-22T09:49:22.000Z</time>
      </trkpt>
      <trkpt lat="44.73912" lon="5.92516">
        <ele>1475</ele>
        <time>2013-02-22T09:49:26.000Z</time>
      </trkpt>
      <trkpt lat="44.73911" lon="5.92516">
        <ele>1469</ele>
        <time>2013-02-22T09:49:27.000Z</time>
      </trkpt>
      <trkpt lat="44.73906" lon="5.92515">
        <ele>1467</ele>
        <time>2013-02-22T09:49:31.000Z</time>
      </trkpt>
      <trkpt lat="44.73906" lon="5.92515">
        <ele>1467</ele>
        <time>2013-02-22T09:49:32.000Z</time>
      </trkpt>
      <trkpt lat="44.73903" lon="5.9251">
        <ele>1454</ele>
        <time>2013-02-22T09:49:41.000Z</time>
      </trkpt>
      <trkpt lat="44.73902" lon="5.9251">
        <ele>1451</ele>
        <time>2013-02-22T09:49:42.000Z</time>
      </trkpt>
      <trkpt lat="44.73905" lon="5.92514">
        <ele>1475</ele>
        <time>2013-02-22T09:51:05.000Z</time>
      </trkpt>
      <trkpt lat="44.73906" lon="5.92515">
        <ele>1476</ele>
        <time>2013-02-22T09:51:06.000Z</time>
      </trkpt>
      <trkpt lat="44.7391" lon="5.92514">
        <ele>1489</ele>
        <time>2013-02-22T09:51:13.000Z</time>
      </trkpt>
      <trkpt lat="44.7391" lon="5.92515">
        <ele>1491</ele>
        <time>2013-02-22T09:51:14.000Z</time>
      </trkpt>
      <trkpt lat="44.73915" lon="5.92513">
        <ele>1497</ele>
        <time>2013-02-22T09:51:20.000Z</time>
      </trkpt>
      <trkpt lat="44.73915" lon="5.92513">
        <ele>1497</ele>
        <time>2013-02-22T09:51:21.000Z</time>
      </trkpt>
      <trkpt lat="44.73912" lon="5.92509">
        <ele>1482</ele>
        <time>2013-02-22T09:52:21.000Z</time>
      </trkpt>
      <trkpt lat="44.73912" lon="5.92508">
        <ele>1480</ele>
        <time>2013-02-22T09:52:22.000Z</time>
      </trkpt>
      <trkpt lat="44.73916" lon="5.92509">
        <ele>1491</ele>
        <time>2013-02-22T09:52:31.000Z</time>
      </trkpt>
      <trkpt lat="44.73917" lon="5.9251">
        <ele>1490</ele>
        <time>2013-02-22T09:52:32.000Z</time>
      </trkpt>
      <trkpt lat="44.73921" lon="5.92512">
        <ele>1491</ele>
        <time>2013-02-22T09:52:35.000Z</time>
      </trkpt>
      <trkpt lat="44.73922" lon="5.92513">
        <ele>1493</ele>
        <time>2013-02-22T09:52:36.000Z</time>
      </trkpt>
      <trkpt lat="44.73925" lon="5.92515">
        <ele>1491</ele>
        <time>2013-02-22T09:52:39.000Z</time>
      </trkpt>
      <trkpt lat="44.73926" lon="5.92515">
        <ele>1495</ele>
        <time>2013-02-22T09:52:40.000Z</time>
      </trkpt>
      <trkpt lat="44.7393" lon="5.92518">
        <ele>1496</ele>
        <time>2013-02-22T09:52:44.000Z</time>
      </trkpt>
      <trkpt lat="44.73931" lon="5.92518">
        <ele>1496</ele>
        <time>2013-02-22T09:52:45.000Z</time>
      </trkpt>
      <trkpt lat="44.73934" lon="5.9252">
        <ele>1500</ele>
        <time>2013-02-22T09:52:50.000Z</time>
      </trkpt>
      <trkpt lat="44.73935" lon="5.92521">
        <ele>1499</ele>
        <time>2013-02-22T09:52:51.000Z</time>
      </trkpt>
      <trkpt lat="44.73938" lon="5.92524">
        <ele>1494</ele>
        <time>2013-02-22T09:52:58.000Z</time>
      </trkpt>
      <trkpt lat="44.73939" lon="5.92523">
        <ele>1491</ele>
        <time>2013-02-22T09:52:59.000Z</time>
      </trkpt>
      <trkpt lat="44.73943" lon="5.92524">
        <ele>1494</ele>
        <time>2013-02-22T09:53:05.000Z</time>
      </trkpt>
      <trkpt lat="44.73944" lon="5.92524">
        <ele>1500</ele>
        <time>2013-02-22T09:53:06.000Z</time>
      </trkpt>
      <trkpt lat="44.73948" lon="5.92524">
        <ele>1504</ele>
        <time>2013-02-22T09:53:08.000Z</time>
      </trkpt>
      <trkpt lat="44.73949" lon="5.92523">
        <ele>1506</ele>
        <time>2013-02-22T09:53:09.000Z</time>
      </trkpt>
      <trkpt lat="44.73954" lon="5.92523">
        <ele>1504</ele>
        <time>2013-02-22T09:53:13.000Z</time>
      </trkpt>
      <trkpt lat="44.73955" lon="5.92523">
        <ele>1506</ele>
        <time>2013-02-22T09:53:14.000Z</time>
      </trkpt>
      <trkpt lat="44.73959" lon="5.92523">
        <ele>1497</ele>
        <time>2013-02-22T09:53:27.000Z</time>
      </trkpt>
      <trkpt lat="44.7396" lon="5.92524">
        <ele>1501</ele>
        <time>2013-02-22T09:53:28.000Z</time>
      </trkpt>
      <trkpt lat="44.73964" lon="5.92525">
        <ele>1509</ele>
        <time>2013-02-22T09:53:32.000Z</time>
      </trkpt>
      <trkpt lat="44.73965" lon="5.92525">
        <ele>1507</ele>
        <time>2013-02-22T09:53:33.000Z</time>
      </trkpt>
      <trkpt lat="44.73969" lon="5.92526">
        <ele>1507</ele>
        <time>2013-02-22T09:53:41.000Z</time>
      </trkpt>
      <trkpt lat="44.73969" lon="5.92526">
        <ele>1508</ele>
        <time>2013-02-22T09:53:42.000Z</time>
      </trkpt>
      <trkpt lat="44.73973" lon="5.92526">
        <ele>1502</ele>
        <time>2013-02-22T09:53:50.000Z</time>
      </trkpt>
      <trkpt lat="44.73974" lon="5.92526">
        <ele>1502</ele>
        <time>2013-02-22T09:53:51.000Z</time>
      </trkpt>
      <trkpt lat="44.73978" lon="5.92526">
        <ele>1502</ele>
        <time>2013-02-22T09:54:01.000Z</time>
      </trkpt>
      <trkpt lat="44.73979" lon="5.92526">
        <ele>1504</ele>
        <time>2013-02-22T09:54:02.000Z</time>
      </trkpt>
      <trkpt lat="44.73983" lon="5.92525">
        <ele>1504</ele>
        <time>2013-02-22T09:54:18.000Z</time>
      </trkpt>
      <trkpt lat="44.73984" lon="5.92525">
        <ele>1507</ele>
        <time>2013-02-22T09:54:19.000Z</time>
      </trkpt>
      <trkpt lat="44.73982" lon="5.9252">
        <ele>1493</ele>
        <time>2013-02-22T09:54:38.000Z</time>
      </trkpt>
      <trkpt lat="44.73982" lon="5.92519">
        <ele>1490</ele>
        <time>2013-02-22T09:54:39.000Z</time>
      </trkpt>
      <trkpt lat="44.73983" lon="5.92513">
        <ele>1494</ele>
        <time>2013-02-22T09:54:47.000Z</time>
      </trkpt>
      <trkpt lat="44.73983" lon="5.92512">
        <ele>1494</ele>
        <time>2013-02-22T09:54:48.000Z</time>
      </trkpt>
      <trkpt lat="44.73982" lon="5.92506">
        <ele>1499</ele>
        <time>2013-02-22T09:54:58.000Z</time>
      </trkpt>
      <trkpt lat="44.73981" lon="5.92506">
        <ele>1500</ele>
        <time>2013-02-22T09:54:59.000Z</time>
      </trkpt>
      <trkpt lat="44.73981" lon="5.925">
        <ele>1497</ele>
        <time>2013-02-22T09:55:09.000Z</time>
      </trkpt>
      <trkpt lat="44.73981" lon="5.92499">
        <ele>1497</ele>
        <time>2013-02-22T09:55:10.000Z</time>
      </trkpt>
      <trkpt lat="44.73983" lon="5.92493">
        <ele>1511</ele>
        <time>2013-02-22T09:55:18.000Z</time>
      </trkpt>
      <trkpt lat="44.73983" lon="5.92492">
        <ele>1510</ele>
        <time>2013-02-22T09:55:19.000Z</time>
      </trkpt>
      <trkpt lat="44.73984" lon="5.92487">
        <ele>1509</ele>
        <time>2013-02-22T09:55:24.000Z</time>
      </trkpt>
      <trkpt lat="44.73984" lon="5.92485">
        <ele>1509</ele>
        <time>2013-02-22T09:55:25.000Z</time>
      </trkpt>
      <trkpt lat="44.73981" lon="5.92481">
        <ele>1508</ele>
        <time>2013-02-22T09:55:34.000Z</time>
      </trkpt>
      <trkpt lat="44.73981" lon="5.9248">
        <ele>1507</ele>
        <time>2013-02-22T09:55:35.000Z</time>
      </trkpt>
      <trkpt lat="44.73979" lon="5.92475">
        <ele>1509</ele>
        <time>2013-02-22T09:55:43.000Z</time>
      </trkpt>
      <trkpt lat="44.73979" lon="5.92474">
        <ele>1512</ele>
        <time>2013-02-22T09:55:44.000Z</time>
      </trkpt>
      <trkpt lat="44.73977" lon="5.92469">
        <ele>1519</ele>
        <time>2013-02-22T09:55:52.000Z</time>
      </trkpt>
      <trkpt lat="44.73977" lon="5.92468">
        <ele>1517</ele>
        <time>2013-02-22T09:55:53.000Z</time>
      </trkpt>
      <trkpt lat="44.73974" lon="5.92464">
        <ele>1517</ele>
        <time>2013-02-22T09:56:01.000Z</time>
      </trkpt>
      <trkpt lat="44.73974" lon="5.92463">
        <ele>1515</ele>
        <time>2013-02-22T09:56:02.000Z</time>
      </trkpt>
      <trkpt lat="44.73972" lon="5.92457">
        <ele>1513</ele>
        <time>2013-02-22T09:56:08.000Z</time>
      </trkpt>
      <trkpt lat="44.73972" lon="5.92457">
        <ele>1512</ele>
        <time>2013-02-22T09:56:09.000Z</time>
      </trkpt>
      <trkpt lat="44.7397" lon="5.92452">
        <ele>1512</ele>
        <time>2013-02-22T09:56:18.000Z</time>
      </trkpt>
      <trkpt lat="44.7397" lon="5.9245">
        <ele>1513</ele>
        <time>2013-02-22T09:56:19.000Z</time>
      </trkpt>
      <trkpt lat="44.73969" lon="5.92444">
        <ele>1511</ele>
        <time>2013-02-22T09:56:24.000Z</time>
      </trkpt>
      <trkpt lat="44.73969" lon="5.92443">
        <ele>1510</ele>
        <time>2013-02-22T09:56:25.000Z</time>
      </trkpt>
      <trkpt lat="44.73968" lon="5.92437">
        <ele>1511</ele>
        <time>2013-02-22T09:56:30.000Z</time>
      </trkpt>
      <trkpt lat="44.73968" lon="5.92436">
        <ele>1510</ele>
        <time>2013-02-22T09:56:31.000Z</time>
      </trkpt>
      <trkpt lat="44.73966" lon="5.92431">
        <ele>1518</ele>
        <time>2013-02-22T09:56:37.000Z</time>
      </trkpt>
      <trkpt lat="44.73966" lon="5.9243">
        <ele>1518</ele>
        <time>2013-02-22T09:56:38.000Z</time>
      </trkpt>
      <trkpt lat="44.73964" lon="5.92425">
        <ele>1518</ele>
        <time>2013-02-22T09:56:46.000Z</time>
      </trkpt>
      <trkpt lat="44.73964" lon="5.92424">
        <ele>1518</ele>
        <time>2013-02-22T09:56:47.000Z</time>
      </trkpt>
      <trkpt lat="44.73965" lon="5.92418">
        <ele>1525</ele>
        <time>2013-02-22T09:56:55.000Z</time>
      </trkpt>
      <trkpt lat="44.73966" lon="5.92417">
        <ele>1526</ele>
        <time>2013-02-22T09:56:56.000Z</time>
      </trkpt>
      <trkpt lat="44.73967" lon="5.92412">
        <ele>1522</ele>
        <time>2013-02-22T09:57:02.000Z</time>
      </trkpt>
      <trkpt lat="44.73967" lon="5.92411">
        <ele>1521</ele>
        <time>2013-02-22T09:57:03.000Z</time>
      </trkpt>
      <trkpt lat="44.73968" lon="5.92405">
        <ele>1525</ele>
        <time>2013-02-22T09:57:09.000Z</time>
      </trkpt>
      <trkpt lat="44.73969" lon="5.92405">
        <ele>1526</ele>
        <time>2013-02-22T09:57:10.000Z</time>
      </trkpt>
      <trkpt lat="44.73967" lon="5.92399">
        <ele>1526</ele>
        <time>2013-02-22T09:57:19.000Z</time>
      </trkpt>
      <trkpt lat="44.73966" lon="5.92399">
        <ele>1527</ele>
        <time>2013-02-22T09:57:20.000Z</time>
      </trkpt>
      <trkpt lat="44.73965" lon="5.92393">
        <ele>1523</ele>
        <time>2013-02-22T09:57:29.000Z</time>
      </trkpt>
      <trkpt lat="44.73965" lon="5.92392">
        <ele>1524</ele>
        <time>2013-02-22T09:57:30.000Z</time>
      </trkpt>
      <trkpt lat="44.73965" lon="5.92386">
        <ele>1527</ele>
        <time>2013-02-22T09:57:39.000Z</time>
      </trkpt>
      <trkpt lat="44.73966" lon="5.92385">
        <ele>1530</ele>
        <time>2013-02-22T09:57:40.000Z</time>
      </trkpt>
      <trkpt lat="44.73967" lon="5.9238">
        <ele>1528</ele>
        <time>2013-02-22T09:57:46.000Z</time>
      </trkpt>
      <trkpt lat="44.73968" lon="5.9238">
        <ele>1527</ele>
        <time>2013-02-22T09:57:47.000Z</time>
      </trkpt>
      <trkpt lat="44.73972" lon="5.92378">
        <ele>1538</ele>
        <time>2013-02-22T09:58:02.000Z</time>
      </trkpt>
      <trkpt lat="44.73972" lon="5.92378">
        <ele>1538</ele>
        <time>2013-02-22T09:58:03.000Z</time>
      </trkpt>
      <trkpt lat="44.73976" lon="5.92378">
        <ele>1539</ele>
        <time>2013-02-22T09:58:11.000Z</time>
      </trkpt>
      <trkpt lat="44.73977" lon="5.92378">
        <ele>1540</ele>
        <time>2013-02-22T09:58:12.000Z</time>
      </trkpt>
      <trkpt lat="44.73981" lon="5.9238">
        <ele>1543</ele>
        <time>2013-02-22T09:58:23.000Z</time>
      </trkpt>
      <trkpt lat="44.73981" lon="5.92381">
        <ele>1542</ele>
        <time>2013-02-22T09:58:24.000Z</time>
      </trkpt>
      <trkpt lat="44.73985" lon="5.92378">
        <ele>1539</ele>
        <time>2013-02-22T09:58:43.000Z</time>
      </trkpt>
      <trkpt lat="44.73985" lon="5.92377">
        <ele>1542</ele>
        <time>2013-02-22T09:58:44.000Z</time>
      </trkpt>
      <trkpt lat="44.73989" lon="5.9238">
        <ele>1549</ele>
        <time>2013-02-22T09:58:56.000Z</time>
      </trkpt>
      <trkpt lat="44.7399" lon="5.92381">
        <ele>1547</ele>
        <time>2013-02-22T09:58:57.000Z</time>
      </trkpt>
      <trkpt lat="44.73993" lon="5.92385">
        <ele>1543</ele>
        <time>2013-02-22T09:59:05.000Z</time>
      </trkpt>
      <trkpt lat="44.73993" lon="5.92385">
        <ele>1540</ele>
        <time>2013-02-22T09:59:06.000Z</time>
      </trkpt>
      <trkpt lat="44.73996" lon="5.92381">
        <ele>1538</ele>
        <time>2013-02-22T09:59:28.000Z</time>
      </trkpt>
      <trkpt lat="44.73997" lon="5.92381">
        <ele>1536</ele>
        <time>2013-02-22T09:59:29.000Z</time>
      </trkpt>
      <trkpt lat="44.73997" lon="5.92376">
        <ele>1539</ele>
        <time>2013-02-22T09:59:45.000Z</time>
      </trkpt>
      <trkpt lat="44.73997" lon="5.92375">
        <ele>1538</ele>
        <time>2013-02-22T09:59:46.000Z</time>
      </trkpt>
      <trkpt lat="44.73999" lon="5.92369">
        <ele>1543</ele>
        <time>2013-02-22T09:59:54.000Z</time>
      </trkpt>
      <trkpt lat="44.73999" lon="5.92368">
        <ele>1545</ele>
        <time>2013-02-22T09:59:55.000Z</time>
      </trkpt>
      <trkpt lat="44.74" lon="5.92363">
        <ele>1544</ele>
        <time>2013-02-22T10:00:02.000Z</time>
      </trkpt>
      <trkpt lat="44.74" lon="5.92362">
        <ele>1549</ele>
        <time>2013-02-22T10:00:03.000Z</time>
      </trkpt>
      <trkpt lat="44.73998" lon="5.92357">
        <ele>1558</ele>
        <time>2013-02-22T10:00:13.000Z</time>
      </trkpt>
      <trkpt lat="44.73998" lon="5.92356">
        <ele>1556</ele>
        <time>2013-02-22T10:00:14.000Z</time>
      </trkpt>
      <trkpt lat="44.73995" lon="5.92352">
        <ele>1550</ele>
        <time>2013-02-22T10:00:22.000Z</time>
      </trkpt>
      <trkpt lat="44.73995" lon="5.92352">
        <ele>1549</ele>
        <time>2013-02-22T10:00:23.000Z</time>
      </trkpt>
      <trkpt lat="44.73993" lon="5.92346">
        <ele>1543</ele>
        <time>2013-02-22T10:00:29.000Z</time>
      </trkpt>
      <trkpt lat="44.73993" lon="5.92346">
        <ele>1544</ele>
        <time>2013-02-22T10:00:30.000Z</time>
      </trkpt>
      <trkpt lat="44.73995" lon="5.92341">
        <ele>1551</ele>
        <time>2013-02-22T10:00:36.000Z</time>
      </trkpt>
      <trkpt lat="44.73996" lon="5.92341">
        <ele>1553</ele>
        <time>2013-02-22T10:00:37.000Z</time>
      </trkpt>
      <trkpt lat="44.74" lon="5.92341">
        <ele>1558</ele>
        <time>2013-02-22T10:00:42.000Z</time>
      </trkpt>
      <trkpt lat="44.74001" lon="5.92341">
        <ele>1557</ele>
        <time>2013-02-22T10:00:43.000Z</time>
      </trkpt>
      <trkpt lat="44.73999" lon="5.92336">
        <ele>1555</ele>
        <time>2013-02-22T10:01:12.000Z</time>
      </trkpt>
      <trkpt lat="44.73999" lon="5.92335">
        <ele>1553</ele>
        <time>2013-02-22T10:01:13.000Z</time>
      </trkpt>
      <trkpt lat="44.74" lon="5.92329">
        <ele>1562</ele>
        <time>2013-02-22T10:01:21.000Z</time>
      </trkpt>
      <trkpt lat="44.74" lon="5.92328">
        <ele>1563</ele>
        <time>2013-02-22T10:01:22.000Z</time>
      </trkpt>
      <trkpt lat="44.73997" lon="5.92324">
        <ele>1556</ele>
        <time>2013-02-22T10:01:29.000Z</time>
      </trkpt>
      <trkpt lat="44.73996" lon="5.92324">
        <ele>1558</ele>
        <time>2013-02-22T10:01:30.000Z</time>
      </trkpt>
      <trkpt lat="44.73998" lon="5.92319">
        <ele>1566</ele>
        <time>2013-02-22T10:02:00.000Z</time>
      </trkpt>
      <trkpt lat="44.73999" lon="5.92319">
        <ele>1567</ele>
        <time>2013-02-22T10:02:01.000Z</time>
      </trkpt>
      <trkpt lat="44.74003" lon="5.92319">
        <ele>1565</ele>
        <time>2013-02-22T10:02:05.000Z</time>
      </trkpt>
      <trkpt lat="44.74004" lon="5.92319">
        <ele>1566</ele>
        <time>2013-02-22T10:02:06.000Z</time>
      </trkpt>
      <trkpt lat="44.74008" lon="5.9232">
        <ele>1567</ele>
        <time>2013-02-22T10:02:10.000Z</time>
      </trkpt>
      <trkpt lat="44.74008" lon="5.9232">
        <ele>1567</ele>
        <time>2013-02-22T10:02:11.000Z</time>
      </trkpt>
      <trkpt lat="44.74005" lon="5.92322">
        <ele>1566</ele>
        <time>2013-02-22T10:02:20.000Z</time>
      </trkpt>
      <trkpt lat="44.74004" lon="5.92322">
        <ele>1563</ele>
        <time>2013-02-22T10:02:21.000Z</time>
      </trkpt>
      <trkpt lat="44.74007" lon="5.92326">
        <ele>1565</ele>
        <time>2013-02-22T10:02:34.000Z</time>
      </trkpt>
      <trkpt lat="44.74008" lon="5.92326">
        <ele>1565</ele>
        <time>2013-02-22T10:02:35.000Z</time>
      </trkpt>
      <trkpt lat="44.74007" lon="5.9232">
        <ele>1561</ele>
        <time>2013-02-22T10:02:49.000Z</time>
      </trkpt>
      <trkpt lat="44.74007" lon="5.92319">
        <ele>1562</ele>
        <time>2013-02-22T10:02:50.000Z</time>
      </trkpt>
      <trkpt lat="44.74007" lon="5.92313">
        <ele>1572</ele>
        <time>2013-02-22T10:02:57.000Z</time>
      </trkpt>
      <trkpt lat="44.74008" lon="5.92313">
        <ele>1572</ele>
        <time>2013-02-22T10:02:58.000Z</time>
      </trkpt>
      <trkpt lat="44.7401" lon="5.92308">
        <ele>1583</ele>
        <time>2013-02-22T10:03:04.000Z</time>
      </trkpt>
      <trkpt lat="44.7401" lon="5.92307">
        <ele>1584</ele>
        <time>2013-02-22T10:03:05.000Z</time>
      </trkpt>
      <trkpt lat="44.74007" lon="5.92303">
        <ele>1582</ele>
        <time>2013-02-22T10:03:12.000Z</time>
      </trkpt>
      <trkpt lat="44.74006" lon="5.92303">
        <ele>1582</ele>
        <time>2013-02-22T10:03:13.000Z</time>
      </trkpt>
      <trkpt lat="44.74005" lon="5.92298">
        <ele>1577</ele>
        <time>2013-02-22T10:03:21.000Z</time>
      </trkpt>
      <trkpt lat="44.74005" lon="5.92297">
        <ele>1576</ele>
        <time>2013-02-22T10:03:22.000Z</time>
      </trkpt>
      <trkpt lat="44.74004" lon="5.92291">
        <ele>1580</ele>
        <time>2013-02-22T10:03:28.000Z</time>
      </trkpt>
      <trkpt lat="44.74004" lon="5.9229">
        <ele>1581</ele>
        <time>2013-02-22T10:03:29.000Z</time>
      </trkpt>
      <trkpt lat="44.74001" lon="5.92287">
        <ele>1578</ele>
        <time>2013-02-22T10:03:38.000Z</time>
      </trkpt>
      <trkpt lat="44.74" lon="5.92287">
        <ele>1577</ele>
        <time>2013-02-22T10:03:39.000Z</time>
      </trkpt>
      <trkpt lat="44.73998" lon="5.92281">
        <ele>1579</ele>
        <time>2013-02-22T10:03:50.000Z</time>
      </trkpt>
      <trkpt lat="44.73998" lon="5.9228">
        <ele>1579</ele>
        <time>2013-02-22T10:03:51.000Z</time>
      </trkpt>
      <trkpt lat="44.73998" lon="5.92274">
        <ele>1583</ele>
        <time>2013-02-22T10:04:01.000Z</time>
      </trkpt>
      <trkpt lat="44.73998" lon="5.92274">
        <ele>1583</ele>
        <time>2013-02-22T10:04:02.000Z</time>
      </trkpt>
      <trkpt lat="44.73995" lon="5.92269">
        <ele>1587</ele>
        <time>2013-02-22T10:04:23.000Z</time>
      </trkpt>
      <trkpt lat="44.73995" lon="5.92268">
        <ele>1586</ele>
        <time>2013-02-22T10:04:24.000Z</time>
      </trkpt>
      <trkpt lat="44.73998" lon="5.92267">
        <ele>1586</ele>
        <time>2013-02-22T10:04:37.000Z</time>
      </trkpt>
      <trkpt lat="44.74" lon="5.92267">
        <ele>1585</ele>
        <time>2013-02-22T10:04:38.000Z</time>
      </trkpt>
      <trkpt lat="44.74003" lon="5.92271">
        <ele>1582</ele>
        <time>2013-02-22T10:04:52.000Z</time>
      </trkpt>
      <trkpt lat="44.74004" lon="5.92271">
        <ele>1582</ele>
        <time>2013-02-22T10:04:53.000Z</time>
      </trkpt>
      <trkpt lat="44.74008" lon="5.92273">
        <ele>1585</ele>
        <time>2013-02-22T10:04:58.000Z</time>
      </trkpt>
      <trkpt lat="44.74009" lon="5.92273">
        <ele>1586</ele>
        <time>2013-02-22T10:04:59.000Z</time>
      </trkpt>
      <trkpt lat="44.74013" lon="5.92274">
        <ele>1586</ele>
        <time>2013-02-22T10:05:05.000Z</time>
      </trkpt>
      <trkpt lat="44.74014" lon="5.92274">
        <ele>1586</ele>
        <time>2013-02-22T10:05:06.000Z</time>
      </trkpt>
      <trkpt lat="44.74018" lon="5.92274">
        <ele>1587</ele>
        <time>2013-02-22T10:05:15.000Z</time>
      </trkpt>
      <trkpt lat="44.74019" lon="5.92274">
        <ele>1589</ele>
        <time>2013-02-22T10:05:16.000Z</time>
      </trkpt>
      <trkpt lat="44.74016" lon="5.9227">
        <ele>1584</ele>
        <time>2013-02-22T10:05:25.000Z</time>
      </trkpt>
      <trkpt lat="44.74015" lon="5.9227">
        <ele>1578</ele>
        <time>2013-02-22T10:05:26.000Z</time>
      </trkpt>
      <trkpt lat="44.74012" lon="5.92266">
        <ele>1596</ele>
        <time>2013-02-22T10:05:38.000Z</time>
      </trkpt>
      <trkpt lat="44.74012" lon="5.92265">
        <ele>1593</ele>
        <time>2013-02-22T10:05:39.000Z</time>
      </trkpt>
      <trkpt lat="44.74016" lon="5.92262">
        <ele>1594</ele>
        <time>2013-02-22T10:05:56.000Z</time>
      </trkpt>
      <trkpt lat="44.74017" lon="5.92263">
        <ele>1593</ele>
        <time>2013-02-22T10:05:57.000Z</time>
      </trkpt>
      <trkpt lat="44.7402" lon="5.92265">
        <ele>1597</ele>
        <time>2013-02-22T10:06:03.000Z</time>
      </trkpt>
      <trkpt lat="44.74021" lon="5.92265">
        <ele>1598</ele>
        <time>2013-02-22T10:06:04.000Z</time>
      </trkpt>
      <trkpt lat="44.74024" lon="5.92269">
        <ele>1598</ele>
        <time>2013-02-22T10:06:09.000Z</time>
      </trkpt>
      <trkpt lat="44.74024" lon="5.9227">
        <ele>1599</ele>
        <time>2013-02-22T10:06:10.000Z</time>
      </trkpt>
      <trkpt lat="44.74028" lon="5.92272">
        <ele>1598</ele>
        <time>2013-02-22T10:06:18.000Z</time>
      </trkpt>
      <trkpt lat="44.74029" lon="5.92272">
        <ele>1597</ele>
        <time>2013-02-22T10:06:19.000Z</time>
      </trkpt>
      <trkpt lat="44.74032" lon="5.92275">
        <ele>1598</ele>
        <time>2013-02-22T10:06:27.000Z</time>
      </trkpt>
      <trkpt lat="44.74033" lon="5.92275">
        <ele>1599</ele>
        <time>2013-02-22T10:06:28.000Z</time>
      </trkpt>
      <trkpt lat="44.74037" lon="5.92279">
        <ele>1600</ele>
        <time>2013-02-22T10:06:34.000Z</time>
      </trkpt>
      <trkpt lat="44.74037" lon="5.92279">
        <ele>1600</ele>
        <time>2013-02-22T10:06:35.000Z</time>
      </trkpt>
      <trkpt lat="44.74039" lon="5.92284">
        <ele>1597</ele>
        <time>2013-02-22T10:06:51.000Z</time>
      </trkpt>
      <trkpt lat="44.7404" lon="5.92284">
        <ele>1599</ele>
        <time>2013-02-22T10:06:52.000Z</time>
      </trkpt>
      <trkpt lat="44.74043" lon="5.92284">
        <ele>1601</ele>
        <time>2013-02-22T10:06:55.000Z</time>
      </trkpt>
      <trkpt lat="44.74044" lon="5.92284">
        <ele>1600</ele>
        <time>2013-02-22T10:06:56.000Z</time>
      </trkpt>
      <trkpt lat="44.74048" lon="5.92285">
        <ele>1604</ele>
        <time>2013-02-22T10:07:00.000Z</time>
      </trkpt>
      <trkpt lat="44.74049" lon="5.92285">
        <ele>1604</ele>
        <time>2013-02-22T10:07:01.000Z</time>
      </trkpt>
      <trkpt lat="44.74048" lon="5.92279">
        <ele>1603</ele>
        <time>2013-02-22T10:07:09.000Z</time>
      </trkpt>
      <trkpt lat="44.74048" lon="5.92278">
        <ele>1607</ele>
        <time>2013-02-22T10:07:10.000Z</time>
      </trkpt>
      <trkpt lat="44.74046" lon="5.92273">
        <ele>1607</ele>
        <time>2013-02-22T10:07:18.000Z</time>
      </trkpt>
      <trkpt lat="44.74046" lon="5.92272">
        <ele>1607</ele>
        <time>2013-02-22T10:07:19.000Z</time>
      </trkpt>
      <trkpt lat="44.74043" lon="5.9227">
        <ele>1594</ele>
        <time>2013-02-22T10:07:25.000Z</time>
      </trkpt>
      <trkpt lat="44.74042" lon="5.92269">
        <ele>1592</ele>
        <time>2013-02-22T10:07:26.000Z</time>
      </trkpt>
      <trkpt lat="44.74039" lon="5.92265">
        <ele>1596</ele>
        <time>2013-02-22T10:07:33.000Z</time>
      </trkpt>
      <trkpt lat="44.74039" lon="5.92264">
        <ele>1598</ele>
        <time>2013-02-22T10:07:34.000Z</time>
      </trkpt>
      <trkpt lat="44.74038" lon="5.92258">
        <ele>1604</ele>
        <time>2013-02-22T10:07:41.000Z</time>
      </trkpt>
      <trkpt lat="44.74038" lon="5.92258">
        <ele>1603</ele>
        <time>2013-02-22T10:07:42.000Z</time>
      </trkpt>
      <trkpt lat="44.74037" lon="5.92252">
        <ele>1607</ele>
        <time>2013-02-22T10:08:04.000Z</time>
      </trkpt>
      <trkpt lat="44.74036" lon="5.92251">
        <ele>1607</ele>
        <time>2013-02-22T10:08:05.000Z</time>
      </trkpt>
      <trkpt lat="44.74033" lon="5.92246">
        <ele>1613</ele>
        <time>2013-02-22T10:08:15.000Z</time>
      </trkpt>
      <trkpt lat="44.74033" lon="5.92246">
        <ele>1612</ele>
        <time>2013-02-22T10:08:16.000Z</time>
      </trkpt>
      <trkpt lat="44.7403" lon="5.92241">
        <ele>1606</ele>
        <time>2013-02-22T10:08:25.000Z</time>
      </trkpt>
      <trkpt lat="44.7403" lon="5.9224">
        <ele>1604</ele>
        <time>2013-02-22T10:08:26.000Z</time>
      </trkpt>
      <trkpt lat="44.7403" lon="5.92234">
        <ele>1611</ele>
        <time>2013-02-22T10:08:33.000Z</time>
      </trkpt>
      <trkpt lat="44.7403" lon="5.92234">
        <ele>1613</ele>
        <time>2013-02-22T10:08:34.000Z</time>
      </trkpt>
      <trkpt lat="44.74034" lon="5.92235">
        <ele>1611</ele>
        <time>2013-02-22T10:08:48.000Z</time>
      </trkpt>
      <trkpt lat="44.74035" lon="5.92235">
        <ele>1612</ele>
        <time>2013-02-22T10:08:49.000Z</time>
      </trkpt>
      <trkpt lat="44.74039" lon="5.92237">
        <ele>1615</ele>
        <time>2013-02-22T10:08:54.000Z</time>
      </trkpt>
      <trkpt lat="44.74039" lon="5.92237">
        <ele>1615</ele>
        <time>2013-02-22T10:08:55.000Z</time>
      </trkpt>
      <trkpt lat="44.74043" lon="5.92238">
        <ele>1615</ele>
        <time>2013-02-22T10:09:00.000Z</time>
      </trkpt>
      <trkpt lat="44.74044" lon="5.92238">
        <ele>1615</ele>
        <time>2013-02-22T10:09:01.000Z</time>
      </trkpt>
      <trkpt lat="44.74048" lon="5.9224">
        <ele>1616</ele>
        <time>2013-02-22T10:09:10.000Z</time>
      </trkpt>
      <trkpt lat="44.74048" lon="5.9224">
        <ele>1618</ele>
        <time>2013-02-22T10:09:11.000Z</time>
      </trkpt>
      <trkpt lat="44.74051" lon="5.92244">
        <ele>1620</ele>
        <time>2013-02-22T10:09:19.000Z</time>
      </trkpt>
      <trkpt lat="44.74052" lon="5.92245">
        <ele>1621</ele>
        <time>2013-02-22T10:09:20.000Z</time>
      </trkpt>
      <trkpt lat="44.7405" lon="5.92239">
        <ele>1632</ele>
        <time>2013-02-22T10:09:31.000Z</time>
      </trkpt>
      <trkpt lat="44.7405" lon="5.92239">
        <ele>1630</ele>
        <time>2013-02-22T10:09:32.000Z</time>
      </trkpt>
      <trkpt lat="44.74047" lon="5.92235">
        <ele>1632</ele>
        <time>2013-02-22T10:09:38.000Z</time>
      </trkpt>
      <trkpt lat="44.74046" lon="5.92235">
        <ele>1631</ele>
        <time>2013-02-22T10:09:39.000Z</time>
      </trkpt>
      <trkpt lat="44.74045" lon="5.92229">
        <ele>1630</ele>
        <time>2013-02-22T10:09:46.000Z</time>
      </trkpt>
      <trkpt lat="44.74044" lon="5.92228">
        <ele>1628</ele>
        <time>2013-02-22T10:09:47.000Z</time>
      </trkpt>
      <trkpt lat="44.74043" lon="5.92223">
        <ele>1625</ele>
        <time>2013-02-22T10:09:55.000Z</time>
      </trkpt>
      <trkpt lat="44.74042" lon="5.92222">
        <ele>1625</ele>
        <time>2013-02-22T10:09:56.000Z</time>
      </trkpt>
      <trkpt lat="44.74041" lon="5.92216">
        <ele>1619</ele>
        <time>2013-02-22T10:10:04.000Z</time>
      </trkpt>
      <trkpt lat="44.74041" lon="5.92216">
        <ele>1623</ele>
        <time>2013-02-22T10:10:05.000Z</time>
      </trkpt>
      <trkpt lat="44.74038" lon="5.9221">
        <ele>1632</ele>
        <time>2013-02-22T10:10:19.000Z</time>
      </trkpt>
      <trkpt lat="44.74038" lon="5.92209">
        <ele>1631</ele>
        <time>2013-02-22T10:10:20.000Z</time>
      </trkpt>
      <trkpt lat="44.74035" lon="5.92204">
        <ele>1630</ele>
        <time>2013-02-22T10:10:25.000Z</time>
      </trkpt>
      <trkpt lat="44.74035" lon="5.92204">
        <ele>1627</ele>
        <time>2013-02-22T10:10:26.000Z</time>
      </trkpt>
      <trkpt lat="44.74032" lon="5.92198">
        <ele>1628</ele>
        <time>2013-02-22T10:10:34.000Z</time>
      </trkpt>
      <trkpt lat="44.74032" lon="5.92197">
        <ele>1629</ele>
        <time>2013-02-22T10:10:35.000Z</time>
      </trkpt>
      <trkpt lat="44.74031" lon="5.92191">
        <ele>1631</ele>
        <time>2013-02-22T10:10:50.000Z</time>
      </trkpt>
      <trkpt lat="44.74031" lon="5.92191">
        <ele>1629</ele>
        <time>2013-02-22T10:10:51.000Z</time>
      </trkpt>
      <trkpt lat="44.74035" lon="5.9219">
        <ele>1632</ele>
        <time>2013-02-22T10:11:19.000Z</time>
      </trkpt>
      <trkpt lat="44.74036" lon="5.9219">
        <ele>1634</ele>
        <time>2013-02-22T10:11:20.000Z</time>
      </trkpt>
      <trkpt lat="44.7404" lon="5.92192">
        <ele>1634</ele>
        <time>2013-02-22T10:11:29.000Z</time>
      </trkpt>
      <trkpt lat="44.74041" lon="5.92193">
        <ele>1633</ele>
        <time>2013-02-22T10:11:30.000Z</time>
      </trkpt>
      <trkpt lat="44.74044" lon="5.92197">
        <ele>1636</ele>
        <time>2013-02-22T10:11:37.000Z</time>
      </trkpt>
      <trkpt lat="44.74044" lon="5.92197">
        <ele>1636</ele>
        <time>2013-02-22T10:11:38.000Z</time>
      </trkpt>
      <trkpt lat="44.74048" lon="5.922">
        <ele>1635</ele>
        <time>2013-02-22T10:11:46.000Z</time>
      </trkpt>
      <trkpt lat="44.74048" lon="5.922">
        <ele>1635</ele>
        <time>2013-02-22T10:11:47.000Z</time>
      </trkpt>
      <trkpt lat="44.74052" lon="5.922">
        <ele>1636</ele>
        <time>2013-02-22T10:11:52.000Z</time>
      </trkpt>
      <trkpt lat="44.74053" lon="5.922">
        <ele>1636</ele>
        <time>2013-02-22T10:11:53.000Z</time>
      </trkpt>
      <trkpt lat="44.74057" lon="5.92202">
        <ele>1641</ele>
        <time>2013-02-22T10:12:02.000Z</time>
      </trkpt>
      <trkpt lat="44.74057" lon="5.92202">
        <ele>1639</ele>
        <time>2013-02-22T10:12:03.000Z</time>
      </trkpt>
      <trkpt lat="44.74061" lon="5.92205">
        <ele>1641</ele>
        <time>2013-02-22T10:12:10.000Z</time>
      </trkpt>
      <trkpt lat="44.74061" lon="5.92206">
        <ele>1640</ele>
        <time>2013-02-22T10:12:11.000Z</time>
      </trkpt>
      <trkpt lat="44.74064" lon="5.92209">
        <ele>1643</ele>
        <time>2013-02-22T10:12:18.000Z</time>
      </trkpt>
      <trkpt lat="44.74065" lon="5.92209">
        <ele>1644</ele>
        <time>2013-02-22T10:12:19.000Z</time>
      </trkpt>
      <trkpt lat="44.74069" lon="5.9221">
        <ele>1643</ele>
        <time>2013-02-22T10:12:24.000Z</time>
      </trkpt>
      <trkpt lat="44.7407" lon="5.9221">
        <ele>1644</ele>
        <time>2013-02-22T10:12:25.000Z</time>
      </trkpt>
      <trkpt lat="44.74074" lon="5.92211">
        <ele>1646</ele>
        <time>2013-02-22T10:12:32.000Z</time>
      </trkpt>
      <trkpt lat="44.74075" lon="5.92211">
        <ele>1647</ele>
        <time>2013-02-22T10:12:33.000Z</time>
      </trkpt>
      <trkpt lat="44.74079" lon="5.92213">
        <ele>1651</ele>
        <time>2013-02-22T10:12:43.000Z</time>
      </trkpt>
      <trkpt lat="44.74079" lon="5.92213">
        <ele>1652</ele>
        <time>2013-02-22T10:12:44.000Z</time>
      </trkpt>
      <trkpt lat="44.74083" lon="5.92215">
        <ele>1651</ele>
        <time>2013-02-22T10:12:52.000Z</time>
      </trkpt>
      <trkpt lat="44.74084" lon="5.92215">
        <ele>1650</ele>
        <time>2013-02-22T10:12:53.000Z</time>
      </trkpt>
      <trkpt lat="44.74086" lon="5.9222">
        <ele>1651</ele>
        <time>2013-02-22T10:13:03.000Z</time>
      </trkpt>
      <trkpt lat="44.74087" lon="5.92221">
        <ele>1648</ele>
        <time>2013-02-22T10:13:04.000Z</time>
      </trkpt>
      <trkpt lat="44.7409" lon="5.92223">
        <ele>1651</ele>
        <time>2013-02-22T10:13:23.000Z</time>
      </trkpt>
      <trkpt lat="44.74091" lon="5.92223">
        <ele>1651</ele>
        <time>2013-02-22T10:13:24.000Z</time>
      </trkpt>
      <trkpt lat="44.74095" lon="5.92226">
        <ele>1653</ele>
        <time>2013-02-22T10:13:48.000Z</time>
      </trkpt>
      <trkpt lat="44.74095" lon="5.92226">
        <ele>1651</ele>
        <time>2013-02-22T10:13:49.000Z</time>
      </trkpt>
      <trkpt lat="44.74093" lon="5.92221">
        <ele>1653</ele>
        <time>2013-02-22T10:13:59.000Z</time>
      </trkpt>
      <trkpt lat="44.74093" lon="5.9222">
        <ele>1653</ele>
        <time>2013-02-22T10:14:00.000Z</time>
      </trkpt>
      <trkpt lat="44.74089" lon="5.92216">
        <ele>1648</ele>
        <time>2013-02-22T10:14:07.000Z</time>
      </trkpt>
      <trkpt lat="44.74089" lon="5.92215">
        <ele>1650</ele>
        <time>2013-02-22T10:14:08.000Z</time>
      </trkpt>
      <trkpt lat="44.74087" lon="5.9221">
        <ele>1658</ele>
        <time>2013-02-22T10:14:15.000Z</time>
      </trkpt>
      <trkpt lat="44.74086" lon="5.92209">
        <ele>1657</ele>
        <time>2013-02-22T10:14:16.000Z</time>
      </trkpt>
      <trkpt lat="44.74083" lon="5.92206">
        <ele>1658</ele>
        <time>2013-02-22T10:14:20.000Z</time>
      </trkpt>
      <trkpt lat="44.74082" lon="5.92205">
        <ele>1656</ele>
        <time>2013-02-22T10:14:21.000Z</time>
      </trkpt>
      <trkpt lat="44.74079" lon="5.92201">
        <ele>1655</ele>
        <time>2013-02-22T10:14:30.000Z</time>
      </trkpt>
      <trkpt lat="44.74079" lon="5.922">
        <ele>1655</ele>
        <time>2013-02-22T10:14:31.000Z</time>
      </trkpt>
      <trkpt lat="44.74079" lon="5.92194">
        <ele>1655</ele>
        <time>2013-02-22T10:14:39.000Z</time>
      </trkpt>
      <trkpt lat="44.74079" lon="5.92193">
        <ele>1655</ele>
        <time>2013-02-22T10:14:40.000Z</time>
      </trkpt>
      <trkpt lat="44.74077" lon="5.92188">
        <ele>1656</ele>
        <time>2013-02-22T10:14:50.000Z</time>
      </trkpt>
      <trkpt lat="44.74077" lon="5.92187">
        <ele>1656</ele>
        <time>2013-02-22T10:14:51.000Z</time>
      </trkpt>
      <trkpt lat="44.74074" lon="5.92182">
        <ele>1658</ele>
        <time>2013-02-22T10:14:58.000Z</time>
      </trkpt>
      <trkpt lat="44.74074" lon="5.92182">
        <ele>1657</ele>
        <time>2013-02-22T10:14:59.000Z</time>
      </trkpt>
      <trkpt lat="44.74072" lon="5.92176">
        <ele>1651</ele>
        <time>2013-02-22T10:15:08.000Z</time>
      </trkpt>
      <trkpt lat="44.74072" lon="5.92176">
        <ele>1654</ele>
        <time>2013-02-22T10:15:09.000Z</time>
      </trkpt>
      <trkpt lat="44.7407" lon="5.9217">
        <ele>1653</ele>
        <time>2013-02-22T10:15:16.000Z</time>
      </trkpt>
      <trkpt lat="44.7407" lon="5.92169">
        <ele>1655</ele>
        <time>2013-02-22T10:15:17.000Z</time>
      </trkpt>
      <trkpt lat="44.7407" lon="5.92163">
        <ele>1658</ele>
        <time>2013-02-22T10:15:25.000Z</time>
      </trkpt>
      <trkpt lat="44.7407" lon="5.92162">
        <ele>1661</ele>
        <time>2013-02-22T10:15:26.000Z</time>
      </trkpt>
      <trkpt lat="44.74069" lon="5.92156">
        <ele>1662</ele>
        <time>2013-02-22T10:15:34.000Z</time>
      </trkpt>
      <trkpt lat="44.74069" lon="5.92155">
        <ele>1660</ele>
        <time>2013-02-22T10:15:35.000Z</time>
      </trkpt>
      <trkpt lat="44.74067" lon="5.92151">
        <ele>1665</ele>
        <time>2013-02-22T10:15:41.000Z</time>
      </trkpt>
      <trkpt lat="44.74066" lon="5.9215">
        <ele>1666</ele>
        <time>2013-02-22T10:15:42.000Z</time>
      </trkpt>
      <trkpt lat="44.74063" lon="5.92146">
        <ele>1667</ele>
        <time>2013-02-22T10:15:50.000Z</time>
      </trkpt>
      <trkpt lat="44.74063" lon="5.92145">
        <ele>1669</ele>
        <time>2013-02-22T10:15:51.000Z</time>
      </trkpt>
      <trkpt lat="44.74062" lon="5.92139">
        <ele>1664</ele>
        <time>2013-02-22T10:15:58.000Z</time>
      </trkpt>
      <trkpt lat="44.74062" lon="5.92138">
        <ele>1664</ele>
        <time>2013-02-22T10:15:59.000Z</time>
      </trkpt>
      <trkpt lat="44.74062" lon="5.92132">
        <ele>1668</ele>
        <time>2013-02-22T10:16:08.000Z</time>
      </trkpt>
      <trkpt lat="44.74061" lon="5.92132">
        <ele>1667</ele>
        <time>2013-02-22T10:16:09.000Z</time>
      </trkpt>
      <trkpt lat="44.74061" lon="5.92125">
        <ele>1667</ele>
        <time>2013-02-22T10:16:18.000Z</time>
      </trkpt>
      <trkpt lat="44.74061" lon="5.92125">
        <ele>1665</ele>
        <time>2013-02-22T10:16:19.000Z</time>
      </trkpt>
      <trkpt lat="44.74059" lon="5.9212">
        <ele>1668</ele>
        <time>2013-02-22T10:16:25.000Z</time>
      </trkpt>
      <trkpt lat="44.74058" lon="5.9212">
        <ele>1669</ele>
        <time>2013-02-22T10:16:26.000Z</time>
      </trkpt>
      <trkpt lat="44.74056" lon="5.92114">
        <ele>1667</ele>
        <time>2013-02-22T10:16:36.000Z</time>
      </trkpt>
      <trkpt lat="44.74056" lon="5.92114">
        <ele>1668</ele>
        <time>2013-02-22T10:16:37.000Z</time>
      </trkpt>
      <trkpt lat="44.74055" lon="5.92108">
        <ele>1668</ele>
        <time>2013-02-22T10:16:45.000Z</time>
      </trkpt>
      <trkpt lat="44.74055" lon="5.92107">
        <ele>1669</ele>
        <time>2013-02-22T10:16:46.000Z</time>
      </trkpt>
      <trkpt lat="44.74053" lon="5.92102">
        <ele>1669</ele>
        <time>2013-02-22T10:16:53.000Z</time>
      </trkpt>
      <trkpt lat="44.74053" lon="5.92101">
        <ele>1665</ele>
        <time>2013-02-22T10:16:54.000Z</time>
      </trkpt>
      <trkpt lat="44.74052" lon="5.92095">
        <ele>1676</ele>
        <time>2013-02-22T10:17:02.000Z</time>
      </trkpt>
      <trkpt lat="44.74052" lon="5.92095">
        <ele>1677</ele>
        <time>2013-02-22T10:17:03.000Z</time>
      </trkpt>
      <trkpt lat="44.74052" lon="5.92088">
        <ele>1676</ele>
        <time>2013-02-22T10:17:14.000Z</time>
      </trkpt>
      <trkpt lat="44.74052" lon="5.92088">
        <ele>1675</ele>
        <time>2013-02-22T10:17:15.000Z</time>
      </trkpt>
      <trkpt lat="44.74049" lon="5.92085">
        <ele>1660</ele>
        <time>2013-02-22T10:17:21.000Z</time>
      </trkpt>
      <trkpt lat="44.74048" lon="5.92085">
        <ele>1660</ele>
        <time>2013-02-22T10:17:22.000Z</time>
      </trkpt>
      <trkpt lat="44.74048" lon="5.92079">
        <ele>1664</ele>
        <time>2013-02-22T10:17:28.000Z</time>
      </trkpt>
      <trkpt lat="44.74049" lon="5.92078">
        <ele>1666</ele>
        <time>2013-02-22T10:17:29.000Z</time>
      </trkpt>
      <trkpt lat="44.7405" lon="5.92072">
        <ele>1678</ele>
        <time>2013-02-22T10:17:37.000Z</time>
      </trkpt>
      <trkpt lat="44.7405" lon="5.92072">
        <ele>1681</ele>
        <time>2013-02-22T10:17:38.000Z</time>
      </trkpt>
      <trkpt lat="44.74052" lon="5.92066">
        <ele>1686</ele>
        <time>2013-02-22T10:17:46.000Z</time>
      </trkpt>
      <trkpt lat="44.74052" lon="5.92065">
        <ele>1687</ele>
        <time>2013-02-22T10:17:47.000Z</time>
      </trkpt>
      <trkpt lat="44.74052" lon="5.92059">
        <ele>1687</ele>
        <time>2013-02-22T10:17:55.000Z</time>
      </trkpt>
      <trkpt lat="44.74052" lon="5.92059">
        <ele>1686</ele>
        <time>2013-02-22T10:17:56.000Z</time>
      </trkpt>
      <trkpt lat="44.74051" lon="5.92053">
        <ele>1684</ele>
        <time>2013-02-22T10:18:24.000Z</time>
      </trkpt>
      <trkpt lat="44.74051" lon="5.92052">
        <ele>1685</ele>
        <time>2013-02-22T10:18:25.000Z</time>
      </trkpt>
      <trkpt lat="44.7405" lon="5.92046">
        <ele>1680</ele>
        <time>2013-02-22T10:18:32.000Z</time>
      </trkpt>
      <trkpt lat="44.7405" lon="5.92045">
        <ele>1681</ele>
        <time>2013-02-22T10:18:33.000Z</time>
      </trkpt>
      <trkpt lat="44.74051" lon="5.92039">
        <ele>1691</ele>
        <time>2013-02-22T10:18:39.000Z</time>
      </trkpt>
      <trkpt lat="44.74051" lon="5.92038">
        <ele>1692</ele>
        <time>2013-02-22T10:18:40.000Z</time>
      </trkpt>
      <trkpt lat="44.74055" lon="5.92037">
        <ele>1688</ele>
        <time>2013-02-22T10:18:48.000Z</time>
      </trkpt>
      <trkpt lat="44.74056" lon="5.92037">
        <ele>1688</ele>
        <time>2013-02-22T10:18:49.000Z</time>
      </trkpt>
      <trkpt lat="44.74059" lon="5.92041">
        <ele>1691</ele>
        <time>2013-02-22T10:18:57.000Z</time>
      </trkpt>
      <trkpt lat="44.74059" lon="5.92042">
        <ele>1691</ele>
        <time>2013-02-22T10:18:58.000Z</time>
      </trkpt>
      <trkpt lat="44.74062" lon="5.92045">
        <ele>1691</ele>
        <time>2013-02-22T10:19:03.000Z</time>
      </trkpt>
      <trkpt lat="44.74063" lon="5.92046">
        <ele>1690</ele>
        <time>2013-02-22T10:19:04.000Z</time>
      </trkpt>
      <trkpt lat="44.74066" lon="5.92049">
        <ele>1690</ele>
        <time>2013-02-22T10:19:12.000Z</time>
      </trkpt>
      <trkpt lat="44.74066" lon="5.9205">
        <ele>1690</ele>
        <time>2013-02-22T10:19:13.000Z</time>
      </trkpt>
      <trkpt lat="44.74068" lon="5.92055">
        <ele>1690</ele>
        <time>2013-02-22T10:19:23.000Z</time>
      </trkpt>
      <trkpt lat="44.74069" lon="5.92055">
        <ele>1692</ele>
        <time>2013-02-22T10:19:24.000Z</time>
      </trkpt>
      <trkpt lat="44.74072" lon="5.92058">
        <ele>1692</ele>
        <time>2013-02-22T10:19:31.000Z</time>
      </trkpt>
      <trkpt lat="44.74073" lon="5.92059">
        <ele>1692</ele>
        <time>2013-02-22T10:19:32.000Z</time>
      </trkpt>
      <trkpt lat="44.74076" lon="5.92063">
        <ele>1689</ele>
        <time>2013-02-22T10:19:42.000Z</time>
      </trkpt>
      <trkpt lat="44.74076" lon="5.92063">
        <ele>1693</ele>
        <time>2013-02-22T10:19:43.000Z</time>
      </trkpt>
      <trkpt lat="44.7408" lon="5.92061">
        <ele>1694</ele>
        <time>2013-02-22T10:19:56.000Z</time>
      </trkpt>
      <trkpt lat="44.7408" lon="5.9206">
        <ele>1695</ele>
        <time>2013-02-22T10:19:57.000Z</time>
      </trkpt>
      <trkpt lat="44.74079" lon="5.92054">
        <ele>1692</ele>
        <time>2013-02-22T10:20:04.000Z</time>
      </trkpt>
      <trkpt lat="44.74079" lon="5.92053">
        <ele>1693</ele>
        <time>2013-02-22T10:20:05.000Z</time>
      </trkpt>
      <trkpt lat="44.74081" lon="5.92048">
        <ele>1695</ele>
        <time>2013-02-22T10:20:11.000Z</time>
      </trkpt>
      <trkpt lat="44.74081" lon="5.92047">
        <ele>1695</ele>
        <time>2013-02-22T10:20:12.000Z</time>
      </trkpt>
      <trkpt lat="44.74082" lon="5.92042">
        <ele>1695</ele>
        <time>2013-02-22T10:20:19.000Z</time>
      </trkpt>
      <trkpt lat="44.74083" lon="5.92041">
        <ele>1695</ele>
        <time>2013-02-22T10:20:20.000Z</time>
      </trkpt>
      <trkpt lat="44.74084" lon="5.92035">
        <ele>1702</ele>
        <time>2013-02-22T10:20:28.000Z</time>
      </trkpt>
      <trkpt lat="44.74084" lon="5.92034">
        <ele>1704</ele>
        <time>2013-02-22T10:20:29.000Z</time>
      </trkpt>
      <trkpt lat="44.74088" lon="5.92035">
        <ele>1709</ele>
        <time>2013-02-22T10:20:45.000Z</time>
      </trkpt>
      <trkpt lat="44.74089" lon="5.92035">
        <ele>1710</ele>
        <time>2013-02-22T10:20:46.000Z</time>
      </trkpt>
      <trkpt lat="44.74091" lon="5.9204">
        <ele>1705</ele>
        <time>2013-02-22T10:20:55.000Z</time>
      </trkpt>
      <trkpt lat="44.74092" lon="5.9204">
        <ele>1707</ele>
        <time>2013-02-22T10:20:56.000Z</time>
      </trkpt>
      <trkpt lat="44.74096" lon="5.92042">
        <ele>1708</ele>
        <time>2013-02-22T10:21:01.000Z</time>
      </trkpt>
      <trkpt lat="44.74097" lon="5.92042">
        <ele>1707</ele>
        <time>2013-02-22T10:21:02.000Z</time>
      </trkpt>
      <trkpt lat="44.74101" lon="5.92045">
        <ele>1715</ele>
        <time>2013-02-22T10:21:07.000Z</time>
      </trkpt>
      <trkpt lat="44.74101" lon="5.92045">
        <ele>1714</ele>
        <time>2013-02-22T10:21:08.000Z</time>
      </trkpt>
      <trkpt lat="44.74105" lon="5.92049">
        <ele>1714</ele>
        <time>2013-02-22T10:21:15.000Z</time>
      </trkpt>
      <trkpt lat="44.74105" lon="5.92049">
        <ele>1713</ele>
        <time>2013-02-22T10:21:16.000Z</time>
      </trkpt>
      <trkpt lat="44.74107" lon="5.92044">
        <ele>1710</ele>
        <time>2013-02-22T10:21:35.000Z</time>
      </trkpt>
      <trkpt lat="44.74107" lon="5.92043">
        <ele>1710</ele>
        <time>2013-02-22T10:21:36.000Z</time>
      </trkpt>
      <trkpt lat="44.74109" lon="5.92039">
        <ele>1715</ele>
        <time>2013-02-22T10:21:40.000Z</time>
      </trkpt>
      <trkpt lat="44.74109" lon="5.92038">
        <ele>1716</ele>
        <time>2013-02-22T10:21:41.000Z</time>
      </trkpt>
      <trkpt lat="44.74109" lon="5.92032">
        <ele>1717</ele>
        <time>2013-02-22T10:21:47.000Z</time>
      </trkpt>
      <trkpt lat="44.74109" lon="5.92031">
        <ele>1718</ele>
        <time>2013-02-22T10:21:48.000Z</time>
      </trkpt>
      <trkpt lat="44.74111" lon="5.92025">
        <ele>1719</ele>
        <time>2013-02-22T10:21:55.000Z</time>
      </trkpt>
      <trkpt lat="44.74111" lon="5.92024">
        <ele>1722</ele>
        <time>2013-02-22T10:21:56.000Z</time>
      </trkpt>
      <trkpt lat="44.74113" lon="5.92019">
        <ele>1725</ele>
        <time>2013-02-22T10:22:04.000Z</time>
      </trkpt>
      <trkpt lat="44.74113" lon="5.92018">
        <ele>1725</ele>
        <time>2013-02-22T10:22:05.000Z</time>
      </trkpt>
      <trkpt lat="44.74115" lon="5.92013">
        <ele>1730</ele>
        <time>2013-02-22T10:22:12.000Z</time>
      </trkpt>
      <trkpt lat="44.74116" lon="5.92012">
        <ele>1731</ele>
        <time>2013-02-22T10:22:13.000Z</time>
      </trkpt>
      <trkpt lat="44.74114" lon="5.92007">
        <ele>1717</ele>
        <time>2013-02-22T10:22:21.000Z</time>
      </trkpt>
      <trkpt lat="44.74114" lon="5.92006">
        <ele>1717</ele>
        <time>2013-02-22T10:22:22.000Z</time>
      </trkpt>
      <trkpt lat="44.74115" lon="5.92">
        <ele>1715</ele>
        <time>2013-02-22T10:22:29.000Z</time>
      </trkpt>
      <trkpt lat="44.74115" lon="5.92">
        <ele>1718</ele>
        <time>2013-02-22T10:22:30.000Z</time>
      </trkpt>
      <trkpt lat="44.74116" lon="5.91994">
        <ele>1722</ele>
        <time>2013-02-22T10:22:38.000Z</time>
      </trkpt>
      <trkpt lat="44.74117" lon="5.91993">
        <ele>1724</ele>
        <time>2013-02-22T10:22:39.000Z</time>
      </trkpt>
      <trkpt lat="44.74119" lon="5.91988">
        <ele>1724</ele>
        <time>2013-02-22T10:22:44.000Z</time>
      </trkpt>
      <trkpt lat="44.7412" lon="5.91987">
        <ele>1724</ele>
        <time>2013-02-22T10:22:45.000Z</time>
      </trkpt>
      <trkpt lat="44.74122" lon="5.91982">
        <ele>1727</ele>
        <time>2013-02-22T10:22:51.000Z</time>
      </trkpt>
      <trkpt lat="44.74122" lon="5.91981">
        <ele>1730</ele>
        <time>2013-02-22T10:22:52.000Z</time>
      </trkpt>
      <trkpt lat="44.74122" lon="5.91975">
        <ele>1718</ele>
        <time>2013-02-22T10:22:59.000Z</time>
      </trkpt>
      <trkpt lat="44.74122" lon="5.91975">
        <ele>1718</ele>
        <time>2013-02-22T10:23:00.000Z</time>
      </trkpt>
      <trkpt lat="44.74124" lon="5.9197">
        <ele>1730</ele>
        <time>2013-02-22T10:23:06.000Z</time>
      </trkpt>
      <trkpt lat="44.74125" lon="5.91969">
        <ele>1732</ele>
        <time>2013-02-22T10:23:07.000Z</time>
      </trkpt>
      <trkpt lat="44.74125" lon="5.91963">
        <ele>1725</ele>
        <time>2013-02-22T10:23:15.000Z</time>
      </trkpt>
      <trkpt lat="44.74125" lon="5.91962">
        <ele>1725</ele>
        <time>2013-02-22T10:23:16.000Z</time>
      </trkpt>
      <trkpt lat="44.74127" lon="5.91956">
        <ele>1731</ele>
        <time>2013-02-22T10:23:24.000Z</time>
      </trkpt>
      <trkpt lat="44.74127" lon="5.91956">
        <ele>1734</ele>
        <time>2013-02-22T10:23:25.000Z</time>
      </trkpt>
      <trkpt lat="44.7413" lon="5.91951">
        <ele>1737</ele>
        <time>2013-02-22T10:23:31.000Z</time>
      </trkpt>
      <trkpt lat="44.7413" lon="5.91951">
        <ele>1739</ele>
        <time>2013-02-22T10:23:32.000Z</time>
      </trkpt>
      <trkpt lat="44.74127" lon="5.91946">
        <ele>1717</ele>
        <time>2013-02-22T10:23:38.000Z</time>
      </trkpt>
      <trkpt lat="44.74127" lon="5.91945">
        <ele>1716</ele>
        <time>2013-02-22T10:23:39.000Z</time>
      </trkpt>
      <trkpt lat="44.74128" lon="5.91939">
        <ele>1727</ele>
        <time>2013-02-22T10:23:45.000Z</time>
      </trkpt>
      <trkpt lat="44.74128" lon="5.91939">
        <ele>1727</ele>
        <time>2013-02-22T10:23:46.000Z</time>
      </trkpt>
      <trkpt lat="44.7413" lon="5.91934">
        <ele>1743</ele>
        <time>2013-02-22T10:23:53.000Z</time>
      </trkpt>
      <trkpt lat="44.74132" lon="5.91933">
        <ele>1744</ele>
        <time>2013-02-22T10:23:54.000Z</time>
      </trkpt>
      <trkpt lat="44.74135" lon="5.91931">
        <ele>1745</ele>
        <time>2013-02-22T10:23:57.000Z</time>
      </trkpt>
      <trkpt lat="44.74136" lon="5.91931">
        <ele>1747</ele>
        <time>2013-02-22T10:23:58.000Z</time>
      </trkpt>
      <trkpt lat="44.74139" lon="5.91926">
        <ele>1752</ele>
        <time>2013-02-22T10:24:05.000Z</time>
      </trkpt>
      <trkpt lat="44.74139" lon="5.91925">
        <ele>1752</ele>
        <time>2013-02-22T10:24:06.000Z</time>
      </trkpt>
      <trkpt lat="44.74138" lon="5.91919">
        <ele>1739</ele>
        <time>2013-02-22T10:24:14.000Z</time>
      </trkpt>
      <trkpt lat="44.74137" lon="5.91918">
        <ele>1738</ele>
        <time>2013-02-22T10:24:15.000Z</time>
      </trkpt>
      <trkpt lat="44.74138" lon="5.91913">
        <ele>1744</ele>
        <time>2013-02-22T10:24:23.000Z</time>
      </trkpt>
      <trkpt lat="44.74138" lon="5.91912">
        <ele>1746</ele>
        <time>2013-02-22T10:24:24.000Z</time>
      </trkpt>
      <trkpt lat="44.74141" lon="5.91908">
        <ele>1747</ele>
        <time>2013-02-22T10:24:29.000Z</time>
      </trkpt>
      <trkpt lat="44.74142" lon="5.91907">
        <ele>1749</ele>
        <time>2013-02-22T10:24:30.000Z</time>
      </trkpt>
      <trkpt lat="44.74144" lon="5.91903">
        <ele>1752</ele>
        <time>2013-02-22T10:24:35.000Z</time>
      </trkpt>
      <trkpt lat="44.74145" lon="5.91902">
        <ele>1750</ele>
        <time>2013-02-22T10:24:36.000Z</time>
      </trkpt>
      <trkpt lat="44.74147" lon="5.91896">
        <ele>1758</ele>
        <time>2013-02-22T10:24:45.000Z</time>
      </trkpt>
      <trkpt lat="44.74147" lon="5.91896">
        <ele>1761</ele>
        <time>2013-02-22T10:24:46.000Z</time>
      </trkpt>
      <trkpt lat="44.74148" lon="5.9189">
        <ele>1741</ele>
        <time>2013-02-22T10:24:54.000Z</time>
      </trkpt>
      <trkpt lat="44.74147" lon="5.91889">
        <ele>1737</ele>
        <time>2013-02-22T10:24:55.000Z</time>
      </trkpt>
      <trkpt lat="44.74145" lon="5.91883">
        <ele>1744</ele>
        <time>2013-02-22T10:25:01.000Z</time>
      </trkpt>
      <trkpt lat="44.74145" lon="5.91883">
        <ele>1746</ele>
        <time>2013-02-22T10:25:02.000Z</time>
      </trkpt>
      <trkpt lat="44.74148" lon="5.91878">
        <ele>1751</ele>
        <time>2013-02-22T10:25:08.000Z</time>
      </trkpt>
      <trkpt lat="44.74148" lon="5.91877">
        <ele>1752</ele>
        <time>2013-02-22T10:25:09.000Z</time>
      </trkpt>
      <trkpt lat="44.74152" lon="5.91874">
        <ele>1762</ele>
        <time>2013-02-22T10:25:14.000Z</time>
      </trkpt>
      <trkpt lat="44.74152" lon="5.91874">
        <ele>1763</ele>
        <time>2013-02-22T10:25:15.000Z</time>
      </trkpt>
      <trkpt lat="44.74155" lon="5.91869">
        <ele>1764</ele>
        <time>2013-02-22T10:25:20.000Z</time>
      </trkpt>
      <trkpt lat="44.74155" lon="5.91868">
        <ele>1765</ele>
        <time>2013-02-22T10:25:21.000Z</time>
      </trkpt>
      <trkpt lat="44.74156" lon="5.91863">
        <ele>1761</ele>
        <time>2013-02-22T10:25:29.000Z</time>
      </trkpt>
      <trkpt lat="44.74156" lon="5.91862">
        <ele>1762</ele>
        <time>2013-02-22T10:25:30.000Z</time>
      </trkpt>
      <trkpt lat="44.74154" lon="5.91856">
        <ele>1754</ele>
        <time>2013-02-22T10:25:36.000Z</time>
      </trkpt>
      <trkpt lat="44.74155" lon="5.91855">
        <ele>1757</ele>
        <time>2013-02-22T10:25:37.000Z</time>
      </trkpt>
      <trkpt lat="44.74158" lon="5.91851">
        <ele>1764</ele>
        <time>2013-02-22T10:25:45.000Z</time>
      </trkpt>
      <trkpt lat="44.74158" lon="5.91851">
        <ele>1764</ele>
        <time>2013-02-22T10:25:46.000Z</time>
      </trkpt>
      <trkpt lat="44.74162" lon="5.91853">
        <ele>1769</ele>
        <time>2013-02-22T10:26:09.000Z</time>
      </trkpt>
      <trkpt lat="44.74163" lon="5.91854">
        <ele>1771</ele>
        <time>2013-02-22T10:26:10.000Z</time>
      </trkpt>
      <trkpt lat="44.74166" lon="5.91858">
        <ele>1770</ele>
        <time>2013-02-22T10:26:17.000Z</time>
      </trkpt>
      <trkpt lat="44.74167" lon="5.91858">
        <ele>1770</ele>
        <time>2013-02-22T10:26:18.000Z</time>
      </trkpt>
      <trkpt lat="44.7417" lon="5.91862">
        <ele>1774</ele>
        <time>2013-02-22T10:26:24.000Z</time>
      </trkpt>
      <trkpt lat="44.7417" lon="5.91863">
        <ele>1773</ele>
        <time>2013-02-22T10:26:25.000Z</time>
      </trkpt>
      <trkpt lat="44.74174" lon="5.91867">
        <ele>1773</ele>
        <time>2013-02-22T10:26:32.000Z</time>
      </trkpt>
      <trkpt lat="44.74174" lon="5.91868">
        <ele>1774</ele>
        <time>2013-02-22T10:26:33.000Z</time>
      </trkpt>
      <trkpt lat="44.74176" lon="5.91863">
        <ele>1772</ele>
        <time>2013-02-22T10:26:47.000Z</time>
      </trkpt>
      <trkpt lat="44.74177" lon="5.91862">
        <ele>1773</ele>
        <time>2013-02-22T10:26:48.000Z</time>
      </trkpt>
      <trkpt lat="44.74177" lon="5.91856">
        <ele>1768</ele>
        <time>2013-02-22T10:26:54.000Z</time>
      </trkpt>
      <trkpt lat="44.74177" lon="5.91855">
        <ele>1769</ele>
        <time>2013-02-22T10:26:55.000Z</time>
      </trkpt>
      <trkpt lat="44.7418" lon="5.91851">
        <ele>1776</ele>
        <time>2013-02-22T10:27:01.000Z</time>
      </trkpt>
      <trkpt lat="44.7418" lon="5.9185">
        <ele>1776</ele>
        <time>2013-02-22T10:27:02.000Z</time>
      </trkpt>
      <trkpt lat="44.74182" lon="5.91844">
        <ele>1774</ele>
        <time>2013-02-22T10:27:09.000Z</time>
      </trkpt>
      <trkpt lat="44.74182" lon="5.91843">
        <ele>1776</ele>
        <time>2013-02-22T10:27:10.000Z</time>
      </trkpt>
      <trkpt lat="44.74182" lon="5.91837">
        <ele>1769</ele>
        <time>2013-02-22T10:27:17.000Z</time>
      </trkpt>
      <trkpt lat="44.74182" lon="5.91836">
        <ele>1771</ele>
        <time>2013-02-22T10:27:18.000Z</time>
      </trkpt>
      <trkpt lat="44.74184" lon="5.91831">
        <ele>1769</ele>
        <time>2013-02-22T10:27:26.000Z</time>
      </trkpt>
      <trkpt lat="44.74184" lon="5.9183">
        <ele>1772</ele>
        <time>2013-02-22T10:27:27.000Z</time>
      </trkpt>
      <trkpt lat="44.74184" lon="5.91826">
        <ele>1771</ele>
        <time>2013-02-22T10:27:40.000Z</time>
      </trkpt>
      <trkpt lat="44.74186" lon="5.91823">
        <ele>1775</ele>
        <time>2013-02-22T10:27:41.000Z</time>
      </trkpt>
      <trkpt lat="44.74189" lon="5.91818">
        <ele>1776</ele>
        <time>2013-02-22T10:27:45.000Z</time>
      </trkpt>
      <trkpt lat="44.74189" lon="5.91817">
        <ele>1777</ele>
        <time>2013-02-22T10:27:46.000Z</time>
      </trkpt>
      <trkpt lat="44.74192" lon="5.91813">
        <ele>1783</ele>
        <time>2013-02-22T10:27:49.000Z</time>
      </trkpt>
      <trkpt lat="44.74193" lon="5.91812">
        <ele>1784</ele>
        <time>2013-02-22T10:27:50.000Z</time>
      </trkpt>
      <trkpt lat="44.74197" lon="5.9181">
        <ele>1786</ele>
        <time>2013-02-22T10:27:56.000Z</time>
      </trkpt>
      <trkpt lat="44.74197" lon="5.91809">
        <ele>1786</ele>
        <time>2013-02-22T10:27:57.000Z</time>
      </trkpt>
      <trkpt lat="44.742" lon="5.91806">
        <ele>1787</ele>
        <time>2013-02-22T10:28:05.000Z</time>
      </trkpt>
      <trkpt lat="44.74201" lon="5.91805">
        <ele>1787</ele>
        <time>2013-02-22T10:28:06.000Z</time>
      </trkpt>
      <trkpt lat="44.74205" lon="5.91803">
        <ele>1786</ele>
        <time>2013-02-22T10:28:12.000Z</time>
      </trkpt>
      <trkpt lat="44.74205" lon="5.91802">
        <ele>1787</ele>
        <time>2013-02-22T10:28:13.000Z</time>
      </trkpt>
      <trkpt lat="44.74208" lon="5.91799">
        <ele>1787</ele>
        <time>2013-02-22T10:28:21.000Z</time>
      </trkpt>
      <trkpt lat="44.74209" lon="5.91799">
        <ele>1786</ele>
        <time>2013-02-22T10:28:22.000Z</time>
      </trkpt>
      <trkpt lat="44.74214" lon="5.91798">
        <ele>1781</ele>
        <time>2013-02-22T10:28:29.000Z</time>
      </trkpt>
      <trkpt lat="44.74214" lon="5.91797">
        <ele>1783</ele>
        <time>2013-02-22T10:28:30.000Z</time>
      </trkpt>
      <trkpt lat="44.74218" lon="5.91797">
        <ele>1781</ele>
        <time>2013-02-22T10:28:35.000Z</time>
      </trkpt>
      <trkpt lat="44.74219" lon="5.91796">
        <ele>1786</ele>
        <time>2013-02-22T10:28:36.000Z</time>
      </trkpt>
      <trkpt lat="44.74222" lon="5.91794">
        <ele>1793</ele>
        <time>2013-02-22T10:28:40.000Z</time>
      </trkpt>
      <trkpt lat="44.74223" lon="5.91794">
        <ele>1792</ele>
        <time>2013-02-22T10:28:41.000Z</time>
      </trkpt>
      <trkpt lat="44.74227" lon="5.91792">
        <ele>1789</ele>
        <time>2013-02-22T10:28:47.000Z</time>
      </trkpt>
      <trkpt lat="44.74228" lon="5.91791">
        <ele>1786</ele>
        <time>2013-02-22T10:28:48.000Z</time>
      </trkpt>
      <trkpt lat="44.74232" lon="5.91789">
        <ele>1785</ele>
        <time>2013-02-22T10:28:54.000Z</time>
      </trkpt>
      <trkpt lat="44.74232" lon="5.91788">
        <ele>1786</ele>
        <time>2013-02-22T10:28:55.000Z</time>
      </trkpt>
      <trkpt lat="44.74235" lon="5.91786">
        <ele>1790</ele>
        <time>2013-02-22T10:28:58.000Z</time>
      </trkpt>
      <trkpt lat="44.74236" lon="5.91785">
        <ele>1791</ele>
        <time>2013-02-22T10:28:59.000Z</time>
      </trkpt>
      <trkpt lat="44.7424" lon="5.91782">
        <ele>1790</ele>
        <time>2013-02-22T10:29:04.000Z</time>
      </trkpt>
      <trkpt lat="44.7424" lon="5.91781">
        <ele>1791</ele>
        <time>2013-02-22T10:29:05.000Z</time>
      </trkpt>
      <trkpt lat="44.74244" lon="5.91779">
        <ele>1789</ele>
        <time>2013-02-22T10:29:12.000Z</time>
      </trkpt>
      <trkpt lat="44.74245" lon="5.91778">
        <ele>1788</ele>
        <time>2013-02-22T10:29:13.000Z</time>
      </trkpt>
      <trkpt lat="44.74249" lon="5.91777">
        <ele>1792</ele>
        <time>2013-02-22T10:29:19.000Z</time>
      </trkpt>
      <trkpt lat="44.7425" lon="5.91777">
        <ele>1793</ele>
        <time>2013-02-22T10:29:20.000Z</time>
      </trkpt>
      <trkpt lat="44.74254" lon="5.91775">
        <ele>1790</ele>
        <time>2013-02-22T10:29:26.000Z</time>
      </trkpt>
      <trkpt lat="44.74254" lon="5.91776">
        <ele>1787</ele>
        <time>2013-02-22T10:29:27.000Z</time>
      </trkpt>
      <trkpt lat="44.74258" lon="5.91772">
        <ele>1796</ele>
        <time>2013-02-22T10:29:33.000Z</time>
      </trkpt>
      <trkpt lat="44.74259" lon="5.91772">
        <ele>1797</ele>
        <time>2013-02-22T10:29:34.000Z</time>
      </trkpt>
      <trkpt lat="44.74262" lon="5.91769">
        <ele>1798</ele>
        <time>2013-02-22T10:29:39.000Z</time>
      </trkpt>
      <trkpt lat="44.74263" lon="5.91769">
        <ele>1798</ele>
        <time>2013-02-22T10:29:40.000Z</time>
      </trkpt>
      <trkpt lat="44.74267" lon="5.91767">
        <ele>1799</ele>
        <time>2013-02-22T10:29:46.000Z</time>
      </trkpt>
      <trkpt lat="44.74268" lon="5.91766">
        <ele>1799</ele>
        <time>2013-02-22T10:29:47.000Z</time>
      </trkpt>
      <trkpt lat="44.74272" lon="5.91764">
        <ele>1798</ele>
        <time>2013-02-22T10:29:54.000Z</time>
      </trkpt>
      <trkpt lat="44.74272" lon="5.91764">
        <ele>1795</ele>
        <time>2013-02-22T10:29:55.000Z</time>
      </trkpt>
      <trkpt lat="44.74276" lon="5.91761">
        <ele>1797</ele>
        <time>2013-02-22T10:30:01.000Z</time>
      </trkpt>
      <trkpt lat="44.74277" lon="5.9176">
        <ele>1796</ele>
        <time>2013-02-22T10:30:02.000Z</time>
      </trkpt>
      <trkpt lat="44.7428" lon="5.91758">
        <ele>1800</ele>
        <time>2013-02-22T10:30:08.000Z</time>
      </trkpt>
      <trkpt lat="44.74281" lon="5.91757">
        <ele>1802</ele>
        <time>2013-02-22T10:30:09.000Z</time>
      </trkpt>
      <trkpt lat="44.74284" lon="5.91754">
        <ele>1803</ele>
        <time>2013-02-22T10:30:21.000Z</time>
      </trkpt>
      <trkpt lat="44.74285" lon="5.91753">
        <ele>1803</ele>
        <time>2013-02-22T10:30:22.000Z</time>
      </trkpt>
      <trkpt lat="44.74288" lon="5.91753">
        <ele>1798</ele>
        <time>2013-02-22T10:30:28.000Z</time>
      </trkpt>
      <trkpt lat="44.74289" lon="5.91753">
        <ele>1799</ele>
        <time>2013-02-22T10:30:29.000Z</time>
      </trkpt>
      <trkpt lat="44.74293" lon="5.9175">
        <ele>1798</ele>
        <time>2013-02-22T10:30:36.000Z</time>
      </trkpt>
      <trkpt lat="44.74294" lon="5.9175">
        <ele>1800</ele>
        <time>2013-02-22T10:30:37.000Z</time>
      </trkpt>
      <trkpt lat="44.74298" lon="5.91748">
        <ele>1803</ele>
        <time>2013-02-22T10:30:42.000Z</time>
      </trkpt>
      <trkpt lat="44.74299" lon="5.91748">
        <ele>1804</ele>
        <time>2013-02-22T10:30:43.000Z</time>
      </trkpt>
      <trkpt lat="44.74303" lon="5.91746">
        <ele>1804</ele>
        <time>2013-02-22T10:30:49.000Z</time>
      </trkpt>
      <trkpt lat="44.74304" lon="5.91746">
        <ele>1805</ele>
        <time>2013-02-22T10:30:50.000Z</time>
      </trkpt>
      <trkpt lat="44.74308" lon="5.91743">
        <ele>1808</ele>
        <time>2013-02-22T10:30:56.000Z</time>
      </trkpt>
      <trkpt lat="44.74309" lon="5.91743">
        <ele>1808</ele>
        <time>2013-02-22T10:30:57.000Z</time>
      </trkpt>
      <trkpt lat="44.74313" lon="5.91742">
        <ele>1809</ele>
        <time>2013-02-22T10:31:04.000Z</time>
      </trkpt>
      <trkpt lat="44.74313" lon="5.91741">
        <ele>1810</ele>
        <time>2013-02-22T10:31:05.000Z</time>
      </trkpt>
      <trkpt lat="44.74316" lon="5.91738">
        <ele>1814</ele>
        <time>2013-02-22T10:31:13.000Z</time>
      </trkpt>
      <trkpt lat="44.74317" lon="5.91737">
        <ele>1814</ele>
        <time>2013-02-22T10:31:14.000Z</time>
      </trkpt>
      <trkpt lat="44.74321" lon="5.91734">
        <ele>1811</ele>
        <time>2013-02-22T10:31:21.000Z</time>
      </trkpt>
      <trkpt lat="44.74321" lon="5.91733">
        <ele>1811</ele>
        <time>2013-02-22T10:31:22.000Z</time>
      </trkpt>
      <trkpt lat="44.74325" lon="5.91731">
        <ele>1815</ele>
        <time>2013-02-22T10:31:28.000Z</time>
      </trkpt>
      <trkpt lat="44.74326" lon="5.9173">
        <ele>1817</ele>
        <time>2013-02-22T10:31:29.000Z</time>
      </trkpt>
      <trkpt lat="44.74329" lon="5.91727">
        <ele>1818</ele>
        <time>2013-02-22T10:31:35.000Z</time>
      </trkpt>
      <trkpt lat="44.7433" lon="5.91727">
        <ele>1818</ele>
        <time>2013-02-22T10:31:36.000Z</time>
      </trkpt>
      <trkpt lat="44.74334" lon="5.91726">
        <ele>1818</ele>
        <time>2013-02-22T10:31:41.000Z</time>
      </trkpt>
      <trkpt lat="44.74335" lon="5.91726">
        <ele>1819</ele>
        <time>2013-02-22T10:31:42.000Z</time>
      </trkpt>
      <trkpt lat="44.74338" lon="5.91725">
        <ele>1819</ele>
        <time>2013-02-22T10:31:49.000Z</time>
      </trkpt>
      <trkpt lat="44.74339" lon="5.91725">
        <ele>1819</ele>
        <time>2013-02-22T10:31:50.000Z</time>
      </trkpt>
      <trkpt lat="44.74344" lon="5.91724">
        <ele>1819</ele>
        <time>2013-02-22T10:31:55.000Z</time>
      </trkpt>
      <trkpt lat="44.74345" lon="5.91724">
        <ele>1820</ele>
        <time>2013-02-22T10:31:56.000Z</time>
      </trkpt>
      <trkpt lat="44.74349" lon="5.91723">
        <ele>1823</ele>
        <time>2013-02-22T10:32:01.000Z</time>
      </trkpt>
      <trkpt lat="44.74349" lon="5.91723">
        <ele>1822</ele>
        <time>2013-02-22T10:32:02.000Z</time>
      </trkpt>
      <trkpt lat="44.74353" lon="5.91719">
        <ele>1823</ele>
        <time>2013-02-22T10:32:18.000Z</time>
      </trkpt>
      <trkpt lat="44.74353" lon="5.91719">
        <ele>1822</ele>
        <time>2013-02-22T10:32:19.000Z</time>
      </trkpt>
      <trkpt lat="44.74357" lon="5.91718">
        <ele>1819</ele>
        <time>2013-02-22T10:32:26.000Z</time>
      </trkpt>
      <trkpt lat="44.74358" lon="5.91718">
        <ele>1820</ele>
        <time>2013-02-22T10:32:27.000Z</time>
      </trkpt>
      <trkpt lat="44.74361" lon="5.91717">
        <ele>1826</ele>
        <time>2013-02-22T10:32:32.000Z</time>
      </trkpt>
      <trkpt lat="44.74362" lon="5.91717">
        <ele>1826</ele>
        <time>2013-02-22T10:32:33.000Z</time>
      </trkpt>
      <trkpt lat="44.74366" lon="5.91716">
        <ele>1827</ele>
        <time>2013-02-22T10:32:37.000Z</time>
      </trkpt>
      <trkpt lat="44.74367" lon="5.91715">
        <ele>1827</ele>
        <time>2013-02-22T10:32:38.000Z</time>
      </trkpt>
      <trkpt lat="44.7437" lon="5.91713">
        <ele>1824</ele>
        <time>2013-02-22T10:32:43.000Z</time>
      </trkpt>
      <trkpt lat="44.74371" lon="5.91713">
        <ele>1826</ele>
        <time>2013-02-22T10:32:44.000Z</time>
      </trkpt>
      <trkpt lat="44.74375" lon="5.91711">
        <ele>1830</ele>
        <time>2013-02-22T10:32:51.000Z</time>
      </trkpt>
      <trkpt lat="44.74376" lon="5.91711">
        <ele>1832</ele>
        <time>2013-02-22T10:32:52.000Z</time>
      </trkpt>
      <trkpt lat="44.7438" lon="5.9171">
        <ele>1829</ele>
        <time>2013-02-22T10:32:58.000Z</time>
      </trkpt>
      <trkpt lat="44.7438" lon="5.9171">
        <ele>1829</ele>
        <time>2013-02-22T10:32:59.000Z</time>
      </trkpt>
      <trkpt lat="44.74383" lon="5.91708">
        <ele>1829</ele>
        <time>2013-02-22T10:33:04.000Z</time>
      </trkpt>
      <trkpt lat="44.74384" lon="5.91707">
        <ele>1828</ele>
        <time>2013-02-22T10:33:05.000Z</time>
      </trkpt>
      <trkpt lat="44.74388" lon="5.91705">
        <ele>1835</ele>
        <time>2013-02-22T10:33:14.000Z</time>
      </trkpt>
      <trkpt lat="44.74388" lon="5.91705">
        <ele>1836</ele>
        <time>2013-02-22T10:33:15.000Z</time>
      </trkpt>
      <trkpt lat="44.74392" lon="5.91703">
        <ele>1832</ele>
        <time>2013-02-22T10:33:21.000Z</time>
      </trkpt>
      <trkpt lat="44.74393" lon="5.91703">
        <ele>1833</ele>
        <time>2013-02-22T10:33:22.000Z</time>
      </trkpt>
      <trkpt lat="44.74397" lon="5.91702">
        <ele>1831</ele>
        <time>2013-02-22T10:33:28.000Z</time>
      </trkpt>
      <trkpt lat="44.74398" lon="5.91702">
        <ele>1834</ele>
        <time>2013-02-22T10:33:29.000Z</time>
      </trkpt>
      <trkpt lat="44.74402" lon="5.91703">
        <ele>1826</ele>
        <time>2013-02-22T10:33:34.000Z</time>
      </trkpt>
      <trkpt lat="44.74403" lon="5.91703">
        <ele>1828</ele>
        <time>2013-02-22T10:33:35.000Z</time>
      </trkpt>
      <trkpt lat="44.74406" lon="5.917">
        <ele>1838</ele>
        <time>2013-02-22T10:33:43.000Z</time>
      </trkpt>
      <trkpt lat="44.74407" lon="5.917">
        <ele>1837</ele>
        <time>2013-02-22T10:33:44.000Z</time>
      </trkpt>
      <trkpt lat="44.74411" lon="5.91698">
        <ele>1835</ele>
        <time>2013-02-22T10:33:49.000Z</time>
      </trkpt>
      <trkpt lat="44.74412" lon="5.91698">
        <ele>1839</ele>
        <time>2013-02-22T10:33:50.000Z</time>
      </trkpt>
      <trkpt lat="44.74416" lon="5.91697">
        <ele>1841</ele>
        <time>2013-02-22T10:33:54.000Z</time>
      </trkpt>
      <trkpt lat="44.74417" lon="5.91697">
        <ele>1842</ele>
        <time>2013-02-22T10:33:55.000Z</time>
      </trkpt>
      <trkpt lat="44.74421" lon="5.91695">
        <ele>1837</ele>
        <time>2013-02-22T10:34:01.000Z</time>
      </trkpt>
      <trkpt lat="44.74421" lon="5.91695">
        <ele>1838</ele>
        <time>2013-02-22T10:34:02.000Z</time>
      </trkpt>
      <trkpt lat="44.74425" lon="5.91693">
        <ele>1843</ele>
        <time>2013-02-22T10:34:08.000Z</time>
      </trkpt>
      <trkpt lat="44.74426" lon="5.91693">
        <ele>1844</ele>
        <time>2013-02-22T10:34:09.000Z</time>
      </trkpt>
      <trkpt lat="44.7443" lon="5.91691">
        <ele>1845</ele>
        <time>2013-02-22T10:34:15.000Z</time>
      </trkpt>
      <trkpt lat="44.74431" lon="5.9169">
        <ele>1846</ele>
        <time>2013-02-22T10:34:16.000Z</time>
      </trkpt>
      <trkpt lat="44.74435" lon="5.91688">
        <ele>1852</ele>
        <time>2013-02-22T10:34:23.000Z</time>
      </trkpt>
      <trkpt lat="44.74435" lon="5.91688">
        <ele>1853</ele>
        <time>2013-02-22T10:34:24.000Z</time>
      </trkpt>
      <trkpt lat="44.7444" lon="5.91687">
        <ele>1846</ele>
        <time>2013-02-22T10:34:30.000Z</time>
      </trkpt>
      <trkpt lat="44.7444" lon="5.91687">
        <ele>1843</ele>
        <time>2013-02-22T10:34:31.000Z</time>
      </trkpt>
      <trkpt lat="44.74444" lon="5.91686">
        <ele>1847</ele>
        <time>2013-02-22T10:34:37.000Z</time>
      </trkpt>
      <trkpt lat="44.74445" lon="5.91686">
        <ele>1847</ele>
        <time>2013-02-22T10:34:38.000Z</time>
      </trkpt>
      <trkpt lat="44.74449" lon="5.91685">
        <ele>1847</ele>
        <time>2013-02-22T10:34:44.000Z</time>
      </trkpt>
      <trkpt lat="44.74449" lon="5.91685">
        <ele>1849</ele>
        <time>2013-02-22T10:34:45.000Z</time>
      </trkpt>
      <trkpt lat="44.74453" lon="5.91682">
        <ele>1851</ele>
        <time>2013-02-22T10:34:52.000Z</time>
      </trkpt>
      <trkpt lat="44.74454" lon="5.91682">
        <ele>1851</ele>
        <time>2013-02-22T10:34:53.000Z</time>
      </trkpt>
      <trkpt lat="44.74457" lon="5.9168">
        <ele>1850</ele>
        <time>2013-02-22T10:34:58.000Z</time>
      </trkpt>
      <trkpt lat="44.74458" lon="5.9168">
        <ele>1851</ele>
        <time>2013-02-22T10:34:59.000Z</time>
      </trkpt>
      <trkpt lat="44.74462" lon="5.91678">
        <ele>1852</ele>
        <time>2013-02-22T10:35:04.000Z</time>
      </trkpt>
      <trkpt lat="44.74463" lon="5.91678">
        <ele>1852</ele>
        <time>2013-02-22T10:35:05.000Z</time>
      </trkpt>
      <trkpt lat="44.74467" lon="5.91676">
        <ele>1856</ele>
        <time>2013-02-22T10:35:11.000Z</time>
      </trkpt>
      <trkpt lat="44.74467" lon="5.91676">
        <ele>1856</ele>
        <time>2013-02-22T10:35:12.000Z</time>
      </trkpt>
      <trkpt lat="44.74471" lon="5.91674">
        <ele>1857</ele>
        <time>2013-02-22T10:35:18.000Z</time>
      </trkpt>
      <trkpt lat="44.74472" lon="5.91674">
        <ele>1858</ele>
        <time>2013-02-22T10:35:19.000Z</time>
      </trkpt>
      <trkpt lat="44.74476" lon="5.91673">
        <ele>1860</ele>
        <time>2013-02-22T10:35:25.000Z</time>
      </trkpt>
      <trkpt lat="44.74477" lon="5.91673">
        <ele>1859</ele>
        <time>2013-02-22T10:35:26.000Z</time>
      </trkpt>
      <trkpt lat="44.74481" lon="5.9167">
        <ele>1862</ele>
        <time>2013-02-22T10:35:33.000Z</time>
      </trkpt>
      <trkpt lat="44.74481" lon="5.9167">
        <ele>1860</ele>
        <time>2013-02-22T10:35:34.000Z</time>
      </trkpt>
      <trkpt lat="44.74485" lon="5.91669">
        <ele>1860</ele>
        <time>2013-02-22T10:35:39.000Z</time>
      </trkpt>
      <trkpt lat="44.74486" lon="5.91669">
        <ele>1860</ele>
        <time>2013-02-22T10:35:40.000Z</time>
      </trkpt>
      <trkpt lat="44.7449" lon="5.91667">
        <ele>1865</ele>
        <time>2013-02-22T10:35:45.000Z</time>
      </trkpt>
      <trkpt lat="44.74491" lon="5.91667">
        <ele>1865</ele>
        <time>2013-02-22T10:35:46.000Z</time>
      </trkpt>
      <trkpt lat="44.74494" lon="5.91664">
        <ele>1869</ele>
        <time>2013-02-22T10:35:52.000Z</time>
      </trkpt>
      <trkpt lat="44.74495" lon="5.91664">
        <ele>1864</ele>
        <time>2013-02-22T10:35:53.000Z</time>
      </trkpt>
      <trkpt lat="44.74499" lon="5.91663">
        <ele>1862</ele>
        <time>2013-02-22T10:35:58.000Z</time>
      </trkpt>
      <trkpt lat="44.745" lon="5.91663">
        <ele>1862</ele>
        <time>2013-02-22T10:35:59.000Z</time>
      </trkpt>
      <trkpt lat="44.74504" lon="5.91662">
        <ele>1866</ele>
        <time>2013-02-22T10:36:05.000Z</time>
      </trkpt>
      <trkpt lat="44.74505" lon="5.91662">
        <ele>1864</ele>
        <time>2013-02-22T10:36:06.000Z</time>
      </trkpt>
      <trkpt lat="44.74509" lon="5.91662">
        <ele>1867</ele>
        <time>2013-02-22T10:36:10.000Z</time>
      </trkpt>
      <trkpt lat="44.7451" lon="5.91662">
        <ele>1868</ele>
        <time>2013-02-22T10:36:11.000Z</time>
      </trkpt>
      <trkpt lat="44.74514" lon="5.91663">
        <ele>1865</ele>
        <time>2013-02-22T10:36:14.000Z</time>
      </trkpt>
      <trkpt lat="44.74515" lon="5.91663">
        <ele>1865</ele>
        <time>2013-02-22T10:36:15.000Z</time>
      </trkpt>
      <trkpt lat="44.74519" lon="5.91664">
        <ele>1870</ele>
        <time>2013-02-22T10:36:20.000Z</time>
      </trkpt>
      <trkpt lat="44.7452" lon="5.91664">
        <ele>1868</ele>
        <time>2013-02-22T10:36:21.000Z</time>
      </trkpt>
      <trkpt lat="44.74524" lon="5.91665">
        <ele>1866</ele>
        <time>2013-02-22T10:36:26.000Z</time>
      </trkpt>
      <trkpt lat="44.74524" lon="5.91665">
        <ele>1867</ele>
        <time>2013-02-22T10:36:27.000Z</time>
      </trkpt>
      <trkpt lat="44.74529" lon="5.91664">
        <ele>1870</ele>
        <time>2013-02-22T10:36:34.000Z</time>
      </trkpt>
      <trkpt lat="44.74529" lon="5.91664">
        <ele>1871</ele>
        <time>2013-02-22T10:36:35.000Z</time>
      </trkpt>
      <trkpt lat="44.74533" lon="5.91662">
        <ele>1876</ele>
        <time>2013-02-22T10:36:42.000Z</time>
      </trkpt>
      <trkpt lat="44.74534" lon="5.91661">
        <ele>1876</ele>
        <time>2013-02-22T10:36:43.000Z</time>
      </trkpt>
      <trkpt lat="44.74537" lon="5.91661">
        <ele>1875</ele>
        <time>2013-02-22T10:36:49.000Z</time>
      </trkpt>
      <trkpt lat="44.74538" lon="5.91661">
        <ele>1874</ele>
        <time>2013-02-22T10:36:50.000Z</time>
      </trkpt>
      <trkpt lat="44.74542" lon="5.9166">
        <ele>1881</ele>
        <time>2013-02-22T10:36:57.000Z</time>
      </trkpt>
      <trkpt lat="44.74543" lon="5.9166">
        <ele>1881</ele>
        <time>2013-02-22T10:36:58.000Z</time>
      </trkpt>
      <trkpt lat="44.74547" lon="5.91659">
        <ele>1884</ele>
        <time>2013-02-22T10:37:05.000Z</time>
      </trkpt>
      <trkpt lat="44.74548" lon="5.91659">
        <ele>1883</ele>
        <time>2013-02-22T10:37:06.000Z</time>
      </trkpt>
      <trkpt lat="44.74552" lon="5.91659">
        <ele>1884</ele>
        <time>2013-02-22T10:37:12.000Z</time>
      </trkpt>
      <trkpt lat="44.74553" lon="5.91659">
        <ele>1884</ele>
        <time>2013-02-22T10:37:13.000Z</time>
      </trkpt>
      <trkpt lat="44.74557" lon="5.91659">
        <ele>1884</ele>
        <time>2013-02-22T10:37:18.000Z</time>
      </trkpt>
      <trkpt lat="44.74558" lon="5.91659">
        <ele>1882</ele>
        <time>2013-02-22T10:37:19.000Z</time>
      </trkpt>
      <trkpt lat="44.74561" lon="5.91658">
        <ele>1888</ele>
        <time>2013-02-22T10:37:25.000Z</time>
      </trkpt>
      <trkpt lat="44.74562" lon="5.91658">
        <ele>1889</ele>
        <time>2013-02-22T10:37:26.000Z</time>
      </trkpt>
      <trkpt lat="44.74566" lon="5.91658">
        <ele>1887</ele>
        <time>2013-02-22T10:37:31.000Z</time>
      </trkpt>
      <trkpt lat="44.74567" lon="5.91658">
        <ele>1888</ele>
        <time>2013-02-22T10:37:32.000Z</time>
      </trkpt>
      <trkpt lat="44.74571" lon="5.91657">
        <ele>1887</ele>
        <time>2013-02-22T10:37:37.000Z</time>
      </trkpt>
      <trkpt lat="44.74571" lon="5.91657">
        <ele>1886</ele>
        <time>2013-02-22T10:37:38.000Z</time>
      </trkpt>
      <trkpt lat="44.74575" lon="5.91654">
        <ele>1891</ele>
        <time>2013-02-22T10:37:44.000Z</time>
      </trkpt>
      <trkpt lat="44.74575" lon="5.91654">
        <ele>1891</ele>
        <time>2013-02-22T10:37:45.000Z</time>
      </trkpt>
      <trkpt lat="44.7458" lon="5.91652">
        <ele>1891</ele>
        <time>2013-02-22T10:37:51.000Z</time>
      </trkpt>
      <trkpt lat="44.7458" lon="5.91652">
        <ele>1891</ele>
        <time>2013-02-22T10:37:52.000Z</time>
      </trkpt>
      <trkpt lat="44.74584" lon="5.9165">
        <ele>1889</ele>
        <time>2013-02-22T10:37:58.000Z</time>
      </trkpt>
      <trkpt lat="44.74585" lon="5.9165">
        <ele>1892</ele>
        <time>2013-02-22T10:37:59.000Z</time>
      </trkpt>
      <trkpt lat="44.74589" lon="5.91649">
        <ele>1895</ele>
        <time>2013-02-22T10:38:04.000Z</time>
      </trkpt>
      <trkpt lat="44.7459" lon="5.91649">
        <ele>1893</ele>
        <time>2013-02-22T10:38:05.000Z</time>
      </trkpt>
      <trkpt lat="44.74593" lon="5.91648">
        <ele>1891</ele>
        <time>2013-02-22T10:38:09.000Z</time>
      </trkpt>
      <trkpt lat="44.74594" lon="5.91648">
        <ele>1892</ele>
        <time>2013-02-22T10:38:10.000Z</time>
      </trkpt>
      <trkpt lat="44.74598" lon="5.91646">
        <ele>1893</ele>
        <time>2013-02-22T10:38:15.000Z</time>
      </trkpt>
      <trkpt lat="44.74599" lon="5.91645">
        <ele>1893</ele>
        <time>2013-02-22T10:38:16.000Z</time>
      </trkpt>
      <trkpt lat="44.74603" lon="5.91644">
        <ele>1897</ele>
        <time>2013-02-22T10:38:22.000Z</time>
      </trkpt>
      <trkpt lat="44.74604" lon="5.91644">
        <ele>1895</ele>
        <time>2013-02-22T10:38:23.000Z</time>
      </trkpt>
      <trkpt lat="44.74607" lon="5.91643">
        <ele>1896</ele>
        <time>2013-02-22T10:38:28.000Z</time>
      </trkpt>
      <trkpt lat="44.74608" lon="5.91643">
        <ele>1895</ele>
        <time>2013-02-22T10:38:29.000Z</time>
      </trkpt>
      <trkpt lat="44.74612" lon="5.9164">
        <ele>1899</ele>
        <time>2013-02-22T10:38:34.000Z</time>
      </trkpt>
      <trkpt lat="44.74612" lon="5.9164">
        <ele>1900</ele>
        <time>2013-02-22T10:38:35.000Z</time>
      </trkpt>
      <trkpt lat="44.74616" lon="5.91637">
        <ele>1901</ele>
        <time>2013-02-22T10:38:40.000Z</time>
      </trkpt>
      <trkpt lat="44.74616" lon="5.91636">
        <ele>1900</ele>
        <time>2013-02-22T10:38:41.000Z</time>
      </trkpt>
      <trkpt lat="44.7462" lon="5.91634">
        <ele>1901</ele>
        <time>2013-02-22T10:38:47.000Z</time>
      </trkpt>
      <trkpt lat="44.74621" lon="5.91633">
        <ele>1901</ele>
        <time>2013-02-22T10:38:48.000Z</time>
      </trkpt>
      <trkpt lat="44.74624" lon="5.9163">
        <ele>1900</ele>
        <time>2013-02-22T10:38:53.000Z</time>
      </trkpt>
      <trkpt lat="44.74625" lon="5.9163">
        <ele>1902</ele>
        <time>2013-02-22T10:38:54.000Z</time>
      </trkpt>
      <trkpt lat="44.74628" lon="5.91628">
        <ele>1904</ele>
        <time>2013-02-22T10:39:00.000Z</time>
      </trkpt>
      <trkpt lat="44.74629" lon="5.91627">
        <ele>1904</ele>
        <time>2013-02-22T10:39:01.000Z</time>
      </trkpt>
      <trkpt lat="44.74632" lon="5.91624">
        <ele>1903</ele>
        <time>2013-02-22T10:39:06.000Z</time>
      </trkpt>
      <trkpt lat="44.74633" lon="5.91623">
        <ele>1906</ele>
        <time>2013-02-22T10:39:07.000Z</time>
      </trkpt>
      <trkpt lat="44.74636" lon="5.91619">
        <ele>1903</ele>
        <time>2013-02-22T10:39:12.000Z</time>
      </trkpt>
      <trkpt lat="44.74636" lon="5.91618">
        <ele>1902</ele>
        <time>2013-02-22T10:39:13.000Z</time>
      </trkpt>
      <trkpt lat="44.74639" lon="5.91614">
        <ele>1907</ele>
        <time>2013-02-22T10:39:18.000Z</time>
      </trkpt>
      <trkpt lat="44.7464" lon="5.91613">
        <ele>1906</ele>
        <time>2013-02-22T10:39:19.000Z</time>
      </trkpt>
      <trkpt lat="44.74642" lon="5.91609">
        <ele>1907</ele>
        <time>2013-02-22T10:39:25.000Z</time>
      </trkpt>
      <trkpt lat="44.74643" lon="5.91608">
        <ele>1904</ele>
        <time>2013-02-22T10:39:26.000Z</time>
      </trkpt>
      <trkpt lat="44.74645" lon="5.91603">
        <ele>1910</ele>
        <time>2013-02-22T10:39:32.000Z</time>
      </trkpt>
      <trkpt lat="44.74645" lon="5.91602">
        <ele>1910</ele>
        <time>2013-02-22T10:39:33.000Z</time>
      </trkpt>
      <trkpt lat="44.74646" lon="5.91597">
        <ele>1910</ele>
        <time>2013-02-22T10:39:39.000Z</time>
      </trkpt>
      <trkpt lat="44.74646" lon="5.91596">
        <ele>1911</ele>
        <time>2013-02-22T10:39:40.000Z</time>
      </trkpt>
      <trkpt lat="44.7465" lon="5.91596">
        <ele>1916</ele>
        <time>2013-02-22T10:39:49.000Z</time>
      </trkpt>
      <trkpt lat="44.7465" lon="5.91596">
        <ele>1915</ele>
        <time>2013-02-22T10:39:50.000Z</time>
      </trkpt>
      <trkpt lat="44.74654" lon="5.91599">
        <ele>1910</ele>
        <time>2013-02-22T10:39:56.000Z</time>
      </trkpt>
      <trkpt lat="44.74655" lon="5.916">
        <ele>1915</ele>
        <time>2013-02-22T10:39:57.000Z</time>
      </trkpt>
      <trkpt lat="44.74658" lon="5.91603">
        <ele>1918</ele>
        <time>2013-02-22T10:40:02.000Z</time>
      </trkpt>
      <trkpt lat="44.74659" lon="5.91604">
        <ele>1917</ele>
        <time>2013-02-22T10:40:03.000Z</time>
      </trkpt>
      <trkpt lat="44.74663" lon="5.91606">
        <ele>1917</ele>
        <time>2013-02-22T10:40:09.000Z</time>
      </trkpt>
      <trkpt lat="44.74663" lon="5.91606">
        <ele>1917</ele>
        <time>2013-02-22T10:40:10.000Z</time>
      </trkpt>
      <trkpt lat="44.74666" lon="5.9161">
        <ele>1917</ele>
        <time>2013-02-22T10:40:17.000Z</time>
      </trkpt>
      <trkpt lat="44.74667" lon="5.9161">
        <ele>1917</ele>
        <time>2013-02-22T10:40:18.000Z</time>
      </trkpt>
      <trkpt lat="44.7467" lon="5.91614">
        <ele>1920</ele>
        <time>2013-02-22T10:40:23.000Z</time>
      </trkpt>
      <trkpt lat="44.74671" lon="5.91614">
        <ele>1920</ele>
        <time>2013-02-22T10:40:24.000Z</time>
      </trkpt>
      <trkpt lat="44.74675" lon="5.91617">
        <ele>1919</ele>
        <time>2013-02-22T10:40:30.000Z</time>
      </trkpt>
      <trkpt lat="44.74675" lon="5.91617">
        <ele>1919</ele>
        <time>2013-02-22T10:40:31.000Z</time>
      </trkpt>
      <trkpt lat="44.74679" lon="5.91621">
        <ele>1922</ele>
        <time>2013-02-22T10:40:37.000Z</time>
      </trkpt>
      <trkpt lat="44.74679" lon="5.91621">
        <ele>1925</ele>
        <time>2013-02-22T10:40:38.000Z</time>
      </trkpt>
      <trkpt lat="44.74682" lon="5.91625">
        <ele>1923</ele>
        <time>2013-02-22T10:40:44.000Z</time>
      </trkpt>
      <trkpt lat="44.74683" lon="5.91625">
        <ele>1926</ele>
        <time>2013-02-22T10:40:45.000Z</time>
      </trkpt>
      <trkpt lat="44.74686" lon="5.91623">
        <ele>1924</ele>
        <time>2013-02-22T10:40:52.000Z</time>
      </trkpt>
      <trkpt lat="44.74687" lon="5.91621">
        <ele>1923</ele>
        <time>2013-02-22T10:40:53.000Z</time>
      </trkpt>
      <trkpt lat="44.74689" lon="5.91616">
        <ele>1926</ele>
        <time>2013-02-22T10:40:59.000Z</time>
      </trkpt>
      <trkpt lat="44.74689" lon="5.91616">
        <ele>1925</ele>
        <time>2013-02-22T10:41:00.000Z</time>
      </trkpt>
      <trkpt lat="44.74692" lon="5.91611">
        <ele>1927</ele>
        <time>2013-02-22T10:41:07.000Z</time>
      </trkpt>
      <trkpt lat="44.74692" lon="5.9161">
        <ele>1927</ele>
        <time>2013-02-22T10:41:08.000Z</time>
      </trkpt>
      <trkpt lat="44.74694" lon="5.91604">
        <ele>1924</ele>
        <time>2013-02-22T10:41:16.000Z</time>
      </trkpt>
      <trkpt lat="44.74694" lon="5.91603">
        <ele>1924</ele>
        <time>2013-02-22T10:41:17.000Z</time>
      </trkpt>
      <trkpt lat="44.74696" lon="5.91597">
        <ele>1932</ele>
        <time>2013-02-22T10:41:24.000Z</time>
      </trkpt>
      <trkpt lat="44.74696" lon="5.91597">
        <ele>1933</ele>
        <time>2013-02-22T10:41:25.000Z</time>
      </trkpt>
      <trkpt lat="44.74697" lon="5.91591">
        <ele>1933</ele>
        <time>2013-02-22T10:41:31.000Z</time>
      </trkpt>
      <trkpt lat="44.74698" lon="5.9159">
        <ele>1933</ele>
        <time>2013-02-22T10:41:32.000Z</time>
      </trkpt>
      <trkpt lat="44.74698" lon="5.91585">
        <ele>1933</ele>
        <time>2013-02-22T10:41:37.000Z</time>
      </trkpt>
      <trkpt lat="44.74697" lon="5.91584">
        <ele>1934</ele>
        <time>2013-02-22T10:41:38.000Z</time>
      </trkpt>
      <trkpt lat="44.74698" lon="5.91578">
        <ele>1936</ele>
        <time>2013-02-22T10:41:43.000Z</time>
      </trkpt>
      <trkpt lat="44.74698" lon="5.91577">
        <ele>1935</ele>
        <time>2013-02-22T10:41:44.000Z</time>
      </trkpt>
      <trkpt lat="44.747" lon="5.91571">
        <ele>1934</ele>
        <time>2013-02-22T10:41:51.000Z</time>
      </trkpt>
      <trkpt lat="44.747" lon="5.91571">
        <ele>1936</ele>
        <time>2013-02-22T10:41:52.000Z</time>
      </trkpt>
      <trkpt lat="44.74701" lon="5.91565">
        <ele>1935</ele>
        <time>2013-02-22T10:41:59.000Z</time>
      </trkpt>
      <trkpt lat="44.74701" lon="5.91564">
        <ele>1932</ele>
        <time>2013-02-22T10:42:00.000Z</time>
      </trkpt>
      <trkpt lat="44.74703" lon="5.91558">
        <ele>1931</ele>
        <time>2013-02-22T10:42:06.000Z</time>
      </trkpt>
      <trkpt lat="44.74703" lon="5.91558">
        <ele>1933</ele>
        <time>2013-02-22T10:42:07.000Z</time>
      </trkpt>
      <trkpt lat="44.74704" lon="5.91552">
        <ele>1941</ele>
        <time>2013-02-22T10:42:14.000Z</time>
      </trkpt>
      <trkpt lat="44.74705" lon="5.91551">
        <ele>1945</ele>
        <time>2013-02-22T10:42:15.000Z</time>
      </trkpt>
      <trkpt lat="44.74705" lon="5.91545">
        <ele>1939</ele>
        <time>2013-02-22T10:42:22.000Z</time>
      </trkpt>
      <trkpt lat="44.74705" lon="5.91544">
        <ele>1939</ele>
        <time>2013-02-22T10:42:23.000Z</time>
      </trkpt>
      <trkpt lat="44.74704" lon="5.91538">
        <ele>1943</ele>
        <time>2013-02-22T10:42:29.000Z</time>
      </trkpt>
      <trkpt lat="44.74704" lon="5.91536">
        <ele>1948</ele>
        <time>2013-02-22T10:42:30.000Z</time>
      </trkpt>
      <trkpt lat="44.74705" lon="5.91531">
        <ele>1952</ele>
        <time>2013-02-22T10:42:36.000Z</time>
      </trkpt>
      <trkpt lat="44.74705" lon="5.9153">
        <ele>1950</ele>
        <time>2013-02-22T10:42:37.000Z</time>
      </trkpt>
      <trkpt lat="44.74709" lon="5.91527">
        <ele>1954</ele>
        <time>2013-02-22T10:43:12.000Z</time>
      </trkpt>
      <trkpt lat="44.74709" lon="5.91527">
        <ele>1953</ele>
        <time>2013-02-22T10:43:13.000Z</time>
      </trkpt>
      <trkpt lat="44.74712" lon="5.9153">
        <ele>1954</ele>
        <time>2013-02-22T10:43:19.000Z</time>
      </trkpt>
      <trkpt lat="44.74713" lon="5.91531">
        <ele>1955</ele>
        <time>2013-02-22T10:43:20.000Z</time>
      </trkpt>
      <trkpt lat="44.74716" lon="5.91534">
        <ele>1957</ele>
        <time>2013-02-22T10:43:25.000Z</time>
      </trkpt>
      <trkpt lat="44.74717" lon="5.91535">
        <ele>1956</ele>
        <time>2013-02-22T10:43:26.000Z</time>
      </trkpt>
      <trkpt lat="44.7472" lon="5.91537">
        <ele>1953</ele>
        <time>2013-02-22T10:43:32.000Z</time>
      </trkpt>
      <trkpt lat="44.74721" lon="5.91538">
        <ele>1955</ele>
        <time>2013-02-22T10:43:33.000Z</time>
      </trkpt>
      <trkpt lat="44.74725" lon="5.91539">
        <ele>1955</ele>
        <time>2013-02-22T10:43:38.000Z</time>
      </trkpt>
      <trkpt lat="44.74726" lon="5.91539">
        <ele>1953</ele>
        <time>2013-02-22T10:43:39.000Z</time>
      </trkpt>
      <trkpt lat="44.7473" lon="5.91541">
        <ele>1957</ele>
        <time>2013-02-22T10:43:44.000Z</time>
      </trkpt>
      <trkpt lat="44.7473" lon="5.91542">
        <ele>1961</ele>
        <time>2013-02-22T10:43:45.000Z</time>
      </trkpt>
      <trkpt lat="44.74734" lon="5.91544">
        <ele>1955</ele>
        <time>2013-02-22T10:43:52.000Z</time>
      </trkpt>
      <trkpt lat="44.74735" lon="5.91544">
        <ele>1957</ele>
        <time>2013-02-22T10:43:53.000Z</time>
      </trkpt>
      <trkpt lat="44.74739" lon="5.91547">
        <ele>1958</ele>
        <time>2013-02-22T10:44:01.000Z</time>
      </trkpt>
      <trkpt lat="44.74739" lon="5.91547">
        <ele>1960</ele>
        <time>2013-02-22T10:44:02.000Z</time>
      </trkpt>
      <trkpt lat="44.74741" lon="5.91542">
        <ele>1962</ele>
        <time>2013-02-22T10:44:14.000Z</time>
      </trkpt>
      <trkpt lat="44.74741" lon="5.91541">
        <ele>1961</ele>
        <time>2013-02-22T10:44:15.000Z</time>
      </trkpt>
      <trkpt lat="44.7474" lon="5.91535">
        <ele>1960</ele>
        <time>2013-02-22T10:44:20.000Z</time>
      </trkpt>
      <trkpt lat="44.7474" lon="5.91535">
        <ele>1960</ele>
        <time>2013-02-22T10:44:21.000Z</time>
      </trkpt>
      <trkpt lat="44.74741" lon="5.91529">
        <ele>1961</ele>
        <time>2013-02-22T10:44:27.000Z</time>
      </trkpt>
      <trkpt lat="44.74741" lon="5.91528">
        <ele>1962</ele>
        <time>2013-02-22T10:44:28.000Z</time>
      </trkpt>
      <trkpt lat="44.74743" lon="5.91522">
        <ele>1966</ele>
        <time>2013-02-22T10:44:33.000Z</time>
      </trkpt>
      <trkpt lat="44.74743" lon="5.91521">
        <ele>1965</ele>
        <time>2013-02-22T10:44:34.000Z</time>
      </trkpt>
      <trkpt lat="44.74747" lon="5.9152">
        <ele>1968</ele>
        <time>2013-02-22T10:44:43.000Z</time>
      </trkpt>
      <trkpt lat="44.74747" lon="5.91521">
        <ele>1969</ele>
        <time>2013-02-22T10:44:44.000Z</time>
      </trkpt>
      <trkpt lat="44.74751" lon="5.91524">
        <ele>1968</ele>
        <time>2013-02-22T10:44:49.000Z</time>
      </trkpt>
      <trkpt lat="44.74751" lon="5.91525">
        <ele>1969</ele>
        <time>2013-02-22T10:44:50.000Z</time>
      </trkpt>
      <trkpt lat="44.74755" lon="5.91529">
        <ele>1968</ele>
        <time>2013-02-22T10:44:55.000Z</time>
      </trkpt>
      <trkpt lat="44.74755" lon="5.9153">
        <ele>1969</ele>
        <time>2013-02-22T10:44:56.000Z</time>
      </trkpt>
      <trkpt lat="44.74756" lon="5.91536">
        <ele>1966</ele>
        <time>2013-02-22T10:45:05.000Z</time>
      </trkpt>
      <trkpt lat="44.74756" lon="5.91536">
        <ele>1966</ele>
        <time>2013-02-22T10:45:06.000Z</time>
      </trkpt>
      <trkpt lat="44.74759" lon="5.9154">
        <ele>1970</ele>
        <time>2013-02-22T10:45:12.000Z</time>
      </trkpt>
      <trkpt lat="44.7476" lon="5.91541">
        <ele>1971</ele>
        <time>2013-02-22T10:45:13.000Z</time>
      </trkpt>
      <trkpt lat="44.74763" lon="5.91544">
        <ele>1971</ele>
        <time>2013-02-22T10:45:17.000Z</time>
      </trkpt>
      <trkpt lat="44.74764" lon="5.91545">
        <ele>1972</ele>
        <time>2013-02-22T10:45:18.000Z</time>
      </trkpt>
      <trkpt lat="44.74767" lon="5.91549">
        <ele>1971</ele>
        <time>2013-02-22T10:45:24.000Z</time>
      </trkpt>
      <trkpt lat="44.74767" lon="5.91549">
        <ele>1972</ele>
        <time>2013-02-22T10:45:25.000Z</time>
      </trkpt>
      <trkpt lat="44.7477" lon="5.91554">
        <ele>1975</ele>
        <time>2013-02-22T10:45:30.000Z</time>
      </trkpt>
      <trkpt lat="44.7477" lon="5.91554">
        <ele>1976</ele>
        <time>2013-02-22T10:45:31.000Z</time>
      </trkpt>
      <trkpt lat="44.74773" lon="5.91559">
        <ele>1976</ele>
        <time>2013-02-22T10:45:36.000Z</time>
      </trkpt>
      <trkpt lat="44.74773" lon="5.91561">
        <ele>1977</ele>
        <time>2013-02-22T10:45:37.000Z</time>
      </trkpt>
      <trkpt lat="44.74775" lon="5.91566">
        <ele>1977</ele>
        <time>2013-02-22T10:45:42.000Z</time>
      </trkpt>
      <trkpt lat="44.74775" lon="5.91567">
        <ele>1976</ele>
        <time>2013-02-22T10:45:43.000Z</time>
      </trkpt>
      <trkpt lat="44.74778" lon="5.91572">
        <ele>1979</ele>
        <time>2013-02-22T10:45:49.000Z</time>
      </trkpt>
      <trkpt lat="44.74778" lon="5.91573">
        <ele>1980</ele>
        <time>2013-02-22T10:45:50.000Z</time>
      </trkpt>
      <trkpt lat="44.7478" lon="5.91578">
        <ele>1979</ele>
        <time>2013-02-22T10:45:57.000Z</time>
      </trkpt>
      <trkpt lat="44.7478" lon="5.91579">
        <ele>1980</ele>
        <time>2013-02-22T10:45:58.000Z</time>
      </trkpt>
      <trkpt lat="44.74782" lon="5.91583">
        <ele>1983</ele>
        <time>2013-02-22T10:46:04.000Z</time>
      </trkpt>
      <trkpt lat="44.74782" lon="5.91584">
        <ele>1983</ele>
        <time>2013-02-22T10:46:05.000Z</time>
      </trkpt>
      <trkpt lat="44.74784" lon="5.91589">
        <ele>1983</ele>
        <time>2013-02-22T10:46:11.000Z</time>
      </trkpt>
      <trkpt lat="44.74784" lon="5.9159">
        <ele>1985</ele>
        <time>2013-02-22T10:46:12.000Z</time>
      </trkpt>
      <trkpt lat="44.74786" lon="5.91594">
        <ele>1986</ele>
        <time>2013-02-22T10:46:18.000Z</time>
      </trkpt>
      <trkpt lat="44.74787" lon="5.91595">
        <ele>1985</ele>
        <time>2013-02-22T10:46:19.000Z</time>
      </trkpt>
      <trkpt lat="44.7479" lon="5.91599">
        <ele>1986</ele>
        <time>2013-02-22T10:46:25.000Z</time>
      </trkpt>
      <trkpt lat="44.74791" lon="5.91599">
        <ele>1985</ele>
        <time>2013-02-22T10:46:26.000Z</time>
      </trkpt>
      <trkpt lat="44.74794" lon="5.91602">
        <ele>1986</ele>
        <time>2013-02-22T10:46:32.000Z</time>
      </trkpt>
      <trkpt lat="44.74795" lon="5.91602">
        <ele>1986</ele>
        <time>2013-02-22T10:46:33.000Z</time>
      </trkpt>
      <trkpt lat="44.74798" lon="5.91605">
        <ele>1987</ele>
        <time>2013-02-22T10:46:39.000Z</time>
      </trkpt>
      <trkpt lat="44.74799" lon="5.91606">
        <ele>1986</ele>
        <time>2013-02-22T10:46:40.000Z</time>
      </trkpt>
      <trkpt lat="44.74802" lon="5.91609">
        <ele>1987</ele>
        <time>2013-02-22T10:46:47.000Z</time>
      </trkpt>
      <trkpt lat="44.74802" lon="5.9161">
        <ele>1989</ele>
        <time>2013-02-22T10:46:48.000Z</time>
      </trkpt>
      <trkpt lat="44.74805" lon="5.91614">
        <ele>1987</ele>
        <time>2013-02-22T10:46:57.000Z</time>
      </trkpt>
      <trkpt lat="44.74806" lon="5.91615">
        <ele>1985</ele>
        <time>2013-02-22T10:46:58.000Z</time>
      </trkpt>
      <trkpt lat="44.74809" lon="5.91618">
        <ele>1993</ele>
        <time>2013-02-22T10:47:04.000Z</time>
      </trkpt>
      <trkpt lat="44.7481" lon="5.91619">
        <ele>1995</ele>
        <time>2013-02-22T10:47:05.000Z</time>
      </trkpt>
      <trkpt lat="44.74813" lon="5.91622">
        <ele>1996</ele>
        <time>2013-02-22T10:47:11.000Z</time>
      </trkpt>
      <trkpt lat="44.74814" lon="5.91622">
        <ele>1995</ele>
        <time>2013-02-22T10:47:12.000Z</time>
      </trkpt>
      <trkpt lat="44.74817" lon="5.91625">
        <ele>1997</ele>
        <time>2013-02-22T10:47:18.000Z</time>
      </trkpt>
      <trkpt lat="44.74817" lon="5.91626">
        <ele>1997</ele>
        <time>2013-02-22T10:47:19.000Z</time>
      </trkpt>
      <trkpt lat="44.74821" lon="5.91629">
        <ele>1998</ele>
        <time>2013-02-22T10:47:26.000Z</time>
      </trkpt>
      <trkpt lat="44.74821" lon="5.9163">
        <ele>1998</ele>
        <time>2013-02-22T10:47:27.000Z</time>
      </trkpt>
      <trkpt lat="44.74825" lon="5.91633">
        <ele>1995</ele>
        <time>2013-02-22T10:47:33.000Z</time>
      </trkpt>
      <trkpt lat="44.74825" lon="5.91633">
        <ele>1996</ele>
        <time>2013-02-22T10:47:34.000Z</time>
      </trkpt>
      <trkpt lat="44.74829" lon="5.91637">
        <ele>1999</ele>
        <time>2013-02-22T10:47:41.000Z</time>
      </trkpt>
      <trkpt lat="44.74829" lon="5.91637">
        <ele>1999</ele>
        <time>2013-02-22T10:47:42.000Z</time>
      </trkpt>
      <trkpt lat="44.74833" lon="5.91641">
        <ele>2000</ele>
        <time>2013-02-22T10:47:49.000Z</time>
      </trkpt>
      <trkpt lat="44.74833" lon="5.91641">
        <ele>2000</ele>
        <time>2013-02-22T10:47:50.000Z</time>
      </trkpt>
      <trkpt lat="44.74837" lon="5.91644">
        <ele>2001</ele>
        <time>2013-02-22T10:47:56.000Z</time>
      </trkpt>
      <trkpt lat="44.74837" lon="5.91645">
        <ele>2001</ele>
        <time>2013-02-22T10:47:57.000Z</time>
      </trkpt>
      <trkpt lat="44.7484" lon="5.91648">
        <ele>2002</ele>
        <time>2013-02-22T10:48:03.000Z</time>
      </trkpt>
      <trkpt lat="44.74841" lon="5.91649">
        <ele>2003</ele>
        <time>2013-02-22T10:48:04.000Z</time>
      </trkpt>
      <trkpt lat="44.74845" lon="5.91652">
        <ele>2001</ele>
        <time>2013-02-22T10:48:14.000Z</time>
      </trkpt>
      <trkpt lat="44.74845" lon="5.91652">
        <ele>2001</ele>
        <time>2013-02-22T10:48:15.000Z</time>
      </trkpt>
      <trkpt lat="44.74849" lon="5.91655">
        <ele>2004</ele>
        <time>2013-02-22T10:48:22.000Z</time>
      </trkpt>
      <trkpt lat="44.7485" lon="5.91655">
        <ele>2005</ele>
        <time>2013-02-22T10:48:23.000Z</time>
      </trkpt>
      <trkpt lat="44.74854" lon="5.91658">
        <ele>2005</ele>
        <time>2013-02-22T10:48:28.000Z</time>
      </trkpt>
      <trkpt lat="44.74854" lon="5.91658">
        <ele>2007</ele>
        <time>2013-02-22T10:48:29.000Z</time>
      </trkpt>
      <trkpt lat="44.74857" lon="5.91662">
        <ele>2007</ele>
        <time>2013-02-22T10:48:35.000Z</time>
      </trkpt>
      <trkpt lat="44.74858" lon="5.91662">
        <ele>2008</ele>
        <time>2013-02-22T10:48:36.000Z</time>
      </trkpt>
      <trkpt lat="44.74861" lon="5.91665">
        <ele>2011</ele>
        <time>2013-02-22T10:48:42.000Z</time>
      </trkpt>
      <trkpt lat="44.74862" lon="5.91666">
        <ele>2011</ele>
        <time>2013-02-22T10:48:43.000Z</time>
      </trkpt>
      <trkpt lat="44.74866" lon="5.91668">
        <ele>2012</ele>
        <time>2013-02-22T10:48:48.000Z</time>
      </trkpt>
      <trkpt lat="44.74867" lon="5.91669">
        <ele>2012</ele>
        <time>2013-02-22T10:48:49.000Z</time>
      </trkpt>
      <trkpt lat="44.7487" lon="5.91673">
        <ele>2012</ele>
        <time>2013-02-22T10:48:55.000Z</time>
      </trkpt>
      <trkpt lat="44.74871" lon="5.91673">
        <ele>2011</ele>
        <time>2013-02-22T10:48:56.000Z</time>
      </trkpt>
      <trkpt lat="44.74875" lon="5.91676">
        <ele>2012</ele>
        <time>2013-02-22T10:49:02.000Z</time>
      </trkpt>
      <trkpt lat="44.74875" lon="5.91676">
        <ele>2015</ele>
        <time>2013-02-22T10:49:03.000Z</time>
      </trkpt>
      <trkpt lat="44.74879" lon="5.91679">
        <ele>2017</ele>
        <time>2013-02-22T10:49:09.000Z</time>
      </trkpt>
      <trkpt lat="44.74879" lon="5.9168">
        <ele>2017</ele>
        <time>2013-02-22T10:49:10.000Z</time>
      </trkpt>
      <trkpt lat="44.74883" lon="5.91683">
        <ele>2017</ele>
        <time>2013-02-22T10:49:16.000Z</time>
      </trkpt>
      <trkpt lat="44.74883" lon="5.91683">
        <ele>2017</ele>
        <time>2013-02-22T10:49:17.000Z</time>
      </trkpt>
      <trkpt lat="44.74887" lon="5.91686">
        <ele>2017</ele>
        <time>2013-02-22T10:49:22.000Z</time>
      </trkpt>
      <trkpt lat="44.74888" lon="5.91686">
        <ele>2018</ele>
        <time>2013-02-22T10:49:23.000Z</time>
      </trkpt>
      <trkpt lat="44.74891" lon="5.9169">
        <ele>2018</ele>
        <time>2013-02-22T10:49:29.000Z</time>
      </trkpt>
      <trkpt lat="44.74891" lon="5.9169">
        <ele>2018</ele>
        <time>2013-02-22T10:49:30.000Z</time>
      </trkpt>
      <trkpt lat="44.74895" lon="5.91693">
        <ele>2018</ele>
        <time>2013-02-22T10:49:36.000Z</time>
      </trkpt>
      <trkpt lat="44.74895" lon="5.91694">
        <ele>2018</ele>
        <time>2013-02-22T10:49:37.000Z</time>
      </trkpt>
      <trkpt lat="44.74899" lon="5.91697">
        <ele>2020</ele>
        <time>2013-02-22T10:49:44.000Z</time>
      </trkpt>
      <trkpt lat="44.74899" lon="5.91698">
        <ele>2020</ele>
        <time>2013-02-22T10:49:45.000Z</time>
      </trkpt>
      <trkpt lat="44.74903" lon="5.91701">
        <ele>2021</ele>
        <time>2013-02-22T10:49:52.000Z</time>
      </trkpt>
      <trkpt lat="44.74903" lon="5.91701">
        <ele>2024</ele>
        <time>2013-02-22T10:49:53.000Z</time>
      </trkpt>
      <trkpt lat="44.74907" lon="5.91705">
        <ele>2024</ele>
        <time>2013-02-22T10:50:00.000Z</time>
      </trkpt>
      <trkpt lat="44.74907" lon="5.91706">
        <ele>2024</ele>
        <time>2013-02-22T10:50:01.000Z</time>
      </trkpt>
      <trkpt lat="44.7491" lon="5.91709">
        <ele>2024</ele>
        <time>2013-02-22T10:50:08.000Z</time>
      </trkpt>
      <trkpt lat="44.74911" lon="5.9171">
        <ele>2024</ele>
        <time>2013-02-22T10:50:09.000Z</time>
      </trkpt>
      <trkpt lat="44.74914" lon="5.91713">
        <ele>2026</ele>
        <time>2013-02-22T10:50:15.000Z</time>
      </trkpt>
      <trkpt lat="44.74915" lon="5.91713">
        <ele>2026</ele>
        <time>2013-02-22T10:50:16.000Z</time>
      </trkpt>
      <trkpt lat="44.74918" lon="5.91717">
        <ele>2027</ele>
        <time>2013-02-22T10:50:23.000Z</time>
      </trkpt>
      <trkpt lat="44.74918" lon="5.91718">
        <ele>2026</ele>
        <time>2013-02-22T10:50:24.000Z</time>
      </trkpt>
      <trkpt lat="44.74922" lon="5.91721">
        <ele>2028</ele>
        <time>2013-02-22T10:50:31.000Z</time>
      </trkpt>
      <trkpt lat="44.74922" lon="5.91722">
        <ele>2029</ele>
        <time>2013-02-22T10:50:32.000Z</time>
      </trkpt>
      <trkpt lat="44.74925" lon="5.91727">
        <ele>2030</ele>
        <time>2013-02-22T10:50:38.000Z</time>
      </trkpt>
      <trkpt lat="44.74926" lon="5.91727">
        <ele>2033</ele>
        <time>2013-02-22T10:50:39.000Z</time>
      </trkpt>
      <trkpt lat="44.74929" lon="5.91731">
        <ele>2033</ele>
        <time>2013-02-22T10:50:46.000Z</time>
      </trkpt>
      <trkpt lat="44.74929" lon="5.91731">
        <ele>2032</ele>
        <time>2013-02-22T10:50:47.000Z</time>
      </trkpt>
      <trkpt lat="44.74933" lon="5.91734">
        <ele>2035</ele>
        <time>2013-02-22T10:50:52.000Z</time>
      </trkpt>
      <trkpt lat="44.74934" lon="5.91734">
        <ele>2035</ele>
        <time>2013-02-22T10:50:53.000Z</time>
      </trkpt>
      <trkpt lat="44.74937" lon="5.91737">
        <ele>2034</ele>
        <time>2013-02-22T10:50:58.000Z</time>
      </trkpt>
      <trkpt lat="44.74938" lon="5.91738">
        <ele>2034</ele>
        <time>2013-02-22T10:50:59.000Z</time>
      </trkpt>
      <trkpt lat="44.7494" lon="5.91742">
        <ele>2037</ele>
        <time>2013-02-22T10:51:16.000Z</time>
      </trkpt>
      <trkpt lat="44.74941" lon="5.91743">
        <ele>2037</ele>
        <time>2013-02-22T10:51:17.000Z</time>
      </trkpt>
      <trkpt lat="44.74944" lon="5.91747">
        <ele>2040</ele>
        <time>2013-02-22T10:51:26.000Z</time>
      </trkpt>
      <trkpt lat="44.74944" lon="5.91747">
        <ele>2040</ele>
        <time>2013-02-22T10:51:27.000Z</time>
      </trkpt>
      <trkpt lat="44.74948" lon="5.9175">
        <ele>2041</ele>
        <time>2013-02-22T10:51:35.000Z</time>
      </trkpt>
      <trkpt lat="44.74949" lon="5.9175">
        <ele>2041</ele>
        <time>2013-02-22T10:51:36.000Z</time>
      </trkpt>
      <trkpt lat="44.74952" lon="5.91753">
        <ele>2041</ele>
        <time>2013-02-22T10:51:42.000Z</time>
      </trkpt>
      <trkpt lat="44.74952" lon="5.91753">
        <ele>2042</ele>
        <time>2013-02-22T10:51:43.000Z</time>
      </trkpt>
      <trkpt lat="44.74956" lon="5.91756">
        <ele>2043</ele>
        <time>2013-02-22T10:51:49.000Z</time>
      </trkpt>
      <trkpt lat="44.74957" lon="5.91757">
        <ele>2044</ele>
        <time>2013-02-22T10:51:50.000Z</time>
      </trkpt>
      <trkpt lat="44.74961" lon="5.91759">
        <ele>2044</ele>
        <time>2013-02-22T10:51:57.000Z</time>
      </trkpt>
      <trkpt lat="44.74961" lon="5.9176">
        <ele>2044</ele>
        <time>2013-02-22T10:51:58.000Z</time>
      </trkpt>
      <trkpt lat="44.74965" lon="5.91763">
        <ele>2047</ele>
        <time>2013-02-22T10:52:05.000Z</time>
      </trkpt>
      <trkpt lat="44.74965" lon="5.91763">
        <ele>2047</ele>
        <time>2013-02-22T10:52:06.000Z</time>
      </trkpt>
      <trkpt lat="44.74969" lon="5.91767">
        <ele>2047</ele>
        <time>2013-02-22T10:52:12.000Z</time>
      </trkpt>
      <trkpt lat="44.74969" lon="5.91767">
        <ele>2047</ele>
        <time>2013-02-22T10:52:13.000Z</time>
      </trkpt>
      <trkpt lat="44.74973" lon="5.9177">
        <ele>2049</ele>
        <time>2013-02-22T10:52:20.000Z</time>
      </trkpt>
      <trkpt lat="44.74973" lon="5.9177">
        <ele>2049</ele>
        <time>2013-02-22T10:52:21.000Z</time>
      </trkpt>
      <trkpt lat="44.74977" lon="5.91773">
        <ele>2051</ele>
        <time>2013-02-22T10:52:27.000Z</time>
      </trkpt>
      <trkpt lat="44.74977" lon="5.91774">
        <ele>2052</ele>
        <time>2013-02-22T10:52:28.000Z</time>
      </trkpt>
      <trkpt lat="44.74981" lon="5.91778">
        <ele>2055</ele>
        <time>2013-02-22T10:52:35.000Z</time>
      </trkpt>
      <trkpt lat="44.74981" lon="5.91778">
        <ele>2057</ele>
        <time>2013-02-22T10:52:36.000Z</time>
      </trkpt>
      <trkpt lat="44.74985" lon="5.91781">
        <ele>2053</ele>
        <time>2013-02-22T10:52:41.000Z</time>
      </trkpt>
      <trkpt lat="44.74986" lon="5.91782">
        <ele>2055</ele>
        <time>2013-02-22T10:52:42.000Z</time>
      </trkpt>
      <trkpt lat="44.74989" lon="5.91786">
        <ele>2052</ele>
        <time>2013-02-22T10:52:49.000Z</time>
      </trkpt>
      <trkpt lat="44.74989" lon="5.91787">
        <ele>2052</ele>
        <time>2013-02-22T10:52:50.000Z</time>
      </trkpt>
      <trkpt lat="44.74992" lon="5.91791">
        <ele>2054</ele>
        <time>2013-02-22T10:52:57.000Z</time>
      </trkpt>
      <trkpt lat="44.74993" lon="5.91791">
        <ele>2054</ele>
        <time>2013-02-22T10:52:58.000Z</time>
      </trkpt>
      <trkpt lat="44.74996" lon="5.91795">
        <ele>2055</ele>
        <time>2013-02-22T10:53:04.000Z</time>
      </trkpt>
      <trkpt lat="44.74996" lon="5.91796">
        <ele>2056</ele>
        <time>2013-02-22T10:53:05.000Z</time>
      </trkpt>
      <trkpt lat="44.74999" lon="5.918">
        <ele>2056</ele>
        <time>2013-02-22T10:53:10.000Z</time>
      </trkpt>
      <trkpt lat="44.74999" lon="5.91801">
        <ele>2057</ele>
        <time>2013-02-22T10:53:11.000Z</time>
      </trkpt>
      <trkpt lat="44.75002" lon="5.91804">
        <ele>2060</ele>
        <time>2013-02-22T10:53:20.000Z</time>
      </trkpt>
      <trkpt lat="44.75003" lon="5.91804">
        <ele>2060</ele>
        <time>2013-02-22T10:53:21.000Z</time>
      </trkpt>
      <trkpt lat="44.75007" lon="5.91806">
        <ele>2059</ele>
        <time>2013-02-22T10:53:27.000Z</time>
      </trkpt>
      <trkpt lat="44.75007" lon="5.91806">
        <ele>2060</ele>
        <time>2013-02-22T10:53:28.000Z</time>
      </trkpt>
      <trkpt lat="44.75012" lon="5.91805">
        <ele>2061</ele>
        <time>2013-02-22T10:53:35.000Z</time>
      </trkpt>
      <trkpt lat="44.75012" lon="5.91805">
        <ele>2063</ele>
        <time>2013-02-22T10:53:36.000Z</time>
      </trkpt>
      <trkpt lat="44.75016" lon="5.91802">
        <ele>2065</ele>
        <time>2013-02-22T10:53:44.000Z</time>
      </trkpt>
      <trkpt lat="44.75016" lon="5.91801">
        <ele>2065</ele>
        <time>2013-02-22T10:53:45.000Z</time>
      </trkpt>
      <trkpt lat="44.7502" lon="5.91799">
        <ele>2068</ele>
        <time>2013-02-22T10:53:54.000Z</time>
      </trkpt>
      <trkpt lat="44.75021" lon="5.91799">
        <ele>2068</ele>
        <time>2013-02-22T10:53:55.000Z</time>
      </trkpt>
      <trkpt lat="44.75025" lon="5.91797">
        <ele>2069</ele>
        <time>2013-02-22T10:54:01.000Z</time>
      </trkpt>
      <trkpt lat="44.75026" lon="5.91797">
        <ele>2069</ele>
        <time>2013-02-22T10:54:02.000Z</time>
      </trkpt>
      <trkpt lat="44.7503" lon="5.91795">
        <ele>2070</ele>
        <time>2013-02-22T10:54:09.000Z</time>
      </trkpt>
      <trkpt lat="44.7503" lon="5.91795">
        <ele>2070</ele>
        <time>2013-02-22T10:54:10.000Z</time>
      </trkpt>
      <trkpt lat="44.75035" lon="5.91795">
        <ele>2069</ele>
        <time>2013-02-22T10:54:15.000Z</time>
      </trkpt>
      <trkpt lat="44.75035" lon="5.91795">
        <ele>2070</ele>
        <time>2013-02-22T10:54:16.000Z</time>
      </trkpt>
      <trkpt lat="44.7504" lon="5.91795">
        <ele>2070</ele>
        <time>2013-02-22T10:54:21.000Z</time>
      </trkpt>
      <trkpt lat="44.7504" lon="5.91795">
        <ele>2070</ele>
        <time>2013-02-22T10:54:22.000Z</time>
      </trkpt>
      <trkpt lat="44.75044" lon="5.91796">
        <ele>2069</ele>
        <time>2013-02-22T10:54:26.000Z</time>
      </trkpt>
      <trkpt lat="44.75045" lon="5.91796">
        <ele>2070</ele>
        <time>2013-02-22T10:54:27.000Z</time>
      </trkpt>
      <trkpt lat="44.75049" lon="5.91795">
        <ele>2073</ele>
        <time>2013-02-22T10:54:35.000Z</time>
      </trkpt>
      <trkpt lat="44.7505" lon="5.91795">
        <ele>2073</ele>
        <time>2013-02-22T10:54:36.000Z</time>
      </trkpt>
      <trkpt lat="44.75054" lon="5.91796">
        <ele>2075</ele>
        <time>2013-02-22T10:54:43.000Z</time>
      </trkpt>
      <trkpt lat="44.75054" lon="5.91796">
        <ele>2075</ele>
        <time>2013-02-22T10:54:44.000Z</time>
      </trkpt>
      <trkpt lat="44.75058" lon="5.91798">
        <ele>2077</ele>
        <time>2013-02-22T10:54:49.000Z</time>
      </trkpt>
      <trkpt lat="44.75058" lon="5.91799">
        <ele>2077</ele>
        <time>2013-02-22T10:54:50.000Z</time>
      </trkpt>
      <trkpt lat="44.75062" lon="5.91802">
        <ele>2078</ele>
        <time>2013-02-22T10:54:55.000Z</time>
      </trkpt>
      <trkpt lat="44.75062" lon="5.91803">
        <ele>2078</ele>
        <time>2013-02-22T10:54:56.000Z</time>
      </trkpt>
      <trkpt lat="44.75064" lon="5.91808">
        <ele>2081</ele>
        <time>2013-02-22T10:55:02.000Z</time>
      </trkpt>
      <trkpt lat="44.75064" lon="5.91809">
        <ele>2081</ele>
        <time>2013-02-22T10:55:03.000Z</time>
      </trkpt>
      <trkpt lat="44.75068" lon="5.91812">
        <ele>2081</ele>
        <time>2013-02-22T10:55:10.000Z</time>
      </trkpt>
      <trkpt lat="44.75068" lon="5.91813">
        <ele>2082</ele>
        <time>2013-02-22T10:55:11.000Z</time>
      </trkpt>
      <trkpt lat="44.75072" lon="5.91816">
        <ele>2083</ele>
        <time>2013-02-22T10:55:17.000Z</time>
      </trkpt>
      <trkpt lat="44.75072" lon="5.91817">
        <ele>2083</ele>
        <time>2013-02-22T10:55:18.000Z</time>
      </trkpt>
      <trkpt lat="44.75076" lon="5.9182">
        <ele>2086</ele>
        <time>2013-02-22T10:55:24.000Z</time>
      </trkpt>
      <trkpt lat="44.75076" lon="5.91821">
        <ele>2088</ele>
        <time>2013-02-22T10:55:25.000Z</time>
      </trkpt>
      <trkpt lat="44.75079" lon="5.91825">
        <ele>2085</ele>
        <time>2013-02-22T10:55:33.000Z</time>
      </trkpt>
      <trkpt lat="44.75079" lon="5.91826">
        <ele>2085</ele>
        <time>2013-02-22T10:55:34.000Z</time>
      </trkpt>
      <trkpt lat="44.75082" lon="5.91831">
        <ele>2088</ele>
        <time>2013-02-22T10:55:41.000Z</time>
      </trkpt>
      <trkpt lat="44.75083" lon="5.91831">
        <ele>2088</ele>
        <time>2013-02-22T10:55:42.000Z</time>
      </trkpt>
      <trkpt lat="44.75086" lon="5.91834">
        <ele>2085</ele>
        <time>2013-02-22T10:55:49.000Z</time>
      </trkpt>
      <trkpt lat="44.75087" lon="5.91835">
        <ele>2083</ele>
        <time>2013-02-22T10:55:50.000Z</time>
      </trkpt>
      <trkpt lat="44.7509" lon="5.91837">
        <ele>2088</ele>
        <time>2013-02-22T10:55:58.000Z</time>
      </trkpt>
      <trkpt lat="44.75091" lon="5.91837">
        <ele>2088</ele>
        <time>2013-02-22T10:55:59.000Z</time>
      </trkpt>
      <trkpt lat="44.75095" lon="5.91836">
        <ele>2090</ele>
        <time>2013-02-22T10:56:05.000Z</time>
      </trkpt>
      <trkpt lat="44.75096" lon="5.91836">
        <ele>2089</ele>
        <time>2013-02-22T10:56:06.000Z</time>
      </trkpt>
      <trkpt lat="44.751" lon="5.91837">
        <ele>2090</ele>
        <time>2013-02-22T10:56:12.000Z</time>
      </trkpt>
      <trkpt lat="44.75101" lon="5.91837">
        <ele>2090</ele>
        <time>2013-02-22T10:56:13.000Z</time>
      </trkpt>
      <trkpt lat="44.75105" lon="5.91838">
        <ele>2093</ele>
        <time>2013-02-22T10:56:20.000Z</time>
      </trkpt>
      <trkpt lat="44.75106" lon="5.91838">
        <ele>2092</ele>
        <time>2013-02-22T10:56:21.000Z</time>
      </trkpt>
      <trkpt lat="44.7511" lon="5.91839">
        <ele>2094</ele>
        <time>2013-02-22T10:56:28.000Z</time>
      </trkpt>
      <trkpt lat="44.75111" lon="5.9184">
        <ele>2095</ele>
        <time>2013-02-22T10:56:29.000Z</time>
      </trkpt>
      <trkpt lat="44.75114" lon="5.91838">
        <ele>2098</ele>
        <time>2013-02-22T10:56:38.000Z</time>
      </trkpt>
      <trkpt lat="44.75115" lon="5.91839">
        <ele>2098</ele>
        <time>2013-02-22T10:56:39.000Z</time>
      </trkpt>
      <trkpt lat="44.75117" lon="5.91844">
        <ele>2097</ele>
        <time>2013-02-22T10:56:44.000Z</time>
      </trkpt>
      <trkpt lat="44.75117" lon="5.91845">
        <ele>2099</ele>
        <time>2013-02-22T10:56:45.000Z</time>
      </trkpt>
      <trkpt lat="44.75118" lon="5.91851">
        <ele>2102</ele>
        <time>2013-02-22T10:56:51.000Z</time>
      </trkpt>
      <trkpt lat="44.75119" lon="5.91852">
        <ele>2099</ele>
        <time>2013-02-22T10:56:52.000Z</time>
      </trkpt>
      <trkpt lat="44.75122" lon="5.91856">
        <ele>2099</ele>
        <time>2013-02-22T10:56:58.000Z</time>
      </trkpt>
      <trkpt lat="44.75123" lon="5.91856">
        <ele>2098</ele>
        <time>2013-02-22T10:56:59.000Z</time>
      </trkpt>
      <trkpt lat="44.75126" lon="5.91859">
        <ele>2099</ele>
        <time>2013-02-22T10:57:05.000Z</time>
      </trkpt>
      <trkpt lat="44.75127" lon="5.91859">
        <ele>2099</ele>
        <time>2013-02-22T10:57:06.000Z</time>
      </trkpt>
      <trkpt lat="44.75131" lon="5.91862">
        <ele>2101</ele>
        <time>2013-02-22T10:57:13.000Z</time>
      </trkpt>
      <trkpt lat="44.75131" lon="5.91862">
        <ele>2101</ele>
        <time>2013-02-22T10:57:14.000Z</time>
      </trkpt>
      <trkpt lat="44.75136" lon="5.91863">
        <ele>2104</ele>
        <time>2013-02-22T10:57:23.000Z</time>
      </trkpt>
      <trkpt lat="44.75136" lon="5.91863">
        <ele>2105</ele>
        <time>2013-02-22T10:57:24.000Z</time>
      </trkpt>
      <trkpt lat="44.75139" lon="5.91867">
        <ele>2107</ele>
        <time>2013-02-22T10:57:33.000Z</time>
      </trkpt>
      <trkpt lat="44.75139" lon="5.91868">
        <ele>2107</ele>
        <time>2013-02-22T10:57:34.000Z</time>
      </trkpt>
      <trkpt lat="44.75141" lon="5.91873">
        <ele>2111</ele>
        <time>2013-02-22T10:57:42.000Z</time>
      </trkpt>
      <trkpt lat="44.75142" lon="5.91873">
        <ele>2112</ele>
        <time>2013-02-22T10:57:43.000Z</time>
      </trkpt>
      <trkpt lat="44.75144" lon="5.91878">
        <ele>2112</ele>
        <time>2013-02-22T10:57:50.000Z</time>
      </trkpt>
      <trkpt lat="44.75144" lon="5.91879">
        <ele>2112</ele>
        <time>2013-02-22T10:57:51.000Z</time>
      </trkpt>
      <trkpt lat="44.75148" lon="5.91881">
        <ele>2112</ele>
        <time>2013-02-22T10:57:57.000Z</time>
      </trkpt>
      <trkpt lat="44.75149" lon="5.91881">
        <ele>2113</ele>
        <time>2013-02-22T10:57:58.000Z</time>
      </trkpt>
      <trkpt lat="44.75153" lon="5.91882">
        <ele>2114</ele>
        <time>2013-02-22T10:58:05.000Z</time>
      </trkpt>
      <trkpt lat="44.75153" lon="5.91882">
        <ele>2115</ele>
        <time>2013-02-22T10:58:06.000Z</time>
      </trkpt>
      <trkpt lat="44.75158" lon="5.91881">
        <ele>2115</ele>
        <time>2013-02-22T10:58:13.000Z</time>
      </trkpt>
      <trkpt lat="44.75158" lon="5.91881">
        <ele>2114</ele>
        <time>2013-02-22T10:58:14.000Z</time>
      </trkpt>
      <trkpt lat="44.75162" lon="5.91879">
        <ele>2116</ele>
        <time>2013-02-22T10:58:21.000Z</time>
      </trkpt>
      <trkpt lat="44.75163" lon="5.91879">
        <ele>2116</ele>
        <time>2013-02-22T10:58:22.000Z</time>
      </trkpt>
      <trkpt lat="44.75167" lon="5.91878">
        <ele>2118</ele>
        <time>2013-02-22T10:58:29.000Z</time>
      </trkpt>
      <trkpt lat="44.75167" lon="5.91878">
        <ele>2119</ele>
        <time>2013-02-22T10:58:30.000Z</time>
      </trkpt>
      <trkpt lat="44.75171" lon="5.91879">
        <ele>2123</ele>
        <time>2013-02-22T10:58:41.000Z</time>
      </trkpt>
      <trkpt lat="44.75172" lon="5.91878">
        <ele>2126</ele>
        <time>2013-02-22T10:58:42.000Z</time>
      </trkpt>
      <trkpt lat="44.75175" lon="5.91875">
        <ele>2120</ele>
        <time>2013-02-22T10:58:50.000Z</time>
      </trkpt>
      <trkpt lat="44.75176" lon="5.91875">
        <ele>2119</ele>
        <time>2013-02-22T10:58:51.000Z</time>
      </trkpt>
      <trkpt lat="44.7518" lon="5.91872">
        <ele>2121</ele>
        <time>2013-02-22T10:58:57.000Z</time>
      </trkpt>
      <trkpt lat="44.75181" lon="5.91872">
        <ele>2120</ele>
        <time>2013-02-22T10:58:58.000Z</time>
      </trkpt>
      <trkpt lat="44.75183" lon="5.91877">
        <ele>2125</ele>
        <time>2013-02-22T10:59:13.000Z</time>
      </trkpt>
      <trkpt lat="44.75183" lon="5.91877">
        <ele>2125</ele>
        <time>2013-02-22T10:59:14.000Z</time>
      </trkpt>
      <trkpt lat="44.75185" lon="5.91872">
        <ele>2125</ele>
        <time>2013-02-22T10:59:47.000Z</time>
      </trkpt>
      <trkpt lat="44.75185" lon="5.91871">
        <ele>2124</ele>
        <time>2013-02-22T10:59:48.000Z</time>
      </trkpt>
      <trkpt lat="44.75184" lon="5.91865">
        <ele>2127</ele>
        <time>2013-02-22T10:59:59.000Z</time>
      </trkpt>
      <trkpt lat="44.75184" lon="5.91865">
        <ele>2125</ele>
        <time>2013-02-22T11:00:00.000Z</time>
      </trkpt>
      <trkpt lat="44.75187" lon="5.91862">
        <ele>2126</ele>
        <time>2013-02-22T11:00:08.000Z</time>
      </trkpt>
      <trkpt lat="44.75187" lon="5.91861">
        <ele>2126</ele>
        <time>2013-02-22T11:00:09.000Z</time>
      </trkpt>
      <trkpt lat="44.75191" lon="5.9186">
        <ele>2128</ele>
        <time>2013-02-22T11:00:14.000Z</time>
      </trkpt>
      <trkpt lat="44.75192" lon="5.91859">
        <ele>2130</ele>
        <time>2013-02-22T11:00:15.000Z</time>
      </trkpt>
      <trkpt lat="44.75196" lon="5.91857">
        <ele>2129</ele>
        <time>2013-02-22T11:00:22.000Z</time>
      </trkpt>
      <trkpt lat="44.75196" lon="5.91856">
        <ele>2129</ele>
        <time>2013-02-22T11:00:23.000Z</time>
      </trkpt>
      <trkpt lat="44.75199" lon="5.91851">
        <ele>2128</ele>
        <time>2013-02-22T11:00:30.000Z</time>
      </trkpt>
      <trkpt lat="44.75199" lon="5.9185">
        <ele>2127</ele>
        <time>2013-02-22T11:00:31.000Z</time>
      </trkpt>
      <trkpt lat="44.75202" lon="5.91847">
        <ele>2128</ele>
        <time>2013-02-22T11:00:47.000Z</time>
      </trkpt>
      <trkpt lat="44.75203" lon="5.91846">
        <ele>2128</ele>
        <time>2013-02-22T11:00:48.000Z</time>
      </trkpt>
      <trkpt lat="44.75206" lon="5.91842">
        <ele>2128</ele>
        <time>2013-02-22T11:00:56.000Z</time>
      </trkpt>
      <trkpt lat="44.75206" lon="5.91841">
        <ele>2128</ele>
        <time>2013-02-22T11:00:57.000Z</time>
      </trkpt>
      <trkpt lat="44.75205" lon="5.91841">
        <ele>2128</ele>
        <time>2013-02-22T11:03:31.000Z</time>
      </trkpt>
      <trkpt lat="44.75215" lon="5.91771">
        <ele>2142</ele>
        <time>2013-02-22T11:34:34.000Z</time>
      </trkpt>
      <trkpt lat="44.75213" lon="5.91776">
        <ele>2141</ele>
        <time>2013-02-22T11:36:54.000Z</time>
      </trkpt>
      <trkpt lat="44.75213" lon="5.91777">
        <ele>2140</ele>
        <time>2013-02-22T11:36:55.000Z</time>
      </trkpt>
      <trkpt lat="44.75211" lon="5.91783">
        <ele>2139</ele>
        <time>2013-02-22T11:37:00.000Z</time>
      </trkpt>
      <trkpt lat="44.75211" lon="5.91784">
        <ele>2139</ele>
        <time>2013-02-22T11:37:01.000Z</time>
      </trkpt>
      <trkpt lat="44.7521" lon="5.91789">
        <ele>2137</ele>
        <time>2013-02-22T11:37:05.000Z</time>
      </trkpt>
      <trkpt lat="44.7521" lon="5.9179">
        <ele>2137</ele>
        <time>2013-02-22T11:37:06.000Z</time>
      </trkpt>
      <trkpt lat="44.75209" lon="5.91796">
        <ele>2135</ele>
        <time>2013-02-22T11:37:12.000Z</time>
      </trkpt>
      <trkpt lat="44.75209" lon="5.91796">
        <ele>2134</ele>
        <time>2013-02-22T11:37:13.000Z</time>
      </trkpt>
      <trkpt lat="44.75208" lon="5.91802">
        <ele>2133</ele>
        <time>2013-02-22T11:37:25.000Z</time>
      </trkpt>
      <trkpt lat="44.75208" lon="5.91802">
        <ele>2133</ele>
        <time>2013-02-22T11:37:26.000Z</time>
      </trkpt>
      <trkpt lat="44.75207" lon="5.91808">
        <ele>2131</ele>
        <time>2013-02-22T11:37:29.000Z</time>
      </trkpt>
      <trkpt lat="44.75207" lon="5.9181">
        <ele>2132</ele>
        <time>2013-02-22T11:37:30.000Z</time>
      </trkpt>
      <trkpt lat="44.75207" lon="5.91816">
        <ele>2131</ele>
        <time>2013-02-22T11:37:33.000Z</time>
      </trkpt>
      <trkpt lat="44.75207" lon="5.91817">
        <ele>2134</ele>
        <time>2013-02-22T11:37:34.000Z</time>
      </trkpt>
      <trkpt lat="44.75206" lon="5.91823">
        <ele>2129</ele>
        <time>2013-02-22T11:37:38.000Z</time>
      </trkpt>
      <trkpt lat="44.75205" lon="5.91825">
        <ele>2129</ele>
        <time>2013-02-22T11:37:39.000Z</time>
      </trkpt>
      <trkpt lat="44.75203" lon="5.9183">
        <ele>2129</ele>
        <time>2013-02-22T11:37:44.000Z</time>
      </trkpt>
      <trkpt lat="44.75203" lon="5.91831">
        <ele>2129</ele>
        <time>2013-02-22T11:37:45.000Z</time>
      </trkpt>
      <trkpt lat="44.75202" lon="5.91836">
        <ele>2131</ele>
        <time>2013-02-22T11:37:51.000Z</time>
      </trkpt>
      <trkpt lat="44.75201" lon="5.91837">
        <ele>2130</ele>
        <time>2013-02-22T11:37:52.000Z</time>
      </trkpt>
      <trkpt lat="44.752" lon="5.91843">
        <ele>2131</ele>
        <time>2013-02-22T11:37:58.000Z</time>
      </trkpt>
      <trkpt lat="44.752" lon="5.91844">
        <ele>2131</ele>
        <time>2013-02-22T11:37:59.000Z</time>
      </trkpt>
      <trkpt lat="44.75198" lon="5.91849">
        <ele>2131</ele>
        <time>2013-02-22T11:38:06.000Z</time>
      </trkpt>
      <trkpt lat="44.75198" lon="5.9185">
        <ele>2132</ele>
        <time>2013-02-22T11:38:07.000Z</time>
      </trkpt>
      <trkpt lat="44.75196" lon="5.91854">
        <ele>2132</ele>
        <time>2013-02-22T11:38:12.000Z</time>
      </trkpt>
      <trkpt lat="44.75195" lon="5.91855">
        <ele>2131</ele>
        <time>2013-02-22T11:38:13.000Z</time>
      </trkpt>
      <trkpt lat="44.75192" lon="5.91857">
        <ele>2130</ele>
        <time>2013-02-22T11:38:18.000Z</time>
      </trkpt>
      <trkpt lat="44.75191" lon="5.91857">
        <ele>2130</ele>
        <time>2013-02-22T11:38:19.000Z</time>
      </trkpt>
      <trkpt lat="44.75187" lon="5.91858">
        <ele>2131</ele>
        <time>2013-02-22T11:38:22.000Z</time>
      </trkpt>
      <trkpt lat="44.75186" lon="5.91859">
        <ele>2129</ele>
        <time>2013-02-22T11:38:23.000Z</time>
      </trkpt>
      <trkpt lat="44.75183" lon="5.91863">
        <ele>2130</ele>
        <time>2013-02-22T11:38:30.000Z</time>
      </trkpt>
      <trkpt lat="44.75182" lon="5.91864">
        <ele>2130</ele>
        <time>2013-02-22T11:38:31.000Z</time>
      </trkpt>
      <trkpt lat="44.75182" lon="5.91869">
        <ele>2127</ele>
        <time>2013-02-22T11:38:41.000Z</time>
      </trkpt>
      <trkpt lat="44.75182" lon="5.91871">
        <ele>2129</ele>
        <time>2013-02-22T11:38:42.000Z</time>
      </trkpt>
      <trkpt lat="44.7518" lon="5.91876">
        <ele>2130</ele>
        <time>2013-02-22T11:38:45.000Z</time>
      </trkpt>
      <trkpt lat="44.7518" lon="5.91877">
        <ele>2128</ele>
        <time>2013-02-22T11:38:46.000Z</time>
      </trkpt>
      <trkpt lat="44.75182" lon="5.91883">
        <ele>2128</ele>
        <time>2013-02-22T11:43:29.000Z</time>
      </trkpt>
      <trkpt lat="44.75182" lon="5.91883">
        <ele>2128</ele>
        <time>2013-02-22T11:43:30.000Z</time>
      </trkpt>
      <trkpt lat="44.75182" lon="5.91877">
        <ele>2125</ele>
        <time>2013-02-22T11:44:39.000Z</time>
      </trkpt>
      <trkpt lat="44.7518" lon="5.91874">
        <ele>2125</ele>
        <time>2013-02-22T11:44:40.000Z</time>
      </trkpt>
      <trkpt lat="44.75175" lon="5.91872">
        <ele>2125</ele>
        <time>2013-02-22T11:44:41.000Z</time>
      </trkpt>
      <trkpt lat="44.7517" lon="5.91875">
        <ele>2123</ele>
        <time>2013-02-22T11:44:42.000Z</time>
      </trkpt>
      <trkpt lat="44.75165" lon="5.91877">
        <ele>2120</ele>
        <time>2013-02-22T11:44:43.000Z</time>
      </trkpt>
      <trkpt lat="44.75159" lon="5.91876">
        <ele>2118</ele>
        <time>2013-02-22T11:44:44.000Z</time>
      </trkpt>
      <trkpt lat="44.75153" lon="5.91878">
        <ele>2117</ele>
        <time>2013-02-22T11:44:45.000Z</time>
      </trkpt>
      <trkpt lat="44.75146" lon="5.91876">
        <ele>2115</ele>
        <time>2013-02-22T11:44:46.000Z</time>
      </trkpt>
      <trkpt lat="44.75142" lon="5.9187">
        <ele>2114</ele>
        <time>2013-02-22T11:44:47.000Z</time>
      </trkpt>
      <trkpt lat="44.75143" lon="5.91865">
        <ele>2114</ele>
        <time>2013-02-22T11:44:49.000Z</time>
      </trkpt>
      <trkpt lat="44.75143" lon="5.91863">
        <ele>2113</ele>
        <time>2013-02-22T11:44:50.000Z</time>
      </trkpt>
      <trkpt lat="44.75145" lon="5.91859">
        <ele>2110</ele>
        <time>2013-02-22T11:44:57.000Z</time>
      </trkpt>
      <trkpt lat="44.75145" lon="5.91856">
        <ele>2108</ele>
        <time>2013-02-22T11:44:58.000Z</time>
      </trkpt>
      <trkpt lat="44.75145" lon="5.91851">
        <ele>2109</ele>
        <time>2013-02-22T11:45:00.000Z</time>
      </trkpt>
      <trkpt lat="44.75146" lon="5.91848">
        <ele>2108</ele>
        <time>2013-02-22T11:45:01.000Z</time>
      </trkpt>
      <trkpt lat="44.75144" lon="5.91846">
        <ele>2108</ele>
        <time>2013-02-22T11:47:07.000Z</time>
      </trkpt>
      <trkpt lat="44.75141" lon="5.91842">
        <ele>2106</ele>
        <time>2013-02-22T11:47:08.000Z</time>
      </trkpt>
      <trkpt lat="44.75137" lon="5.91842">
        <ele>2105</ele>
        <time>2013-02-22T11:47:09.000Z</time>
      </trkpt>
      <trkpt lat="44.75132" lon="5.9184">
        <ele>2103</ele>
        <time>2013-02-22T11:47:10.000Z</time>
      </trkpt>
      <trkpt lat="44.75127" lon="5.91839">
        <ele>2102</ele>
        <time>2013-02-22T11:47:11.000Z</time>
      </trkpt>
      <trkpt lat="44.7512" lon="5.91837">
        <ele>2098</ele>
        <time>2013-02-22T11:47:12.000Z</time>
      </trkpt>
      <trkpt lat="44.75113" lon="5.91832">
        <ele>2094</ele>
        <time>2013-02-22T11:47:13.000Z</time>
      </trkpt>
      <trkpt lat="44.75106" lon="5.91828">
        <ele>2094</ele>
        <time>2013-02-22T11:47:14.000Z</time>
      </trkpt>
      <trkpt lat="44.75099" lon="5.91827">
        <ele>2094</ele>
        <time>2013-02-22T11:47:15.000Z</time>
      </trkpt>
      <trkpt lat="44.75093" lon="5.91821">
        <ele>2095</ele>
        <time>2013-02-22T11:47:16.000Z</time>
      </trkpt>
      <trkpt lat="44.75087" lon="5.91818">
        <ele>2092</ele>
        <time>2013-02-22T11:47:17.000Z</time>
      </trkpt>
      <trkpt lat="44.75081" lon="5.91814">
        <ele>2090</ele>
        <time>2013-02-22T11:47:18.000Z</time>
      </trkpt>
      <trkpt lat="44.75075" lon="5.91811">
        <ele>2089</ele>
        <time>2013-02-22T11:47:19.000Z</time>
      </trkpt>
      <trkpt lat="44.75069" lon="5.91809">
        <ele>2087</ele>
        <time>2013-02-22T11:47:20.000Z</time>
      </trkpt>
      <trkpt lat="44.75061" lon="5.91805">
        <ele>2085</ele>
        <time>2013-02-22T11:47:21.000Z</time>
      </trkpt>
      <trkpt lat="44.75054" lon="5.918">
        <ele>2083</ele>
        <time>2013-02-22T11:47:22.000Z</time>
      </trkpt>
      <trkpt lat="44.75048" lon="5.91797">
        <ele>2078</ele>
        <time>2013-02-22T11:47:23.000Z</time>
      </trkpt>
      <trkpt lat="44.75041" lon="5.91792">
        <ele>2075</ele>
        <time>2013-02-22T11:47:24.000Z</time>
      </trkpt>
      <trkpt lat="44.75035" lon="5.91789">
        <ele>2074</ele>
        <time>2013-02-22T11:47:25.000Z</time>
      </trkpt>
      <trkpt lat="44.75028" lon="5.91785">
        <ele>2074</ele>
        <time>2013-02-22T11:47:26.000Z</time>
      </trkpt>
      <trkpt lat="44.75022" lon="5.91783">
        <ele>2071</ele>
        <time>2013-02-22T11:47:27.000Z</time>
      </trkpt>
      <trkpt lat="44.75017" lon="5.91778">
        <ele>2068</ele>
        <time>2013-02-22T11:47:28.000Z</time>
      </trkpt>
      <trkpt lat="44.75011" lon="5.91773">
        <ele>2066</ele>
        <time>2013-02-22T11:47:29.000Z</time>
      </trkpt>
      <trkpt lat="44.75004" lon="5.91768">
        <ele>2063</ele>
        <time>2013-02-22T11:47:30.000Z</time>
      </trkpt>
      <trkpt lat="44.74998" lon="5.91763">
        <ele>2062</ele>
        <time>2013-02-22T11:47:31.000Z</time>
      </trkpt>
      <trkpt lat="44.74991" lon="5.91758">
        <ele>2060</ele>
        <time>2013-02-22T11:47:32.000Z</time>
      </trkpt>
      <trkpt lat="44.74983" lon="5.91753">
        <ele>2058</ele>
        <time>2013-02-22T11:47:33.000Z</time>
      </trkpt>
      <trkpt lat="44.74975" lon="5.9175">
        <ele>2052</ele>
        <time>2013-02-22T11:47:34.000Z</time>
      </trkpt>
      <trkpt lat="44.74967" lon="5.91747">
        <ele>2049</ele>
        <time>2013-02-22T11:47:35.000Z</time>
      </trkpt>
      <trkpt lat="44.74961" lon="5.91744">
        <ele>2047</ele>
        <time>2013-02-22T11:47:36.000Z</time>
      </trkpt>
      <trkpt lat="44.74954" lon="5.91742">
        <ele>2048</ele>
        <time>2013-02-22T11:47:37.000Z</time>
      </trkpt>
      <trkpt lat="44.74947" lon="5.91738">
        <ele>2045</ele>
        <time>2013-02-22T11:47:38.000Z</time>
      </trkpt>
      <trkpt lat="44.74941" lon="5.91736">
        <ele>2044</ele>
        <time>2013-02-22T11:47:39.000Z</time>
      </trkpt>
      <trkpt lat="44.74935" lon="5.91732">
        <ele>2041</ele>
        <time>2013-02-22T11:47:40.000Z</time>
      </trkpt>
      <trkpt lat="44.74927" lon="5.91728">
        <ele>2038</ele>
        <time>2013-02-22T11:47:41.000Z</time>
      </trkpt>
      <trkpt lat="44.7492" lon="5.91726">
        <ele>2036</ele>
        <time>2013-02-22T11:47:42.000Z</time>
      </trkpt>
      <trkpt lat="44.74914" lon="5.91721">
        <ele>2034</ele>
        <time>2013-02-22T11:47:43.000Z</time>
      </trkpt>
      <trkpt lat="44.74909" lon="5.91716">
        <ele>2031</ele>
        <time>2013-02-22T11:47:44.000Z</time>
      </trkpt>
      <trkpt lat="44.74905" lon="5.91715">
        <ele>2029</ele>
        <time>2013-02-22T11:47:45.000Z</time>
      </trkpt>
      <trkpt lat="44.74904" lon="5.91716">
        <ele>2026</ele>
        <time>2013-02-22T11:47:46.000Z</time>
      </trkpt>
      <trkpt lat="44.74903" lon="5.91717">
        <ele>2025</ele>
        <time>2013-02-22T11:48:04.000Z</time>
      </trkpt>
      <trkpt lat="44.74899" lon="5.91712">
        <ele>2025</ele>
        <time>2013-02-22T11:48:05.000Z</time>
      </trkpt>
      <trkpt lat="44.74896" lon="5.91706">
        <ele>2023</ele>
        <time>2013-02-22T11:48:06.000Z</time>
      </trkpt>
      <trkpt lat="44.74894" lon="5.91699">
        <ele>2023</ele>
        <time>2013-02-22T11:48:07.000Z</time>
      </trkpt>
      <trkpt lat="44.74891" lon="5.91692">
        <ele>2023</ele>
        <time>2013-02-22T11:48:08.000Z</time>
      </trkpt>
      <trkpt lat="44.74889" lon="5.91686">
        <ele>2022</ele>
        <time>2013-02-22T11:48:09.000Z</time>
      </trkpt>
      <trkpt lat="44.74888" lon="5.9168">
        <ele>2021</ele>
        <time>2013-02-22T11:48:10.000Z</time>
      </trkpt>
      <trkpt lat="44.74887" lon="5.91675">
        <ele>2021</ele>
        <time>2013-02-22T11:48:11.000Z</time>
      </trkpt>
      <trkpt lat="44.74886" lon="5.91671">
        <ele>2021</ele>
        <time>2013-02-22T11:48:12.000Z</time>
      </trkpt>
      <trkpt lat="44.74886" lon="5.91667">
        <ele>2021</ele>
        <time>2013-02-22T11:48:13.000Z</time>
      </trkpt>
      <trkpt lat="44.74885" lon="5.91663">
        <ele>2020</ele>
        <time>2013-02-22T11:48:14.000Z</time>
      </trkpt>
      <trkpt lat="44.74884" lon="5.91658">
        <ele>2020</ele>
        <time>2013-02-22T11:48:15.000Z</time>
      </trkpt>
      <trkpt lat="44.74883" lon="5.91654">
        <ele>2020</ele>
        <time>2013-02-22T11:48:16.000Z</time>
      </trkpt>
      <trkpt lat="44.74882" lon="5.9165">
        <ele>2019</ele>
        <time>2013-02-22T11:48:17.000Z</time>
      </trkpt>
      <trkpt lat="44.74881" lon="5.91646">
        <ele>2018</ele>
        <time>2013-02-22T11:48:18.000Z</time>
      </trkpt>
      <trkpt lat="44.74881" lon="5.91643">
        <ele>2018</ele>
        <time>2013-02-22T11:48:19.000Z</time>
      </trkpt>
      <trkpt lat="44.74879" lon="5.91638">
        <ele>2019</ele>
        <time>2013-02-22T11:48:21.000Z</time>
      </trkpt>
      <trkpt lat="44.74879" lon="5.91636">
        <ele>2019</ele>
        <time>2013-02-22T11:48:22.000Z</time>
      </trkpt>
      <trkpt lat="44.74877" lon="5.91631">
        <ele>2019</ele>
        <time>2013-02-22T11:48:24.000Z</time>
      </trkpt>
      <trkpt lat="44.74876" lon="5.9163">
        <ele>2019</ele>
        <time>2013-02-22T11:48:25.000Z</time>
      </trkpt>
      <trkpt lat="44.74875" lon="5.91627">
        <ele>2020</ele>
        <time>2013-02-22T11:48:33.000Z</time>
      </trkpt>
      <trkpt lat="44.74872" lon="5.91623">
        <ele>2021</ele>
        <time>2013-02-22T11:48:34.000Z</time>
      </trkpt>
      <trkpt lat="44.7487" lon="5.91619">
        <ele>2019</ele>
        <time>2013-02-22T11:48:38.000Z</time>
      </trkpt>
      <trkpt lat="44.74869" lon="5.91617">
        <ele>2019</ele>
        <time>2013-02-22T11:48:39.000Z</time>
      </trkpt>
      <trkpt lat="44.74867" lon="5.91614">
        <ele>2019</ele>
        <time>2013-02-22T11:48:42.000Z</time>
      </trkpt>
      <trkpt lat="44.74866" lon="5.91612">
        <ele>2018</ele>
        <time>2013-02-22T11:48:43.000Z</time>
      </trkpt>
      <trkpt lat="44.74864" lon="5.91608">
        <ele>2017</ele>
        <time>2013-02-22T11:48:45.000Z</time>
      </trkpt>
      <trkpt lat="44.74863" lon="5.91606">
        <ele>2017</ele>
        <time>2013-02-22T11:48:46.000Z</time>
      </trkpt>
      <trkpt lat="44.74861" lon="5.916">
        <ele>2017</ele>
        <time>2013-02-22T11:48:50.000Z</time>
      </trkpt>
      <trkpt lat="44.7486" lon="5.91599">
        <ele>2017</ele>
        <time>2013-02-22T11:48:51.000Z</time>
      </trkpt>
      <trkpt lat="44.74858" lon="5.91594">
        <ele>2017</ele>
        <time>2013-02-22T11:48:54.000Z</time>
      </trkpt>
      <trkpt lat="44.74857" lon="5.91592">
        <ele>2016</ele>
        <time>2013-02-22T11:48:55.000Z</time>
      </trkpt>
      <trkpt lat="44.74855" lon="5.91589">
        <ele>2015</ele>
        <time>2013-02-22T11:48:57.000Z</time>
      </trkpt>
      <trkpt lat="44.74854" lon="5.91587">
        <ele>2015</ele>
        <time>2013-02-22T11:48:58.000Z</time>
      </trkpt>
      <trkpt lat="44.74852" lon="5.91583">
        <ele>2015</ele>
        <time>2013-02-22T11:49:00.000Z</time>
      </trkpt>
      <trkpt lat="44.74851" lon="5.91582">
        <ele>2016</ele>
        <time>2013-02-22T11:49:01.000Z</time>
      </trkpt>
      <trkpt lat="44.74849" lon="5.91577">
        <ele>2017</ele>
        <time>2013-02-22T11:49:04.000Z</time>
      </trkpt>
      <trkpt lat="44.74848" lon="5.91576">
        <ele>2017</ele>
        <time>2013-02-22T11:49:05.000Z</time>
      </trkpt>
      <trkpt lat="44.74847" lon="5.91574">
        <ele>2017</ele>
        <time>2013-02-22T11:49:11.000Z</time>
      </trkpt>
      <trkpt lat="44.74843" lon="5.9157">
        <ele>2016</ele>
        <time>2013-02-22T11:49:12.000Z</time>
      </trkpt>
      <trkpt lat="44.7484" lon="5.91565">
        <ele>2016</ele>
        <time>2013-02-22T11:49:21.000Z</time>
      </trkpt>
      <trkpt lat="44.74837" lon="5.91559">
        <ele>2017</ele>
        <time>2013-02-22T11:49:22.000Z</time>
      </trkpt>
      <trkpt lat="44.74835" lon="5.91554">
        <ele>2017</ele>
        <time>2013-02-22T11:49:24.000Z</time>
      </trkpt>
      <trkpt lat="44.74835" lon="5.91553">
        <ele>2016</ele>
        <time>2013-02-22T11:49:25.000Z</time>
      </trkpt>
      <trkpt lat="44.74832" lon="5.91549">
        <ele>2016</ele>
        <time>2013-02-22T11:49:28.000Z</time>
      </trkpt>
      <trkpt lat="44.74831" lon="5.91547">
        <ele>2015</ele>
        <time>2013-02-22T11:49:29.000Z</time>
      </trkpt>
      <trkpt lat="44.74829" lon="5.91542">
        <ele>2015</ele>
        <time>2013-02-22T11:49:31.000Z</time>
      </trkpt>
      <trkpt lat="44.74828" lon="5.9154">
        <ele>2015</ele>
        <time>2013-02-22T11:49:32.000Z</time>
      </trkpt>
      <trkpt lat="44.74826" lon="5.91538">
        <ele>2012</ele>
        <time>2013-02-22T11:49:42.000Z</time>
      </trkpt>
      <trkpt lat="44.74823" lon="5.91536">
        <ele>2012</ele>
        <time>2013-02-22T11:49:43.000Z</time>
      </trkpt>
      <trkpt lat="44.7482" lon="5.91537">
        <ele>2011</ele>
        <time>2013-02-22T11:49:44.000Z</time>
      </trkpt>
      <trkpt lat="44.74818" lon="5.91541">
        <ele>2009</ele>
        <time>2013-02-22T11:49:45.000Z</time>
      </trkpt>
      <trkpt lat="44.74815" lon="5.91545">
        <ele>2007</ele>
        <time>2013-02-22T11:49:46.000Z</time>
      </trkpt>
      <trkpt lat="44.7481" lon="5.91545">
        <ele>2005</ele>
        <time>2013-02-22T11:49:47.000Z</time>
      </trkpt>
      <trkpt lat="44.74806" lon="5.91547">
        <ele>2004</ele>
        <time>2013-02-22T11:49:48.000Z</time>
      </trkpt>
      <trkpt lat="44.74803" lon="5.9155">
        <ele>2003</ele>
        <time>2013-02-22T11:49:49.000Z</time>
      </trkpt>
      <trkpt lat="44.74799" lon="5.9155">
        <ele>2001</ele>
        <time>2013-02-22T11:49:50.000Z</time>
      </trkpt>
      <trkpt lat="44.74795" lon="5.91547">
        <ele>1998</ele>
        <time>2013-02-22T11:49:51.000Z</time>
      </trkpt>
      <trkpt lat="44.74791" lon="5.91546">
        <ele>1998</ele>
        <time>2013-02-22T11:49:52.000Z</time>
      </trkpt>
      <trkpt lat="44.74786" lon="5.91548">
        <ele>1997</ele>
        <time>2013-02-22T11:49:53.000Z</time>
      </trkpt>
      <trkpt lat="44.74781" lon="5.91545">
        <ele>1992</ele>
        <time>2013-02-22T11:49:54.000Z</time>
      </trkpt>
      <trkpt lat="44.74776" lon="5.91543">
        <ele>1990</ele>
        <time>2013-02-22T11:49:55.000Z</time>
      </trkpt>
      <trkpt lat="44.74769" lon="5.91545">
        <ele>1987</ele>
        <time>2013-02-22T11:49:56.000Z</time>
      </trkpt>
      <trkpt lat="44.74762" lon="5.91543">
        <ele>1985</ele>
        <time>2013-02-22T11:49:57.000Z</time>
      </trkpt>
      <trkpt lat="44.74755" lon="5.91541">
        <ele>1979</ele>
        <time>2013-02-22T11:49:58.000Z</time>
      </trkpt>
      <trkpt lat="44.74748" lon="5.91539">
        <ele>1979</ele>
        <time>2013-02-22T11:49:59.000Z</time>
      </trkpt>
      <trkpt lat="44.74741" lon="5.91536">
        <ele>1972</ele>
        <time>2013-02-22T11:50:00.000Z</time>
      </trkpt>
      <trkpt lat="44.74735" lon="5.91532">
        <ele>1968</ele>
        <time>2013-02-22T11:50:01.000Z</time>
      </trkpt>
      <trkpt lat="44.74729" lon="5.91534">
        <ele>1967</ele>
        <time>2013-02-22T11:50:02.000Z</time>
      </trkpt>
      <trkpt lat="44.74723" lon="5.91532">
        <ele>1965</ele>
        <time>2013-02-22T11:50:03.000Z</time>
      </trkpt>
      <trkpt lat="44.74716" lon="5.9153">
        <ele>1963</ele>
        <time>2013-02-22T11:50:04.000Z</time>
      </trkpt>
      <trkpt lat="44.74709" lon="5.91528">
        <ele>1959</ele>
        <time>2013-02-22T11:50:05.000Z</time>
      </trkpt>
      <trkpt lat="44.74703" lon="5.91525">
        <ele>1954</ele>
        <time>2013-02-22T11:50:06.000Z</time>
      </trkpt>
      <trkpt lat="44.74697" lon="5.91526">
        <ele>1954</ele>
        <time>2013-02-22T11:50:07.000Z</time>
      </trkpt>
      <trkpt lat="44.74695" lon="5.91532">
        <ele>1950</ele>
        <time>2013-02-22T11:50:08.000Z</time>
      </trkpt>
      <trkpt lat="44.74689" lon="5.91535">
        <ele>1949</ele>
        <time>2013-02-22T11:50:09.000Z</time>
      </trkpt>
      <trkpt lat="44.74682" lon="5.91534">
        <ele>1945</ele>
        <time>2013-02-22T11:50:10.000Z</time>
      </trkpt>
      <trkpt lat="44.74676" lon="5.91533">
        <ele>1942</ele>
        <time>2013-02-22T11:50:11.000Z</time>
      </trkpt>
      <trkpt lat="44.74672" lon="5.91538">
        <ele>1942</ele>
        <time>2013-02-22T11:50:12.000Z</time>
      </trkpt>
      <trkpt lat="44.74666" lon="5.91542">
        <ele>1940</ele>
        <time>2013-02-22T11:50:13.000Z</time>
      </trkpt>
      <trkpt lat="44.74659" lon="5.91542">
        <ele>1935</ele>
        <time>2013-02-22T11:50:14.000Z</time>
      </trkpt>
      <trkpt lat="44.74653" lon="5.91545">
        <ele>1932</ele>
        <time>2013-02-22T11:50:15.000Z</time>
      </trkpt>
      <trkpt lat="44.74647" lon="5.91548">
        <ele>1929</ele>
        <time>2013-02-22T11:50:16.000Z</time>
      </trkpt>
      <trkpt lat="44.7464" lon="5.91547">
        <ele>1926</ele>
        <time>2013-02-22T11:50:17.000Z</time>
      </trkpt>
      <trkpt lat="44.74635" lon="5.91546">
        <ele>1923</ele>
        <time>2013-02-22T11:50:18.000Z</time>
      </trkpt>
      <trkpt lat="44.7463" lon="5.91548">
        <ele>1920</ele>
        <time>2013-02-22T11:50:19.000Z</time>
      </trkpt>
      <trkpt lat="44.74625" lon="5.91551">
        <ele>1916</ele>
        <time>2013-02-22T11:50:20.000Z</time>
      </trkpt>
      <trkpt lat="44.74618" lon="5.91547">
        <ele>1915</ele>
        <time>2013-02-22T11:50:21.000Z</time>
      </trkpt>
      <trkpt lat="44.74609" lon="5.91547">
        <ele>1913</ele>
        <time>2013-02-22T11:50:22.000Z</time>
      </trkpt>
      <trkpt lat="44.74601" lon="5.91547">
        <ele>1908</ele>
        <time>2013-02-22T11:50:23.000Z</time>
      </trkpt>
      <trkpt lat="44.74592" lon="5.91543">
        <ele>1903</ele>
        <time>2013-02-22T11:50:24.000Z</time>
      </trkpt>
      <trkpt lat="44.74585" lon="5.91539">
        <ele>1899</ele>
        <time>2013-02-22T11:50:25.000Z</time>
      </trkpt>
      <trkpt lat="44.74577" lon="5.91542">
        <ele>1901</ele>
        <time>2013-02-22T11:50:26.000Z</time>
      </trkpt>
      <trkpt lat="44.74569" lon="5.91539">
        <ele>1894</ele>
        <time>2013-02-22T11:50:27.000Z</time>
      </trkpt>
      <trkpt lat="44.74563" lon="5.91537">
        <ele>1892</ele>
        <time>2013-02-22T11:50:28.000Z</time>
      </trkpt>
      <trkpt lat="44.74555" lon="5.9154">
        <ele>1890</ele>
        <time>2013-02-22T11:50:29.000Z</time>
      </trkpt>
      <trkpt lat="44.74548" lon="5.9154">
        <ele>1887</ele>
        <time>2013-02-22T11:50:30.000Z</time>
      </trkpt>
      <trkpt lat="44.7454" lon="5.91537">
        <ele>1884</ele>
        <time>2013-02-22T11:50:31.000Z</time>
      </trkpt>
      <trkpt lat="44.74533" lon="5.91541">
        <ele>1880</ele>
        <time>2013-02-22T11:50:32.000Z</time>
      </trkpt>
      <trkpt lat="44.74524" lon="5.91546">
        <ele>1876</ele>
        <time>2013-02-22T11:50:33.000Z</time>
      </trkpt>
      <trkpt lat="44.74516" lon="5.91546">
        <ele>1870</ele>
        <time>2013-02-22T11:50:34.000Z</time>
      </trkpt>
      <trkpt lat="44.74508" lon="5.91544">
        <ele>1866</ele>
        <time>2013-02-22T11:50:35.000Z</time>
      </trkpt>
      <trkpt lat="44.74501" lon="5.91548">
        <ele>1864</ele>
        <time>2013-02-22T11:50:36.000Z</time>
      </trkpt>
      <trkpt lat="44.74492" lon="5.91551">
        <ele>1860</ele>
        <time>2013-02-22T11:50:37.000Z</time>
      </trkpt>
      <trkpt lat="44.74482" lon="5.91548">
        <ele>1857</ele>
        <time>2013-02-22T11:50:38.000Z</time>
      </trkpt>
      <trkpt lat="44.74473" lon="5.91551">
        <ele>1854</ele>
        <time>2013-02-22T11:50:39.000Z</time>
      </trkpt>
      <trkpt lat="44.74463" lon="5.91551">
        <ele>1848</ele>
        <time>2013-02-22T11:50:40.000Z</time>
      </trkpt>
      <trkpt lat="44.74453" lon="5.91547">
        <ele>1845</ele>
        <time>2013-02-22T11:50:41.000Z</time>
      </trkpt>
      <trkpt lat="44.74445" lon="5.91549">
        <ele>1841</ele>
        <time>2013-02-22T11:50:42.000Z</time>
      </trkpt>
      <trkpt lat="44.74435" lon="5.91551">
        <ele>1839</ele>
        <time>2013-02-22T11:50:43.000Z</time>
      </trkpt>
      <trkpt lat="44.74425" lon="5.9155">
        <ele>1837</ele>
        <time>2013-02-22T11:50:44.000Z</time>
      </trkpt>
      <trkpt lat="44.74415" lon="5.91554">
        <ele>1832</ele>
        <time>2013-02-22T11:50:45.000Z</time>
      </trkpt>
      <trkpt lat="44.74406" lon="5.91557">
        <ele>1826</ele>
        <time>2013-02-22T11:50:46.000Z</time>
      </trkpt>
      <trkpt lat="44.74396" lon="5.9156">
        <ele>1825</ele>
        <time>2013-02-22T11:50:47.000Z</time>
      </trkpt>
      <trkpt lat="44.74388" lon="5.91566">
        <ele>1820</ele>
        <time>2013-02-22T11:50:48.000Z</time>
      </trkpt>
      <trkpt lat="44.74379" lon="5.91569">
        <ele>1817</ele>
        <time>2013-02-22T11:50:49.000Z</time>
      </trkpt>
      <trkpt lat="44.74368" lon="5.91572">
        <ele>1814</ele>
        <time>2013-02-22T11:50:50.000Z</time>
      </trkpt>
      <trkpt lat="44.7436" lon="5.91577">
        <ele>1814</ele>
        <time>2013-02-22T11:50:51.000Z</time>
      </trkpt>
      <trkpt lat="44.74348" lon="5.9158">
        <ele>1808</ele>
        <time>2013-02-22T11:50:52.000Z</time>
      </trkpt>
      <trkpt lat="44.74338" lon="5.91584">
        <ele>1805</ele>
        <time>2013-02-22T11:50:53.000Z</time>
      </trkpt>
      <trkpt lat="44.74329" lon="5.91588">
        <ele>1802</ele>
        <time>2013-02-22T11:50:54.000Z</time>
      </trkpt>
      <trkpt lat="44.74319" lon="5.91589">
        <ele>1800</ele>
        <time>2013-02-22T11:50:55.000Z</time>
      </trkpt>
      <trkpt lat="44.74311" lon="5.91593">
        <ele>1795</ele>
        <time>2013-02-22T11:50:56.000Z</time>
      </trkpt>
      <trkpt lat="44.74304" lon="5.91601">
        <ele>1790</ele>
        <time>2013-02-22T11:50:57.000Z</time>
      </trkpt>
      <trkpt lat="44.74298" lon="5.91609">
        <ele>1791</ele>
        <time>2013-02-22T11:50:58.000Z</time>
      </trkpt>
      <trkpt lat="44.74288" lon="5.91614">
        <ele>1789</ele>
        <time>2013-02-22T11:50:59.000Z</time>
      </trkpt>
      <trkpt lat="44.7428" lon="5.91613">
        <ele>1787</ele>
        <time>2013-02-22T11:51:00.000Z</time>
      </trkpt>
      <trkpt lat="44.74271" lon="5.91616">
        <ele>1784</ele>
        <time>2013-02-22T11:51:01.000Z</time>
      </trkpt>
      <trkpt lat="44.74262" lon="5.91614">
        <ele>1780</ele>
        <time>2013-02-22T11:51:02.000Z</time>
      </trkpt>
      <trkpt lat="44.74251" lon="5.91613">
        <ele>1776</ele>
        <time>2013-02-22T11:51:03.000Z</time>
      </trkpt>
      <trkpt lat="44.74241" lon="5.91616">
        <ele>1772</ele>
        <time>2013-02-22T11:51:04.000Z</time>
      </trkpt>
      <trkpt lat="44.7423" lon="5.91614">
        <ele>1770</ele>
        <time>2013-02-22T11:51:05.000Z</time>
      </trkpt>
      <trkpt lat="44.7422" lon="5.91613">
        <ele>1768</ele>
        <time>2013-02-22T11:51:06.000Z</time>
      </trkpt>
      <trkpt lat="44.74212" lon="5.91617">
        <ele>1763</ele>
        <time>2013-02-22T11:51:07.000Z</time>
      </trkpt>
      <trkpt lat="44.74207" lon="5.91622">
        <ele>1760</ele>
        <time>2013-02-22T11:51:08.000Z</time>
      </trkpt>
      <trkpt lat="44.74205" lon="5.91628">
        <ele>1759</ele>
        <time>2013-02-22T11:51:09.000Z</time>
      </trkpt>
      <trkpt lat="44.74208" lon="5.91632">
        <ele>1757</ele>
        <time>2013-02-22T11:56:16.000Z</time>
      </trkpt>
      <trkpt lat="44.74208" lon="5.91633">
        <ele>1758</ele>
        <time>2013-02-22T11:56:17.000Z</time>
      </trkpt>
      <trkpt lat="44.74207" lon="5.91639">
        <ele>1756</ele>
        <time>2013-02-22T11:56:43.000Z</time>
      </trkpt>
      <trkpt lat="44.74207" lon="5.9164">
        <ele>1755</ele>
        <time>2013-02-22T11:56:44.000Z</time>
      </trkpt>
      <trkpt lat="44.74203" lon="5.91644">
        <ele>1754</ele>
        <time>2013-02-22T11:56:47.000Z</time>
      </trkpt>
      <trkpt lat="44.74202" lon="5.91645">
        <ele>1755</ele>
        <time>2013-02-22T11:56:48.000Z</time>
      </trkpt>
      <trkpt lat="44.742" lon="5.91649">
        <ele>1753</ele>
        <time>2013-02-22T11:56:50.000Z</time>
      </trkpt>
      <trkpt lat="44.74198" lon="5.91651">
        <ele>1752</ele>
        <time>2013-02-22T11:56:51.000Z</time>
      </trkpt>
      <trkpt lat="44.74195" lon="5.91655">
        <ele>1754</ele>
        <time>2013-02-22T11:56:54.000Z</time>
      </trkpt>
      <trkpt lat="44.74194" lon="5.91657">
        <ele>1754</ele>
        <time>2013-02-22T11:56:55.000Z</time>
      </trkpt>
      <trkpt lat="44.74191" lon="5.91661">
        <ele>1754</ele>
        <time>2013-02-22T11:56:58.000Z</time>
      </trkpt>
      <trkpt lat="44.74189" lon="5.91663">
        <ele>1754</ele>
        <time>2013-02-22T11:56:59.000Z</time>
      </trkpt>
      <trkpt lat="44.74187" lon="5.91665">
        <ele>1753</ele>
        <time>2013-02-22T11:57:00.000Z</time>
      </trkpt>
      <trkpt lat="44.74185" lon="5.91668">
        <ele>1751</ele>
        <time>2013-02-22T11:57:01.000Z</time>
      </trkpt>
      <trkpt lat="44.74184" lon="5.9167">
        <ele>1751</ele>
        <time>2013-02-22T11:57:02.000Z</time>
      </trkpt>
      <trkpt lat="44.74182" lon="5.91673">
        <ele>1751</ele>
        <time>2013-02-22T11:57:03.000Z</time>
      </trkpt>
      <trkpt lat="44.74179" lon="5.91676">
        <ele>1750</ele>
        <time>2013-02-22T11:57:04.000Z</time>
      </trkpt>
      <trkpt lat="44.74177" lon="5.91679">
        <ele>1750</ele>
        <time>2013-02-22T11:57:05.000Z</time>
      </trkpt>
      <trkpt lat="44.74175" lon="5.91681">
        <ele>1750</ele>
        <time>2013-02-22T11:57:06.000Z</time>
      </trkpt>
      <trkpt lat="44.74172" lon="5.91685">
        <ele>1750</ele>
        <time>2013-02-22T11:57:07.000Z</time>
      </trkpt>
      <trkpt lat="44.74168" lon="5.91688">
        <ele>1750</ele>
        <time>2013-02-22T11:57:08.000Z</time>
      </trkpt>
      <trkpt lat="44.74163" lon="5.9169">
        <ele>1748</ele>
        <time>2013-02-22T11:57:09.000Z</time>
      </trkpt>
      <trkpt lat="44.74157" lon="5.91686">
        <ele>1746</ele>
        <time>2013-02-22T11:57:10.000Z</time>
      </trkpt>
      <trkpt lat="44.74151" lon="5.91683">
        <ele>1745</ele>
        <time>2013-02-22T11:57:11.000Z</time>
      </trkpt>
      <trkpt lat="44.74145" lon="5.91682">
        <ele>1743</ele>
        <time>2013-02-22T11:57:12.000Z</time>
      </trkpt>
      <trkpt lat="44.74139" lon="5.91678">
        <ele>1741</ele>
        <time>2013-02-22T11:57:13.000Z</time>
      </trkpt>
      <trkpt lat="44.74133" lon="5.91676">
        <ele>1737</ele>
        <time>2013-02-22T11:57:14.000Z</time>
      </trkpt>
      <trkpt lat="44.74127" lon="5.91671">
        <ele>1733</ele>
        <time>2013-02-22T11:57:15.000Z</time>
      </trkpt>
      <trkpt lat="44.7412" lon="5.91665">
        <ele>1731</ele>
        <time>2013-02-22T11:57:16.000Z</time>
      </trkpt>
      <trkpt lat="44.74113" lon="5.91665">
        <ele>1730</ele>
        <time>2013-02-22T11:57:17.000Z</time>
      </trkpt>
      <trkpt lat="44.74107" lon="5.9166">
        <ele>1730</ele>
        <time>2013-02-22T11:57:18.000Z</time>
      </trkpt>
      <trkpt lat="44.74104" lon="5.91652">
        <ele>1726</ele>
        <time>2013-02-22T11:57:19.000Z</time>
      </trkpt>
      <trkpt lat="44.74101" lon="5.91643">
        <ele>1724</ele>
        <time>2013-02-22T11:57:20.000Z</time>
      </trkpt>
      <trkpt lat="44.74098" lon="5.91633">
        <ele>1723</ele>
        <time>2013-02-22T11:57:21.000Z</time>
      </trkpt>
      <trkpt lat="44.74094" lon="5.91629">
        <ele>1723</ele>
        <time>2013-02-22T11:57:22.000Z</time>
      </trkpt>
      <trkpt lat="44.74089" lon="5.91629">
        <ele>1722</ele>
        <time>2013-02-22T11:57:23.000Z</time>
      </trkpt>
      <trkpt lat="44.74084" lon="5.91627">
        <ele>1721</ele>
        <time>2013-02-22T11:57:24.000Z</time>
      </trkpt>
      <trkpt lat="44.74079" lon="5.91629">
        <ele>1717</ele>
        <time>2013-02-22T11:57:25.000Z</time>
      </trkpt>
      <trkpt lat="44.74076" lon="5.91633">
        <ele>1715</ele>
        <time>2013-02-22T11:57:26.000Z</time>
      </trkpt>
      <trkpt lat="44.7407" lon="5.91635">
        <ele>1714</ele>
        <time>2013-02-22T11:57:27.000Z</time>
      </trkpt>
      <trkpt lat="44.74064" lon="5.91636">
        <ele>1713</ele>
        <time>2013-02-22T11:57:28.000Z</time>
      </trkpt>
      <trkpt lat="44.74059" lon="5.9164">
        <ele>1709</ele>
        <time>2013-02-22T11:57:29.000Z</time>
      </trkpt>
      <trkpt lat="44.74055" lon="5.91645">
        <ele>1706</ele>
        <time>2013-02-22T11:57:30.000Z</time>
      </trkpt>
      <trkpt lat="44.74049" lon="5.91648">
        <ele>1703</ele>
        <time>2013-02-22T11:57:31.000Z</time>
      </trkpt>
      <trkpt lat="44.74044" lon="5.91653">
        <ele>1702</ele>
        <time>2013-02-22T11:57:32.000Z</time>
      </trkpt>
      <trkpt lat="44.74037" lon="5.91654">
        <ele>1701</ele>
        <time>2013-02-22T11:57:33.000Z</time>
      </trkpt>
      <trkpt lat="44.74032" lon="5.91653">
        <ele>1701</ele>
        <time>2013-02-22T11:57:34.000Z</time>
      </trkpt>
      <trkpt lat="44.74028" lon="5.91653">
        <ele>1700</ele>
        <time>2013-02-22T11:57:35.000Z</time>
      </trkpt>
      <trkpt lat="44.74027" lon="5.9165">
        <ele>1698</ele>
        <time>2013-02-22T11:57:36.000Z</time>
      </trkpt>
      <trkpt lat="44.74024" lon="5.91645">
        <ele>1692</ele>
        <time>2013-02-22T11:57:38.000Z</time>
      </trkpt>
      <trkpt lat="44.74022" lon="5.91645">
        <ele>1690</ele>
        <time>2013-02-22T11:57:39.000Z</time>
      </trkpt>
      <trkpt lat="44.74019" lon="5.91641">
        <ele>1689</ele>
        <time>2013-02-22T11:57:40.000Z</time>
      </trkpt>
      <trkpt lat="44.74015" lon="5.9164">
        <ele>1688</ele>
        <time>2013-02-22T11:57:41.000Z</time>
      </trkpt>
      <trkpt lat="44.74012" lon="5.91639">
        <ele>1690</ele>
        <time>2013-02-22T11:57:42.000Z</time>
      </trkpt>
      <trkpt lat="44.74008" lon="5.91635">
        <ele>1688</ele>
        <time>2013-02-22T11:57:43.000Z</time>
      </trkpt>
      <trkpt lat="44.74006" lon="5.91637">
        <ele>1687</ele>
        <time>2013-02-22T11:57:44.000Z</time>
      </trkpt>
      <trkpt lat="44.74003" lon="5.91637">
        <ele>1686</ele>
        <time>2013-02-22T11:57:45.000Z</time>
      </trkpt>
      <trkpt lat="44.73999" lon="5.91636">
        <ele>1686</ele>
        <time>2013-02-22T11:57:46.000Z</time>
      </trkpt>
      <trkpt lat="44.73995" lon="5.91637">
        <ele>1684</ele>
        <time>2013-02-22T11:57:47.000Z</time>
      </trkpt>
      <trkpt lat="44.73992" lon="5.91634">
        <ele>1683</ele>
        <time>2013-02-22T11:57:48.000Z</time>
      </trkpt>
      <trkpt lat="44.73991" lon="5.91632">
        <ele>1682</ele>
        <time>2013-02-22T11:57:49.000Z</time>
      </trkpt>
      <trkpt lat="44.73991" lon="5.91628">
        <ele>1682</ele>
        <time>2013-02-22T11:57:51.000Z</time>
      </trkpt>
      <trkpt lat="44.7399" lon="5.91626">
        <ele>1682</ele>
        <time>2013-02-22T11:57:52.000Z</time>
      </trkpt>
      <trkpt lat="44.73988" lon="5.91623">
        <ele>1682</ele>
        <time>2013-02-22T11:57:53.000Z</time>
      </trkpt>
      <trkpt lat="44.73985" lon="5.9162">
        <ele>1680</ele>
        <time>2013-02-22T11:57:54.000Z</time>
      </trkpt>
      <trkpt lat="44.73981" lon="5.91614">
        <ele>1678</ele>
        <time>2013-02-22T11:57:55.000Z</time>
      </trkpt>
      <trkpt lat="44.73977" lon="5.91611">
        <ele>1680</ele>
        <time>2013-02-22T11:57:56.000Z</time>
      </trkpt>
      <trkpt lat="44.73972" lon="5.91612">
        <ele>1678</ele>
        <time>2013-02-22T11:57:57.000Z</time>
      </trkpt>
      <trkpt lat="44.73967" lon="5.91613">
        <ele>1677</ele>
        <time>2013-02-22T11:57:58.000Z</time>
      </trkpt>
      <trkpt lat="44.73964" lon="5.91617">
        <ele>1674</ele>
        <time>2013-02-22T11:57:59.000Z</time>
      </trkpt>
      <trkpt lat="44.73961" lon="5.91621">
        <ele>1668</ele>
        <time>2013-02-22T11:58:00.000Z</time>
      </trkpt>
      <trkpt lat="44.73958" lon="5.91619">
        <ele>1670</ele>
        <time>2013-02-22T11:58:12.000Z</time>
      </trkpt>
      <trkpt lat="44.73958" lon="5.91616">
        <ele>1670</ele>
        <time>2013-02-22T11:58:13.000Z</time>
      </trkpt>
      <trkpt lat="44.73957" lon="5.91612">
        <ele>1669</ele>
        <time>2013-02-22T11:58:14.000Z</time>
      </trkpt>
      <trkpt lat="44.73956" lon="5.91609">
        <ele>1669</ele>
        <time>2013-02-22T11:58:15.000Z</time>
      </trkpt>
      <trkpt lat="44.73955" lon="5.91603">
        <ele>1666</ele>
        <time>2013-02-22T11:58:17.000Z</time>
      </trkpt>
      <trkpt lat="44.73955" lon="5.916">
        <ele>1665</ele>
        <time>2013-02-22T11:58:18.000Z</time>
      </trkpt>
      <trkpt lat="44.73953" lon="5.91604">
        <ele>1667</ele>
        <time>2013-02-22T11:58:25.000Z</time>
      </trkpt>
      <trkpt lat="44.73953" lon="5.91608">
        <ele>1666</ele>
        <time>2013-02-22T11:58:26.000Z</time>
      </trkpt>
      <trkpt lat="44.73953" lon="5.91613">
        <ele>1664</ele>
        <time>2013-02-22T11:58:27.000Z</time>
      </trkpt>
      <trkpt lat="44.73953" lon="5.91616">
        <ele>1663</ele>
        <time>2013-02-22T11:58:28.000Z</time>
      </trkpt>
      <trkpt lat="44.73953" lon="5.91618">
        <ele>1663</ele>
        <time>2013-02-22T11:59:01.000Z</time>
      </trkpt>
      <trkpt lat="44.73956" lon="5.91625">
        <ele>1666</ele>
        <time>2013-02-22T11:59:02.000Z</time>
      </trkpt>
      <trkpt lat="44.73956" lon="5.91627">
        <ele>1663</ele>
        <time>2013-02-22T11:59:15.000Z</time>
      </trkpt>
      <trkpt lat="44.73958" lon="5.91634">
        <ele>1664</ele>
        <time>2013-02-22T11:59:16.000Z</time>
      </trkpt>
      <trkpt lat="44.73955" lon="5.91639">
        <ele>1666</ele>
        <time>2013-02-22T11:59:21.000Z</time>
      </trkpt>
      <trkpt lat="44.73954" lon="5.9164">
        <ele>1665</ele>
        <time>2013-02-22T11:59:22.000Z</time>
      </trkpt>
      <trkpt lat="44.73951" lon="5.91645">
        <ele>1668</ele>
        <time>2013-02-22T11:59:26.000Z</time>
      </trkpt>
      <trkpt lat="44.7395" lon="5.91646">
        <ele>1668</ele>
        <time>2013-02-22T11:59:27.000Z</time>
      </trkpt>
      <trkpt lat="44.73948" lon="5.91651">
        <ele>1661</ele>
        <time>2013-02-22T12:02:51.000Z</time>
      </trkpt>
      <trkpt lat="44.73948" lon="5.91652">
        <ele>1661</ele>
        <time>2013-02-22T12:02:52.000Z</time>
      </trkpt>
      <trkpt lat="44.73946" lon="5.91647">
        <ele>1668</ele>
        <time>2013-02-22T12:09:11.000Z</time>
      </trkpt>
      <trkpt lat="44.73945" lon="5.91646">
        <ele>1669</ele>
        <time>2013-02-22T12:09:12.000Z</time>
      </trkpt>
      <trkpt lat="44.73949" lon="5.9165">
        <ele>1666</ele>
        <time>2013-02-22T12:09:54.000Z</time>
      </trkpt>
      <trkpt lat="44.73949" lon="5.91651">
        <ele>1665</ele>
        <time>2013-02-22T12:09:55.000Z</time>
      </trkpt>
      <trkpt lat="44.73951" lon="5.91655">
        <ele>1669</ele>
        <time>2013-02-22T12:10:52.000Z</time>
      </trkpt>
      <trkpt lat="44.73951" lon="5.91655">
        <ele>1669</ele>
        <time>2013-02-22T12:10:53.000Z</time>
      </trkpt>
      <trkpt lat="44.73955" lon="5.91654">
        <ele>1671</ele>
        <time>2013-02-22T12:10:57.000Z</time>
      </trkpt>
      <trkpt lat="44.73956" lon="5.91653">
        <ele>1670</ele>
        <time>2013-02-22T12:10:58.000Z</time>
      </trkpt>
      <trkpt lat="44.73959" lon="5.9165">
        <ele>1670</ele>
        <time>2013-02-22T12:11:02.000Z</time>
      </trkpt>
      <trkpt lat="44.7396" lon="5.91649">
        <ele>1671</ele>
        <time>2013-02-22T12:11:03.000Z</time>
      </trkpt>
      <trkpt lat="44.73963" lon="5.91647">
        <ele>1674</ele>
        <time>2013-02-22T12:11:07.000Z</time>
      </trkpt>
      <trkpt lat="44.73964" lon="5.91646">
        <ele>1673</ele>
        <time>2013-02-22T12:11:08.000Z</time>
      </trkpt>
      <trkpt lat="44.73968" lon="5.91644">
        <ele>1668</ele>
        <time>2013-02-22T12:11:13.000Z</time>
      </trkpt>
      <trkpt lat="44.73968" lon="5.91644">
        <ele>1668</ele>
        <time>2013-02-22T12:11:14.000Z</time>
      </trkpt>
      <trkpt lat="44.73972" lon="5.9164">
        <ele>1673</ele>
        <time>2013-02-22T12:11:19.000Z</time>
      </trkpt>
      <trkpt lat="44.73972" lon="5.91639">
        <ele>1675</ele>
        <time>2013-02-22T12:11:20.000Z</time>
      </trkpt>
      <trkpt lat="44.73976" lon="5.91639">
        <ele>1674</ele>
        <time>2013-02-22T12:11:27.000Z</time>
      </trkpt>
      <trkpt lat="44.73977" lon="5.91639">
        <ele>1674</ele>
        <time>2013-02-22T12:11:28.000Z</time>
      </trkpt>
      <trkpt lat="44.7398" lon="5.91643">
        <ele>1676</ele>
        <time>2013-02-22T12:11:35.000Z</time>
      </trkpt>
      <trkpt lat="44.7398" lon="5.91643">
        <ele>1677</ele>
        <time>2013-02-22T12:11:36.000Z</time>
      </trkpt>
      <trkpt lat="44.73984" lon="5.91644">
        <ele>1679</ele>
        <time>2013-02-22T12:12:07.000Z</time>
      </trkpt>
      <trkpt lat="44.73985" lon="5.91645">
        <ele>1679</ele>
        <time>2013-02-22T12:12:08.000Z</time>
      </trkpt>
      <trkpt lat="44.73989" lon="5.91647">
        <ele>1686</ele>
        <time>2013-02-22T12:12:46.000Z</time>
      </trkpt>
      <trkpt lat="44.7399" lon="5.91647">
        <ele>1685</ele>
        <time>2013-02-22T12:12:47.000Z</time>
      </trkpt>
      <trkpt lat="44.73994" lon="5.91646">
        <ele>1688</ele>
        <time>2013-02-22T12:12:52.000Z</time>
      </trkpt>
      <trkpt lat="44.73995" lon="5.91646">
        <ele>1687</ele>
        <time>2013-02-22T12:12:53.000Z</time>
      </trkpt>
      <trkpt lat="44.73999" lon="5.91644">
        <ele>1682</ele>
        <time>2013-02-22T12:12:58.000Z</time>
      </trkpt>
      <trkpt lat="44.73999" lon="5.91644">
        <ele>1683</ele>
        <time>2013-02-22T12:12:59.000Z</time>
      </trkpt>
      <trkpt lat="44.74004" lon="5.91644">
        <ele>1686</ele>
        <time>2013-02-22T12:13:06.000Z</time>
      </trkpt>
      <trkpt lat="44.74005" lon="5.91644">
        <ele>1686</ele>
        <time>2013-02-22T12:13:07.000Z</time>
      </trkpt>
      <trkpt lat="44.74009" lon="5.91644">
        <ele>1692</ele>
        <time>2013-02-22T12:13:12.000Z</time>
      </trkpt>
      <trkpt lat="44.74009" lon="5.91644">
        <ele>1691</ele>
        <time>2013-02-22T12:13:13.000Z</time>
      </trkpt>
      <trkpt lat="44.74013" lon="5.91641">
        <ele>1687</ele>
        <time>2013-02-22T12:13:20.000Z</time>
      </trkpt>
      <trkpt lat="44.74014" lon="5.9164">
        <ele>1688</ele>
        <time>2013-02-22T12:13:21.000Z</time>
      </trkpt>
      <trkpt lat="44.74017" lon="5.91637">
        <ele>1689</ele>
        <time>2013-02-22T12:13:27.000Z</time>
      </trkpt>
      <trkpt lat="44.74018" lon="5.91637">
        <ele>1690</ele>
        <time>2013-02-22T12:13:28.000Z</time>
      </trkpt>
      <trkpt lat="44.74022" lon="5.91636">
        <ele>1691</ele>
        <time>2013-02-22T12:13:34.000Z</time>
      </trkpt>
      <trkpt lat="44.74023" lon="5.91635">
        <ele>1692</ele>
        <time>2013-02-22T12:13:35.000Z</time>
      </trkpt>
      <trkpt lat="44.74026" lon="5.91631">
        <ele>1694</ele>
        <time>2013-02-22T12:13:42.000Z</time>
      </trkpt>
      <trkpt lat="44.74026" lon="5.9163">
        <ele>1694</ele>
        <time>2013-02-22T12:13:43.000Z</time>
      </trkpt>
      <trkpt lat="44.74029" lon="5.91626">
        <ele>1695</ele>
        <time>2013-02-22T12:13:49.000Z</time>
      </trkpt>
      <trkpt lat="44.74029" lon="5.91625">
        <ele>1694</ele>
        <time>2013-02-22T12:13:50.000Z</time>
      </trkpt>
      <trkpt lat="44.74032" lon="5.91621">
        <ele>1698</ele>
        <time>2013-02-22T12:13:57.000Z</time>
      </trkpt>
      <trkpt lat="44.74033" lon="5.9162">
        <ele>1698</ele>
        <time>2013-02-22T12:13:58.000Z</time>
      </trkpt>
      <trkpt lat="44.74036" lon="5.91617">
        <ele>1701</ele>
        <time>2013-02-22T12:14:05.000Z</time>
      </trkpt>
      <trkpt lat="44.74037" lon="5.91616">
        <ele>1701</ele>
        <time>2013-02-22T12:14:06.000Z</time>
      </trkpt>
      <trkpt lat="44.7404" lon="5.91614">
        <ele>1702</ele>
        <time>2013-02-22T12:14:12.000Z</time>
      </trkpt>
      <trkpt lat="44.74041" lon="5.91613">
        <ele>1701</ele>
        <time>2013-02-22T12:14:13.000Z</time>
      </trkpt>
      <trkpt lat="44.74045" lon="5.91612">
        <ele>1704</ele>
        <time>2013-02-22T12:14:21.000Z</time>
      </trkpt>
      <trkpt lat="44.74046" lon="5.91613">
        <ele>1704</ele>
        <time>2013-02-22T12:14:22.000Z</time>
      </trkpt>
      <trkpt lat="44.74049" lon="5.91616">
        <ele>1706</ele>
        <time>2013-02-22T12:14:27.000Z</time>
      </trkpt>
      <trkpt lat="44.7405" lon="5.91616">
        <ele>1707</ele>
        <time>2013-02-22T12:14:28.000Z</time>
      </trkpt>
      <trkpt lat="44.74053" lon="5.91619">
        <ele>1708</ele>
        <time>2013-02-22T12:14:33.000Z</time>
      </trkpt>
      <trkpt lat="44.74054" lon="5.9162">
        <ele>1708</ele>
        <time>2013-02-22T12:14:34.000Z</time>
      </trkpt>
      <trkpt lat="44.74057" lon="5.91622">
        <ele>1709</ele>
        <time>2013-02-22T12:14:38.000Z</time>
      </trkpt>
      <trkpt lat="44.74058" lon="5.91622">
        <ele>1711</ele>
        <time>2013-02-22T12:14:39.000Z</time>
      </trkpt>
      <trkpt lat="44.74062" lon="5.91625">
        <ele>1712</ele>
        <time>2013-02-22T12:14:45.000Z</time>
      </trkpt>
      <trkpt lat="44.74062" lon="5.91626">
        <ele>1712</ele>
        <time>2013-02-22T12:14:46.000Z</time>
      </trkpt>
      <trkpt lat="44.74066" lon="5.91628">
        <ele>1712</ele>
        <time>2013-02-22T12:14:51.000Z</time>
      </trkpt>
      <trkpt lat="44.74067" lon="5.91629">
        <ele>1713</ele>
        <time>2013-02-22T12:14:52.000Z</time>
      </trkpt>
      <trkpt lat="44.74071" lon="5.91631">
        <ele>1713</ele>
        <time>2013-02-22T12:14:58.000Z</time>
      </trkpt>
      <trkpt lat="44.74072" lon="5.91632">
        <ele>1713</ele>
        <time>2013-02-22T12:14:59.000Z</time>
      </trkpt>
      <trkpt lat="44.74075" lon="5.91635">
        <ele>1715</ele>
        <time>2013-02-22T12:15:05.000Z</time>
      </trkpt>
      <trkpt lat="44.74076" lon="5.91635">
        <ele>1717</ele>
        <time>2013-02-22T12:15:06.000Z</time>
      </trkpt>
      <trkpt lat="44.74079" lon="5.91637">
        <ele>1719</ele>
        <time>2013-02-22T12:15:12.000Z</time>
      </trkpt>
      <trkpt lat="44.7408" lon="5.91637">
        <ele>1718</ele>
        <time>2013-02-22T12:15:13.000Z</time>
      </trkpt>
      <trkpt lat="44.74084" lon="5.91636">
        <ele>1719</ele>
        <time>2013-02-22T12:15:19.000Z</time>
      </trkpt>
      <trkpt lat="44.74085" lon="5.91635">
        <ele>1719</ele>
        <time>2013-02-22T12:15:20.000Z</time>
      </trkpt>
      <trkpt lat="44.74088" lon="5.91633">
        <ele>1722</ele>
        <time>2013-02-22T12:15:26.000Z</time>
      </trkpt>
      <trkpt lat="44.74089" lon="5.91633">
        <ele>1722</ele>
        <time>2013-02-22T12:15:27.000Z</time>
      </trkpt>
      <trkpt lat="44.74092" lon="5.9163">
        <ele>1719</ele>
        <time>2013-02-22T12:15:33.000Z</time>
      </trkpt>
      <trkpt lat="44.74093" lon="5.91629">
        <ele>1718</ele>
        <time>2013-02-22T12:15:34.000Z</time>
      </trkpt>
      <trkpt lat="44.74097" lon="5.91627">
        <ele>1721</ele>
        <time>2013-02-22T12:15:40.000Z</time>
      </trkpt>
      <trkpt lat="44.74097" lon="5.91628">
        <ele>1723</ele>
        <time>2013-02-22T12:15:41.000Z</time>
      </trkpt>
      <trkpt lat="44.74101" lon="5.91631">
        <ele>1728</ele>
        <time>2013-02-22T12:15:50.000Z</time>
      </trkpt>
      <trkpt lat="44.74101" lon="5.91632">
        <ele>1728</ele>
        <time>2013-02-22T12:15:51.000Z</time>
      </trkpt>
      <trkpt lat="44.74105" lon="5.91634">
        <ele>1727</ele>
        <time>2013-02-22T12:15:57.000Z</time>
      </trkpt>
      <trkpt lat="44.74105" lon="5.91634">
        <ele>1726</ele>
        <time>2013-02-22T12:15:58.000Z</time>
      </trkpt>
      <trkpt lat="44.74109" lon="5.91637">
        <ele>1731</ele>
        <time>2013-02-22T12:16:04.000Z</time>
      </trkpt>
      <trkpt lat="44.7411" lon="5.91637">
        <ele>1731</ele>
        <time>2013-02-22T12:16:05.000Z</time>
      </trkpt>
      <trkpt lat="44.74114" lon="5.91639">
        <ele>1729</ele>
        <time>2013-02-22T12:16:10.000Z</time>
      </trkpt>
      <trkpt lat="44.74115" lon="5.9164">
        <ele>1730</ele>
        <time>2013-02-22T12:16:11.000Z</time>
      </trkpt>
      <trkpt lat="44.74119" lon="5.91642">
        <ele>1731</ele>
        <time>2013-02-22T12:16:17.000Z</time>
      </trkpt>
      <trkpt lat="44.74119" lon="5.91642">
        <ele>1732</ele>
        <time>2013-02-22T12:16:18.000Z</time>
      </trkpt>
      <trkpt lat="44.74123" lon="5.91644">
        <ele>1733</ele>
        <time>2013-02-22T12:16:24.000Z</time>
      </trkpt>
      <trkpt lat="44.74124" lon="5.91644">
        <ele>1733</ele>
        <time>2013-02-22T12:16:25.000Z</time>
      </trkpt>
      <trkpt lat="44.74128" lon="5.91642">
        <ele>1733</ele>
        <time>2013-02-22T12:16:31.000Z</time>
      </trkpt>
      <trkpt lat="44.74129" lon="5.91642">
        <ele>1733</ele>
        <time>2013-02-22T12:16:32.000Z</time>
      </trkpt>
      <trkpt lat="44.74132" lon="5.9164">
        <ele>1735</ele>
        <time>2013-02-22T12:16:38.000Z</time>
      </trkpt>
      <trkpt lat="44.74133" lon="5.9164">
        <ele>1735</ele>
        <time>2013-02-22T12:16:39.000Z</time>
      </trkpt>
      <trkpt lat="44.74136" lon="5.91637">
        <ele>1735</ele>
        <time>2013-02-22T12:16:44.000Z</time>
      </trkpt>
      <trkpt lat="44.74137" lon="5.91636">
        <ele>1735</ele>
        <time>2013-02-22T12:16:45.000Z</time>
      </trkpt>
      <trkpt lat="44.7414" lon="5.91634">
        <ele>1738</ele>
        <time>2013-02-22T12:16:51.000Z</time>
      </trkpt>
      <trkpt lat="44.74141" lon="5.91633">
        <ele>1738</ele>
        <time>2013-02-22T12:16:52.000Z</time>
      </trkpt>
      <trkpt lat="44.74145" lon="5.91631">
        <ele>1739</ele>
        <time>2013-02-22T12:16:57.000Z</time>
      </trkpt>
      <trkpt lat="44.74145" lon="5.9163">
        <ele>1739</ele>
        <time>2013-02-22T12:16:58.000Z</time>
      </trkpt>
      <trkpt lat="44.74148" lon="5.91627">
        <ele>1739</ele>
        <time>2013-02-22T12:17:06.000Z</time>
      </trkpt>
      <trkpt lat="44.74149" lon="5.91626">
        <ele>1739</ele>
        <time>2013-02-22T12:17:07.000Z</time>
      </trkpt>
      <trkpt lat="44.74152" lon="5.91622">
        <ele>1743</ele>
        <time>2013-02-22T12:17:14.000Z</time>
      </trkpt>
      <trkpt lat="44.74153" lon="5.91622">
        <ele>1744</ele>
        <time>2013-02-22T12:17:15.000Z</time>
      </trkpt>
      <trkpt lat="44.74155" lon="5.91617">
        <ele>1742</ele>
        <time>2013-02-22T12:17:22.000Z</time>
      </trkpt>
      <trkpt lat="44.74155" lon="5.91616">
        <ele>1742</ele>
        <time>2013-02-22T12:17:23.000Z</time>
      </trkpt>
      <trkpt lat="44.7416" lon="5.91616">
        <ele>1741</ele>
        <time>2013-02-22T12:17:30.000Z</time>
      </trkpt>
      <trkpt lat="44.74161" lon="5.91616">
        <ele>1743</ele>
        <time>2013-02-22T12:17:31.000Z</time>
      </trkpt>
      <trkpt lat="44.74165" lon="5.91615">
        <ele>1745</ele>
        <time>2013-02-22T12:17:37.000Z</time>
      </trkpt>
      <trkpt lat="44.74165" lon="5.91615">
        <ele>1745</ele>
        <time>2013-02-22T12:17:38.000Z</time>
      </trkpt>
      <trkpt lat="44.74169" lon="5.91613">
        <ele>1748</ele>
        <time>2013-02-22T12:17:43.000Z</time>
      </trkpt>
      <trkpt lat="44.74169" lon="5.91612">
        <ele>1749</ele>
        <time>2013-02-22T12:17:44.000Z</time>
      </trkpt>
      <trkpt lat="44.74173" lon="5.91612">
        <ele>1747</ele>
        <time>2013-02-22T12:17:49.000Z</time>
      </trkpt>
      <trkpt lat="44.74174" lon="5.91611">
        <ele>1747</ele>
        <time>2013-02-22T12:17:50.000Z</time>
      </trkpt>
      <trkpt lat="44.74178" lon="5.9161">
        <ele>1749</ele>
        <time>2013-02-22T12:17:55.000Z</time>
      </trkpt>
      <trkpt lat="44.74179" lon="5.9161">
        <ele>1749</ele>
        <time>2013-02-22T12:17:56.000Z</time>
      </trkpt>
      <trkpt lat="44.74183" lon="5.91608">
        <ele>1749</ele>
        <time>2013-02-22T12:18:03.000Z</time>
      </trkpt>
      <trkpt lat="44.74183" lon="5.91608">
        <ele>1750</ele>
        <time>2013-02-22T12:18:04.000Z</time>
      </trkpt>
      <trkpt lat="44.74187" lon="5.91608">
        <ele>1754</ele>
        <time>2013-02-22T12:18:12.000Z</time>
      </trkpt>
      <trkpt lat="44.74188" lon="5.91608">
        <ele>1756</ele>
        <time>2013-02-22T12:18:13.000Z</time>
      </trkpt>
      <trkpt lat="44.74192" lon="5.91607">
        <ele>1746</ele>
        <time>2013-02-22T12:18:39.000Z</time>
      </trkpt>
      <trkpt lat="44.74192" lon="5.91607">
        <ele>1746</ele>
        <time>2013-02-22T12:18:40.000Z</time>
      </trkpt>
      <trkpt lat="44.74196" lon="5.91608">
        <ele>1753</ele>
        <time>2013-02-22T12:19:11.000Z</time>
      </trkpt>
      <trkpt lat="44.74197" lon="5.91608">
        <ele>1753</ele>
        <time>2013-02-22T12:19:12.000Z</time>
      </trkpt>
      <trkpt lat="44.742" lon="5.91607">
        <ele>1754</ele>
        <time>2013-02-22T12:19:15.000Z</time>
      </trkpt>
      <trkpt lat="44.74202" lon="5.91607">
        <ele>1755</ele>
        <time>2013-02-22T12:19:16.000Z</time>
      </trkpt>
      <trkpt lat="44.74205" lon="5.91606">
        <ele>1753</ele>
        <time>2013-02-22T12:19:21.000Z</time>
      </trkpt>
      <trkpt lat="44.74206" lon="5.91606">
        <ele>1753</ele>
        <time>2013-02-22T12:19:22.000Z</time>
      </trkpt>
      <trkpt lat="44.7421" lon="5.91606">
        <ele>1757</ele>
        <time>2013-02-22T12:19:26.000Z</time>
      </trkpt>
      <trkpt lat="44.74211" lon="5.91606">
        <ele>1758</ele>
        <time>2013-02-22T12:19:27.000Z</time>
      </trkpt>
      <trkpt lat="44.74215" lon="5.91606">
        <ele>1760</ele>
        <time>2013-02-22T12:19:31.000Z</time>
      </trkpt>
      <trkpt lat="44.74216" lon="5.91606">
        <ele>1760</ele>
        <time>2013-02-22T12:19:32.000Z</time>
      </trkpt>
      <trkpt lat="44.7422" lon="5.91607">
        <ele>1759</ele>
        <time>2013-02-22T12:19:36.000Z</time>
      </trkpt>
      <trkpt lat="44.74221" lon="5.91607">
        <ele>1759</ele>
        <time>2013-02-22T12:19:37.000Z</time>
      </trkpt>
      <trkpt lat="44.74224" lon="5.91607">
        <ele>1759</ele>
        <time>2013-02-22T12:19:40.000Z</time>
      </trkpt>
      <trkpt lat="44.74225" lon="5.91607">
        <ele>1760</ele>
        <time>2013-02-22T12:19:41.000Z</time>
      </trkpt>
      <trkpt lat="44.7423" lon="5.91606">
        <ele>1763</ele>
        <time>2013-02-22T12:19:47.000Z</time>
      </trkpt>
      <trkpt lat="44.7423" lon="5.91605">
        <ele>1762</ele>
        <time>2013-02-22T12:19:48.000Z</time>
      </trkpt>
      <trkpt lat="44.74234" lon="5.91605">
        <ele>1767</ele>
        <time>2013-02-22T12:19:55.000Z</time>
      </trkpt>
      <trkpt lat="44.74235" lon="5.91604">
        <ele>1767</ele>
        <time>2013-02-22T12:19:56.000Z</time>
      </trkpt>
      <trkpt lat="44.74238" lon="5.91603">
        <ele>1763</ele>
        <time>2013-02-22T12:20:02.000Z</time>
      </trkpt>
      <trkpt lat="44.74239" lon="5.91603">
        <ele>1762</ele>
        <time>2013-02-22T12:20:03.000Z</time>
      </trkpt>
      <trkpt lat="44.74243" lon="5.91602">
        <ele>1765</ele>
        <time>2013-02-22T12:20:08.000Z</time>
      </trkpt>
      <trkpt lat="44.74244" lon="5.91601">
        <ele>1765</ele>
        <time>2013-02-22T12:20:09.000Z</time>
      </trkpt>
      <trkpt lat="44.74248" lon="5.91601">
        <ele>1766</ele>
        <time>2013-02-22T12:20:15.000Z</time>
      </trkpt>
      <trkpt lat="44.74249" lon="5.916">
        <ele>1767</ele>
        <time>2013-02-22T12:20:16.000Z</time>
      </trkpt>
      <trkpt lat="44.74252" lon="5.91598">
        <ele>1769</ele>
        <time>2013-02-22T12:20:22.000Z</time>
      </trkpt>
      <trkpt lat="44.74253" lon="5.91598">
        <ele>1769</ele>
        <time>2013-02-22T12:20:23.000Z</time>
      </trkpt>
      <trkpt lat="44.74257" lon="5.91596">
        <ele>1772</ele>
        <time>2013-02-22T12:20:30.000Z</time>
      </trkpt>
      <trkpt lat="44.74257" lon="5.91596">
        <ele>1773</ele>
        <time>2013-02-22T12:20:31.000Z</time>
      </trkpt>
      <trkpt lat="44.74262" lon="5.91596">
        <ele>1771</ele>
        <time>2013-02-22T12:20:38.000Z</time>
      </trkpt>
      <trkpt lat="44.74262" lon="5.91596">
        <ele>1772</ele>
        <time>2013-02-22T12:20:39.000Z</time>
      </trkpt>
      <trkpt lat="44.74267" lon="5.91595">
        <ele>1778</ele>
        <time>2013-02-22T12:20:47.000Z</time>
      </trkpt>
      <trkpt lat="44.74267" lon="5.91595">
        <ele>1779</ele>
        <time>2013-02-22T12:20:48.000Z</time>
      </trkpt>
      <trkpt lat="44.74271" lon="5.91593">
        <ele>1778</ele>
        <time>2013-02-22T12:20:55.000Z</time>
      </trkpt>
      <trkpt lat="44.74272" lon="5.91593">
        <ele>1779</ele>
        <time>2013-02-22T12:20:56.000Z</time>
      </trkpt>
      <trkpt lat="44.74276" lon="5.91591">
        <ele>1778</ele>
        <time>2013-02-22T12:21:03.000Z</time>
      </trkpt>
      <trkpt lat="44.74277" lon="5.91591">
        <ele>1779</ele>
        <time>2013-02-22T12:21:04.000Z</time>
      </trkpt>
      <trkpt lat="44.74281" lon="5.9159">
        <ele>1781</ele>
        <time>2013-02-22T12:21:10.000Z</time>
      </trkpt>
      <trkpt lat="44.74282" lon="5.9159">
        <ele>1781</ele>
        <time>2013-02-22T12:21:11.000Z</time>
      </trkpt>
      <trkpt lat="44.74286" lon="5.91589">
        <ele>1783</ele>
        <time>2013-02-22T12:21:16.000Z</time>
      </trkpt>
      <trkpt lat="44.74287" lon="5.91589">
        <ele>1784</ele>
        <time>2013-02-22T12:21:17.000Z</time>
      </trkpt>
      <trkpt lat="44.7429" lon="5.91588">
        <ele>1783</ele>
        <time>2013-02-22T12:21:23.000Z</time>
      </trkpt>
      <trkpt lat="44.74291" lon="5.91588">
        <ele>1783</ele>
        <time>2013-02-22T12:21:24.000Z</time>
      </trkpt>
      <trkpt lat="44.74295" lon="5.91586">
        <ele>1781</ele>
        <time>2013-02-22T12:21:29.000Z</time>
      </trkpt>
      <trkpt lat="44.74295" lon="5.91586">
        <ele>1781</ele>
        <time>2013-02-22T12:21:30.000Z</time>
      </trkpt>
      <trkpt lat="44.743" lon="5.91584">
        <ele>1786</ele>
        <time>2013-02-22T12:21:36.000Z</time>
      </trkpt>
      <trkpt lat="44.743" lon="5.91584">
        <ele>1787</ele>
        <time>2013-02-22T12:21:37.000Z</time>
      </trkpt>
      <trkpt lat="44.74304" lon="5.91582">
        <ele>1783</ele>
        <time>2013-02-22T12:21:46.000Z</time>
      </trkpt>
      <trkpt lat="44.74305" lon="5.91582">
        <ele>1783</ele>
        <time>2013-02-22T12:21:47.000Z</time>
      </trkpt>
      <trkpt lat="44.74309" lon="5.91582">
        <ele>1790</ele>
        <time>2013-02-22T12:21:55.000Z</time>
      </trkpt>
      <trkpt lat="44.7431" lon="5.91582">
        <ele>1791</ele>
        <time>2013-02-22T12:21:56.000Z</time>
      </trkpt>
      <trkpt lat="44.74313" lon="5.9158">
        <ele>1792</ele>
        <time>2013-02-22T12:22:04.000Z</time>
      </trkpt>
      <trkpt lat="44.74314" lon="5.9158">
        <ele>1791</ele>
        <time>2013-02-22T12:22:05.000Z</time>
      </trkpt>
      <trkpt lat="44.74318" lon="5.9158">
        <ele>1789</ele>
        <time>2013-02-22T12:22:10.000Z</time>
      </trkpt>
      <trkpt lat="44.74319" lon="5.91579">
        <ele>1789</ele>
        <time>2013-02-22T12:22:11.000Z</time>
      </trkpt>
      <trkpt lat="44.74323" lon="5.91578">
        <ele>1790</ele>
        <time>2013-02-22T12:22:16.000Z</time>
      </trkpt>
      <trkpt lat="44.74324" lon="5.91577">
        <ele>1790</ele>
        <time>2013-02-22T12:22:17.000Z</time>
      </trkpt>
      <trkpt lat="44.74328" lon="5.91576">
        <ele>1789</ele>
        <time>2013-02-22T12:22:22.000Z</time>
      </trkpt>
      <trkpt lat="44.74329" lon="5.91576">
        <ele>1790</ele>
        <time>2013-02-22T12:22:23.000Z</time>
      </trkpt>
      <trkpt lat="44.74333" lon="5.91575">
        <ele>1794</ele>
        <time>2013-02-22T12:22:31.000Z</time>
      </trkpt>
      <trkpt lat="44.74333" lon="5.91575">
        <ele>1795</ele>
        <time>2013-02-22T12:22:32.000Z</time>
      </trkpt>
      <trkpt lat="44.74337" lon="5.91574">
        <ele>1794</ele>
        <time>2013-02-22T12:22:39.000Z</time>
      </trkpt>
      <trkpt lat="44.74338" lon="5.91574">
        <ele>1795</ele>
        <time>2013-02-22T12:22:40.000Z</time>
      </trkpt>
      <trkpt lat="44.74342" lon="5.91574">
        <ele>1799</ele>
        <time>2013-02-22T12:22:46.000Z</time>
      </trkpt>
      <trkpt lat="44.74343" lon="5.91574">
        <ele>1798</ele>
        <time>2013-02-22T12:22:47.000Z</time>
      </trkpt>
      <trkpt lat="44.74347" lon="5.91574">
        <ele>1803</ele>
        <time>2013-02-22T12:22:57.000Z</time>
      </trkpt>
      <trkpt lat="44.74347" lon="5.91574">
        <ele>1803</ele>
        <time>2013-02-22T12:22:58.000Z</time>
      </trkpt>
      <trkpt lat="44.74352" lon="5.91574">
        <ele>1803</ele>
        <time>2013-02-22T12:23:04.000Z</time>
      </trkpt>
      <trkpt lat="44.74353" lon="5.91575">
        <ele>1803</ele>
        <time>2013-02-22T12:23:05.000Z</time>
      </trkpt>
      <trkpt lat="44.74357" lon="5.91575">
        <ele>1808</ele>
        <time>2013-02-22T12:23:12.000Z</time>
      </trkpt>
      <trkpt lat="44.74357" lon="5.91575">
        <ele>1808</ele>
        <time>2013-02-22T12:23:13.000Z</time>
      </trkpt>
      <trkpt lat="44.74361" lon="5.91575">
        <ele>1807</ele>
        <time>2013-02-22T12:23:19.000Z</time>
      </trkpt>
      <trkpt lat="44.74362" lon="5.91576">
        <ele>1807</ele>
        <time>2013-02-22T12:23:20.000Z</time>
      </trkpt>
      <trkpt lat="44.74366" lon="5.91576">
        <ele>1809</ele>
        <time>2013-02-22T12:23:26.000Z</time>
      </trkpt>
      <trkpt lat="44.74367" lon="5.91576">
        <ele>1809</ele>
        <time>2013-02-22T12:23:27.000Z</time>
      </trkpt>
      <trkpt lat="44.74371" lon="5.91575">
        <ele>1810</ele>
        <time>2013-02-22T12:23:33.000Z</time>
      </trkpt>
      <trkpt lat="44.74372" lon="5.91576">
        <ele>1811</ele>
        <time>2013-02-22T12:23:34.000Z</time>
      </trkpt>
      <trkpt lat="44.74376" lon="5.91576">
        <ele>1812</ele>
        <time>2013-02-22T12:23:40.000Z</time>
      </trkpt>
      <trkpt lat="44.74377" lon="5.91576">
        <ele>1811</ele>
        <time>2013-02-22T12:23:41.000Z</time>
      </trkpt>
      <trkpt lat="44.7438" lon="5.91575">
        <ele>1813</ele>
        <time>2013-02-22T12:23:46.000Z</time>
      </trkpt>
      <trkpt lat="44.74381" lon="5.91575">
        <ele>1812</ele>
        <time>2013-02-22T12:23:47.000Z</time>
      </trkpt>
      <trkpt lat="44.74385" lon="5.91574">
        <ele>1811</ele>
        <time>2013-02-22T12:23:52.000Z</time>
      </trkpt>
      <trkpt lat="44.74386" lon="5.91573">
        <ele>1813</ele>
        <time>2013-02-22T12:23:53.000Z</time>
      </trkpt>
      <trkpt lat="44.7439" lon="5.91572">
        <ele>1813</ele>
        <time>2013-02-22T12:23:59.000Z</time>
      </trkpt>
      <trkpt lat="44.74391" lon="5.91571">
        <ele>1813</ele>
        <time>2013-02-22T12:24:00.000Z</time>
      </trkpt>
      <trkpt lat="44.74395" lon="5.91569">
        <ele>1811</ele>
        <time>2013-02-22T12:24:06.000Z</time>
      </trkpt>
      <trkpt lat="44.74396" lon="5.91568">
        <ele>1809</ele>
        <time>2013-02-22T12:24:07.000Z</time>
      </trkpt>
      <trkpt lat="44.744" lon="5.91566">
        <ele>1812</ele>
        <time>2013-02-22T12:24:12.000Z</time>
      </trkpt>
      <trkpt lat="44.744" lon="5.91566">
        <ele>1813</ele>
        <time>2013-02-22T12:24:13.000Z</time>
      </trkpt>
      <trkpt lat="44.74405" lon="5.91566">
        <ele>1814</ele>
        <time>2013-02-22T12:24:21.000Z</time>
      </trkpt>
      <trkpt lat="44.74405" lon="5.91567">
        <ele>1814</ele>
        <time>2013-02-22T12:24:22.000Z</time>
      </trkpt>
      <trkpt lat="44.74409" lon="5.91567">
        <ele>1819</ele>
        <time>2013-02-22T12:24:31.000Z</time>
      </trkpt>
      <trkpt lat="44.7441" lon="5.91567">
        <ele>1818</ele>
        <time>2013-02-22T12:24:32.000Z</time>
      </trkpt>
      <trkpt lat="44.74413" lon="5.91563">
        <ele>1824</ele>
        <time>2013-02-22T12:24:38.000Z</time>
      </trkpt>
      <trkpt lat="44.74414" lon="5.91563">
        <ele>1825</ele>
        <time>2013-02-22T12:24:39.000Z</time>
      </trkpt>
      <trkpt lat="44.74418" lon="5.91562">
        <ele>1825</ele>
        <time>2013-02-22T12:24:47.000Z</time>
      </trkpt>
      <trkpt lat="44.74418" lon="5.91562">
        <ele>1826</ele>
        <time>2013-02-22T12:24:48.000Z</time>
      </trkpt>
      <trkpt lat="44.74422" lon="5.91564">
        <ele>1826</ele>
        <time>2013-02-22T12:24:53.000Z</time>
      </trkpt>
      <trkpt lat="44.74422" lon="5.91565">
        <ele>1827</ele>
        <time>2013-02-22T12:24:54.000Z</time>
      </trkpt>
      <trkpt lat="44.74426" lon="5.91567">
        <ele>1828</ele>
        <time>2013-02-22T12:24:59.000Z</time>
      </trkpt>
      <trkpt lat="44.74426" lon="5.91567">
        <ele>1828</ele>
        <time>2013-02-22T12:25:00.000Z</time>
      </trkpt>
      <trkpt lat="44.7443" lon="5.9157">
        <ele>1828</ele>
        <time>2013-02-22T12:25:05.000Z</time>
      </trkpt>
      <trkpt lat="44.7443" lon="5.9157">
        <ele>1828</ele>
        <time>2013-02-22T12:25:06.000Z</time>
      </trkpt>
      <trkpt lat="44.74434" lon="5.91573">
        <ele>1831</ele>
        <time>2013-02-22T12:25:14.000Z</time>
      </trkpt>
      <trkpt lat="44.74435" lon="5.91574">
        <ele>1831</ele>
        <time>2013-02-22T12:25:15.000Z</time>
      </trkpt>
      <trkpt lat="44.74439" lon="5.91575">
        <ele>1830</ele>
        <time>2013-02-22T12:25:22.000Z</time>
      </trkpt>
      <trkpt lat="44.74439" lon="5.91575">
        <ele>1831</ele>
        <time>2013-02-22T12:25:23.000Z</time>
      </trkpt>
      <trkpt lat="44.74443" lon="5.91577">
        <ele>1834</ele>
        <time>2013-02-22T12:25:29.000Z</time>
      </trkpt>
      <trkpt lat="44.74443" lon="5.91577">
        <ele>1836</ele>
        <time>2013-02-22T12:25:30.000Z</time>
      </trkpt>
      <trkpt lat="44.74447" lon="5.91577">
        <ele>1837</ele>
        <time>2013-02-22T12:25:37.000Z</time>
      </trkpt>
      <trkpt lat="44.74448" lon="5.91577">
        <ele>1835</ele>
        <time>2013-02-22T12:25:38.000Z</time>
      </trkpt>
      <trkpt lat="44.74451" lon="5.91573">
        <ele>1834</ele>
        <time>2013-02-22T12:25:44.000Z</time>
      </trkpt>
      <trkpt lat="44.74452" lon="5.91573">
        <ele>1835</ele>
        <time>2013-02-22T12:25:45.000Z</time>
      </trkpt>
      <trkpt lat="44.74456" lon="5.91572">
        <ele>1837</ele>
        <time>2013-02-22T12:25:51.000Z</time>
      </trkpt>
      <trkpt lat="44.74456" lon="5.91572">
        <ele>1837</ele>
        <time>2013-02-22T12:25:52.000Z</time>
      </trkpt>
      <trkpt lat="44.7446" lon="5.91575">
        <ele>1840</ele>
        <time>2013-02-22T12:25:59.000Z</time>
      </trkpt>
      <trkpt lat="44.74461" lon="5.91575">
        <ele>1839</ele>
        <time>2013-02-22T12:26:00.000Z</time>
      </trkpt>
      <trkpt lat="44.74465" lon="5.91578">
        <ele>1841</ele>
        <time>2013-02-22T12:26:06.000Z</time>
      </trkpt>
      <trkpt lat="44.74465" lon="5.91578">
        <ele>1841</ele>
        <time>2013-02-22T12:26:07.000Z</time>
      </trkpt>
      <trkpt lat="44.74469" lon="5.91581">
        <ele>1847</ele>
        <time>2013-02-22T12:26:14.000Z</time>
      </trkpt>
      <trkpt lat="44.7447" lon="5.91581">
        <ele>1846</ele>
        <time>2013-02-22T12:26:15.000Z</time>
      </trkpt>
      <trkpt lat="44.74474" lon="5.91581">
        <ele>1842</ele>
        <time>2013-02-22T12:26:23.000Z</time>
      </trkpt>
      <trkpt lat="44.74474" lon="5.91581">
        <ele>1845</ele>
        <time>2013-02-22T12:26:24.000Z</time>
      </trkpt>
      <trkpt lat="44.74479" lon="5.91581">
        <ele>1844</ele>
        <time>2013-02-22T12:26:31.000Z</time>
      </trkpt>
      <trkpt lat="44.74479" lon="5.9158">
        <ele>1844</ele>
        <time>2013-02-22T12:26:32.000Z</time>
      </trkpt>
      <trkpt lat="44.74483" lon="5.91578">
        <ele>1847</ele>
        <time>2013-02-22T12:26:38.000Z</time>
      </trkpt>
      <trkpt lat="44.74484" lon="5.91578">
        <ele>1847</ele>
        <time>2013-02-22T12:26:39.000Z</time>
      </trkpt>
      <trkpt lat="44.74486" lon="5.91576">
        <ele>1846</ele>
        <time>2013-02-22T12:26:43.000Z</time>
      </trkpt>
      <trkpt lat="44.74488" lon="5.91575">
        <ele>1847</ele>
        <time>2013-02-22T12:26:44.000Z</time>
      </trkpt>
      <trkpt lat="44.74492" lon="5.91573">
        <ele>1847</ele>
        <time>2013-02-22T12:26:50.000Z</time>
      </trkpt>
      <trkpt lat="44.74492" lon="5.91573">
        <ele>1846</ele>
        <time>2013-02-22T12:26:51.000Z</time>
      </trkpt>
      <trkpt lat="44.74497" lon="5.91572">
        <ele>1854</ele>
        <time>2013-02-22T12:27:01.000Z</time>
      </trkpt>
      <trkpt lat="44.74497" lon="5.91573">
        <ele>1854</ele>
        <time>2013-02-22T12:27:02.000Z</time>
      </trkpt>
      <trkpt lat="44.745" lon="5.91576">
        <ele>1859</ele>
        <time>2013-02-22T12:27:09.000Z</time>
      </trkpt>
      <trkpt lat="44.74501" lon="5.91576">
        <ele>1857</ele>
        <time>2013-02-22T12:27:10.000Z</time>
      </trkpt>
      <trkpt lat="44.74504" lon="5.91579">
        <ele>1855</ele>
        <time>2013-02-22T12:27:16.000Z</time>
      </trkpt>
      <trkpt lat="44.74505" lon="5.9158">
        <ele>1853</ele>
        <time>2013-02-22T12:27:17.000Z</time>
      </trkpt>
      <trkpt lat="44.74508" lon="5.91583">
        <ele>1856</ele>
        <time>2013-02-22T12:27:24.000Z</time>
      </trkpt>
      <trkpt lat="44.74509" lon="5.91584">
        <ele>1856</ele>
        <time>2013-02-22T12:27:25.000Z</time>
      </trkpt>
      <trkpt lat="44.74512" lon="5.91587">
        <ele>1855</ele>
        <time>2013-02-22T12:27:31.000Z</time>
      </trkpt>
      <trkpt lat="44.74513" lon="5.91588">
        <ele>1855</ele>
        <time>2013-02-22T12:27:32.000Z</time>
      </trkpt>
      <trkpt lat="44.74517" lon="5.91588">
        <ele>1861</ele>
        <time>2013-02-22T12:27:40.000Z</time>
      </trkpt>
      <trkpt lat="44.74517" lon="5.91587">
        <ele>1861</ele>
        <time>2013-02-22T12:27:41.000Z</time>
      </trkpt>
      <trkpt lat="44.74521" lon="5.91585">
        <ele>1862</ele>
        <time>2013-02-22T12:28:09.000Z</time>
      </trkpt>
      <trkpt lat="44.74521" lon="5.91584">
        <ele>1861</ele>
        <time>2013-02-22T12:28:10.000Z</time>
      </trkpt>
      <trkpt lat="44.74524" lon="5.91581">
        <ele>1861</ele>
        <time>2013-02-22T12:28:15.000Z</time>
      </trkpt>
      <trkpt lat="44.74525" lon="5.9158">
        <ele>1863</ele>
        <time>2013-02-22T12:28:16.000Z</time>
      </trkpt>
      <trkpt lat="44.74529" lon="5.91577">
        <ele>1864</ele>
        <time>2013-02-22T12:28:23.000Z</time>
      </trkpt>
      <trkpt lat="44.74529" lon="5.91577">
        <ele>1865</ele>
        <time>2013-02-22T12:28:24.000Z</time>
      </trkpt>
      <trkpt lat="44.74533" lon="5.91576">
        <ele>1868</ele>
        <time>2013-02-22T12:28:32.000Z</time>
      </trkpt>
      <trkpt lat="44.74534" lon="5.91577">
        <ele>1868</ele>
        <time>2013-02-22T12:28:33.000Z</time>
      </trkpt>
      <trkpt lat="44.74537" lon="5.91581">
        <ele>1868</ele>
        <time>2013-02-22T12:28:39.000Z</time>
      </trkpt>
      <trkpt lat="44.74538" lon="5.91582">
        <ele>1868</ele>
        <time>2013-02-22T12:28:40.000Z</time>
      </trkpt>
      <trkpt lat="44.74541" lon="5.91586">
        <ele>1869</ele>
        <time>2013-02-22T12:28:46.000Z</time>
      </trkpt>
      <trkpt lat="44.74541" lon="5.91587">
        <ele>1869</ele>
        <time>2013-02-22T12:28:47.000Z</time>
      </trkpt>
      <trkpt lat="44.74543" lon="5.91592">
        <ele>1872</ele>
        <time>2013-02-22T12:28:54.000Z</time>
      </trkpt>
      <trkpt lat="44.74543" lon="5.91592">
        <ele>1873</ele>
        <time>2013-02-22T12:28:55.000Z</time>
      </trkpt>
      <trkpt lat="44.74546" lon="5.91597">
        <ele>1873</ele>
        <time>2013-02-22T12:29:02.000Z</time>
      </trkpt>
      <trkpt lat="44.74547" lon="5.91597">
        <ele>1873</ele>
        <time>2013-02-22T12:29:03.000Z</time>
      </trkpt>
      <trkpt lat="44.7455" lon="5.91601">
        <ele>1878</ele>
        <time>2013-02-22T12:29:11.000Z</time>
      </trkpt>
      <trkpt lat="44.7455" lon="5.91601">
        <ele>1878</ele>
        <time>2013-02-22T12:29:12.000Z</time>
      </trkpt>
      <trkpt lat="44.74554" lon="5.91601">
        <ele>1879</ele>
        <time>2013-02-22T12:29:20.000Z</time>
      </trkpt>
      <trkpt lat="44.74555" lon="5.916">
        <ele>1879</ele>
        <time>2013-02-22T12:29:21.000Z</time>
      </trkpt>
      <trkpt lat="44.74559" lon="5.91599">
        <ele>1878</ele>
        <time>2013-02-22T12:29:28.000Z</time>
      </trkpt>
      <trkpt lat="44.74559" lon="5.91599">
        <ele>1879</ele>
        <time>2013-02-22T12:29:29.000Z</time>
      </trkpt>
      <trkpt lat="44.74563" lon="5.91597">
        <ele>1881</ele>
        <time>2013-02-22T12:29:37.000Z</time>
      </trkpt>
      <trkpt lat="44.74563" lon="5.91596">
        <ele>1881</ele>
        <time>2013-02-22T12:29:38.000Z</time>
      </trkpt>
      <trkpt lat="44.74568" lon="5.91597">
        <ele>1883</ele>
        <time>2013-02-22T12:29:48.000Z</time>
      </trkpt>
      <trkpt lat="44.74568" lon="5.91598">
        <ele>1885</ele>
        <time>2013-02-22T12:29:49.000Z</time>
      </trkpt>
      <trkpt lat="44.74572" lon="5.91601">
        <ele>1886</ele>
        <time>2013-02-22T12:29:56.000Z</time>
      </trkpt>
      <trkpt lat="44.74572" lon="5.91601">
        <ele>1885</ele>
        <time>2013-02-22T12:29:57.000Z</time>
      </trkpt>
      <trkpt lat="44.74576" lon="5.91605">
        <ele>1886</ele>
        <time>2013-02-22T12:30:04.000Z</time>
      </trkpt>
      <trkpt lat="44.74576" lon="5.91605">
        <ele>1886</ele>
        <time>2013-02-22T12:30:05.000Z</time>
      </trkpt>
      <trkpt lat="44.7458" lon="5.91608">
        <ele>1886</ele>
        <time>2013-02-22T12:30:11.000Z</time>
      </trkpt>
      <trkpt lat="44.7458" lon="5.91608">
        <ele>1888</ele>
        <time>2013-02-22T12:30:12.000Z</time>
      </trkpt>
      <trkpt lat="44.74584" lon="5.91606">
        <ele>1889</ele>
        <time>2013-02-22T12:30:20.000Z</time>
      </trkpt>
      <trkpt lat="44.74585" lon="5.91606">
        <ele>1892</ele>
        <time>2013-02-22T12:30:21.000Z</time>
      </trkpt>
      <trkpt lat="44.74587" lon="5.91601">
        <ele>1895</ele>
        <time>2013-02-22T12:30:29.000Z</time>
      </trkpt>
      <trkpt lat="44.74588" lon="5.916">
        <ele>1895</ele>
        <time>2013-02-22T12:30:30.000Z</time>
      </trkpt>
      <trkpt lat="44.74589" lon="5.91594">
        <ele>1894</ele>
        <time>2013-02-22T12:30:38.000Z</time>
      </trkpt>
      <trkpt lat="44.7459" lon="5.91594">
        <ele>1894</ele>
        <time>2013-02-22T12:30:39.000Z</time>
      </trkpt>
      <trkpt lat="44.74592" lon="5.91589">
        <ele>1898</ele>
        <time>2013-02-22T12:30:45.000Z</time>
      </trkpt>
      <trkpt lat="44.74592" lon="5.91588">
        <ele>1898</ele>
        <time>2013-02-22T12:30:46.000Z</time>
      </trkpt>
      <trkpt lat="44.74595" lon="5.91584">
        <ele>1896</ele>
        <time>2013-02-22T12:30:54.000Z</time>
      </trkpt>
      <trkpt lat="44.74596" lon="5.91584">
        <ele>1895</ele>
        <time>2013-02-22T12:30:55.000Z</time>
      </trkpt>
      <trkpt lat="44.746" lon="5.91586">
        <ele>1896</ele>
        <time>2013-02-22T12:31:01.000Z</time>
      </trkpt>
      <trkpt lat="44.746" lon="5.91586">
        <ele>1895</ele>
        <time>2013-02-22T12:31:02.000Z</time>
      </trkpt>
      <trkpt lat="44.74603" lon="5.91589">
        <ele>1898</ele>
        <time>2013-02-22T12:31:08.000Z</time>
      </trkpt>
      <trkpt lat="44.74604" lon="5.91589">
        <ele>1899</ele>
        <time>2013-02-22T12:31:09.000Z</time>
      </trkpt>
      <trkpt lat="44.74607" lon="5.91592">
        <ele>1902</ele>
        <time>2013-02-22T12:31:14.000Z</time>
      </trkpt>
      <trkpt lat="44.74608" lon="5.91593">
        <ele>1903</ele>
        <time>2013-02-22T12:31:15.000Z</time>
      </trkpt>
      <trkpt lat="44.74612" lon="5.91596">
        <ele>1906</ele>
        <time>2013-02-22T12:31:22.000Z</time>
      </trkpt>
      <trkpt lat="44.74612" lon="5.91596">
        <ele>1904</ele>
        <time>2013-02-22T12:31:23.000Z</time>
      </trkpt>
      <trkpt lat="44.74616" lon="5.916">
        <ele>1904</ele>
        <time>2013-02-22T12:31:31.000Z</time>
      </trkpt>
      <trkpt lat="44.74617" lon="5.916">
        <ele>1905</ele>
        <time>2013-02-22T12:31:32.000Z</time>
      </trkpt>
      <trkpt lat="44.7462" lon="5.91602">
        <ele>1908</ele>
        <time>2013-02-22T12:31:38.000Z</time>
      </trkpt>
      <trkpt lat="44.74621" lon="5.91602">
        <ele>1908</ele>
        <time>2013-02-22T12:31:39.000Z</time>
      </trkpt>
      <trkpt lat="44.74624" lon="5.91598">
        <ele>1911</ele>
        <time>2013-02-22T12:31:46.000Z</time>
      </trkpt>
      <trkpt lat="44.74625" lon="5.91597">
        <ele>1909</ele>
        <time>2013-02-22T12:31:47.000Z</time>
      </trkpt>
      <trkpt lat="44.74626" lon="5.91592">
        <ele>1908</ele>
        <time>2013-02-22T12:31:53.000Z</time>
      </trkpt>
      <trkpt lat="44.74627" lon="5.91591">
        <ele>1906</ele>
        <time>2013-02-22T12:31:54.000Z</time>
      </trkpt>
      <trkpt lat="44.7463" lon="5.91587">
        <ele>1903</ele>
        <time>2013-02-22T12:32:04.000Z</time>
      </trkpt>
      <trkpt lat="44.7463" lon="5.91586">
        <ele>1903</ele>
        <time>2013-02-22T12:32:05.000Z</time>
      </trkpt>
      <trkpt lat="44.74628" lon="5.91581">
        <ele>1918</ele>
        <time>2013-02-22T12:32:35.000Z</time>
      </trkpt>
      <trkpt lat="44.74629" lon="5.9158">
        <ele>1918</ele>
        <time>2013-02-22T12:32:36.000Z</time>
      </trkpt>
      <trkpt lat="44.74632" lon="5.91576">
        <ele>1915</ele>
        <time>2013-02-22T12:32:43.000Z</time>
      </trkpt>
      <trkpt lat="44.74632" lon="5.91576">
        <ele>1915</ele>
        <time>2013-02-22T12:32:44.000Z</time>
      </trkpt>
      <trkpt lat="44.74636" lon="5.91578">
        <ele>1916</ele>
        <time>2013-02-22T12:32:49.000Z</time>
      </trkpt>
      <trkpt lat="44.74637" lon="5.91578">
        <ele>1917</ele>
        <time>2013-02-22T12:32:50.000Z</time>
      </trkpt>
      <trkpt lat="44.74641" lon="5.9158">
        <ele>1914</ele>
        <time>2013-02-22T12:32:54.000Z</time>
      </trkpt>
      <trkpt lat="44.74642" lon="5.9158">
        <ele>1915</ele>
        <time>2013-02-22T12:32:55.000Z</time>
      </trkpt>
      <trkpt lat="44.74646" lon="5.9158">
        <ele>1918</ele>
        <time>2013-02-22T12:33:00.000Z</time>
      </trkpt>
      <trkpt lat="44.74647" lon="5.9158">
        <ele>1919</ele>
        <time>2013-02-22T12:33:01.000Z</time>
      </trkpt>
      <trkpt lat="44.74651" lon="5.91581">
        <ele>1910</ele>
        <time>2013-02-22T12:33:07.000Z</time>
      </trkpt>
      <trkpt lat="44.74651" lon="5.91581">
        <ele>1911</ele>
        <time>2013-02-22T12:33:08.000Z</time>
      </trkpt>
      <trkpt lat="44.74654" lon="5.91585">
        <ele>1921</ele>
        <time>2013-02-22T12:33:13.000Z</time>
      </trkpt>
      <trkpt lat="44.74655" lon="5.91585">
        <ele>1922</ele>
        <time>2013-02-22T12:33:14.000Z</time>
      </trkpt>
      <trkpt lat="44.74659" lon="5.91587">
        <ele>1922</ele>
        <time>2013-02-22T12:33:21.000Z</time>
      </trkpt>
      <trkpt lat="44.7466" lon="5.91588">
        <ele>1922</ele>
        <time>2013-02-22T12:33:22.000Z</time>
      </trkpt>
      <trkpt lat="44.74663" lon="5.9159">
        <ele>1922</ele>
        <time>2013-02-22T12:33:28.000Z</time>
      </trkpt>
      <trkpt lat="44.74664" lon="5.9159">
        <ele>1924</ele>
        <time>2013-02-22T12:33:29.000Z</time>
      </trkpt>
      <trkpt lat="44.74668" lon="5.91592">
        <ele>1920</ele>
        <time>2013-02-22T12:33:35.000Z</time>
      </trkpt>
      <trkpt lat="44.74668" lon="5.91592">
        <ele>1921</ele>
        <time>2013-02-22T12:33:36.000Z</time>
      </trkpt>
      <trkpt lat="44.74672" lon="5.91594">
        <ele>1921</ele>
        <time>2013-02-22T12:33:43.000Z</time>
      </trkpt>
      <trkpt lat="44.74673" lon="5.91594">
        <ele>1922</ele>
        <time>2013-02-22T12:33:44.000Z</time>
      </trkpt>
      <trkpt lat="44.74676" lon="5.91597">
        <ele>1925</ele>
        <time>2013-02-22T12:33:51.000Z</time>
      </trkpt>
      <trkpt lat="44.74677" lon="5.91598">
        <ele>1924</ele>
        <time>2013-02-22T12:33:52.000Z</time>
      </trkpt>
      <trkpt lat="44.7468" lon="5.91602">
        <ele>1927</ele>
        <time>2013-02-22T12:34:00.000Z</time>
      </trkpt>
      <trkpt lat="44.7468" lon="5.91602">
        <ele>1927</ele>
        <time>2013-02-22T12:34:01.000Z</time>
      </trkpt>
      <trkpt lat="44.74683" lon="5.91605">
        <ele>1930</ele>
        <time>2013-02-22T12:34:12.000Z</time>
      </trkpt>
      <trkpt lat="44.74684" lon="5.91606">
        <ele>1930</ele>
        <time>2013-02-22T12:34:13.000Z</time>
      </trkpt>
      <trkpt lat="44.74688" lon="5.91609">
        <ele>1928</ele>
        <time>2013-02-22T12:34:21.000Z</time>
      </trkpt>
      <trkpt lat="44.74688" lon="5.91608">
        <ele>1928</ele>
        <time>2013-02-22T12:34:22.000Z</time>
      </trkpt>
      <trkpt lat="44.74692" lon="5.91609">
        <ele>1929</ele>
        <time>2013-02-22T12:34:28.000Z</time>
      </trkpt>
      <trkpt lat="44.74693" lon="5.91608">
        <ele>1930</ele>
        <time>2013-02-22T12:34:29.000Z</time>
      </trkpt>
      <trkpt lat="44.74695" lon="5.91603">
        <ele>1923</ele>
        <time>2013-02-22T12:34:44.000Z</time>
      </trkpt>
      <trkpt lat="44.74694" lon="5.91602">
        <ele>1925</ele>
        <time>2013-02-22T12:34:45.000Z</time>
      </trkpt>
      <trkpt lat="44.74695" lon="5.91597">
        <ele>1931</ele>
        <time>2013-02-22T12:34:52.000Z</time>
      </trkpt>
      <trkpt lat="44.74695" lon="5.91596">
        <ele>1930</ele>
        <time>2013-02-22T12:34:53.000Z</time>
      </trkpt>
      <trkpt lat="44.74696" lon="5.9159">
        <ele>1931</ele>
        <time>2013-02-22T12:34:58.000Z</time>
      </trkpt>
      <trkpt lat="44.74696" lon="5.91589">
        <ele>1932</ele>
        <time>2013-02-22T12:34:59.000Z</time>
      </trkpt>
      <trkpt lat="44.74697" lon="5.91583">
        <ele>1932</ele>
        <time>2013-02-22T12:35:05.000Z</time>
      </trkpt>
      <trkpt lat="44.74697" lon="5.91582">
        <ele>1933</ele>
        <time>2013-02-22T12:35:06.000Z</time>
      </trkpt>
      <trkpt lat="44.74698" lon="5.91576">
        <ele>1936</ele>
        <time>2013-02-22T12:35:15.000Z</time>
      </trkpt>
      <trkpt lat="44.74699" lon="5.91576">
        <ele>1936</ele>
        <time>2013-02-22T12:35:16.000Z</time>
      </trkpt>
      <trkpt lat="44.74703" lon="5.91575">
        <ele>1931</ele>
        <time>2013-02-22T12:35:40.000Z</time>
      </trkpt>
      <trkpt lat="44.74703" lon="5.91574">
        <ele>1927</ele>
        <time>2013-02-22T12:35:41.000Z</time>
      </trkpt>
      <trkpt lat="44.74704" lon="5.91568">
        <ele>1938</ele>
        <time>2013-02-22T12:35:45.000Z</time>
      </trkpt>
      <trkpt lat="44.74704" lon="5.91567">
        <ele>1940</ele>
        <time>2013-02-22T12:35:46.000Z</time>
      </trkpt>
      <trkpt lat="44.74703" lon="5.91561">
        <ele>1943</ele>
        <time>2013-02-22T12:35:52.000Z</time>
      </trkpt>
      <trkpt lat="44.74703" lon="5.9156">
        <ele>1944</ele>
        <time>2013-02-22T12:35:53.000Z</time>
      </trkpt>
      <trkpt lat="44.74703" lon="5.91554">
        <ele>1947</ele>
        <time>2013-02-22T12:36:01.000Z</time>
      </trkpt>
      <trkpt lat="44.74703" lon="5.91553">
        <ele>1948</ele>
        <time>2013-02-22T12:36:02.000Z</time>
      </trkpt>
      <trkpt lat="44.74703" lon="5.91547">
        <ele>1948</ele>
        <time>2013-02-22T12:36:09.000Z</time>
      </trkpt>
      <trkpt lat="44.74703" lon="5.91546">
        <ele>1947</ele>
        <time>2013-02-22T12:36:10.000Z</time>
      </trkpt>
      <trkpt lat="44.74703" lon="5.9154">
        <ele>1948</ele>
        <time>2013-02-22T12:36:17.000Z</time>
      </trkpt>
      <trkpt lat="44.74703" lon="5.91539">
        <ele>1949</ele>
        <time>2013-02-22T12:36:18.000Z</time>
      </trkpt>
      <trkpt lat="44.74705" lon="5.91534">
        <ele>1951</ele>
        <time>2013-02-22T12:36:24.000Z</time>
      </trkpt>
      <trkpt lat="44.74705" lon="5.91533">
        <ele>1951</ele>
        <time>2013-02-22T12:36:25.000Z</time>
      </trkpt>
      <trkpt lat="44.74708" lon="5.9153">
        <ele>1953</ele>
        <time>2013-02-22T12:36:35.000Z</time>
      </trkpt>
      <trkpt lat="44.74709" lon="5.9153">
        <ele>1953</ele>
        <time>2013-02-22T12:36:36.000Z</time>
      </trkpt>
      <trkpt lat="44.74712" lon="5.91531">
        <ele>1954</ele>
        <time>2013-02-22T12:36:43.000Z</time>
      </trkpt>
      <trkpt lat="44.74713" lon="5.91531">
        <ele>1955</ele>
        <time>2013-02-22T12:36:44.000Z</time>
      </trkpt>
      <trkpt lat="44.74716" lon="5.91534">
        <ele>1954</ele>
        <time>2013-02-22T12:36:50.000Z</time>
      </trkpt>
      <trkpt lat="44.74717" lon="5.91534">
        <ele>1955</ele>
        <time>2013-02-22T12:36:51.000Z</time>
      </trkpt>
      <trkpt lat="44.74721" lon="5.91536">
        <ele>1956</ele>
        <time>2013-02-22T12:37:01.000Z</time>
      </trkpt>
      <trkpt lat="44.74722" lon="5.91537">
        <ele>1955</ele>
        <time>2013-02-22T12:37:02.000Z</time>
      </trkpt>
      <trkpt lat="44.74725" lon="5.91539">
        <ele>1955</ele>
        <time>2013-02-22T12:37:08.000Z</time>
      </trkpt>
      <trkpt lat="44.74726" lon="5.91539">
        <ele>1954</ele>
        <time>2013-02-22T12:37:09.000Z</time>
      </trkpt>
      <trkpt lat="44.7473" lon="5.91542">
        <ele>1954</ele>
        <time>2013-02-22T12:37:15.000Z</time>
      </trkpt>
      <trkpt lat="44.7473" lon="5.91542">
        <ele>1954</ele>
        <time>2013-02-22T12:37:16.000Z</time>
      </trkpt>
      <trkpt lat="44.74735" lon="5.91544">
        <ele>1961</ele>
        <time>2013-02-22T12:37:24.000Z</time>
      </trkpt>
      <trkpt lat="44.74735" lon="5.91544">
        <ele>1961</ele>
        <time>2013-02-22T12:37:25.000Z</time>
      </trkpt>
      <trkpt lat="44.74739" lon="5.91546">
        <ele>1963</ele>
        <time>2013-02-22T12:37:31.000Z</time>
      </trkpt>
      <trkpt lat="44.7474" lon="5.91546">
        <ele>1965</ele>
        <time>2013-02-22T12:37:32.000Z</time>
      </trkpt>
      <trkpt lat="44.74744" lon="5.91547">
        <ele>1964</ele>
        <time>2013-02-22T12:37:39.000Z</time>
      </trkpt>
      <trkpt lat="44.74744" lon="5.91547">
        <ele>1965</ele>
        <time>2013-02-22T12:37:40.000Z</time>
      </trkpt>
      <trkpt lat="44.74748" lon="5.91549">
        <ele>1966</ele>
        <time>2013-02-22T12:37:50.000Z</time>
      </trkpt>
      <trkpt lat="44.74749" lon="5.9155">
        <ele>1967</ele>
        <time>2013-02-22T12:37:51.000Z</time>
      </trkpt>
      <trkpt lat="44.7475" lon="5.91544">
        <ele>1967</ele>
        <time>2013-02-22T12:38:06.000Z</time>
      </trkpt>
      <trkpt lat="44.7475" lon="5.91543">
        <ele>1966</ele>
        <time>2013-02-22T12:38:07.000Z</time>
      </trkpt>
      <trkpt lat="44.74751" lon="5.91538">
        <ele>1966</ele>
        <time>2013-02-22T12:38:15.000Z</time>
      </trkpt>
      <trkpt lat="44.74752" lon="5.91537">
        <ele>1967</ele>
        <time>2013-02-22T12:38:16.000Z</time>
      </trkpt>
      <trkpt lat="44.74754" lon="5.91532">
        <ele>1970</ele>
        <time>2013-02-22T12:38:28.000Z</time>
      </trkpt>
      <trkpt lat="44.74755" lon="5.91532">
        <ele>1970</ele>
        <time>2013-02-22T12:38:29.000Z</time>
      </trkpt>
      <trkpt lat="44.74758" lon="5.91536">
        <ele>1972</ele>
        <time>2013-02-22T12:38:36.000Z</time>
      </trkpt>
      <trkpt lat="44.74759" lon="5.91536">
        <ele>1973</ele>
        <time>2013-02-22T12:38:37.000Z</time>
      </trkpt>
      <trkpt lat="44.74763" lon="5.91539">
        <ele>1970</ele>
        <time>2013-02-22T12:38:48.000Z</time>
      </trkpt>
      <trkpt lat="44.74763" lon="5.91539">
        <ele>1969</ele>
        <time>2013-02-22T12:38:49.000Z</time>
      </trkpt>
      <trkpt lat="44.74766" lon="5.91543">
        <ele>1973</ele>
        <time>2013-02-22T12:39:12.000Z</time>
      </trkpt>
      <trkpt lat="44.74767" lon="5.91544">
        <ele>1972</ele>
        <time>2013-02-22T12:39:13.000Z</time>
      </trkpt>
      <trkpt lat="44.74769" lon="5.91548">
        <ele>1975</ele>
        <time>2013-02-22T12:39:19.000Z</time>
      </trkpt>
      <trkpt lat="44.7477" lon="5.91548">
        <ele>1977</ele>
        <time>2013-02-22T12:39:20.000Z</time>
      </trkpt>
      <trkpt lat="44.74772" lon="5.91553">
        <ele>1977</ele>
        <time>2013-02-22T12:39:25.000Z</time>
      </trkpt>
      <trkpt lat="44.74772" lon="5.91554">
        <ele>1977</ele>
        <time>2013-02-22T12:39:26.000Z</time>
      </trkpt>
      <trkpt lat="44.74775" lon="5.91558">
        <ele>1977</ele>
        <time>2013-02-22T12:39:33.000Z</time>
      </trkpt>
      <trkpt lat="44.74775" lon="5.91559">
        <ele>1978</ele>
        <time>2013-02-22T12:39:34.000Z</time>
      </trkpt>
      <trkpt lat="44.74776" lon="5.91564">
        <ele>1974</ele>
        <time>2013-02-22T12:39:39.000Z</time>
      </trkpt>
      <trkpt lat="44.74776" lon="5.91565">
        <ele>1975</ele>
        <time>2013-02-22T12:39:40.000Z</time>
      </trkpt>
      <trkpt lat="44.74778" lon="5.91571">
        <ele>1972</ele>
        <time>2013-02-22T12:39:48.000Z</time>
      </trkpt>
      <trkpt lat="44.74778" lon="5.91572">
        <ele>1971</ele>
        <time>2013-02-22T12:39:49.000Z</time>
      </trkpt>
      <trkpt lat="44.7478" lon="5.91577">
        <ele>1982</ele>
        <time>2013-02-22T12:39:55.000Z</time>
      </trkpt>
      <trkpt lat="44.7478" lon="5.91578">
        <ele>1986</ele>
        <time>2013-02-22T12:39:56.000Z</time>
      </trkpt>
      <trkpt lat="44.74781" lon="5.91583">
        <ele>1991</ele>
        <time>2013-02-22T12:40:03.000Z</time>
      </trkpt>
      <trkpt lat="44.74781" lon="5.91584">
        <ele>1991</ele>
        <time>2013-02-22T12:40:04.000Z</time>
      </trkpt>
      <trkpt lat="44.74784" lon="5.91588">
        <ele>1992</ele>
        <time>2013-02-22T12:40:10.000Z</time>
      </trkpt>
      <trkpt lat="44.74785" lon="5.91589">
        <ele>1992</ele>
        <time>2013-02-22T12:40:11.000Z</time>
      </trkpt>
      <trkpt lat="44.74788" lon="5.91593">
        <ele>1986</ele>
        <time>2013-02-22T12:40:17.000Z</time>
      </trkpt>
      <trkpt lat="44.74788" lon="5.91594">
        <ele>1984</ele>
        <time>2013-02-22T12:40:18.000Z</time>
      </trkpt>
      <trkpt lat="44.74791" lon="5.91598">
        <ele>1988</ele>
        <time>2013-02-22T12:40:25.000Z</time>
      </trkpt>
      <trkpt lat="44.74792" lon="5.91599">
        <ele>1990</ele>
        <time>2013-02-22T12:40:26.000Z</time>
      </trkpt>
      <trkpt lat="44.74795" lon="5.91602">
        <ele>1983</ele>
        <time>2013-02-22T12:41:11.000Z</time>
      </trkpt>
      <trkpt lat="44.74796" lon="5.91602">
        <ele>1983</ele>
        <time>2013-02-22T12:41:12.000Z</time>
      </trkpt>
      <trkpt lat="44.74799" lon="5.91604">
        <ele>1990</ele>
        <time>2013-02-22T12:41:22.000Z</time>
      </trkpt>
      <trkpt lat="44.748" lon="5.91604">
        <ele>1991</ele>
        <time>2013-02-22T12:41:23.000Z</time>
      </trkpt>
      <trkpt lat="44.74804" lon="5.91605">
        <ele>1989</ele>
        <time>2013-02-22T12:41:31.000Z</time>
      </trkpt>
      <trkpt lat="44.74804" lon="5.91605">
        <ele>1988</ele>
        <time>2013-02-22T12:41:32.000Z</time>
      </trkpt>
      <trkpt lat="44.74809" lon="5.91605">
        <ele>1991</ele>
        <time>2013-02-22T12:41:39.000Z</time>
      </trkpt>
      <trkpt lat="44.74809" lon="5.91604">
        <ele>1991</ele>
        <time>2013-02-22T12:41:40.000Z</time>
      </trkpt>
      <trkpt lat="44.74811" lon="5.91599">
        <ele>1992</ele>
        <time>2013-02-22T12:41:47.000Z</time>
      </trkpt>
      <trkpt lat="44.74812" lon="5.91598">
        <ele>1990</ele>
        <time>2013-02-22T12:41:48.000Z</time>
      </trkpt>
      <trkpt lat="44.74814" lon="5.91594">
        <ele>1992</ele>
        <time>2013-02-22T12:41:53.000Z</time>
      </trkpt>
      <trkpt lat="44.74814" lon="5.91593">
        <ele>1993</ele>
        <time>2013-02-22T12:41:54.000Z</time>
      </trkpt>
      <trkpt lat="44.74815" lon="5.91587">
        <ele>1994</ele>
        <time>2013-02-22T12:42:03.000Z</time>
      </trkpt>
      <trkpt lat="44.74815" lon="5.91587">
        <ele>1995</ele>
        <time>2013-02-22T12:42:04.000Z</time>
      </trkpt>
      <trkpt lat="44.74818" lon="5.91582">
        <ele>1999</ele>
        <time>2013-02-22T12:42:14.000Z</time>
      </trkpt>
      <trkpt lat="44.74818" lon="5.91581">
        <ele>1999</ele>
        <time>2013-02-22T12:42:15.000Z</time>
      </trkpt>
      <trkpt lat="44.74822" lon="5.91583">
        <ele>2003</ele>
        <time>2013-02-22T12:42:38.000Z</time>
      </trkpt>
      <trkpt lat="44.74823" lon="5.91583">
        <ele>2004</ele>
        <time>2013-02-22T12:42:39.000Z</time>
      </trkpt>
      <trkpt lat="44.74827" lon="5.91585">
        <ele>2005</ele>
        <time>2013-02-22T12:42:48.000Z</time>
      </trkpt>
      <trkpt lat="44.74827" lon="5.91585">
        <ele>2006</ele>
        <time>2013-02-22T12:42:49.000Z</time>
      </trkpt>
      <trkpt lat="44.74831" lon="5.91587">
        <ele>2007</ele>
        <time>2013-02-22T12:42:56.000Z</time>
      </trkpt>
      <trkpt lat="44.74831" lon="5.91588">
        <ele>2007</ele>
        <time>2013-02-22T12:42:57.000Z</time>
      </trkpt>
      <trkpt lat="44.74835" lon="5.9159">
        <ele>2013</ele>
        <time>2013-02-22T12:43:04.000Z</time>
      </trkpt>
      <trkpt lat="44.74835" lon="5.9159">
        <ele>2012</ele>
        <time>2013-02-22T12:43:05.000Z</time>
      </trkpt>
      <trkpt lat="44.74839" lon="5.91592">
        <ele>2016</ele>
        <time>2013-02-22T12:43:12.000Z</time>
      </trkpt>
      <trkpt lat="44.7484" lon="5.91592">
        <ele>2015</ele>
        <time>2013-02-22T12:43:13.000Z</time>
      </trkpt>
      <trkpt lat="44.74843" lon="5.91589">
        <ele>2008</ele>
        <time>2013-02-22T12:43:21.000Z</time>
      </trkpt>
      <trkpt lat="44.74844" lon="5.91588">
        <ele>2007</ele>
        <time>2013-02-22T12:43:22.000Z</time>
      </trkpt>
      <trkpt lat="44.74844" lon="5.91582">
        <ele>2007</ele>
        <time>2013-02-22T12:43:28.000Z</time>
      </trkpt>
      <trkpt lat="44.74843" lon="5.91581">
        <ele>2006</ele>
        <time>2013-02-22T12:43:29.000Z</time>
      </trkpt>
      <trkpt lat="44.74844" lon="5.91575">
        <ele>2010</ele>
        <time>2013-02-22T12:43:38.000Z</time>
      </trkpt>
      <trkpt lat="44.74844" lon="5.91575">
        <ele>2010</ele>
        <time>2013-02-22T12:43:39.000Z</time>
      </trkpt>
      <trkpt lat="44.74844" lon="5.91569">
        <ele>2017</ele>
        <time>2013-02-22T12:43:49.000Z</time>
      </trkpt>
      <trkpt lat="44.74844" lon="5.91568">
        <ele>2018</ele>
        <time>2013-02-22T12:43:50.000Z</time>
      </trkpt>
      <trkpt lat="44.74844" lon="5.91562">
        <ele>2016</ele>
        <time>2013-02-22T12:43:58.000Z</time>
      </trkpt>
      <trkpt lat="44.74844" lon="5.91561">
        <ele>2017</ele>
        <time>2013-02-22T12:43:59.000Z</time>
      </trkpt>
      <trkpt lat="44.74848" lon="5.91558">
        <ele>2022</ele>
        <time>2013-02-22T12:44:14.000Z</time>
      </trkpt>
      <trkpt lat="44.74849" lon="5.91558">
        <ele>2022</ele>
        <time>2013-02-22T12:44:15.000Z</time>
      </trkpt>
      <trkpt lat="44.74853" lon="5.91559">
        <ele>2022</ele>
        <time>2013-02-22T12:44:21.000Z</time>
      </trkpt>
      <trkpt lat="44.74854" lon="5.91559">
        <ele>2023</ele>
        <time>2013-02-22T12:44:22.000Z</time>
      </trkpt>
      <trkpt lat="44.74858" lon="5.9156">
        <ele>2025</ele>
        <time>2013-02-22T12:44:30.000Z</time>
      </trkpt>
      <trkpt lat="44.74858" lon="5.9156">
        <ele>2025</ele>
        <time>2013-02-22T12:44:31.000Z</time>
      </trkpt>
      <trkpt lat="44.74861" lon="5.91555">
        <ele>2019</ele>
        <time>2013-02-22T12:44:39.000Z</time>
      </trkpt>
      <trkpt lat="44.74862" lon="5.91555">
        <ele>2017</ele>
        <time>2013-02-22T12:44:40.000Z</time>
      </trkpt>
      <trkpt lat="44.74864" lon="5.9155">
        <ele>2022</ele>
        <time>2013-02-22T12:44:48.000Z</time>
      </trkpt>
      <trkpt lat="44.74864" lon="5.91549">
        <ele>2022</ele>
        <time>2013-02-22T12:44:49.000Z</time>
      </trkpt>
      <trkpt lat="44.74864" lon="5.91543">
        <ele>2025</ele>
        <time>2013-02-22T12:44:59.000Z</time>
      </trkpt>
      <trkpt lat="44.74864" lon="5.91542">
        <ele>2026</ele>
        <time>2013-02-22T12:45:00.000Z</time>
      </trkpt>
      <trkpt lat="44.74868" lon="5.91542">
        <ele>2033</ele>
        <time>2013-02-22T12:45:29.000Z</time>
      </trkpt>
      <trkpt lat="44.74869" lon="5.91542">
        <ele>2030</ele>
        <time>2013-02-22T12:45:30.000Z</time>
      </trkpt>
      <trkpt lat="44.74872" lon="5.91538">
        <ele>2030</ele>
        <time>2013-02-22T12:45:38.000Z</time>
      </trkpt>
      <trkpt lat="44.74872" lon="5.91538">
        <ele>2030</ele>
        <time>2013-02-22T12:45:39.000Z</time>
      </trkpt>
      <trkpt lat="44.74872" lon="5.91532">
        <ele>2032</ele>
        <time>2013-02-22T12:45:47.000Z</time>
      </trkpt>
      <trkpt lat="44.74873" lon="5.91531">
        <ele>2032</ele>
        <time>2013-02-22T12:45:48.000Z</time>
      </trkpt>
      <trkpt lat="44.74877" lon="5.91528">
        <ele>2040</ele>
        <time>2013-02-22T12:45:58.000Z</time>
      </trkpt>
      <trkpt lat="44.74877" lon="5.91528">
        <ele>2040</ele>
        <time>2013-02-22T12:45:59.000Z</time>
      </trkpt>
      <trkpt lat="44.74881" lon="5.9153">
        <ele>2041</ele>
        <time>2013-02-22T12:46:10.000Z</time>
      </trkpt>
      <trkpt lat="44.74882" lon="5.9153">
        <ele>2041</ele>
        <time>2013-02-22T12:46:11.000Z</time>
      </trkpt>
      <trkpt lat="44.74885" lon="5.91526">
        <ele>2043</ele>
        <time>2013-02-22T12:46:33.000Z</time>
      </trkpt>
      <trkpt lat="44.74885" lon="5.91525">
        <ele>2043</ele>
        <time>2013-02-22T12:46:34.000Z</time>
      </trkpt>
      <trkpt lat="44.74884" lon="5.91519">
        <ele>2046</ele>
        <time>2013-02-22T12:46:44.000Z</time>
      </trkpt>
      <trkpt lat="44.74884" lon="5.91518">
        <ele>2046</ele>
        <time>2013-02-22T12:46:45.000Z</time>
      </trkpt>
      <trkpt lat="44.74883" lon="5.91513">
        <ele>2044</ele>
        <time>2013-02-22T12:46:50.000Z</time>
      </trkpt>
      <trkpt lat="44.74883" lon="5.91512">
        <ele>2044</ele>
        <time>2013-02-22T12:46:51.000Z</time>
      </trkpt>
      <trkpt lat="44.74882" lon="5.91506">
        <ele>2045</ele>
        <time>2013-02-22T12:46:56.000Z</time>
      </trkpt>
      <trkpt lat="44.74882" lon="5.91505">
        <ele>2043</ele>
        <time>2013-02-22T12:46:57.000Z</time>
      </trkpt>
      <trkpt lat="44.74879" lon="5.91502">
        <ele>2042</ele>
        <time>2013-02-22T13:00:53.000Z</time>
      </trkpt>
      <trkpt lat="44.74877" lon="5.915">
        <ele>2041</ele>
        <time>2013-02-22T13:00:54.000Z</time>
      </trkpt>
      <trkpt lat="44.74874" lon="5.91497">
        <ele>2041</ele>
        <time>2013-02-22T13:00:55.000Z</time>
      </trkpt>
      <trkpt lat="44.74871" lon="5.91496">
        <ele>2039</ele>
        <time>2013-02-22T13:00:56.000Z</time>
      </trkpt>
      <trkpt lat="44.74868" lon="5.91499">
        <ele>2038</ele>
        <time>2013-02-22T13:00:57.000Z</time>
      </trkpt>
      <trkpt lat="44.74865" lon="5.91502">
        <ele>2037</ele>
        <time>2013-02-22T13:00:58.000Z</time>
      </trkpt>
      <trkpt lat="44.7486" lon="5.91501">
        <ele>2036</ele>
        <time>2013-02-22T13:00:59.000Z</time>
      </trkpt>
      <trkpt lat="44.74857" lon="5.91506">
        <ele>2035</ele>
        <time>2013-02-22T13:01:00.000Z</time>
      </trkpt>
      <trkpt lat="44.74854" lon="5.91512">
        <ele>2034</ele>
        <time>2013-02-22T13:01:01.000Z</time>
      </trkpt>
      <trkpt lat="44.74849" lon="5.91513">
        <ele>2032</ele>
        <time>2013-02-22T13:01:02.000Z</time>
      </trkpt>
      <trkpt lat="44.74844" lon="5.91515">
        <ele>2029</ele>
        <time>2013-02-22T13:01:03.000Z</time>
      </trkpt>
      <trkpt lat="44.74842" lon="5.91521">
        <ele>2027</ele>
        <time>2013-02-22T13:01:04.000Z</time>
      </trkpt>
      <trkpt lat="44.74838" lon="5.91524">
        <ele>2026</ele>
        <time>2013-02-22T13:01:05.000Z</time>
      </trkpt>
      <trkpt lat="44.74833" lon="5.91524">
        <ele>2022</ele>
        <time>2013-02-22T13:01:06.000Z</time>
      </trkpt>
      <trkpt lat="44.74829" lon="5.91527">
        <ele>2020</ele>
        <time>2013-02-22T13:01:07.000Z</time>
      </trkpt>
      <trkpt lat="44.74826" lon="5.91529">
        <ele>2018</ele>
        <time>2013-02-22T13:01:08.000Z</time>
      </trkpt>
      <trkpt lat="44.74823" lon="5.91527">
        <ele>2016</ele>
        <time>2013-02-22T13:01:09.000Z</time>
      </trkpt>
      <trkpt lat="44.7482" lon="5.91523">
        <ele>2013</ele>
        <time>2013-02-22T13:01:10.000Z</time>
      </trkpt>
      <trkpt lat="44.74815" lon="5.9152">
        <ele>2013</ele>
        <time>2013-02-22T13:01:11.000Z</time>
      </trkpt>
      <trkpt lat="44.74811" lon="5.91521">
        <ele>2008</ele>
        <time>2013-02-22T13:01:12.000Z</time>
      </trkpt>
      <trkpt lat="44.74807" lon="5.9152">
        <ele>2005</ele>
        <time>2013-02-22T13:01:13.000Z</time>
      </trkpt>
      <trkpt lat="44.74802" lon="5.91523">
        <ele>2001</ele>
        <time>2013-02-22T13:01:14.000Z</time>
      </trkpt>
      <trkpt lat="44.74797" lon="5.91529">
        <ele>1999</ele>
        <time>2013-02-22T13:01:15.000Z</time>
      </trkpt>
      <trkpt lat="44.74791" lon="5.91533">
        <ele>1994</ele>
        <time>2013-02-22T13:01:16.000Z</time>
      </trkpt>
      <trkpt lat="44.74785" lon="5.9154">
        <ele>1991</ele>
        <time>2013-02-22T13:01:17.000Z</time>
      </trkpt>
      <trkpt lat="44.74778" lon="5.91545">
        <ele>1990</ele>
        <time>2013-02-22T13:01:18.000Z</time>
      </trkpt>
      <trkpt lat="44.7477" lon="5.91546">
        <ele>1985</ele>
        <time>2013-02-22T13:01:19.000Z</time>
      </trkpt>
      <trkpt lat="44.74764" lon="5.91553">
        <ele>1982</ele>
        <time>2013-02-22T13:01:20.000Z</time>
      </trkpt>
      <trkpt lat="44.74757" lon="5.91556">
        <ele>1978</ele>
        <time>2013-02-22T13:01:21.000Z</time>
      </trkpt>
      <trkpt lat="44.7475" lon="5.91553">
        <ele>1973</ele>
        <time>2013-02-22T13:01:22.000Z</time>
      </trkpt>
      <trkpt lat="44.74742" lon="5.91558">
        <ele>1970</ele>
        <time>2013-02-22T13:01:23.000Z</time>
      </trkpt>
      <trkpt lat="44.74735" lon="5.91557">
        <ele>1967</ele>
        <time>2013-02-22T13:01:24.000Z</time>
      </trkpt>
      <trkpt lat="44.74728" lon="5.91552">
        <ele>1964</ele>
        <time>2013-02-22T13:01:25.000Z</time>
      </trkpt>
      <trkpt lat="44.74721" lon="5.91546">
        <ele>1959</ele>
        <time>2013-02-22T13:01:26.000Z</time>
      </trkpt>
      <trkpt lat="44.74713" lon="5.91539">
        <ele>1957</ele>
        <time>2013-02-22T13:01:27.000Z</time>
      </trkpt>
      <trkpt lat="44.74705" lon="5.9154">
        <ele>1954</ele>
        <time>2013-02-22T13:01:28.000Z</time>
      </trkpt>
      <trkpt lat="44.74697" lon="5.9154">
        <ele>1951</ele>
        <time>2013-02-22T13:01:29.000Z</time>
      </trkpt>
      <trkpt lat="44.7469" lon="5.91538">
        <ele>1948</ele>
        <time>2013-02-22T13:01:30.000Z</time>
      </trkpt>
      <trkpt lat="44.74683" lon="5.91538">
        <ele>1946</ele>
        <time>2013-02-22T13:01:31.000Z</time>
      </trkpt>
      <trkpt lat="44.74674" lon="5.91536">
        <ele>1942</ele>
        <time>2013-02-22T13:01:32.000Z</time>
      </trkpt>
      <trkpt lat="44.74668" lon="5.91538">
        <ele>1938</ele>
        <time>2013-02-22T13:01:33.000Z</time>
      </trkpt>
      <trkpt lat="44.74661" lon="5.91541">
        <ele>1935</ele>
        <time>2013-02-22T13:01:34.000Z</time>
      </trkpt>
      <trkpt lat="44.74653" lon="5.91538">
        <ele>1930</ele>
        <time>2013-02-22T13:01:35.000Z</time>
      </trkpt>
      <trkpt lat="44.74646" lon="5.91538">
        <ele>1927</ele>
        <time>2013-02-22T13:01:36.000Z</time>
      </trkpt>
      <trkpt lat="44.74638" lon="5.91539">
        <ele>1924</ele>
        <time>2013-02-22T13:01:37.000Z</time>
      </trkpt>
      <trkpt lat="44.74629" lon="5.91536">
        <ele>1918</ele>
        <time>2013-02-22T13:01:38.000Z</time>
      </trkpt>
      <trkpt lat="44.74619" lon="5.91534">
        <ele>1915</ele>
        <time>2013-02-22T13:01:39.000Z</time>
      </trkpt>
      <trkpt lat="44.74609" lon="5.91536">
        <ele>1913</ele>
        <time>2013-02-22T13:01:40.000Z</time>
      </trkpt>
      <trkpt lat="44.746" lon="5.91533">
        <ele>1907</ele>
        <time>2013-02-22T13:01:41.000Z</time>
      </trkpt>
      <trkpt lat="44.74589" lon="5.9153">
        <ele>1903</ele>
        <time>2013-02-22T13:01:42.000Z</time>
      </trkpt>
      <trkpt lat="44.7458" lon="5.91529">
        <ele>1900</ele>
        <time>2013-02-22T13:01:43.000Z</time>
      </trkpt>
      <trkpt lat="44.74573" lon="5.9154">
        <ele>1895</ele>
        <time>2013-02-22T13:01:44.000Z</time>
      </trkpt>
      <trkpt lat="44.74567" lon="5.91553">
        <ele>1895</ele>
        <time>2013-02-22T13:01:45.000Z</time>
      </trkpt>
      <trkpt lat="44.7456" lon="5.91557">
        <ele>1887</ele>
        <time>2013-02-22T13:01:46.000Z</time>
      </trkpt>
      <trkpt lat="44.74551" lon="5.91563">
        <ele>1882</ele>
        <time>2013-02-22T13:01:47.000Z</time>
      </trkpt>
      <trkpt lat="44.74544" lon="5.91573">
        <ele>1876</ele>
        <time>2013-02-22T13:01:48.000Z</time>
      </trkpt>
      <trkpt lat="44.74536" lon="5.91576">
        <ele>1871</ele>
        <time>2013-02-22T13:01:49.000Z</time>
      </trkpt>
      <trkpt lat="44.74527" lon="5.91573">
        <ele>1868</ele>
        <time>2013-02-22T13:01:50.000Z</time>
      </trkpt>
      <trkpt lat="44.74516" lon="5.91573">
        <ele>1866</ele>
        <time>2013-02-22T13:01:51.000Z</time>
      </trkpt>
      <trkpt lat="44.74505" lon="5.91577">
        <ele>1863</ele>
        <time>2013-02-22T13:01:52.000Z</time>
      </trkpt>
      <trkpt lat="44.74494" lon="5.91574">
        <ele>1858</ele>
        <time>2013-02-22T13:01:53.000Z</time>
      </trkpt>
      <trkpt lat="44.74483" lon="5.9157">
        <ele>1855</ele>
        <time>2013-02-22T13:01:54.000Z</time>
      </trkpt>
      <trkpt lat="44.74471" lon="5.91572">
        <ele>1851</ele>
        <time>2013-02-22T13:01:55.000Z</time>
      </trkpt>
      <trkpt lat="44.74461" lon="5.91566">
        <ele>1845</ele>
        <time>2013-02-22T13:01:56.000Z</time>
      </trkpt>
      <trkpt lat="44.7445" lon="5.9156">
        <ele>1843</ele>
        <time>2013-02-22T13:01:57.000Z</time>
      </trkpt>
      <trkpt lat="44.74439" lon="5.91552">
        <ele>1839</ele>
        <time>2013-02-22T13:01:58.000Z</time>
      </trkpt>
      <trkpt lat="44.74428" lon="5.91545">
        <ele>1836</ele>
        <time>2013-02-22T13:01:59.000Z</time>
      </trkpt>
      <trkpt lat="44.74415" lon="5.91542">
        <ele>1834</ele>
        <time>2013-02-22T13:02:00.000Z</time>
      </trkpt>
      <trkpt lat="44.74405" lon="5.91541">
        <ele>1834</ele>
        <time>2013-02-22T13:02:01.000Z</time>
      </trkpt>
      <trkpt lat="44.74395" lon="5.9154">
        <ele>1827</ele>
        <time>2013-02-22T13:02:02.000Z</time>
      </trkpt>
      <trkpt lat="44.74388" lon="5.91546">
        <ele>1824</ele>
        <time>2013-02-22T13:02:03.000Z</time>
      </trkpt>
      <trkpt lat="44.74381" lon="5.91553">
        <ele>1820</ele>
        <time>2013-02-22T13:02:04.000Z</time>
      </trkpt>
      <trkpt lat="44.74371" lon="5.91555">
        <ele>1816</ele>
        <time>2013-02-22T13:02:05.000Z</time>
      </trkpt>
      <trkpt lat="44.74362" lon="5.91554">
        <ele>1810</ele>
        <time>2013-02-22T13:02:06.000Z</time>
      </trkpt>
      <trkpt lat="44.74354" lon="5.91557">
        <ele>1808</ele>
        <time>2013-02-22T13:02:07.000Z</time>
      </trkpt>
      <trkpt lat="44.74345" lon="5.91562">
        <ele>1807</ele>
        <time>2013-02-22T13:02:08.000Z</time>
      </trkpt>
      <trkpt lat="44.74336" lon="5.91564">
        <ele>1806</ele>
        <time>2013-02-22T13:02:09.000Z</time>
      </trkpt>
      <trkpt lat="44.74329" lon="5.91566">
        <ele>1806</ele>
        <time>2013-02-22T13:02:10.000Z</time>
      </trkpt>
      <trkpt lat="44.74321" lon="5.91574">
        <ele>1803</ele>
        <time>2013-02-22T13:02:11.000Z</time>
      </trkpt>
      <trkpt lat="44.74316" lon="5.91583">
        <ele>1796</ele>
        <time>2013-02-22T13:02:12.000Z</time>
      </trkpt>
      <trkpt lat="44.74312" lon="5.91594">
        <ele>1795</ele>
        <time>2013-02-22T13:02:13.000Z</time>
      </trkpt>
      <trkpt lat="44.74306" lon="5.91602">
        <ele>1792</ele>
        <time>2013-02-22T13:02:14.000Z</time>
      </trkpt>
      <trkpt lat="44.74298" lon="5.91605">
        <ele>1787</ele>
        <time>2013-02-22T13:02:15.000Z</time>
      </trkpt>
      <trkpt lat="44.74291" lon="5.91611">
        <ele>1786</ele>
        <time>2013-02-22T13:02:16.000Z</time>
      </trkpt>
      <trkpt lat="44.74284" lon="5.91615">
        <ele>1782</ele>
        <time>2013-02-22T13:02:17.000Z</time>
      </trkpt>
      <trkpt lat="44.74276" lon="5.91614">
        <ele>1777</ele>
        <time>2013-02-22T13:02:18.000Z</time>
      </trkpt>
      <trkpt lat="44.74268" lon="5.91617">
        <ele>1773</ele>
        <time>2013-02-22T13:02:19.000Z</time>
      </trkpt>
      <trkpt lat="44.74259" lon="5.91618">
        <ele>1773</ele>
        <time>2013-02-22T13:02:20.000Z</time>
      </trkpt>
      <trkpt lat="44.74249" lon="5.91617">
        <ele>1769</ele>
        <time>2013-02-22T13:02:21.000Z</time>
      </trkpt>
      <trkpt lat="44.74239" lon="5.91621">
        <ele>1768</ele>
        <time>2013-02-22T13:02:22.000Z</time>
      </trkpt>
      <trkpt lat="44.74229" lon="5.91622">
        <ele>1764</ele>
        <time>2013-02-22T13:02:23.000Z</time>
      </trkpt>
      <trkpt lat="44.74219" lon="5.91623">
        <ele>1762</ele>
        <time>2013-02-22T13:02:24.000Z</time>
      </trkpt>
      <trkpt lat="44.74208" lon="5.91628">
        <ele>1760</ele>
        <time>2013-02-22T13:02:25.000Z</time>
      </trkpt>
      <trkpt lat="44.742" lon="5.91636">
        <ele>1756</ele>
        <time>2013-02-22T13:02:26.000Z</time>
      </trkpt>
      <trkpt lat="44.74194" lon="5.91646">
        <ele>1754</ele>
        <time>2013-02-22T13:02:27.000Z</time>
      </trkpt>
      <trkpt lat="44.74189" lon="5.91655">
        <ele>1750</ele>
        <time>2013-02-22T13:02:28.000Z</time>
      </trkpt>
      <trkpt lat="44.74185" lon="5.91664">
        <ele>1748</ele>
        <time>2013-02-22T13:02:29.000Z</time>
      </trkpt>
      <trkpt lat="44.74182" lon="5.91672">
        <ele>1747</ele>
        <time>2013-02-22T13:02:30.000Z</time>
      </trkpt>
      <trkpt lat="44.74179" lon="5.91678">
        <ele>1747</ele>
        <time>2013-02-22T13:02:31.000Z</time>
      </trkpt>
      <trkpt lat="44.74177" lon="5.91683">
        <ele>1747</ele>
        <time>2013-02-22T13:02:32.000Z</time>
      </trkpt>
      <trkpt lat="44.74175" lon="5.91688">
        <ele>1746</ele>
        <time>2013-02-22T13:02:33.000Z</time>
      </trkpt>
      <trkpt lat="44.74174" lon="5.91692">
        <ele>1744</ele>
        <time>2013-02-22T13:02:34.000Z</time>
      </trkpt>
      <trkpt lat="44.74172" lon="5.91696">
        <ele>1743</ele>
        <time>2013-02-22T13:02:35.000Z</time>
      </trkpt>
      <trkpt lat="44.7417" lon="5.91699">
        <ele>1742</ele>
        <time>2013-02-22T13:02:36.000Z</time>
      </trkpt>
      <trkpt lat="44.74167" lon="5.91704">
        <ele>1743</ele>
        <time>2013-02-22T13:02:37.000Z</time>
      </trkpt>
      <trkpt lat="44.74165" lon="5.91708">
        <ele>1743</ele>
        <time>2013-02-22T13:02:38.000Z</time>
      </trkpt>
      <trkpt lat="44.74162" lon="5.91712">
        <ele>1746</ele>
        <time>2013-02-22T13:02:39.000Z</time>
      </trkpt>
      <trkpt lat="44.7416" lon="5.91716">
        <ele>1747</ele>
        <time>2013-02-22T13:02:40.000Z</time>
      </trkpt>
      <trkpt lat="44.74157" lon="5.9172">
        <ele>1748</ele>
        <time>2013-02-22T13:02:41.000Z</time>
      </trkpt>
      <trkpt lat="44.74154" lon="5.91724">
        <ele>1748</ele>
        <time>2013-02-22T13:02:42.000Z</time>
      </trkpt>
      <trkpt lat="44.74151" lon="5.91728">
        <ele>1747</ele>
        <time>2013-02-22T13:02:43.000Z</time>
      </trkpt>
      <trkpt lat="44.74148" lon="5.91731">
        <ele>1746</ele>
        <time>2013-02-22T13:02:44.000Z</time>
      </trkpt>
      <trkpt lat="44.74146" lon="5.91735">
        <ele>1745</ele>
        <time>2013-02-22T13:02:45.000Z</time>
      </trkpt>
      <trkpt lat="44.74143" lon="5.91739">
        <ele>1743</ele>
        <time>2013-02-22T13:07:29.000Z</time>
      </trkpt>
      <trkpt lat="44.74139" lon="5.91738">
        <ele>1748</ele>
        <time>2013-02-22T13:07:30.000Z</time>
      </trkpt>
      <trkpt lat="44.74143" lon="5.91741">
        <ele>1754</ele>
        <time>2013-02-22T13:07:47.000Z</time>
      </trkpt>
      <trkpt lat="44.74143" lon="5.91742">
        <ele>1753</ele>
        <time>2013-02-22T13:07:48.000Z</time>
      </trkpt>
      <trkpt lat="44.74143" lon="5.91748">
        <ele>1759</ele>
        <time>2013-02-22T13:07:53.000Z</time>
      </trkpt>
      <trkpt lat="44.74143" lon="5.91749">
        <ele>1760</ele>
        <time>2013-02-22T13:07:54.000Z</time>
      </trkpt>
      <trkpt lat="44.74142" lon="5.91754">
        <ele>1760</ele>
        <time>2013-02-22T13:08:01.000Z</time>
      </trkpt>
      <trkpt lat="44.74142" lon="5.91755">
        <ele>1761</ele>
        <time>2013-02-22T13:08:02.000Z</time>
      </trkpt>
      <trkpt lat="44.74139" lon="5.91759">
        <ele>1759</ele>
        <time>2013-02-22T13:08:08.000Z</time>
      </trkpt>
      <trkpt lat="44.74138" lon="5.91759">
        <ele>1758</ele>
        <time>2013-02-22T13:08:09.000Z</time>
      </trkpt>
      <trkpt lat="44.74138" lon="5.91753">
        <ele>1735</ele>
        <time>2013-02-22T13:08:23.000Z</time>
      </trkpt>
      <trkpt lat="44.74138" lon="5.91752">
        <ele>1741</ele>
        <time>2013-02-22T13:08:24.000Z</time>
      </trkpt>
      <trkpt lat="44.74138" lon="5.91746">
        <ele>1748</ele>
        <time>2013-02-22T13:08:28.000Z</time>
      </trkpt>
      <trkpt lat="44.74138" lon="5.91746">
        <ele>1749</ele>
        <time>2013-02-22T13:08:29.000Z</time>
      </trkpt>
      <trkpt lat="44.74141" lon="5.91741">
        <ele>1756</ele>
        <time>2013-02-22T13:08:51.000Z</time>
      </trkpt>
      <trkpt lat="44.74141" lon="5.9174">
        <ele>1757</ele>
        <time>2013-02-22T13:08:52.000Z</time>
      </trkpt>
      <trkpt lat="44.74145" lon="5.91738">
        <ele>1742</ele>
        <time>2013-02-22T13:09:07.000Z</time>
      </trkpt>
      <trkpt lat="44.74145" lon="5.91738">
        <ele>1743</ele>
        <time>2013-02-22T13:09:08.000Z</time>
      </trkpt>
      <trkpt lat="44.74142" lon="5.91741">
        <ele>1743</ele>
        <time>2013-02-22T13:10:10.000Z</time>
      </trkpt>
      <trkpt lat="44.74141" lon="5.91741">
        <ele>1739</ele>
        <time>2013-02-22T13:10:11.000Z</time>
      </trkpt>
      <trkpt lat="44.74145" lon="5.91745">
        <ele>1744</ele>
        <time>2013-02-22T13:10:41.000Z</time>
      </trkpt>
      <trkpt lat="44.74146" lon="5.91745">
        <ele>1745</ele>
        <time>2013-02-22T13:10:42.000Z</time>
      </trkpt>
      <trkpt lat="44.74149" lon="5.91747">
        <ele>1749</ele>
        <time>2013-02-22T13:10:46.000Z</time>
      </trkpt>
      <trkpt lat="44.7415" lon="5.91748">
        <ele>1749</ele>
        <time>2013-02-22T13:10:47.000Z</time>
      </trkpt>
      <trkpt lat="44.74153" lon="5.9175">
        <ele>1752</ele>
        <time>2013-02-22T13:10:51.000Z</time>
      </trkpt>
      <trkpt lat="44.74154" lon="5.9175">
        <ele>1753</ele>
        <time>2013-02-22T13:10:52.000Z</time>
      </trkpt>
      <trkpt lat="44.74158" lon="5.91753">
        <ele>1750</ele>
        <time>2013-02-22T13:10:59.000Z</time>
      </trkpt>
      <trkpt lat="44.74158" lon="5.91753">
        <ele>1751</ele>
        <time>2013-02-22T13:11:00.000Z</time>
      </trkpt>
      <trkpt lat="44.74161" lon="5.91756">
        <ele>1754</ele>
        <time>2013-02-22T13:11:08.000Z</time>
      </trkpt>
      <trkpt lat="44.74162" lon="5.91757">
        <ele>1754</ele>
        <time>2013-02-22T13:11:09.000Z</time>
      </trkpt>
      <trkpt lat="44.74164" lon="5.91762">
        <ele>1755</ele>
        <time>2013-02-22T13:11:16.000Z</time>
      </trkpt>
      <trkpt lat="44.74164" lon="5.91763">
        <ele>1755</ele>
        <time>2013-02-22T13:11:17.000Z</time>
      </trkpt>
      <trkpt lat="44.74166" lon="5.91767">
        <ele>1758</ele>
        <time>2013-02-22T13:11:23.000Z</time>
      </trkpt>
      <trkpt lat="44.74167" lon="5.91768">
        <ele>1759</ele>
        <time>2013-02-22T13:11:24.000Z</time>
      </trkpt>
      <trkpt lat="44.74171" lon="5.91766">
        <ele>1762</ele>
        <time>2013-02-22T13:11:35.000Z</time>
      </trkpt>
      <trkpt lat="44.74171" lon="5.91766">
        <ele>1761</ele>
        <time>2013-02-22T13:11:36.000Z</time>
      </trkpt>
      <trkpt lat="44.74175" lon="5.91765">
        <ele>1762</ele>
        <time>2013-02-22T13:11:45.000Z</time>
      </trkpt>
      <trkpt lat="44.74176" lon="5.91765">
        <ele>1761</ele>
        <time>2013-02-22T13:11:46.000Z</time>
      </trkpt>
      <trkpt lat="44.7418" lon="5.91766">
        <ele>1759</ele>
        <time>2013-02-22T13:11:55.000Z</time>
      </trkpt>
      <trkpt lat="44.7418" lon="5.91766">
        <ele>1760</ele>
        <time>2013-02-22T13:11:56.000Z</time>
      </trkpt>
      <trkpt lat="44.74181" lon="5.91771">
        <ele>1759</ele>
        <time>2013-02-22T13:12:03.000Z</time>
      </trkpt>
      <trkpt lat="44.74181" lon="5.91772">
        <ele>1759</ele>
        <time>2013-02-22T13:12:04.000Z</time>
      </trkpt>
      <trkpt lat="44.74182" lon="5.91777">
        <ele>1760</ele>
        <time>2013-02-22T13:12:09.000Z</time>
      </trkpt>
      <trkpt lat="44.74182" lon="5.91778">
        <ele>1760</ele>
        <time>2013-02-22T13:12:10.000Z</time>
      </trkpt>
      <trkpt lat="44.74184" lon="5.91783">
        <ele>1761</ele>
        <time>2013-02-22T13:12:16.000Z</time>
      </trkpt>
      <trkpt lat="44.74184" lon="5.91784">
        <ele>1762</ele>
        <time>2013-02-22T13:12:17.000Z</time>
      </trkpt>
      <trkpt lat="44.74187" lon="5.91789">
        <ele>1766</ele>
        <time>2013-02-22T13:12:25.000Z</time>
      </trkpt>
      <trkpt lat="44.74187" lon="5.91789">
        <ele>1766</ele>
        <time>2013-02-22T13:12:26.000Z</time>
      </trkpt>
      <trkpt lat="44.7419" lon="5.91793">
        <ele>1772</ele>
        <time>2013-02-22T13:12:35.000Z</time>
      </trkpt>
      <trkpt lat="44.7419" lon="5.91794">
        <ele>1771</ele>
        <time>2013-02-22T13:12:36.000Z</time>
      </trkpt>
      <trkpt lat="44.74188" lon="5.91799">
        <ele>1770</ele>
        <time>2013-02-22T13:12:45.000Z</time>
      </trkpt>
      <trkpt lat="44.74188" lon="5.918">
        <ele>1770</ele>
        <time>2013-02-22T13:12:46.000Z</time>
      </trkpt>
      <trkpt lat="44.74188" lon="5.91806">
        <ele>1771</ele>
        <time>2013-02-22T13:12:56.000Z</time>
      </trkpt>
      <trkpt lat="44.74188" lon="5.91807">
        <ele>1771</ele>
        <time>2013-02-22T13:12:57.000Z</time>
      </trkpt>
      <trkpt lat="44.74188" lon="5.91813">
        <ele>1774</ele>
        <time>2013-02-22T13:13:05.000Z</time>
      </trkpt>
      <trkpt lat="44.74188" lon="5.91814">
        <ele>1774</ele>
        <time>2013-02-22T13:13:06.000Z</time>
      </trkpt>
      <trkpt lat="44.7419" lon="5.91819">
        <ele>1777</ele>
        <time>2013-02-22T13:13:12.000Z</time>
      </trkpt>
      <trkpt lat="44.7419" lon="5.9182">
        <ele>1778</ele>
        <time>2013-02-22T13:13:13.000Z</time>
      </trkpt>
      <trkpt lat="44.74192" lon="5.91825">
        <ele>1778</ele>
        <time>2013-02-22T13:13:23.000Z</time>
      </trkpt>
      <trkpt lat="44.74192" lon="5.91826">
        <ele>1776</ele>
        <time>2013-02-22T13:13:24.000Z</time>
      </trkpt>
      <trkpt lat="44.74195" lon="5.91831">
        <ele>1780</ele>
        <time>2013-02-22T13:13:31.000Z</time>
      </trkpt>
      <trkpt lat="44.74195" lon="5.91832">
        <ele>1780</ele>
        <time>2013-02-22T13:13:32.000Z</time>
      </trkpt>
      <trkpt lat="44.74197" lon="5.91837">
        <ele>1780</ele>
        <time>2013-02-22T13:13:40.000Z</time>
      </trkpt>
      <trkpt lat="44.74197" lon="5.91838">
        <ele>1781</ele>
        <time>2013-02-22T13:13:41.000Z</time>
      </trkpt>
      <trkpt lat="44.742" lon="5.91842">
        <ele>1783</ele>
        <time>2013-02-22T13:13:50.000Z</time>
      </trkpt>
      <trkpt lat="44.742" lon="5.91842">
        <ele>1784</ele>
        <time>2013-02-22T13:13:51.000Z</time>
      </trkpt>
      <trkpt lat="44.74201" lon="5.91848">
        <ele>1786</ele>
        <time>2013-02-22T13:14:01.000Z</time>
      </trkpt>
      <trkpt lat="44.74201" lon="5.91849">
        <ele>1786</ele>
        <time>2013-02-22T13:14:02.000Z</time>
      </trkpt>
      <trkpt lat="44.74203" lon="5.91843">
        <ele>1786</ele>
        <time>2013-02-22T13:14:23.000Z</time>
      </trkpt>
      <trkpt lat="44.74204" lon="5.91843">
        <ele>1786</ele>
        <time>2013-02-22T13:14:24.000Z</time>
      </trkpt>
      <trkpt lat="44.74208" lon="5.91841">
        <ele>1791</ele>
        <time>2013-02-22T13:14:33.000Z</time>
      </trkpt>
      <trkpt lat="44.74208" lon="5.91841">
        <ele>1791</ele>
        <time>2013-02-22T13:14:34.000Z</time>
      </trkpt>
      <trkpt lat="44.74212" lon="5.91837">
        <ele>1792</ele>
        <time>2013-02-22T13:14:43.000Z</time>
      </trkpt>
      <trkpt lat="44.74212" lon="5.91837">
        <ele>1792</ele>
        <time>2013-02-22T13:14:44.000Z</time>
      </trkpt>
      <trkpt lat="44.74214" lon="5.91832">
        <ele>1796</ele>
        <time>2013-02-22T13:14:58.000Z</time>
      </trkpt>
      <trkpt lat="44.74215" lon="5.91832">
        <ele>1796</ele>
        <time>2013-02-22T13:14:59.000Z</time>
      </trkpt>
      <trkpt lat="44.74218" lon="5.91836">
        <ele>1792</ele>
        <time>2013-02-22T13:15:32.000Z</time>
      </trkpt>
      <trkpt lat="44.74219" lon="5.91837">
        <ele>1793</ele>
        <time>2013-02-22T13:15:33.000Z</time>
      </trkpt>
      <trkpt lat="44.74221" lon="5.91842">
        <ele>1797</ele>
        <time>2013-02-22T13:15:41.000Z</time>
      </trkpt>
      <trkpt lat="44.74221" lon="5.91843">
        <ele>1797</ele>
        <time>2013-02-22T13:15:42.000Z</time>
      </trkpt>
      <trkpt lat="44.74224" lon="5.91847">
        <ele>1796</ele>
        <time>2013-02-22T13:15:52.000Z</time>
      </trkpt>
      <trkpt lat="44.74224" lon="5.91847">
        <ele>1797</ele>
        <time>2013-02-22T13:15:53.000Z</time>
      </trkpt>
      <trkpt lat="44.74228" lon="5.91851">
        <ele>1802</ele>
        <time>2013-02-22T13:16:01.000Z</time>
      </trkpt>
      <trkpt lat="44.74228" lon="5.91852">
        <ele>1802</ele>
        <time>2013-02-22T13:16:02.000Z</time>
      </trkpt>
      <trkpt lat="44.74231" lon="5.91857">
        <ele>1803</ele>
        <time>2013-02-22T13:16:10.000Z</time>
      </trkpt>
      <trkpt lat="44.74231" lon="5.91857">
        <ele>1802</ele>
        <time>2013-02-22T13:16:11.000Z</time>
      </trkpt>
      <trkpt lat="44.74234" lon="5.91861">
        <ele>1805</ele>
        <time>2013-02-22T13:16:18.000Z</time>
      </trkpt>
      <trkpt lat="44.74235" lon="5.91862">
        <ele>1805</ele>
        <time>2013-02-22T13:16:19.000Z</time>
      </trkpt>
      <trkpt lat="44.74237" lon="5.91867">
        <ele>1801</ele>
        <time>2013-02-22T13:16:26.000Z</time>
      </trkpt>
      <trkpt lat="44.74237" lon="5.91867">
        <ele>1802</ele>
        <time>2013-02-22T13:16:27.000Z</time>
      </trkpt>
      <trkpt lat="44.74241" lon="5.91871">
        <ele>1806</ele>
        <time>2013-02-22T13:16:36.000Z</time>
      </trkpt>
      <trkpt lat="44.74241" lon="5.91871">
        <ele>1805</ele>
        <time>2013-02-22T13:16:37.000Z</time>
      </trkpt>
      <trkpt lat="44.74244" lon="5.91876">
        <ele>1805</ele>
        <time>2013-02-22T13:16:45.000Z</time>
      </trkpt>
      <trkpt lat="44.74244" lon="5.91876">
        <ele>1806</ele>
        <time>2013-02-22T13:16:46.000Z</time>
      </trkpt>
      <trkpt lat="44.74247" lon="5.9188">
        <ele>1812</ele>
        <time>2013-02-22T13:16:53.000Z</time>
      </trkpt>
      <trkpt lat="44.74248" lon="5.91881">
        <ele>1813</ele>
        <time>2013-02-22T13:16:54.000Z</time>
      </trkpt>
      <trkpt lat="44.74251" lon="5.91885">
        <ele>1812</ele>
        <time>2013-02-22T13:17:03.000Z</time>
      </trkpt>
      <trkpt lat="44.74251" lon="5.91885">
        <ele>1813</ele>
        <time>2013-02-22T13:17:04.000Z</time>
      </trkpt>
      <trkpt lat="44.74254" lon="5.91889">
        <ele>1815</ele>
        <time>2013-02-22T13:17:12.000Z</time>
      </trkpt>
      <trkpt lat="44.74254" lon="5.9189">
        <ele>1814</ele>
        <time>2013-02-22T13:17:13.000Z</time>
      </trkpt>
      <trkpt lat="44.74258" lon="5.91888">
        <ele>1820</ele>
        <time>2013-02-22T13:17:36.000Z</time>
      </trkpt>
      <trkpt lat="44.74259" lon="5.91887">
        <ele>1820</ele>
        <time>2013-02-22T13:17:37.000Z</time>
      </trkpt>
      <trkpt lat="44.74261" lon="5.91883">
        <ele>1821</ele>
        <time>2013-02-22T13:17:44.000Z</time>
      </trkpt>
      <trkpt lat="44.74262" lon="5.91882">
        <ele>1821</ele>
        <time>2013-02-22T13:17:45.000Z</time>
      </trkpt>
      <trkpt lat="44.74265" lon="5.91879">
        <ele>1821</ele>
        <time>2013-02-22T13:17:52.000Z</time>
      </trkpt>
      <trkpt lat="44.74265" lon="5.91879">
        <ele>1822</ele>
        <time>2013-02-22T13:17:53.000Z</time>
      </trkpt>
      <trkpt lat="44.74268" lon="5.91875">
        <ele>1822</ele>
        <time>2013-02-22T13:18:00.000Z</time>
      </trkpt>
      <trkpt lat="44.74269" lon="5.91875">
        <ele>1823</ele>
        <time>2013-02-22T13:18:01.000Z</time>
      </trkpt>
      <trkpt lat="44.74272" lon="5.91871">
        <ele>1824</ele>
        <time>2013-02-22T13:18:10.000Z</time>
      </trkpt>
      <trkpt lat="44.74273" lon="5.91871">
        <ele>1825</ele>
        <time>2013-02-22T13:18:11.000Z</time>
      </trkpt>
      <trkpt lat="44.74276" lon="5.91868">
        <ele>1827</ele>
        <time>2013-02-22T13:18:19.000Z</time>
      </trkpt>
      <trkpt lat="44.74277" lon="5.91868">
        <ele>1827</ele>
        <time>2013-02-22T13:18:20.000Z</time>
      </trkpt>
      <trkpt lat="44.7428" lon="5.91865">
        <ele>1828</ele>
        <time>2013-02-22T13:18:28.000Z</time>
      </trkpt>
      <trkpt lat="44.74281" lon="5.91864">
        <ele>1829</ele>
        <time>2013-02-22T13:18:29.000Z</time>
      </trkpt>
      <trkpt lat="44.74285" lon="5.91862">
        <ele>1829</ele>
        <time>2013-02-22T13:18:36.000Z</time>
      </trkpt>
      <trkpt lat="44.74285" lon="5.91861">
        <ele>1830</ele>
        <time>2013-02-22T13:18:37.000Z</time>
      </trkpt>
      <trkpt lat="44.74289" lon="5.91859">
        <ele>1832</ele>
        <time>2013-02-22T13:18:51.000Z</time>
      </trkpt>
      <trkpt lat="44.7429" lon="5.91859">
        <ele>1832</ele>
        <time>2013-02-22T13:18:52.000Z</time>
      </trkpt>
      <trkpt lat="44.74294" lon="5.91857">
        <ele>1833</ele>
        <time>2013-02-22T13:18:59.000Z</time>
      </trkpt>
      <trkpt lat="44.74294" lon="5.91856">
        <ele>1833</ele>
        <time>2013-02-22T13:19:00.000Z</time>
      </trkpt>
      <trkpt lat="44.74298" lon="5.91854">
        <ele>1835</ele>
        <time>2013-02-22T13:19:08.000Z</time>
      </trkpt>
      <trkpt lat="44.74299" lon="5.91853">
        <ele>1835</ele>
        <time>2013-02-22T13:19:09.000Z</time>
      </trkpt>
      <trkpt lat="44.74303" lon="5.91851">
        <ele>1837</ele>
        <time>2013-02-22T13:19:17.000Z</time>
      </trkpt>
      <trkpt lat="44.74303" lon="5.9185">
        <ele>1836</ele>
        <time>2013-02-22T13:19:18.000Z</time>
      </trkpt>
      <trkpt lat="44.74306" lon="5.91847">
        <ele>1838</ele>
        <time>2013-02-22T13:19:25.000Z</time>
      </trkpt>
      <trkpt lat="44.74307" lon="5.91847">
        <ele>1838</ele>
        <time>2013-02-22T13:19:26.000Z</time>
      </trkpt>
      <trkpt lat="44.7431" lon="5.91842">
        <ele>1840</ele>
        <time>2013-02-22T13:19:34.000Z</time>
      </trkpt>
      <trkpt lat="44.74311" lon="5.91842">
        <ele>1840</ele>
        <time>2013-02-22T13:19:35.000Z</time>
      </trkpt>
      <trkpt lat="44.74314" lon="5.91838">
        <ele>1841</ele>
        <time>2013-02-22T13:19:42.000Z</time>
      </trkpt>
      <trkpt lat="44.74314" lon="5.91838">
        <ele>1841</ele>
        <time>2013-02-22T13:19:43.000Z</time>
      </trkpt>
      <trkpt lat="44.74318" lon="5.91836">
        <ele>1842</ele>
        <time>2013-02-22T13:19:50.000Z</time>
      </trkpt>
      <trkpt lat="44.74319" lon="5.91835">
        <ele>1842</ele>
        <time>2013-02-22T13:19:51.000Z</time>
      </trkpt>
      <trkpt lat="44.74323" lon="5.91834">
        <ele>1846</ele>
        <time>2013-02-22T13:19:59.000Z</time>
      </trkpt>
      <trkpt lat="44.74323" lon="5.91833">
        <ele>1845</ele>
        <time>2013-02-22T13:20:00.000Z</time>
      </trkpt>
      <trkpt lat="44.74327" lon="5.91833">
        <ele>1847</ele>
        <time>2013-02-22T13:20:06.000Z</time>
      </trkpt>
      <trkpt lat="44.74328" lon="5.91833">
        <ele>1847</ele>
        <time>2013-02-22T13:20:07.000Z</time>
      </trkpt>
      <trkpt lat="44.74332" lon="5.91831">
        <ele>1847</ele>
        <time>2013-02-22T13:20:14.000Z</time>
      </trkpt>
      <trkpt lat="44.74333" lon="5.91831">
        <ele>1847</ele>
        <time>2013-02-22T13:20:15.000Z</time>
      </trkpt>
      <trkpt lat="44.74337" lon="5.91829">
        <ele>1849</ele>
        <time>2013-02-22T13:20:23.000Z</time>
      </trkpt>
      <trkpt lat="44.74337" lon="5.91829">
        <ele>1848</ele>
        <time>2013-02-22T13:20:24.000Z</time>
      </trkpt>
      <trkpt lat="44.74341" lon="5.91828">
        <ele>1850</ele>
        <time>2013-02-22T13:20:30.000Z</time>
      </trkpt>
      <trkpt lat="44.74342" lon="5.91828">
        <ele>1851</ele>
        <time>2013-02-22T13:20:31.000Z</time>
      </trkpt>
      <trkpt lat="44.74346" lon="5.91827">
        <ele>1851</ele>
        <time>2013-02-22T13:20:43.000Z</time>
      </trkpt>
      <trkpt lat="44.74347" lon="5.91827">
        <ele>1851</ele>
        <time>2013-02-22T13:20:44.000Z</time>
      </trkpt>
      <trkpt lat="44.7435" lon="5.91824">
        <ele>1850</ele>
        <time>2013-02-22T13:20:51.000Z</time>
      </trkpt>
      <trkpt lat="44.74351" lon="5.91823">
        <ele>1849</ele>
        <time>2013-02-22T13:20:52.000Z</time>
      </trkpt>
      <trkpt lat="44.74354" lon="5.91825">
        <ele>1854</ele>
        <time>2013-02-22T13:20:58.000Z</time>
      </trkpt>
      <trkpt lat="44.74355" lon="5.91825">
        <ele>1853</ele>
        <time>2013-02-22T13:20:59.000Z</time>
      </trkpt>
      <trkpt lat="44.74359" lon="5.91824">
        <ele>1855</ele>
        <time>2013-02-22T13:21:06.000Z</time>
      </trkpt>
      <trkpt lat="44.7436" lon="5.91824">
        <ele>1855</ele>
        <time>2013-02-22T13:21:07.000Z</time>
      </trkpt>
      <trkpt lat="44.74364" lon="5.91824">
        <ele>1858</ele>
        <time>2013-02-22T13:21:18.000Z</time>
      </trkpt>
      <trkpt lat="44.74365" lon="5.91824">
        <ele>1858</ele>
        <time>2013-02-22T13:21:19.000Z</time>
      </trkpt>
      <trkpt lat="44.74368" lon="5.91822">
        <ele>1859</ele>
        <time>2013-02-22T13:21:25.000Z</time>
      </trkpt>
      <trkpt lat="44.74369" lon="5.91822">
        <ele>1860</ele>
        <time>2013-02-22T13:21:26.000Z</time>
      </trkpt>
      <trkpt lat="44.74373" lon="5.91821">
        <ele>1860</ele>
        <time>2013-02-22T13:21:33.000Z</time>
      </trkpt>
      <trkpt lat="44.74374" lon="5.91821">
        <ele>1860</ele>
        <time>2013-02-22T13:21:34.000Z</time>
      </trkpt>
      <trkpt lat="44.74378" lon="5.91822">
        <ele>1864</ele>
        <time>2013-02-22T13:21:47.000Z</time>
      </trkpt>
      <trkpt lat="44.74379" lon="5.91821">
        <ele>1864</ele>
        <time>2013-02-22T13:21:48.000Z</time>
      </trkpt>
      <trkpt lat="44.74382" lon="5.9182">
        <ele>1864</ele>
        <time>2013-02-22T13:21:55.000Z</time>
      </trkpt>
      <trkpt lat="44.74383" lon="5.91819">
        <ele>1863</ele>
        <time>2013-02-22T13:21:56.000Z</time>
      </trkpt>
      <trkpt lat="44.74387" lon="5.91816">
        <ele>1869</ele>
        <time>2013-02-22T13:22:09.000Z</time>
      </trkpt>
      <trkpt lat="44.74388" lon="5.91817">
        <ele>1869</ele>
        <time>2013-02-22T13:22:10.000Z</time>
      </trkpt>
      <trkpt lat="44.74389" lon="5.91822">
        <ele>1861</ele>
        <time>2013-02-22T13:22:20.000Z</time>
      </trkpt>
      <trkpt lat="44.7439" lon="5.91823">
        <ele>1862</ele>
        <time>2013-02-22T13:22:21.000Z</time>
      </trkpt>
      <trkpt lat="44.7439" lon="5.91828">
        <ele>1865</ele>
        <time>2013-02-22T13:22:28.000Z</time>
      </trkpt>
      <trkpt lat="44.7439" lon="5.91829">
        <ele>1865</ele>
        <time>2013-02-22T13:22:29.000Z</time>
      </trkpt>
      <trkpt lat="44.7439" lon="5.91835">
        <ele>1860</ele>
        <time>2013-02-22T13:22:33.000Z</time>
      </trkpt>
      <trkpt lat="44.7439" lon="5.91836">
        <ele>1859</ele>
        <time>2013-02-22T13:22:34.000Z</time>
      </trkpt>
      <trkpt lat="44.7439" lon="5.91842">
        <ele>1860</ele>
        <time>2013-02-22T13:22:37.000Z</time>
      </trkpt>
      <trkpt lat="44.7439" lon="5.91843">
        <ele>1860</ele>
        <time>2013-02-22T13:22:38.000Z</time>
      </trkpt>
      <trkpt lat="44.7439" lon="5.91848">
        <ele>1862</ele>
        <time>2013-02-22T13:22:48.000Z</time>
      </trkpt>
      <trkpt lat="44.7439" lon="5.91849">
        <ele>1863</ele>
        <time>2013-02-22T13:22:49.000Z</time>
      </trkpt>
      <trkpt lat="44.74391" lon="5.91855">
        <ele>1861</ele>
        <time>2013-02-22T13:22:57.000Z</time>
      </trkpt>
      <trkpt lat="44.74391" lon="5.91856">
        <ele>1861</ele>
        <time>2013-02-22T13:22:58.000Z</time>
      </trkpt>
      <trkpt lat="44.74394" lon="5.9186">
        <ele>1866</ele>
        <time>2013-02-22T13:23:04.000Z</time>
      </trkpt>
      <trkpt lat="44.74394" lon="5.91861">
        <ele>1868</ele>
        <time>2013-02-22T13:23:05.000Z</time>
      </trkpt>
      <trkpt lat="44.74398" lon="5.91863">
        <ele>1871</ele>
        <time>2013-02-22T13:23:14.000Z</time>
      </trkpt>
      <trkpt lat="44.74399" lon="5.91863">
        <ele>1873</ele>
        <time>2013-02-22T13:23:15.000Z</time>
      </trkpt>
      <trkpt lat="44.74402" lon="5.9186">
        <ele>1877</ele>
        <time>2013-02-22T13:23:23.000Z</time>
      </trkpt>
      <trkpt lat="44.74403" lon="5.9186">
        <ele>1877</ele>
        <time>2013-02-22T13:23:24.000Z</time>
      </trkpt>
      <trkpt lat="44.74407" lon="5.91862">
        <ele>1879</ele>
        <time>2013-02-22T13:23:32.000Z</time>
      </trkpt>
      <trkpt lat="44.74407" lon="5.91863">
        <ele>1879</ele>
        <time>2013-02-22T13:23:33.000Z</time>
      </trkpt>
      <trkpt lat="44.74412" lon="5.91865">
        <ele>1874</ele>
        <time>2013-02-22T13:23:39.000Z</time>
      </trkpt>
      <trkpt lat="44.74412" lon="5.91865">
        <ele>1873</ele>
        <time>2013-02-22T13:23:40.000Z</time>
      </trkpt>
      <trkpt lat="44.74416" lon="5.91865">
        <ele>1878</ele>
        <time>2013-02-22T13:23:47.000Z</time>
      </trkpt>
      <trkpt lat="44.74417" lon="5.91866">
        <ele>1878</ele>
        <time>2013-02-22T13:23:48.000Z</time>
      </trkpt>
      <trkpt lat="44.74421" lon="5.91867">
        <ele>1879</ele>
        <time>2013-02-22T13:23:55.000Z</time>
      </trkpt>
      <trkpt lat="44.74422" lon="5.91867">
        <ele>1879</ele>
        <time>2013-02-22T13:23:56.000Z</time>
      </trkpt>
      <trkpt lat="44.74426" lon="5.91868">
        <ele>1879</ele>
        <time>2013-02-22T13:24:01.000Z</time>
      </trkpt>
      <trkpt lat="44.74426" lon="5.91868">
        <ele>1880</ele>
        <time>2013-02-22T13:24:02.000Z</time>
      </trkpt>
      <trkpt lat="44.7443" lon="5.91866">
        <ele>1882</ele>
        <time>2013-02-22T13:24:08.000Z</time>
      </trkpt>
      <trkpt lat="44.74431" lon="5.91866">
        <ele>1883</ele>
        <time>2013-02-22T13:24:09.000Z</time>
      </trkpt>
      <trkpt lat="44.74435" lon="5.91867">
        <ele>1886</ele>
        <time>2013-02-22T13:24:15.000Z</time>
      </trkpt>
      <trkpt lat="44.74436" lon="5.91867">
        <ele>1886</ele>
        <time>2013-02-22T13:24:16.000Z</time>
      </trkpt>
      <trkpt lat="44.74439" lon="5.91869">
        <ele>1884</ele>
        <time>2013-02-22T13:24:21.000Z</time>
      </trkpt>
      <trkpt lat="44.7444" lon="5.91869">
        <ele>1885</ele>
        <time>2013-02-22T13:24:22.000Z</time>
      </trkpt>
      <trkpt lat="44.74444" lon="5.91872">
        <ele>1886</ele>
        <time>2013-02-22T13:24:27.000Z</time>
      </trkpt>
      <trkpt lat="44.74444" lon="5.91872">
        <ele>1885</ele>
        <time>2013-02-22T13:24:28.000Z</time>
      </trkpt>
      <trkpt lat="44.74448" lon="5.91875">
        <ele>1884</ele>
        <time>2013-02-22T13:24:33.000Z</time>
      </trkpt>
      <trkpt lat="44.74448" lon="5.91875">
        <ele>1884</ele>
        <time>2013-02-22T13:24:34.000Z</time>
      </trkpt>
      <trkpt lat="44.74453" lon="5.91875">
        <ele>1884</ele>
        <time>2013-02-22T13:26:44.000Z</time>
      </trkpt>
      <trkpt lat="44.74453" lon="5.91875">
        <ele>1883</ele>
        <time>2013-02-22T13:26:45.000Z</time>
      </trkpt>
      <trkpt lat="44.74449" lon="5.91874">
        <ele>1887</ele>
        <time>2013-02-22T13:27:46.000Z</time>
      </trkpt>
      <trkpt lat="44.74448" lon="5.91874">
        <ele>1885</ele>
        <time>2013-02-22T13:27:47.000Z</time>
      </trkpt>
      <trkpt lat="44.74452" lon="5.91876">
        <ele>1892</ele>
        <time>2013-02-22T13:28:30.000Z</time>
      </trkpt>
      <trkpt lat="44.74452" lon="5.91876">
        <ele>1891</ele>
        <time>2013-02-22T13:28:31.000Z</time>
      </trkpt>
      <trkpt lat="44.74457" lon="5.91876">
        <ele>1891</ele>
        <time>2013-02-22T13:29:16.000Z</time>
      </trkpt>
      <trkpt lat="44.74457" lon="5.91876">
        <ele>1891</ele>
        <time>2013-02-22T13:29:17.000Z</time>
      </trkpt>
      <trkpt lat="44.74452" lon="5.91876">
        <ele>1884</ele>
        <time>2013-02-22T13:30:07.000Z</time>
      </trkpt>
      <trkpt lat="44.74452" lon="5.91876">
        <ele>1882</ele>
        <time>2013-02-22T13:30:08.000Z</time>
      </trkpt>
      <trkpt lat="44.74448" lon="5.91876">
        <ele>1883</ele>
        <time>2013-02-22T13:34:22.000Z</time>
      </trkpt>
      <trkpt lat="44.74448" lon="5.91876">
        <ele>1883</ele>
        <time>2013-02-22T13:34:23.000Z</time>
      </trkpt>
      <trkpt lat="44.74451" lon="5.91872">
        <ele>1887</ele>
        <time>2013-02-22T13:34:56.000Z</time>
      </trkpt>
      <trkpt lat="44.74451" lon="5.91871">
        <ele>1886</ele>
        <time>2013-02-22T13:34:57.000Z</time>
      </trkpt>
      <trkpt lat="44.74449" lon="5.91867">
        <ele>1887</ele>
        <time>2013-02-22T13:35:14.000Z</time>
      </trkpt>
      <trkpt lat="44.74447" lon="5.91866">
        <ele>1888</ele>
        <time>2013-02-22T13:35:15.000Z</time>
      </trkpt>
      <trkpt lat="44.74443" lon="5.91863">
        <ele>1887</ele>
        <time>2013-02-22T13:35:17.000Z</time>
      </trkpt>
      <trkpt lat="44.74441" lon="5.9186">
        <ele>1886</ele>
        <time>2013-02-22T13:35:18.000Z</time>
      </trkpt>
      <trkpt lat="44.74438" lon="5.91857">
        <ele>1885</ele>
        <time>2013-02-22T13:35:19.000Z</time>
      </trkpt>
      <trkpt lat="44.74435" lon="5.91853">
        <ele>1882</ele>
        <time>2013-02-22T13:35:20.000Z</time>
      </trkpt>
      <trkpt lat="44.74433" lon="5.91848">
        <ele>1883</ele>
        <time>2013-02-22T13:35:21.000Z</time>
      </trkpt>
      <trkpt lat="44.74431" lon="5.91844">
        <ele>1883</ele>
        <time>2013-02-22T13:35:22.000Z</time>
      </trkpt>
      <trkpt lat="44.74428" lon="5.91843">
        <ele>1882</ele>
        <time>2013-02-22T13:35:23.000Z</time>
      </trkpt>
      <trkpt lat="44.74425" lon="5.91844">
        <ele>1882</ele>
        <time>2013-02-22T13:35:24.000Z</time>
      </trkpt>
      <trkpt lat="44.74422" lon="5.91848">
        <ele>1881</ele>
        <time>2013-02-22T13:35:25.000Z</time>
      </trkpt>
      <trkpt lat="44.74419" lon="5.91852">
        <ele>1880</ele>
        <time>2013-02-22T13:35:26.000Z</time>
      </trkpt>
      <trkpt lat="44.74416" lon="5.91856">
        <ele>1879</ele>
        <time>2013-02-22T13:35:27.000Z</time>
      </trkpt>
      <trkpt lat="44.74414" lon="5.9186">
        <ele>1879</ele>
        <time>2013-02-22T13:35:28.000Z</time>
      </trkpt>
      <trkpt lat="44.74413" lon="5.91865">
        <ele>1878</ele>
        <time>2013-02-22T13:35:29.000Z</time>
      </trkpt>
      <trkpt lat="44.74409" lon="5.91867">
        <ele>1878</ele>
        <time>2013-02-22T13:35:30.000Z</time>
      </trkpt>
      <trkpt lat="44.74407" lon="5.91866">
        <ele>1874</ele>
        <time>2013-02-22T13:35:31.000Z</time>
      </trkpt>
      <trkpt lat="44.74406" lon="5.91863">
        <ele>1873</ele>
        <time>2013-02-22T13:35:32.000Z</time>
      </trkpt>
      <trkpt lat="44.74404" lon="5.9186">
        <ele>1872</ele>
        <time>2013-02-22T13:35:33.000Z</time>
      </trkpt>
      <trkpt lat="44.74402" lon="5.91855">
        <ele>1873</ele>
        <time>2013-02-22T13:35:34.000Z</time>
      </trkpt>
      <trkpt lat="44.744" lon="5.91851">
        <ele>1874</ele>
        <time>2013-02-22T13:35:35.000Z</time>
      </trkpt>
      <trkpt lat="44.74399" lon="5.91846">
        <ele>1874</ele>
        <time>2013-02-22T13:35:36.000Z</time>
      </trkpt>
      <trkpt lat="44.74399" lon="5.91841">
        <ele>1874</ele>
        <time>2013-02-22T13:35:37.000Z</time>
      </trkpt>
      <trkpt lat="44.74398" lon="5.91835">
        <ele>1874</ele>
        <time>2013-02-22T13:35:38.000Z</time>
      </trkpt>
      <trkpt lat="44.74395" lon="5.9183">
        <ele>1870</ele>
        <time>2013-02-22T13:35:39.000Z</time>
      </trkpt>
      <trkpt lat="44.74393" lon="5.91829">
        <ele>1872</ele>
        <time>2013-02-22T13:35:40.000Z</time>
      </trkpt>
      <trkpt lat="44.7439" lon="5.91832">
        <ele>1866</ele>
        <time>2013-02-22T13:35:46.000Z</time>
      </trkpt>
      <trkpt lat="44.74386" lon="5.91834">
        <ele>1864</ele>
        <time>2013-02-22T13:35:47.000Z</time>
      </trkpt>
      <trkpt lat="44.74381" lon="5.91837">
        <ele>1864</ele>
        <time>2013-02-22T13:35:48.000Z</time>
      </trkpt>
      <trkpt lat="44.74375" lon="5.91842">
        <ele>1863</ele>
        <time>2013-02-22T13:35:49.000Z</time>
      </trkpt>
      <trkpt lat="44.7437" lon="5.91841">
        <ele>1863</ele>
        <time>2013-02-22T13:35:50.000Z</time>
      </trkpt>
      <trkpt lat="44.74365" lon="5.91837">
        <ele>1862</ele>
        <time>2013-02-22T13:35:51.000Z</time>
      </trkpt>
      <trkpt lat="44.74362" lon="5.91834">
        <ele>1861</ele>
        <time>2013-02-22T13:35:52.000Z</time>
      </trkpt>
      <trkpt lat="44.74357" lon="5.91833">
        <ele>1860</ele>
        <time>2013-02-22T13:35:53.000Z</time>
      </trkpt>
      <trkpt lat="44.74353" lon="5.9183">
        <ele>1857</ele>
        <time>2013-02-22T13:35:54.000Z</time>
      </trkpt>
      <trkpt lat="44.74349" lon="5.91827">
        <ele>1857</ele>
        <time>2013-02-22T13:35:55.000Z</time>
      </trkpt>
      <trkpt lat="44.74344" lon="5.91827">
        <ele>1856</ele>
        <time>2013-02-22T13:35:56.000Z</time>
      </trkpt>
      <trkpt lat="44.7434" lon="5.91828">
        <ele>1854</ele>
        <time>2013-02-22T13:35:57.000Z</time>
      </trkpt>
      <trkpt lat="44.74334" lon="5.91832">
        <ele>1852</ele>
        <time>2013-02-22T13:35:58.000Z</time>
      </trkpt>
      <trkpt lat="44.74328" lon="5.91832">
        <ele>1851</ele>
        <time>2013-02-22T13:35:59.000Z</time>
      </trkpt>
      <trkpt lat="44.74322" lon="5.91834">
        <ele>1849</ele>
        <time>2013-02-22T13:36:00.000Z</time>
      </trkpt>
      <trkpt lat="44.74317" lon="5.91838">
        <ele>1846</ele>
        <time>2013-02-22T13:36:01.000Z</time>
      </trkpt>
      <trkpt lat="44.74312" lon="5.91838">
        <ele>1845</ele>
        <time>2013-02-22T13:36:02.000Z</time>
      </trkpt>
      <trkpt lat="44.74306" lon="5.9184">
        <ele>1843</ele>
        <time>2013-02-22T13:36:03.000Z</time>
      </trkpt>
      <trkpt lat="44.74301" lon="5.91845">
        <ele>1836</ele>
        <time>2013-02-22T13:36:04.000Z</time>
      </trkpt>
      <trkpt lat="44.74297" lon="5.91851">
        <ele>1833</ele>
        <time>2013-02-22T13:36:05.000Z</time>
      </trkpt>
      <trkpt lat="44.74291" lon="5.91854">
        <ele>1830</ele>
        <time>2013-02-22T13:36:06.000Z</time>
      </trkpt>
      <trkpt lat="44.74286" lon="5.91852">
        <ele>1829</ele>
        <time>2013-02-22T13:36:07.000Z</time>
      </trkpt>
      <trkpt lat="44.74279" lon="5.91853">
        <ele>1828</ele>
        <time>2013-02-22T13:36:08.000Z</time>
      </trkpt>
      <trkpt lat="44.74272" lon="5.9186">
        <ele>1827</ele>
        <time>2013-02-22T13:36:09.000Z</time>
      </trkpt>
      <trkpt lat="44.74269" lon="5.91865">
        <ele>1826</ele>
        <time>2013-02-22T13:36:10.000Z</time>
      </trkpt>
      <trkpt lat="44.74269" lon="5.91871">
        <ele>1821</ele>
        <time>2013-02-22T13:36:40.000Z</time>
      </trkpt>
      <trkpt lat="44.74269" lon="5.91872">
        <ele>1821</ele>
        <time>2013-02-22T13:36:41.000Z</time>
      </trkpt>
      <trkpt lat="44.74267" lon="5.91875">
        <ele>1821</ele>
        <time>2013-02-22T13:36:45.000Z</time>
      </trkpt>
      <trkpt lat="44.74266" lon="5.91879">
        <ele>1819</ele>
        <time>2013-02-22T13:36:46.000Z</time>
      </trkpt>
      <trkpt lat="44.74265" lon="5.91882">
        <ele>1818</ele>
        <time>2013-02-22T13:36:47.000Z</time>
      </trkpt>
      <trkpt lat="44.74264" lon="5.91886">
        <ele>1816</ele>
        <time>2013-02-22T13:36:48.000Z</time>
      </trkpt>
      <trkpt lat="44.74263" lon="5.91889">
        <ele>1817</ele>
        <time>2013-02-22T13:36:49.000Z</time>
      </trkpt>
      <trkpt lat="44.74262" lon="5.91892">
        <ele>1818</ele>
        <time>2013-02-22T13:36:50.000Z</time>
      </trkpt>
      <trkpt lat="44.7426" lon="5.91896">
        <ele>1819</ele>
        <time>2013-02-22T13:36:51.000Z</time>
      </trkpt>
      <trkpt lat="44.74258" lon="5.919">
        <ele>1818</ele>
        <time>2013-02-22T13:36:52.000Z</time>
      </trkpt>
      <trkpt lat="44.74256" lon="5.91898">
        <ele>1817</ele>
        <time>2013-02-22T13:36:54.000Z</time>
      </trkpt>
      <trkpt lat="44.74253" lon="5.91892">
        <ele>1816</ele>
        <time>2013-02-22T13:36:55.000Z</time>
      </trkpt>
      <trkpt lat="44.74251" lon="5.91885">
        <ele>1816</ele>
        <time>2013-02-22T13:36:56.000Z</time>
      </trkpt>
      <trkpt lat="44.74249" lon="5.91877">
        <ele>1815</ele>
        <time>2013-02-22T13:36:57.000Z</time>
      </trkpt>
      <trkpt lat="44.74244" lon="5.91872">
        <ele>1815</ele>
        <time>2013-02-22T13:36:58.000Z</time>
      </trkpt>
      <trkpt lat="44.74241" lon="5.91873">
        <ele>1815</ele>
        <time>2013-02-22T13:36:59.000Z</time>
      </trkpt>
      <trkpt lat="44.74238" lon="5.91876">
        <ele>1811</ele>
        <time>2013-02-22T13:37:00.000Z</time>
      </trkpt>
      <trkpt lat="44.74235" lon="5.91879">
        <ele>1809</ele>
        <time>2013-02-22T13:37:01.000Z</time>
      </trkpt>
      <trkpt lat="44.74234" lon="5.91881">
        <ele>1808</ele>
        <time>2013-02-22T13:37:02.000Z</time>
      </trkpt>
      <trkpt lat="44.74231" lon="5.91887">
        <ele>1806</ele>
        <time>2013-02-22T13:37:03.000Z</time>
      </trkpt>
      <trkpt lat="44.74229" lon="5.91887">
        <ele>1805</ele>
        <time>2013-02-22T13:37:04.000Z</time>
      </trkpt>
      <trkpt lat="44.74227" lon="5.91886">
        <ele>1802</ele>
        <time>2013-02-22T13:37:05.000Z</time>
      </trkpt>
      <trkpt lat="44.74224" lon="5.91882">
        <ele>1802</ele>
        <time>2013-02-22T13:37:06.000Z</time>
      </trkpt>
      <trkpt lat="44.74218" lon="5.91882">
        <ele>1800</ele>
        <time>2013-02-22T13:37:07.000Z</time>
      </trkpt>
      <trkpt lat="44.74215" lon="5.91884">
        <ele>1795</ele>
        <time>2013-02-22T13:37:08.000Z</time>
      </trkpt>
      <trkpt lat="44.74212" lon="5.91882">
        <ele>1792</ele>
        <time>2013-02-22T13:37:09.000Z</time>
      </trkpt>
      <trkpt lat="44.74209" lon="5.91883">
        <ele>1788</ele>
        <time>2013-02-22T13:37:10.000Z</time>
      </trkpt>
      <trkpt lat="44.74205" lon="5.91884">
        <ele>1785</ele>
        <time>2013-02-22T13:37:11.000Z</time>
      </trkpt>
      <trkpt lat="44.74201" lon="5.91884">
        <ele>1783</ele>
        <time>2013-02-22T13:37:12.000Z</time>
      </trkpt>
      <trkpt lat="44.74198" lon="5.91886">
        <ele>1780</ele>
        <time>2013-02-22T13:37:13.000Z</time>
      </trkpt>
      <trkpt lat="44.74195" lon="5.91889">
        <ele>1781</ele>
        <time>2013-02-22T13:37:14.000Z</time>
      </trkpt>
      <trkpt lat="44.74193" lon="5.9189">
        <ele>1779</ele>
        <time>2013-02-22T13:37:15.000Z</time>
      </trkpt>
      <trkpt lat="44.74192" lon="5.91885">
        <ele>1779</ele>
        <time>2013-02-22T13:37:28.000Z</time>
      </trkpt>
      <trkpt lat="44.74188" lon="5.91882">
        <ele>1779</ele>
        <time>2013-02-22T13:37:29.000Z</time>
      </trkpt>
      <trkpt lat="44.74186" lon="5.91883">
        <ele>1778</ele>
        <time>2013-02-22T13:37:30.000Z</time>
      </trkpt>
      <trkpt lat="44.74184" lon="5.91887">
        <ele>1778</ele>
        <time>2013-02-22T13:37:31.000Z</time>
      </trkpt>
      <trkpt lat="44.74182" lon="5.91892">
        <ele>1777</ele>
        <time>2013-02-22T13:37:32.000Z</time>
      </trkpt>
      <trkpt lat="44.74179" lon="5.91893">
        <ele>1773</ele>
        <time>2013-02-22T13:37:33.000Z</time>
      </trkpt>
      <trkpt lat="44.74175" lon="5.91894">
        <ele>1770</ele>
        <time>2013-02-22T13:37:34.000Z</time>
      </trkpt>
      <trkpt lat="44.74172" lon="5.91896">
        <ele>1770</ele>
        <time>2013-02-22T13:37:35.000Z</time>
      </trkpt>
      <trkpt lat="44.74169" lon="5.91896">
        <ele>1768</ele>
        <time>2013-02-22T13:37:36.000Z</time>
      </trkpt>
      <trkpt lat="44.74166" lon="5.91899">
        <ele>1763</ele>
        <time>2013-02-22T13:37:37.000Z</time>
      </trkpt>
      <trkpt lat="44.74162" lon="5.919">
        <ele>1763</ele>
        <time>2013-02-22T13:37:38.000Z</time>
      </trkpt>
      <trkpt lat="44.74158" lon="5.91901">
        <ele>1763</ele>
        <time>2013-02-22T13:37:39.000Z</time>
      </trkpt>
      <trkpt lat="44.74155" lon="5.91905">
        <ele>1757</ele>
        <time>2013-02-22T13:37:40.000Z</time>
      </trkpt>
      <trkpt lat="44.74152" lon="5.91908">
        <ele>1754</ele>
        <time>2013-02-22T13:37:41.000Z</time>
      </trkpt>
      <trkpt lat="44.74147" lon="5.91909">
        <ele>1753</ele>
        <time>2013-02-22T13:37:42.000Z</time>
      </trkpt>
      <trkpt lat="44.74143" lon="5.91913">
        <ele>1750</ele>
        <time>2013-02-22T13:37:43.000Z</time>
      </trkpt>
      <trkpt lat="44.7414" lon="5.91917">
        <ele>1749</ele>
        <time>2013-02-22T13:37:44.000Z</time>
      </trkpt>
      <trkpt lat="44.74134" lon="5.9192">
        <ele>1746</ele>
        <time>2013-02-22T13:37:45.000Z</time>
      </trkpt>
      <trkpt lat="44.74131" lon="5.91925">
        <ele>1743</ele>
        <time>2013-02-22T13:37:46.000Z</time>
      </trkpt>
      <trkpt lat="44.7413" lon="5.91932">
        <ele>1741</ele>
        <time>2013-02-22T13:37:47.000Z</time>
      </trkpt>
      <trkpt lat="44.7413" lon="5.91937">
        <ele>1741</ele>
        <time>2013-02-22T13:37:48.000Z</time>
      </trkpt>
      <trkpt lat="44.74129" lon="5.91943">
        <ele>1742</ele>
        <time>2013-02-22T13:37:49.000Z</time>
      </trkpt>
      <trkpt lat="44.74129" lon="5.91949">
        <ele>1741</ele>
        <time>2013-02-22T13:37:50.000Z</time>
      </trkpt>
      <trkpt lat="44.74128" lon="5.91953">
        <ele>1741</ele>
        <time>2013-02-22T13:37:51.000Z</time>
      </trkpt>
      <trkpt lat="44.7413" lon="5.91959">
        <ele>1743</ele>
        <time>2013-02-22T13:37:54.000Z</time>
      </trkpt>
      <trkpt lat="44.7413" lon="5.9196">
        <ele>1743</ele>
        <time>2013-02-22T13:37:55.000Z</time>
      </trkpt>
      <trkpt lat="44.74131" lon="5.91965">
        <ele>1734</ele>
        <time>2013-02-22T13:38:17.000Z</time>
      </trkpt>
      <trkpt lat="44.74131" lon="5.91966">
        <ele>1733</ele>
        <time>2013-02-22T13:38:18.000Z</time>
      </trkpt>
      <trkpt lat="44.74132" lon="5.91971">
        <ele>1734</ele>
        <time>2013-02-22T13:38:33.000Z</time>
      </trkpt>
      <trkpt lat="44.74132" lon="5.91973">
        <ele>1735</ele>
        <time>2013-02-22T13:38:34.000Z</time>
      </trkpt>
      <trkpt lat="44.74133" lon="5.91978">
        <ele>1735</ele>
        <time>2013-02-22T13:38:37.000Z</time>
      </trkpt>
      <trkpt lat="44.74133" lon="5.91979">
        <ele>1734</ele>
        <time>2013-02-22T13:38:38.000Z</time>
      </trkpt>
      <trkpt lat="44.74133" lon="5.91985">
        <ele>1734</ele>
        <time>2013-02-22T13:38:40.000Z</time>
      </trkpt>
      <trkpt lat="44.74133" lon="5.91988">
        <ele>1734</ele>
        <time>2013-02-22T13:38:41.000Z</time>
      </trkpt>
      <trkpt lat="44.74133" lon="5.91992">
        <ele>1734</ele>
        <time>2013-02-22T13:38:42.000Z</time>
      </trkpt>
      <trkpt lat="44.74133" lon="5.91995">
        <ele>1733</ele>
        <time>2013-02-22T13:38:43.000Z</time>
      </trkpt>
      <trkpt lat="44.74131" lon="5.91999">
        <ele>1731</ele>
        <time>2013-02-22T13:38:44.000Z</time>
      </trkpt>
      <trkpt lat="44.74128" lon="5.91999">
        <ele>1730</ele>
        <time>2013-02-22T13:38:45.000Z</time>
      </trkpt>
      <trkpt lat="44.74124" lon="5.91994">
        <ele>1729</ele>
        <time>2013-02-22T13:38:46.000Z</time>
      </trkpt>
      <trkpt lat="44.74117" lon="5.91991">
        <ele>1730</ele>
        <time>2013-02-22T13:38:47.000Z</time>
      </trkpt>
      <trkpt lat="44.74112" lon="5.91995">
        <ele>1728</ele>
        <time>2013-02-22T13:38:48.000Z</time>
      </trkpt>
      <trkpt lat="44.74106" lon="5.91994">
        <ele>1723</ele>
        <time>2013-02-22T13:38:49.000Z</time>
      </trkpt>
      <trkpt lat="44.741" lon="5.91997">
        <ele>1721</ele>
        <time>2013-02-22T13:38:50.000Z</time>
      </trkpt>
      <trkpt lat="44.74098" lon="5.92004">
        <ele>1719</ele>
        <time>2013-02-22T13:38:51.000Z</time>
      </trkpt>
      <trkpt lat="44.74098" lon="5.92012">
        <ele>1718</ele>
        <time>2013-02-22T13:38:52.000Z</time>
      </trkpt>
      <trkpt lat="44.74098" lon="5.9202">
        <ele>1717</ele>
        <time>2013-02-22T13:38:53.000Z</time>
      </trkpt>
      <trkpt lat="44.74098" lon="5.92027">
        <ele>1715</ele>
        <time>2013-02-22T13:38:54.000Z</time>
      </trkpt>
      <trkpt lat="44.74099" lon="5.92034">
        <ele>1713</ele>
        <time>2013-02-22T13:38:55.000Z</time>
      </trkpt>
      <trkpt lat="44.74097" lon="5.92043">
        <ele>1710</ele>
        <time>2013-02-22T13:38:56.000Z</time>
      </trkpt>
      <trkpt lat="44.74094" lon="5.92044">
        <ele>1709</ele>
        <time>2013-02-22T13:38:57.000Z</time>
      </trkpt>
      <trkpt lat="44.74091" lon="5.92041">
        <ele>1706</ele>
        <time>2013-02-22T13:38:58.000Z</time>
      </trkpt>
      <trkpt lat="44.74085" lon="5.92036">
        <ele>1705</ele>
        <time>2013-02-22T13:38:59.000Z</time>
      </trkpt>
      <trkpt lat="44.74079" lon="5.92029">
        <ele>1703</ele>
        <time>2013-02-22T13:39:00.000Z</time>
      </trkpt>
      <trkpt lat="44.7407" lon="5.92024">
        <ele>1703</ele>
        <time>2013-02-22T13:39:01.000Z</time>
      </trkpt>
      <trkpt lat="44.74063" lon="5.92023">
        <ele>1700</ele>
        <time>2013-02-22T13:39:02.000Z</time>
      </trkpt>
      <trkpt lat="44.74058" lon="5.9203">
        <ele>1699</ele>
        <time>2013-02-22T13:39:03.000Z</time>
      </trkpt>
      <trkpt lat="44.74052" lon="5.92033">
        <ele>1694</ele>
        <time>2013-02-22T13:39:04.000Z</time>
      </trkpt>
      <trkpt lat="44.74047" lon="5.92039">
        <ele>1694</ele>
        <time>2013-02-22T13:39:05.000Z</time>
      </trkpt>
      <trkpt lat="44.74042" lon="5.92045">
        <ele>1689</ele>
        <time>2013-02-22T13:39:06.000Z</time>
      </trkpt>
      <trkpt lat="44.74036" lon="5.92051">
        <ele>1686</ele>
        <time>2013-02-22T13:39:07.000Z</time>
      </trkpt>
      <trkpt lat="44.74034" lon="5.92061">
        <ele>1680</ele>
        <time>2013-02-22T13:39:08.000Z</time>
      </trkpt>
      <trkpt lat="44.74033" lon="5.92071">
        <ele>1675</ele>
        <time>2013-02-22T13:39:09.000Z</time>
      </trkpt>
      <trkpt lat="44.74028" lon="5.92078">
        <ele>1673</ele>
        <time>2013-02-22T13:39:10.000Z</time>
      </trkpt>
      <trkpt lat="44.74026" lon="5.92087">
        <ele>1671</ele>
        <time>2013-02-22T13:39:11.000Z</time>
      </trkpt>
      <trkpt lat="44.74028" lon="5.92095">
        <ele>1668</ele>
        <time>2013-02-22T13:39:12.000Z</time>
      </trkpt>
      <trkpt lat="44.74029" lon="5.92106">
        <ele>1665</ele>
        <time>2013-02-22T13:39:13.000Z</time>
      </trkpt>
      <trkpt lat="44.74031" lon="5.92116">
        <ele>1663</ele>
        <time>2013-02-22T13:39:14.000Z</time>
      </trkpt>
      <trkpt lat="44.74035" lon="5.92124">
        <ele>1663</ele>
        <time>2013-02-22T13:39:15.000Z</time>
      </trkpt>
      <trkpt lat="44.74039" lon="5.9213">
        <ele>1666</ele>
        <time>2013-02-22T13:39:16.000Z</time>
      </trkpt>
      <trkpt lat="44.74041" lon="5.92134">
        <ele>1662</ele>
        <time>2013-02-22T13:40:29.000Z</time>
      </trkpt>
      <trkpt lat="44.74044" lon="5.92141">
        <ele>1654</ele>
        <time>2013-02-22T13:40:30.000Z</time>
      </trkpt>
      <trkpt lat="44.74046" lon="5.92146">
        <ele>1652</ele>
        <time>2013-02-22T13:40:35.000Z</time>
      </trkpt>
      <trkpt lat="44.74047" lon="5.9215">
        <ele>1654</ele>
        <time>2013-02-22T13:40:36.000Z</time>
      </trkpt>
      <trkpt lat="44.74048" lon="5.92154">
        <ele>1653</ele>
        <time>2013-02-22T13:40:38.000Z</time>
      </trkpt>
      <trkpt lat="44.74049" lon="5.92157">
        <ele>1654</ele>
        <time>2013-02-22T13:40:39.000Z</time>
      </trkpt>
      <trkpt lat="44.7405" lon="5.92162">
        <ele>1653</ele>
        <time>2013-02-22T13:40:41.000Z</time>
      </trkpt>
      <trkpt lat="44.74051" lon="5.92164">
        <ele>1651</ele>
        <time>2013-02-22T13:40:42.000Z</time>
      </trkpt>
      <trkpt lat="44.74052" lon="5.9217">
        <ele>1649</ele>
        <time>2013-02-22T13:40:44.000Z</time>
      </trkpt>
      <trkpt lat="44.74053" lon="5.92173">
        <ele>1647</ele>
        <time>2013-02-22T13:40:45.000Z</time>
      </trkpt>
      <trkpt lat="44.74054" lon="5.92178">
        <ele>1650</ele>
        <time>2013-02-22T13:40:48.000Z</time>
      </trkpt>
      <trkpt lat="44.74056" lon="5.92181">
        <ele>1648</ele>
        <time>2013-02-22T13:40:49.000Z</time>
      </trkpt>
      <trkpt lat="44.74059" lon="5.92186">
        <ele>1646</ele>
        <time>2013-02-22T13:40:52.000Z</time>
      </trkpt>
      <trkpt lat="44.7406" lon="5.92187">
        <ele>1646</ele>
        <time>2013-02-22T13:40:53.000Z</time>
      </trkpt>
      <trkpt lat="44.74061" lon="5.9219">
        <ele>1647</ele>
        <time>2013-02-22T13:40:57.000Z</time>
      </trkpt>
      <trkpt lat="44.74063" lon="5.92192">
        <ele>1648</ele>
        <time>2013-02-22T13:40:58.000Z</time>
      </trkpt>
      <trkpt lat="44.74065" lon="5.92195">
        <ele>1646</ele>
        <time>2013-02-22T13:41:01.000Z</time>
      </trkpt>
      <trkpt lat="44.74066" lon="5.92198">
        <ele>1643</ele>
        <time>2013-02-22T13:41:02.000Z</time>
      </trkpt>
      <trkpt lat="44.74067" lon="5.92202">
        <ele>1645</ele>
        <time>2013-02-22T13:41:04.000Z</time>
      </trkpt>
      <trkpt lat="44.74068" lon="5.92204">
        <ele>1644</ele>
        <time>2013-02-22T13:41:05.000Z</time>
      </trkpt>
      <trkpt lat="44.74069" lon="5.92208">
        <ele>1644</ele>
        <time>2013-02-22T13:41:06.000Z</time>
      </trkpt>
      <trkpt lat="44.7407" lon="5.92212">
        <ele>1645</ele>
        <time>2013-02-22T13:41:07.000Z</time>
      </trkpt>
      <trkpt lat="44.74071" lon="5.92215">
        <ele>1644</ele>
        <time>2013-02-22T13:41:08.000Z</time>
      </trkpt>
      <trkpt lat="44.74072" lon="5.92218">
        <ele>1641</ele>
        <time>2013-02-22T13:41:09.000Z</time>
      </trkpt>
      <trkpt lat="44.74074" lon="5.92223">
        <ele>1642</ele>
        <time>2013-02-22T13:41:11.000Z</time>
      </trkpt>
      <trkpt lat="44.74075" lon="5.92226">
        <ele>1643</ele>
        <time>2013-02-22T13:41:12.000Z</time>
      </trkpt>
      <trkpt lat="44.74078" lon="5.9223">
        <ele>1642</ele>
        <time>2013-02-22T13:41:14.000Z</time>
      </trkpt>
      <trkpt lat="44.74079" lon="5.92233">
        <ele>1645</ele>
        <time>2013-02-22T13:41:15.000Z</time>
      </trkpt>
      <trkpt lat="44.74081" lon="5.92235">
        <ele>1646</ele>
        <time>2013-02-22T13:41:16.000Z</time>
      </trkpt>
      <trkpt lat="44.74082" lon="5.92237">
        <ele>1646</ele>
        <time>2013-02-22T13:41:17.000Z</time>
      </trkpt>
      <trkpt lat="44.74084" lon="5.9224">
        <ele>1644</ele>
        <time>2013-02-22T13:41:18.000Z</time>
      </trkpt>
      <trkpt lat="44.74086" lon="5.92242">
        <ele>1641</ele>
        <time>2013-02-22T13:41:19.000Z</time>
      </trkpt>
      <trkpt lat="44.74088" lon="5.92244">
        <ele>1642</ele>
        <time>2013-02-22T13:41:20.000Z</time>
      </trkpt>
      <trkpt lat="44.74089" lon="5.92246">
        <ele>1643</ele>
        <time>2013-02-22T13:41:21.000Z</time>
      </trkpt>
      <trkpt lat="44.74091" lon="5.92249">
        <ele>1640</ele>
        <time>2013-02-22T13:41:22.000Z</time>
      </trkpt>
      <trkpt lat="44.74093" lon="5.9225">
        <ele>1639</ele>
        <time>2013-02-22T13:41:23.000Z</time>
      </trkpt>
      <trkpt lat="44.74093" lon="5.9225">
        <ele>1639</ele>
        <time>2013-02-22T13:41:54.000Z</time>
      </trkpt>
      <trkpt lat="44.74097" lon="5.92258">
        <ele>1629</ele>
        <time>2013-02-22T13:41:55.000Z</time>
      </trkpt>
      <trkpt lat="44.74095" lon="5.9226">
        <ele>1629</ele>
        <time>2013-02-22T13:42:06.000Z</time>
      </trkpt>
      <trkpt lat="44.74089" lon="5.92268">
        <ele>1633</ele>
        <time>2013-02-22T13:42:07.000Z</time>
      </trkpt>
      <trkpt lat="44.74086" lon="5.92272">
        <ele>1632</ele>
        <time>2013-02-22T13:42:11.000Z</time>
      </trkpt>
      <trkpt lat="44.74087" lon="5.92275">
        <ele>1631</ele>
        <time>2013-02-22T13:42:12.000Z</time>
      </trkpt>
      <trkpt lat="44.74085" lon="5.92281">
        <ele>1627</ele>
        <time>2013-02-22T13:42:59.000Z</time>
      </trkpt>
      <trkpt lat="44.7408" lon="5.92288">
        <ele>1621</ele>
        <time>2013-02-22T13:43:00.000Z</time>
      </trkpt>
      <trkpt lat="44.74078" lon="5.92291">
        <ele>1617</ele>
        <time>2013-02-22T13:43:02.000Z</time>
      </trkpt>
      <trkpt lat="44.74075" lon="5.92293">
        <ele>1616</ele>
        <time>2013-02-22T13:43:03.000Z</time>
      </trkpt>
      <trkpt lat="44.74075" lon="5.92297">
        <ele>1614</ele>
        <time>2013-02-22T13:43:04.000Z</time>
      </trkpt>
      <trkpt lat="44.74075" lon="5.923">
        <ele>1612</ele>
        <time>2013-02-22T13:43:05.000Z</time>
      </trkpt>
      <trkpt lat="44.74071" lon="5.92302">
        <ele>1609</ele>
        <time>2013-02-22T13:44:14.000Z</time>
      </trkpt>
      <trkpt lat="44.74073" lon="5.92306">
        <ele>1615</ele>
        <time>2013-02-22T13:44:15.000Z</time>
      </trkpt>
      <trkpt lat="44.74076" lon="5.92301">
        <ele>1615</ele>
        <time>2013-02-22T13:44:26.000Z</time>
      </trkpt>
      <trkpt lat="44.74076" lon="5.923">
        <ele>1616</ele>
        <time>2013-02-22T13:44:27.000Z</time>
      </trkpt>
      <trkpt lat="44.74073" lon="5.92304">
        <ele>1616</ele>
        <time>2013-02-22T13:44:53.000Z</time>
      </trkpt>
      <trkpt lat="44.74072" lon="5.92304">
        <ele>1617</ele>
        <time>2013-02-22T13:44:54.000Z</time>
      </trkpt>
      <trkpt lat="44.74069" lon="5.92304">
        <ele>1616</ele>
        <time>2013-02-22T13:44:57.000Z</time>
      </trkpt>
      <trkpt lat="44.74068" lon="5.92305">
        <ele>1613</ele>
        <time>2013-02-22T13:44:58.000Z</time>
      </trkpt>
      <trkpt lat="44.74065" lon="5.9231">
        <ele>1604</ele>
        <time>2013-02-22T13:45:03.000Z</time>
      </trkpt>
      <trkpt lat="44.74064" lon="5.92311">
        <ele>1603</ele>
        <time>2013-02-22T13:45:04.000Z</time>
      </trkpt>
      <trkpt lat="44.7406" lon="5.92313">
        <ele>1598</ele>
        <time>2013-02-22T13:45:06.000Z</time>
      </trkpt>
      <trkpt lat="44.74059" lon="5.92314">
        <ele>1599</ele>
        <time>2013-02-22T13:45:07.000Z</time>
      </trkpt>
      <trkpt lat="44.74057" lon="5.92318">
        <ele>1599</ele>
        <time>2013-02-22T13:45:55.000Z</time>
      </trkpt>
      <trkpt lat="44.74057" lon="5.92319">
        <ele>1598</ele>
        <time>2013-02-22T13:45:56.000Z</time>
      </trkpt>
      <trkpt lat="44.74053" lon="5.92322">
        <ele>1596</ele>
        <time>2013-02-22T13:46:08.000Z</time>
      </trkpt>
      <trkpt lat="44.74052" lon="5.92322">
        <ele>1594</ele>
        <time>2013-02-22T13:46:09.000Z</time>
      </trkpt>
      <trkpt lat="44.74054" lon="5.92328">
        <ele>1596</ele>
        <time>2013-02-22T13:46:28.000Z</time>
      </trkpt>
      <trkpt lat="44.74054" lon="5.92328">
        <ele>1597</ele>
        <time>2013-02-22T13:46:29.000Z</time>
      </trkpt>
      <trkpt lat="44.74049" lon="5.92328">
        <ele>1595</ele>
        <time>2013-02-22T13:46:45.000Z</time>
      </trkpt>
      <trkpt lat="44.74046" lon="5.92328">
        <ele>1593</ele>
        <time>2013-02-22T13:46:46.000Z</time>
      </trkpt>
      <trkpt lat="44.74043" lon="5.92328">
        <ele>1593</ele>
        <time>2013-02-22T13:46:47.000Z</time>
      </trkpt>
      <trkpt lat="44.74041" lon="5.92326">
        <ele>1594</ele>
        <time>2013-02-22T13:46:48.000Z</time>
      </trkpt>
      <trkpt lat="44.7404" lon="5.9232">
        <ele>1589</ele>
        <time>2013-02-22T13:47:02.000Z</time>
      </trkpt>
      <trkpt lat="44.7404" lon="5.9232">
        <ele>1589</ele>
        <time>2013-02-22T13:47:03.000Z</time>
      </trkpt>
      <trkpt lat="44.74037" lon="5.92323">
        <ele>1590</ele>
        <time>2013-02-22T13:47:26.000Z</time>
      </trkpt>
      <trkpt lat="44.74036" lon="5.92326">
        <ele>1590</ele>
        <time>2013-02-22T13:47:27.000Z</time>
      </trkpt>
      <trkpt lat="44.74035" lon="5.92331">
        <ele>1585</ele>
        <time>2013-02-22T13:47:49.000Z</time>
      </trkpt>
      <trkpt lat="44.74035" lon="5.92333">
        <ele>1584</ele>
        <time>2013-02-22T13:47:50.000Z</time>
      </trkpt>
      <trkpt lat="44.74036" lon="5.92339">
        <ele>1578</ele>
        <time>2013-02-22T13:47:56.000Z</time>
      </trkpt>
      <trkpt lat="44.74036" lon="5.9234">
        <ele>1578</ele>
        <time>2013-02-22T13:47:57.000Z</time>
      </trkpt>
      <trkpt lat="44.74033" lon="5.92336">
        <ele>1580</ele>
        <time>2013-02-22T13:48:21.000Z</time>
      </trkpt>
      <trkpt lat="44.74032" lon="5.92337">
        <ele>1583</ele>
        <time>2013-02-22T13:48:22.000Z</time>
      </trkpt>
      <trkpt lat="44.74028" lon="5.92337">
        <ele>1576</ele>
        <time>2013-02-22T13:48:32.000Z</time>
      </trkpt>
      <trkpt lat="44.74028" lon="5.92337">
        <ele>1577</ele>
        <time>2013-02-22T13:48:33.000Z</time>
      </trkpt>
      <trkpt lat="44.74023" lon="5.92337">
        <ele>1580</ele>
        <time>2013-02-22T13:48:43.000Z</time>
      </trkpt>
      <trkpt lat="44.74022" lon="5.92337">
        <ele>1580</ele>
        <time>2013-02-22T13:48:44.000Z</time>
      </trkpt>
      <trkpt lat="44.74018" lon="5.92335">
        <ele>1571</ele>
        <time>2013-02-22T13:48:53.000Z</time>
      </trkpt>
      <trkpt lat="44.74018" lon="5.92334">
        <ele>1571</ele>
        <time>2013-02-22T13:48:54.000Z</time>
      </trkpt>
      <trkpt lat="44.74017" lon="5.92339">
        <ele>1570</ele>
        <time>2013-02-22T13:49:01.000Z</time>
      </trkpt>
      <trkpt lat="44.74019" lon="5.92345">
        <ele>1572</ele>
        <time>2013-02-22T13:49:02.000Z</time>
      </trkpt>
      <trkpt lat="44.74021" lon="5.9235">
        <ele>1570</ele>
        <time>2013-02-22T13:49:05.000Z</time>
      </trkpt>
      <trkpt lat="44.74021" lon="5.92351">
        <ele>1569</ele>
        <time>2013-02-22T13:49:06.000Z</time>
      </trkpt>
      <trkpt lat="44.74018" lon="5.92352">
        <ele>1569</ele>
        <time>2013-02-22T13:49:14.000Z</time>
      </trkpt>
      <trkpt lat="44.74017" lon="5.92353">
        <ele>1569</ele>
        <time>2013-02-22T13:49:15.000Z</time>
      </trkpt>
      <trkpt lat="44.74014" lon="5.92351">
        <ele>1571</ele>
        <time>2013-02-22T13:49:20.000Z</time>
      </trkpt>
      <trkpt lat="44.74013" lon="5.92349">
        <ele>1568</ele>
        <time>2013-02-22T13:49:21.000Z</time>
      </trkpt>
      <trkpt lat="44.7401" lon="5.92353">
        <ele>1559</ele>
        <time>2013-02-22T13:49:40.000Z</time>
      </trkpt>
      <trkpt lat="44.74009" lon="5.92356">
        <ele>1561</ele>
        <time>2013-02-22T13:49:41.000Z</time>
      </trkpt>
      <trkpt lat="44.74007" lon="5.92358">
        <ele>1563</ele>
        <time>2013-02-22T13:49:55.000Z</time>
      </trkpt>
      <trkpt lat="44.74004" lon="5.92356">
        <ele>1562</ele>
        <time>2013-02-22T13:49:56.000Z</time>
      </trkpt>
      <trkpt lat="44.74" lon="5.92355">
        <ele>1559</ele>
        <time>2013-02-22T13:49:57.000Z</time>
      </trkpt>
      <trkpt lat="44.73997" lon="5.92353">
        <ele>1558</ele>
        <time>2013-02-22T13:49:58.000Z</time>
      </trkpt>
      <trkpt lat="44.73993" lon="5.92353">
        <ele>1556</ele>
        <time>2013-02-22T13:50:02.000Z</time>
      </trkpt>
      <trkpt lat="44.73993" lon="5.92353">
        <ele>1556</ele>
        <time>2013-02-22T13:50:03.000Z</time>
      </trkpt>
      <trkpt lat="44.73995" lon="5.92357">
        <ele>1555</ele>
        <time>2013-02-22T13:50:12.000Z</time>
      </trkpt>
      <trkpt lat="44.73995" lon="5.92359">
        <ele>1557</ele>
        <time>2013-02-22T13:50:13.000Z</time>
      </trkpt>
      <trkpt lat="44.73998" lon="5.92363">
        <ele>1558</ele>
        <time>2013-02-22T13:50:29.000Z</time>
      </trkpt>
      <trkpt lat="44.73998" lon="5.92365">
        <ele>1557</ele>
        <time>2013-02-22T13:50:30.000Z</time>
      </trkpt>
      <trkpt lat="44.73998" lon="5.92371">
        <ele>1558</ele>
        <time>2013-02-22T13:50:32.000Z</time>
      </trkpt>
      <trkpt lat="44.73998" lon="5.92372">
        <ele>1555</ele>
        <time>2013-02-22T13:50:33.000Z</time>
      </trkpt>
      <trkpt lat="44.73998" lon="5.92377">
        <ele>1550</ele>
        <time>2013-02-22T13:50:53.000Z</time>
      </trkpt>
      <trkpt lat="44.73998" lon="5.92379">
        <ele>1550</ele>
        <time>2013-02-22T13:50:54.000Z</time>
      </trkpt>
      <trkpt lat="44.73995" lon="5.92384">
        <ele>1551</ele>
        <time>2013-02-22T13:51:23.000Z</time>
      </trkpt>
      <trkpt lat="44.73994" lon="5.92384">
        <ele>1551</ele>
        <time>2013-02-22T13:51:24.000Z</time>
      </trkpt>
      <trkpt lat="44.73991" lon="5.92382">
        <ele>1541</ele>
        <time>2013-02-22T13:51:37.000Z</time>
      </trkpt>
      <trkpt lat="44.7399" lon="5.92381">
        <ele>1542</ele>
        <time>2013-02-22T13:51:38.000Z</time>
      </trkpt>
      <trkpt lat="44.73986" lon="5.92379">
        <ele>1549</ele>
        <time>2013-02-22T13:51:42.000Z</time>
      </trkpt>
      <trkpt lat="44.73985" lon="5.92379">
        <ele>1548</ele>
        <time>2013-02-22T13:51:43.000Z</time>
      </trkpt>
      <trkpt lat="44.73982" lon="5.92381">
        <ele>1544</ele>
        <time>2013-02-22T13:52:02.000Z</time>
      </trkpt>
      <trkpt lat="44.73979" lon="5.92382">
        <ele>1544</ele>
        <time>2013-02-22T13:52:03.000Z</time>
      </trkpt>
      <trkpt lat="44.73979" lon="5.92385">
        <ele>1544</ele>
        <time>2013-02-22T13:52:04.000Z</time>
      </trkpt>
      <trkpt lat="44.73979" lon="5.92388">
        <ele>1544</ele>
        <time>2013-02-22T13:52:05.000Z</time>
      </trkpt>
      <trkpt lat="44.73979" lon="5.92392">
        <ele>1541</ele>
        <time>2013-02-22T13:52:06.000Z</time>
      </trkpt>
      <trkpt lat="44.73977" lon="5.92395">
        <ele>1539</ele>
        <time>2013-02-22T13:52:07.000Z</time>
      </trkpt>
      <trkpt lat="44.73974" lon="5.92394">
        <ele>1537</ele>
        <time>2013-02-22T13:52:08.000Z</time>
      </trkpt>
      <trkpt lat="44.7397" lon="5.92397">
        <ele>1534</ele>
        <time>2013-02-22T13:52:09.000Z</time>
      </trkpt>
      <trkpt lat="44.73967" lon="5.92402">
        <ele>1531</ele>
        <time>2013-02-22T13:52:10.000Z</time>
      </trkpt>
      <trkpt lat="44.73966" lon="5.92408">
        <ele>1531</ele>
        <time>2013-02-22T13:52:11.000Z</time>
      </trkpt>
      <trkpt lat="44.73966" lon="5.92414">
        <ele>1530</ele>
        <time>2013-02-22T13:52:12.000Z</time>
      </trkpt>
      <trkpt lat="44.73965" lon="5.92422">
        <ele>1527</ele>
        <time>2013-02-22T13:52:13.000Z</time>
      </trkpt>
      <trkpt lat="44.73966" lon="5.92429">
        <ele>1529</ele>
        <time>2013-02-22T13:52:14.000Z</time>
      </trkpt>
      <trkpt lat="44.73968" lon="5.92438">
        <ele>1528</ele>
        <time>2013-02-22T13:52:15.000Z</time>
      </trkpt>
      <trkpt lat="44.7397" lon="5.92443">
        <ele>1528</ele>
        <time>2013-02-22T13:52:16.000Z</time>
      </trkpt>
      <trkpt lat="44.73972" lon="5.92447">
        <ele>1527</ele>
        <time>2013-02-22T13:52:17.000Z</time>
      </trkpt>
      <trkpt lat="44.73974" lon="5.92453">
        <ele>1527</ele>
        <time>2013-02-22T13:52:18.000Z</time>
      </trkpt>
      <trkpt lat="44.73975" lon="5.92457">
        <ele>1527</ele>
        <time>2013-02-22T13:52:19.000Z</time>
      </trkpt>
      <trkpt lat="44.73976" lon="5.9246">
        <ele>1526</ele>
        <time>2013-02-22T13:52:20.000Z</time>
      </trkpt>
      <trkpt lat="44.73978" lon="5.92465">
        <ele>1524</ele>
        <time>2013-02-22T13:52:22.000Z</time>
      </trkpt>
      <trkpt lat="44.73979" lon="5.92466">
        <ele>1525</ele>
        <time>2013-02-22T13:52:23.000Z</time>
      </trkpt>
      <trkpt lat="44.7398" lon="5.92469">
        <ele>1518</ele>
        <time>2013-02-22T13:52:30.000Z</time>
      </trkpt>
      <trkpt lat="44.73981" lon="5.92472">
        <ele>1518</ele>
        <time>2013-02-22T13:52:31.000Z</time>
      </trkpt>
      <trkpt lat="44.73983" lon="5.92478">
        <ele>1520</ele>
        <time>2013-02-22T13:52:32.000Z</time>
      </trkpt>
      <trkpt lat="44.73984" lon="5.92484">
        <ele>1519</ele>
        <time>2013-02-22T13:52:33.000Z</time>
      </trkpt>
      <trkpt lat="44.73986" lon="5.92489">
        <ele>1516</ele>
        <time>2013-02-22T13:52:34.000Z</time>
      </trkpt>
      <trkpt lat="44.73989" lon="5.92494">
        <ele>1514</ele>
        <time>2013-02-22T13:52:35.000Z</time>
      </trkpt>
      <trkpt lat="44.73992" lon="5.92497">
        <ele>1515</ele>
        <time>2013-02-22T13:52:36.000Z</time>
      </trkpt>
      <trkpt lat="44.73994" lon="5.92501">
        <ele>1515</ele>
        <time>2013-02-22T13:52:37.000Z</time>
      </trkpt>
      <trkpt lat="44.73998" lon="5.92504">
        <ele>1517</ele>
        <time>2013-02-22T13:52:47.000Z</time>
      </trkpt>
      <trkpt lat="44.73998" lon="5.92504">
        <ele>1516</ele>
        <time>2013-02-22T13:52:48.000Z</time>
      </trkpt>
      <trkpt lat="44.73995" lon="5.92508">
        <ele>1517</ele>
        <time>2013-02-22T13:56:51.000Z</time>
      </trkpt>
      <trkpt lat="44.73993" lon="5.92508">
        <ele>1515</ele>
        <time>2013-02-22T13:56:52.000Z</time>
      </trkpt>
      <trkpt lat="44.73991" lon="5.92507">
        <ele>1513</ele>
        <time>2013-02-22T13:56:53.000Z</time>
      </trkpt>
      <trkpt lat="44.73987" lon="5.92506">
        <ele>1512</ele>
        <time>2013-02-22T13:56:54.000Z</time>
      </trkpt>
      <trkpt lat="44.73987" lon="5.92509">
        <ele>1507</ele>
        <time>2013-02-22T13:57:04.000Z</time>
      </trkpt>
      <trkpt lat="44.73987" lon="5.92513">
        <ele>1509</ele>
        <time>2013-02-22T13:57:05.000Z</time>
      </trkpt>
      <trkpt lat="44.73986" lon="5.92519">
        <ele>1506</ele>
        <time>2013-02-22T13:57:08.000Z</time>
      </trkpt>
      <trkpt lat="44.73984" lon="5.92517">
        <ele>1506</ele>
        <time>2013-02-22T13:57:09.000Z</time>
      </trkpt>
      <trkpt lat="44.73981" lon="5.92514">
        <ele>1505</ele>
        <time>2013-02-22T13:57:11.000Z</time>
      </trkpt>
      <trkpt lat="44.7398" lon="5.92514">
        <ele>1506</ele>
        <time>2013-02-22T13:57:12.000Z</time>
      </trkpt>
      <trkpt lat="44.73976" lon="5.92514">
        <ele>1504</ele>
        <time>2013-02-22T13:57:16.000Z</time>
      </trkpt>
      <trkpt lat="44.73974" lon="5.92518">
        <ele>1504</ele>
        <time>2013-02-22T13:57:17.000Z</time>
      </trkpt>
      <trkpt lat="44.73975" lon="5.92522">
        <ele>1503</ele>
        <time>2013-02-22T13:57:18.000Z</time>
      </trkpt>
      <trkpt lat="44.73977" lon="5.92526">
        <ele>1504</ele>
        <time>2013-02-22T13:57:19.000Z</time>
      </trkpt>
      <trkpt lat="44.73979" lon="5.9253">
        <ele>1502</ele>
        <time>2013-02-22T13:57:20.000Z</time>
      </trkpt>
      <trkpt lat="44.73981" lon="5.92535">
        <ele>1503</ele>
        <time>2013-02-22T13:57:21.000Z</time>
      </trkpt>
      <trkpt lat="44.73983" lon="5.92539">
        <ele>1501</ele>
        <time>2013-02-22T13:57:22.000Z</time>
      </trkpt>
      <trkpt lat="44.73984" lon="5.92543">
        <ele>1500</ele>
        <time>2013-02-22T13:57:23.000Z</time>
      </trkpt>
      <trkpt lat="44.73982" lon="5.92547">
        <ele>1498</ele>
        <time>2013-02-22T13:57:24.000Z</time>
      </trkpt>
      <trkpt lat="44.73978" lon="5.92551">
        <ele>1497</ele>
        <time>2013-02-22T13:57:25.000Z</time>
      </trkpt>
      <trkpt lat="44.73972" lon="5.92552">
        <ele>1495</ele>
        <time>2013-02-22T13:57:26.000Z</time>
      </trkpt>
      <trkpt lat="44.73966" lon="5.92552">
        <ele>1492</ele>
        <time>2013-02-22T13:57:27.000Z</time>
      </trkpt>
      <trkpt lat="44.73961" lon="5.92547">
        <ele>1493</ele>
        <time>2013-02-22T13:57:28.000Z</time>
      </trkpt>
      <trkpt lat="44.73956" lon="5.92542">
        <ele>1490</ele>
        <time>2013-02-22T13:57:29.000Z</time>
      </trkpt>
      <trkpt lat="44.73951" lon="5.92538">
        <ele>1488</ele>
        <time>2013-02-22T13:57:30.000Z</time>
      </trkpt>
      <trkpt lat="44.73945" lon="5.92533">
        <ele>1487</ele>
        <time>2013-02-22T13:57:31.000Z</time>
      </trkpt>
      <trkpt lat="44.73939" lon="5.92528">
        <ele>1484</ele>
        <time>2013-02-22T13:57:32.000Z</time>
      </trkpt>
      <trkpt lat="44.73933" lon="5.92523">
        <ele>1484</ele>
        <time>2013-02-22T13:57:33.000Z</time>
      </trkpt>
      <trkpt lat="44.73928" lon="5.92519">
        <ele>1486</ele>
        <time>2013-02-22T13:57:34.000Z</time>
      </trkpt>
      <trkpt lat="44.73923" lon="5.92515">
        <ele>1486</ele>
        <time>2013-02-22T13:57:35.000Z</time>
      </trkpt>
      <trkpt lat="44.73919" lon="5.92509">
        <ele>1487</ele>
        <time>2013-02-22T13:57:36.000Z</time>
      </trkpt>
      <trkpt lat="44.73915" lon="5.92503">
        <ele>1488</ele>
        <time>2013-02-22T13:57:37.000Z</time>
      </trkpt>
      <trkpt lat="44.73914" lon="5.92497">
        <ele>1486</ele>
        <time>2013-02-22T13:57:38.000Z</time>
      </trkpt>
      <trkpt lat="44.73914" lon="5.92495">
        <ele>1487</ele>
        <time>2013-02-22T13:57:39.000Z</time>
      </trkpt>
      <trkpt lat="44.73912" lon="5.92497">
        <ele>1488</ele>
        <time>2013-02-22T13:57:50.000Z</time>
      </trkpt>
      <trkpt lat="44.73909" lon="5.92497">
        <ele>1488</ele>
        <time>2013-02-22T13:57:51.000Z</time>
      </trkpt>
      <trkpt lat="44.73906" lon="5.92495">
        <ele>1489</ele>
        <time>2013-02-22T13:57:52.000Z</time>
      </trkpt>
      <trkpt lat="44.73902" lon="5.92493">
        <ele>1490</ele>
        <time>2013-02-22T13:57:53.000Z</time>
      </trkpt>
      <trkpt lat="44.73899" lon="5.9249">
        <ele>1488</ele>
        <time>2013-02-22T13:57:54.000Z</time>
      </trkpt>
      <trkpt lat="44.73897" lon="5.92488">
        <ele>1487</ele>
        <time>2013-02-22T13:57:55.000Z</time>
      </trkpt>
      <trkpt lat="44.73895" lon="5.92486">
        <ele>1485</ele>
        <time>2013-02-22T13:57:56.000Z</time>
      </trkpt>
      <trkpt lat="44.73892" lon="5.92483">
        <ele>1485</ele>
        <time>2013-02-22T13:57:57.000Z</time>
      </trkpt>
      <trkpt lat="44.73889" lon="5.9248">
        <ele>1485</ele>
        <time>2013-02-22T13:57:58.000Z</time>
      </trkpt>
      <trkpt lat="44.73886" lon="5.92477">
        <ele>1483</ele>
        <time>2013-02-22T13:57:59.000Z</time>
      </trkpt>
      <trkpt lat="44.73882" lon="5.92473">
        <ele>1481</ele>
        <time>2013-02-22T13:58:00.000Z</time>
      </trkpt>
      <trkpt lat="44.73879" lon="5.92469">
        <ele>1481</ele>
        <time>2013-02-22T13:58:01.000Z</time>
      </trkpt>
      <trkpt lat="44.73876" lon="5.92465">
        <ele>1481</ele>
        <time>2013-02-22T13:58:02.000Z</time>
      </trkpt>
      <trkpt lat="44.73873" lon="5.9246">
        <ele>1482</ele>
        <time>2013-02-22T13:58:03.000Z</time>
      </trkpt>
      <trkpt lat="44.7387" lon="5.92454">
        <ele>1481</ele>
        <time>2013-02-22T13:58:04.000Z</time>
      </trkpt>
      <trkpt lat="44.73868" lon="5.92448">
        <ele>1482</ele>
        <time>2013-02-22T13:58:05.000Z</time>
      </trkpt>
      <trkpt lat="44.73864" lon="5.92442">
        <ele>1481</ele>
        <time>2013-02-22T13:58:06.000Z</time>
      </trkpt>
      <trkpt lat="44.73861" lon="5.92436">
        <ele>1481</ele>
        <time>2013-02-22T13:58:07.000Z</time>
      </trkpt>
      <trkpt lat="44.73858" lon="5.9243">
        <ele>1480</ele>
        <time>2013-02-22T13:58:08.000Z</time>
      </trkpt>
      <trkpt lat="44.73855" lon="5.92425">
        <ele>1480</ele>
        <time>2013-02-22T13:58:09.000Z</time>
      </trkpt>
      <trkpt lat="44.73852" lon="5.9242">
        <ele>1481</ele>
        <time>2013-02-22T13:58:10.000Z</time>
      </trkpt>
      <trkpt lat="44.73848" lon="5.92414">
        <ele>1483</ele>
        <time>2013-02-22T13:58:11.000Z</time>
      </trkpt>
      <trkpt lat="44.73844" lon="5.92409">
        <ele>1479</ele>
        <time>2013-02-22T13:58:12.000Z</time>
      </trkpt>
      <trkpt lat="44.7384" lon="5.92404">
        <ele>1477</ele>
        <time>2013-02-22T13:58:13.000Z</time>
      </trkpt>
      <trkpt lat="44.73836" lon="5.92398">
        <ele>1476</ele>
        <time>2013-02-22T13:58:14.000Z</time>
      </trkpt>
      <trkpt lat="44.73833" lon="5.92394">
        <ele>1477</ele>
        <time>2013-02-22T13:58:15.000Z</time>
      </trkpt>
      <trkpt lat="44.73829" lon="5.92389">
        <ele>1479</ele>
        <time>2013-02-22T13:58:16.000Z</time>
      </trkpt>
      <trkpt lat="44.73825" lon="5.92383">
        <ele>1476</ele>
        <time>2013-02-22T13:58:17.000Z</time>
      </trkpt>
      <trkpt lat="44.7382" lon="5.92377">
        <ele>1473</ele>
        <time>2013-02-22T13:58:18.000Z</time>
      </trkpt>
      <trkpt lat="44.73816" lon="5.92372">
        <ele>1472</ele>
        <time>2013-02-22T13:58:19.000Z</time>
      </trkpt>
      <trkpt lat="44.73811" lon="5.92366">
        <ele>1468</ele>
        <time>2013-02-22T13:58:20.000Z</time>
      </trkpt>
      <trkpt lat="44.73806" lon="5.9236">
        <ele>1467</ele>
        <time>2013-02-22T13:58:21.000Z</time>
      </trkpt>
      <trkpt lat="44.73801" lon="5.92354">
        <ele>1465</ele>
        <time>2013-02-22T13:58:22.000Z</time>
      </trkpt>
      <trkpt lat="44.73797" lon="5.92347">
        <ele>1463</ele>
        <time>2013-02-22T13:58:23.000Z</time>
      </trkpt>
      <trkpt lat="44.73792" lon="5.9234">
        <ele>1463</ele>
        <time>2013-02-22T13:58:24.000Z</time>
      </trkpt>
      <trkpt lat="44.73788" lon="5.92334">
        <ele>1464</ele>
        <time>2013-02-22T13:58:25.000Z</time>
      </trkpt>
      <trkpt lat="44.73784" lon="5.92328">
        <ele>1462</ele>
        <time>2013-02-22T13:58:26.000Z</time>
      </trkpt>
      <trkpt lat="44.73781" lon="5.92323">
        <ele>1461</ele>
        <time>2013-02-22T13:58:27.000Z</time>
      </trkpt>
      <trkpt lat="44.73777" lon="5.92317">
        <ele>1465</ele>
        <time>2013-02-22T13:58:28.000Z</time>
      </trkpt>
      <trkpt lat="44.73773" lon="5.92311">
        <ele>1465</ele>
        <time>2013-02-22T13:58:29.000Z</time>
      </trkpt>
      <trkpt lat="44.7377" lon="5.92306">
        <ele>1466</ele>
        <time>2013-02-22T13:58:30.000Z</time>
      </trkpt>
      <trkpt lat="44.73766" lon="5.92299">
        <ele>1469</ele>
        <time>2013-02-22T13:58:31.000Z</time>
      </trkpt>
      <trkpt lat="44.73762" lon="5.92293">
        <ele>1469</ele>
        <time>2013-02-22T13:58:32.000Z</time>
      </trkpt>
      <trkpt lat="44.73758" lon="5.92286">
        <ele>1469</ele>
        <time>2013-02-22T13:58:33.000Z</time>
      </trkpt>
      <trkpt lat="44.73754" lon="5.9228">
        <ele>1468</ele>
        <time>2013-02-22T13:58:34.000Z</time>
      </trkpt>
      <trkpt lat="44.7375" lon="5.92273">
        <ele>1468</ele>
        <time>2013-02-22T13:58:35.000Z</time>
      </trkpt>
      <trkpt lat="44.73746" lon="5.92266">
        <ele>1468</ele>
        <time>2013-02-22T13:58:36.000Z</time>
      </trkpt>
      <trkpt lat="44.73741" lon="5.92259">
        <ele>1467</ele>
        <time>2013-02-22T13:58:37.000Z</time>
      </trkpt>
      <trkpt lat="44.73736" lon="5.92252">
        <ele>1467</ele>
        <time>2013-02-22T13:58:38.000Z</time>
      </trkpt>
      <trkpt lat="44.73731" lon="5.92245">
        <ele>1466</ele>
        <time>2013-02-22T13:58:39.000Z</time>
      </trkpt>
      <trkpt lat="44.73727" lon="5.92238">
        <ele>1465</ele>
        <time>2013-02-22T13:58:40.000Z</time>
      </trkpt>
      <trkpt lat="44.73722" lon="5.9223">
        <ele>1464</ele>
        <time>2013-02-22T13:58:41.000Z</time>
      </trkpt>
      <trkpt lat="44.73717" lon="5.92224">
        <ele>1463</ele>
        <time>2013-02-22T13:58:42.000Z</time>
      </trkpt>
      <trkpt lat="44.73712" lon="5.92218">
        <ele>1461</ele>
        <time>2013-02-22T13:58:43.000Z</time>
      </trkpt>
      <trkpt lat="44.73708" lon="5.92211">
        <ele>1460</ele>
        <time>2013-02-22T13:58:44.000Z</time>
      </trkpt>
      <trkpt lat="44.73703" lon="5.92205">
        <ele>1459</ele>
        <time>2013-02-22T13:58:45.000Z</time>
      </trkpt>
      <trkpt lat="44.73697" lon="5.92199">
        <ele>1461</ele>
        <time>2013-02-22T13:58:46.000Z</time>
      </trkpt>
      <trkpt lat="44.73692" lon="5.92194">
        <ele>1461</ele>
        <time>2013-02-22T13:58:47.000Z</time>
      </trkpt>
      <trkpt lat="44.73687" lon="5.92188">
        <ele>1462</ele>
        <time>2013-02-22T13:58:48.000Z</time>
      </trkpt>
      <trkpt lat="44.73682" lon="5.92182">
        <ele>1462</ele>
        <time>2013-02-22T13:58:49.000Z</time>
      </trkpt>
      <trkpt lat="44.73676" lon="5.92176">
        <ele>1461</ele>
        <time>2013-02-22T13:58:50.000Z</time>
      </trkpt>
      <trkpt lat="44.73671" lon="5.9217">
        <ele>1460</ele>
        <time>2013-02-22T13:58:51.000Z</time>
      </trkpt>
      <trkpt lat="44.73666" lon="5.92163">
        <ele>1459</ele>
        <time>2013-02-22T13:58:52.000Z</time>
      </trkpt>
      <trkpt lat="44.7366" lon="5.92157">
        <ele>1458</ele>
        <time>2013-02-22T13:58:53.000Z</time>
      </trkpt>
      <trkpt lat="44.73655" lon="5.9215">
        <ele>1456</ele>
        <time>2013-02-22T13:58:54.000Z</time>
      </trkpt>
      <trkpt lat="44.73649" lon="5.92143">
        <ele>1454</ele>
        <time>2013-02-22T13:58:55.000Z</time>
      </trkpt>
      <trkpt lat="44.73644" lon="5.92135">
        <ele>1454</ele>
        <time>2013-02-22T13:58:56.000Z</time>
      </trkpt>
      <trkpt lat="44.73639" lon="5.92128">
        <ele>1452</ele>
        <time>2013-02-22T13:58:57.000Z</time>
      </trkpt>
      <trkpt lat="44.73634" lon="5.92121">
        <ele>1451</ele>
        <time>2013-02-22T13:58:58.000Z</time>
      </trkpt>
      <trkpt lat="44.73629" lon="5.92114">
        <ele>1450</ele>
        <time>2013-02-22T13:58:59.000Z</time>
      </trkpt>
      <trkpt lat="44.73624" lon="5.92107">
        <ele>1450</ele>
        <time>2013-02-22T13:59:00.000Z</time>
      </trkpt>
      <trkpt lat="44.73619" lon="5.92099">
        <ele>1449</ele>
        <time>2013-02-22T13:59:01.000Z</time>
      </trkpt>
      <trkpt lat="44.73613" lon="5.92092">
        <ele>1449</ele>
        <time>2013-02-22T13:59:02.000Z</time>
      </trkpt>
      <trkpt lat="44.73608" lon="5.92084">
        <ele>1448</ele>
        <time>2013-02-22T13:59:03.000Z</time>
      </trkpt>
      <trkpt lat="44.73603" lon="5.92076">
        <ele>1446</ele>
        <time>2013-02-22T13:59:04.000Z</time>
      </trkpt>
      <trkpt lat="44.73598" lon="5.92068">
        <ele>1446</ele>
        <time>2013-02-22T13:59:05.000Z</time>
      </trkpt>
      <trkpt lat="44.73593" lon="5.9206">
        <ele>1445</ele>
        <time>2013-02-22T13:59:06.000Z</time>
      </trkpt>
      <trkpt lat="44.73589" lon="5.9205">
        <ele>1444</ele>
        <time>2013-02-22T13:59:07.000Z</time>
      </trkpt>
      <trkpt lat="44.73585" lon="5.92041">
        <ele>1442</ele>
        <time>2013-02-22T13:59:08.000Z</time>
      </trkpt>
      <trkpt lat="44.73581" lon="5.92032">
        <ele>1441</ele>
        <time>2013-02-22T13:59:09.000Z</time>
      </trkpt>
      <trkpt lat="44.73578" lon="5.92024">
        <ele>1440</ele>
        <time>2013-02-22T13:59:10.000Z</time>
      </trkpt>
      <trkpt lat="44.73574" lon="5.92016">
        <ele>1440</ele>
        <time>2013-02-22T13:59:11.000Z</time>
      </trkpt>
      <trkpt lat="44.73571" lon="5.92008">
        <ele>1440</ele>
        <time>2013-02-22T13:59:12.000Z</time>
      </trkpt>
      <trkpt lat="44.73567" lon="5.92">
        <ele>1439</ele>
        <time>2013-02-22T13:59:13.000Z</time>
      </trkpt>
      <trkpt lat="44.73564" lon="5.91993">
        <ele>1439</ele>
        <time>2013-02-22T13:59:14.000Z</time>
      </trkpt>
      <trkpt lat="44.73561" lon="5.91985">
        <ele>1440</ele>
        <time>2013-02-22T13:59:15.000Z</time>
      </trkpt>
      <trkpt lat="44.73558" lon="5.91977">
        <ele>1439</ele>
        <time>2013-02-22T13:59:16.000Z</time>
      </trkpt>
      <trkpt lat="44.73555" lon="5.91969">
        <ele>1438</ele>
        <time>2013-02-22T13:59:17.000Z</time>
      </trkpt>
      <trkpt lat="44.73553" lon="5.91961">
        <ele>1436</ele>
        <time>2013-02-22T13:59:18.000Z</time>
      </trkpt>
      <trkpt lat="44.7355" lon="5.91952">
        <ele>1435</ele>
        <time>2013-02-22T13:59:19.000Z</time>
      </trkpt>
      <trkpt lat="44.73549" lon="5.91945">
        <ele>1436</ele>
        <time>2013-02-22T13:59:20.000Z</time>
      </trkpt>
      <trkpt lat="44.73547" lon="5.91938">
        <ele>1435</ele>
        <time>2013-02-22T13:59:21.000Z</time>
      </trkpt>
      <trkpt lat="44.73547" lon="5.91932">
        <ele>1435</ele>
        <time>2013-02-22T13:59:22.000Z</time>
      </trkpt>
      <trkpt lat="44.73546" lon="5.91927">
        <ele>1434</ele>
        <time>2013-02-22T13:59:23.000Z</time>
      </trkpt>
      <trkpt lat="44.73546" lon="5.91921">
        <ele>1434</ele>
        <time>2013-02-22T13:59:24.000Z</time>
      </trkpt>
      <trkpt lat="44.73546" lon="5.91914">
        <ele>1433</ele>
        <time>2013-02-22T13:59:25.000Z</time>
      </trkpt>
      <trkpt lat="44.73546" lon="5.91907">
        <ele>1432</ele>
        <time>2013-02-22T13:59:26.000Z</time>
      </trkpt>
      <trkpt lat="44.73547" lon="5.91902">
        <ele>1431</ele>
        <time>2013-02-22T13:59:27.000Z</time>
      </trkpt>
      <trkpt lat="44.73547" lon="5.91895">
        <ele>1431</ele>
        <time>2013-02-22T13:59:28.000Z</time>
      </trkpt>
      <trkpt lat="44.73548" lon="5.91889">
        <ele>1430</ele>
        <time>2013-02-22T13:59:29.000Z</time>
      </trkpt>
      <trkpt lat="44.73549" lon="5.91884">
        <ele>1432</ele>
        <time>2013-02-22T13:59:30.000Z</time>
      </trkpt>
      <trkpt lat="44.73549" lon="5.91879">
        <ele>1433</ele>
        <time>2013-02-22T13:59:31.000Z</time>
      </trkpt>
      <trkpt lat="44.73549" lon="5.91874">
        <ele>1433</ele>
        <time>2013-02-22T13:59:32.000Z</time>
      </trkpt>
      <trkpt lat="44.7355" lon="5.91869">
        <ele>1433</ele>
        <time>2013-02-22T13:59:33.000Z</time>
      </trkpt>
      <trkpt lat="44.7355" lon="5.91865">
        <ele>1433</ele>
        <time>2013-02-22T13:59:34.000Z</time>
      </trkpt>
      <trkpt lat="44.7355" lon="5.91861">
        <ele>1430</ele>
        <time>2013-02-22T13:59:35.000Z</time>
      </trkpt>
      <trkpt lat="44.7355" lon="5.91855">
        <ele>1431</ele>
        <time>2013-02-22T13:59:36.000Z</time>
      </trkpt>
      <trkpt lat="44.7355" lon="5.91848">
        <ele>1433</ele>
        <time>2013-02-22T13:59:37.000Z</time>
      </trkpt>
      <trkpt lat="44.7355" lon="5.91843">
        <ele>1433</ele>
        <time>2013-02-22T13:59:38.000Z</time>
      </trkpt>
      <trkpt lat="44.73549" lon="5.91839">
        <ele>1431</ele>
        <time>2013-02-22T13:59:39.000Z</time>
      </trkpt>
      <trkpt lat="44.73548" lon="5.91834">
        <ele>1431</ele>
        <time>2013-02-22T13:59:40.000Z</time>
      </trkpt>
      <trkpt lat="44.73548" lon="5.91829">
        <ele>1434</ele>
        <time>2013-02-22T13:59:41.000Z</time>
      </trkpt>
      <trkpt lat="44.73546" lon="5.91823">
        <ele>1434</ele>
        <time>2013-02-22T13:59:42.000Z</time>
      </trkpt>
      <trkpt lat="44.73545" lon="5.91817">
        <ele>1434</ele>
        <time>2013-02-22T13:59:43.000Z</time>
      </trkpt>
      <trkpt lat="44.73543" lon="5.9181">
        <ele>1432</ele>
        <time>2013-02-22T13:59:44.000Z</time>
      </trkpt>
      <trkpt lat="44.73541" lon="5.91804">
        <ele>1429</ele>
        <time>2013-02-22T13:59:45.000Z</time>
      </trkpt>
      <trkpt lat="44.7354" lon="5.91798">
        <ele>1432</ele>
        <time>2013-02-22T13:59:46.000Z</time>
      </trkpt>
      <trkpt lat="44.73538" lon="5.91792">
        <ele>1432</ele>
        <time>2013-02-22T13:59:47.000Z</time>
      </trkpt>
      <trkpt lat="44.73537" lon="5.91786">
        <ele>1431</ele>
        <time>2013-02-22T13:59:48.000Z</time>
      </trkpt>
      <trkpt lat="44.73535" lon="5.9178">
        <ele>1429</ele>
        <time>2013-02-22T13:59:49.000Z</time>
      </trkpt>
      <trkpt lat="44.73535" lon="5.91773">
        <ele>1428</ele>
        <time>2013-02-22T13:59:50.000Z</time>
      </trkpt>
      <trkpt lat="44.73535" lon="5.91766">
        <ele>1429</ele>
        <time>2013-02-22T13:59:51.000Z</time>
      </trkpt>
      <trkpt lat="44.73536" lon="5.91758">
        <ele>1427</ele>
        <time>2013-02-22T13:59:52.000Z</time>
      </trkpt>
      <trkpt lat="44.73538" lon="5.9175">
        <ele>1428</ele>
        <time>2013-02-22T13:59:53.000Z</time>
      </trkpt>
      <trkpt lat="44.7354" lon="5.91741">
        <ele>1428</ele>
        <time>2013-02-22T13:59:54.000Z</time>
      </trkpt>
      <trkpt lat="44.73542" lon="5.91732">
        <ele>1429</ele>
        <time>2013-02-22T13:59:55.000Z</time>
      </trkpt>
      <trkpt lat="44.73542" lon="5.91724">
        <ele>1427</ele>
        <time>2013-02-22T13:59:56.000Z</time>
      </trkpt>
      <trkpt lat="44.73543" lon="5.91713">
        <ele>1427</ele>
        <time>2013-02-22T13:59:57.000Z</time>
      </trkpt>
      <trkpt lat="44.73542" lon="5.91703">
        <ele>1425</ele>
        <time>2013-02-22T13:59:58.000Z</time>
      </trkpt>
      <trkpt lat="44.7354" lon="5.91693">
        <ele>1426</ele>
        <time>2013-02-22T13:59:59.000Z</time>
      </trkpt>
      <trkpt lat="44.73537" lon="5.91686">
        <ele>1424</ele>
        <time>2013-02-22T14:00:00.000Z</time>
      </trkpt>
      <trkpt lat="44.73534" lon="5.9168">
        <ele>1424</ele>
        <time>2013-02-22T14:00:01.000Z</time>
      </trkpt>
      <trkpt lat="44.73531" lon="5.91674">
        <ele>1424</ele>
        <time>2013-02-22T14:00:02.000Z</time>
      </trkpt>
      <trkpt lat="44.73527" lon="5.91667">
        <ele>1423</ele>
        <time>2013-02-22T14:00:03.000Z</time>
      </trkpt>
      <trkpt lat="44.73524" lon="5.91662">
        <ele>1422</ele>
        <time>2013-02-22T14:00:04.000Z</time>
      </trkpt>
      <trkpt lat="44.7352" lon="5.91655">
        <ele>1420</ele>
        <time>2013-02-22T14:00:05.000Z</time>
      </trkpt>
      <trkpt lat="44.73518" lon="5.91649">
        <ele>1418</ele>
        <time>2013-02-22T14:00:06.000Z</time>
      </trkpt>
      <trkpt lat="44.73516" lon="5.91642">
        <ele>1417</ele>
        <time>2013-02-22T14:00:07.000Z</time>
      </trkpt>
      <trkpt lat="44.73516" lon="5.91635">
        <ele>1417</ele>
        <time>2013-02-22T14:00:08.000Z</time>
      </trkpt>
      <trkpt lat="44.73516" lon="5.91628">
        <ele>1419</ele>
        <time>2013-02-22T14:00:09.000Z</time>
      </trkpt>
      <trkpt lat="44.73516" lon="5.91622">
        <ele>1417</ele>
        <time>2013-02-22T14:00:10.000Z</time>
      </trkpt>
      <trkpt lat="44.73516" lon="5.91615">
        <ele>1416</ele>
        <time>2013-02-22T14:00:11.000Z</time>
      </trkpt>
      <trkpt lat="44.73515" lon="5.91607">
        <ele>1413</ele>
        <time>2013-02-22T14:00:12.000Z</time>
      </trkpt>
      <trkpt lat="44.73515" lon="5.916">
        <ele>1413</ele>
        <time>2013-02-22T14:00:13.000Z</time>
      </trkpt>
      <trkpt lat="44.73515" lon="5.91592">
        <ele>1412</ele>
        <time>2013-02-22T14:00:14.000Z</time>
      </trkpt>
      <trkpt lat="44.73514" lon="5.91585">
        <ele>1414</ele>
        <time>2013-02-22T14:00:15.000Z</time>
      </trkpt>
      <trkpt lat="44.73514" lon="5.91577">
        <ele>1414</ele>
        <time>2013-02-22T14:00:16.000Z</time>
      </trkpt>
      <trkpt lat="44.73513" lon="5.91569">
        <ele>1412</ele>
        <time>2013-02-22T14:00:17.000Z</time>
      </trkpt>
      <trkpt lat="44.73513" lon="5.91561">
        <ele>1411</ele>
        <time>2013-02-22T14:00:18.000Z</time>
      </trkpt>
      <trkpt lat="44.73513" lon="5.91553">
        <ele>1411</ele>
        <time>2013-02-22T14:00:19.000Z</time>
      </trkpt>
      <trkpt lat="44.73515" lon="5.91544">
        <ele>1410</ele>
        <time>2013-02-22T14:00:20.000Z</time>
      </trkpt>
      <trkpt lat="44.73516" lon="5.91538">
        <ele>1410</ele>
        <time>2013-02-22T14:00:21.000Z</time>
      </trkpt>
      <trkpt lat="44.73518" lon="5.91531">
        <ele>1410</ele>
        <time>2013-02-22T14:00:22.000Z</time>
      </trkpt>
      <trkpt lat="44.73519" lon="5.91525">
        <ele>1408</ele>
        <time>2013-02-22T14:00:23.000Z</time>
      </trkpt>
      <trkpt lat="44.73521" lon="5.91518">
        <ele>1408</ele>
        <time>2013-02-22T14:00:24.000Z</time>
      </trkpt>
      <trkpt lat="44.73523" lon="5.91512">
        <ele>1405</ele>
        <time>2013-02-22T14:00:25.000Z</time>
      </trkpt>
      <trkpt lat="44.73525" lon="5.91505">
        <ele>1406</ele>
        <time>2013-02-22T14:00:26.000Z</time>
      </trkpt>
      <trkpt lat="44.73527" lon="5.91498">
        <ele>1406</ele>
        <time>2013-02-22T14:00:27.000Z</time>
      </trkpt>
      <trkpt lat="44.7353" lon="5.91491">
        <ele>1407</ele>
        <time>2013-02-22T14:00:28.000Z</time>
      </trkpt>
      <trkpt lat="44.73533" lon="5.91483">
        <ele>1408</ele>
        <time>2013-02-22T14:00:29.000Z</time>
      </trkpt>
      <trkpt lat="44.73536" lon="5.91475">
        <ele>1407</ele>
        <time>2013-02-22T14:00:30.000Z</time>
      </trkpt>
      <trkpt lat="44.7354" lon="5.91467">
        <ele>1405</ele>
        <time>2013-02-22T14:00:31.000Z</time>
      </trkpt>
      <trkpt lat="44.73543" lon="5.91459">
        <ele>1405</ele>
        <time>2013-02-22T14:00:32.000Z</time>
      </trkpt>
      <trkpt lat="44.73547" lon="5.9145">
        <ele>1404</ele>
        <time>2013-02-22T14:00:33.000Z</time>
      </trkpt>
      <trkpt lat="44.73551" lon="5.91442">
        <ele>1402</ele>
        <time>2013-02-22T14:00:34.000Z</time>
      </trkpt>
      <trkpt lat="44.73556" lon="5.91435">
        <ele>1401</ele>
        <time>2013-02-22T14:00:35.000Z</time>
      </trkpt>
      <trkpt lat="44.7356" lon="5.91429">
        <ele>1401</ele>
        <time>2013-02-22T14:00:36.000Z</time>
      </trkpt>
      <trkpt lat="44.73565" lon="5.91424">
        <ele>1400</ele>
        <time>2013-02-22T14:00:37.000Z</time>
      </trkpt>
      <trkpt lat="44.73569" lon="5.9142">
        <ele>1398</ele>
        <time>2013-02-22T14:00:38.000Z</time>
      </trkpt>
      <trkpt lat="44.73574" lon="5.91415">
        <ele>1397</ele>
        <time>2013-02-22T14:00:39.000Z</time>
      </trkpt>
      <trkpt lat="44.73577" lon="5.91412">
        <ele>1398</ele>
        <time>2013-02-22T14:00:40.000Z</time>
      </trkpt>
      <trkpt lat="44.73581" lon="5.91409">
        <ele>1397</ele>
        <time>2013-02-22T14:00:41.000Z</time>
      </trkpt>
      <trkpt lat="44.73585" lon="5.91405">
        <ele>1399</ele>
        <time>2013-02-22T14:00:42.000Z</time>
      </trkpt>
      <trkpt lat="44.73588" lon="5.91403">
        <ele>1398</ele>
        <time>2013-02-22T14:00:43.000Z</time>
      </trkpt>
      <trkpt lat="44.7359" lon="5.91402">
        <ele>1398</ele>
        <time>2013-02-22T14:00:44.000Z</time>
      </trkpt>
      <trkpt lat="44.73594" lon="5.91399">
        <ele>1400</ele>
        <time>2013-02-22T14:01:09.000Z</time>
      </trkpt>
      <trkpt lat="44.736" lon="5.91401">
        <ele>1398</ele>
        <time>2013-02-22T14:01:10.000Z</time>
      </trkpt>
      <trkpt lat="44.73603" lon="5.91397">
        <ele>1398</ele>
        <time>2013-02-22T14:01:13.000Z</time>
      </trkpt>
      <trkpt lat="44.73606" lon="5.91395">
        <ele>1398</ele>
        <time>2013-02-22T14:01:14.000Z</time>
      </trkpt>
      <trkpt lat="44.73609" lon="5.91391">
        <ele>1396</ele>
        <time>2013-02-22T14:01:19.000Z</time>
      </trkpt>
      <trkpt lat="44.73614" lon="5.9139">
        <ele>1400</ele>
        <time>2013-02-22T14:01:20.000Z</time>
      </trkpt>
      <trkpt lat="44.73617" lon="5.91387">
        <ele>1402</ele>
        <time>2013-02-22T14:01:23.000Z</time>
      </trkpt>
      <trkpt lat="44.73618" lon="5.91386">
        <ele>1400</ele>
        <time>2013-02-22T14:01:24.000Z</time>
      </trkpt>
      <trkpt lat="44.73621" lon="5.91384">
        <ele>1402</ele>
        <time>2013-02-22T14:01:26.000Z</time>
      </trkpt>
      <trkpt lat="44.73623" lon="5.91382">
        <ele>1403</ele>
        <time>2013-02-22T14:01:27.000Z</time>
      </trkpt>
      <trkpt lat="44.73625" lon="5.91381">
        <ele>1405</ele>
        <time>2013-02-22T14:01:28.000Z</time>
      </trkpt>
      <trkpt lat="44.73628" lon="5.91379">
        <ele>1405</ele>
        <time>2013-02-22T14:01:29.000Z</time>
      </trkpt>
      <trkpt lat="44.7363" lon="5.91378">
        <ele>1404</ele>
        <time>2013-02-22T14:01:30.000Z</time>
      </trkpt>
      <trkpt lat="44.73632" lon="5.91375">
        <ele>1404</ele>
        <time>2013-02-22T14:01:31.000Z</time>
      </trkpt>
      <trkpt lat="44.73633" lon="5.91373">
        <ele>1403</ele>
        <time>2013-02-22T14:01:32.000Z</time>
      </trkpt>
      <trkpt lat="44.73635" lon="5.9137">
        <ele>1403</ele>
        <time>2013-02-22T14:01:33.000Z</time>
      </trkpt>
      <trkpt lat="44.73636" lon="5.91367">
        <ele>1402</ele>
        <time>2013-02-22T14:01:34.000Z</time>
      </trkpt>
      <trkpt lat="44.73637" lon="5.91365">
        <ele>1401</ele>
        <time>2013-02-22T14:01:35.000Z</time>
      </trkpt>
      <trkpt lat="44.73638" lon="5.91361">
        <ele>1401</ele>
        <time>2013-02-22T14:01:36.000Z</time>
      </trkpt>
      <trkpt lat="44.73639" lon="5.91358">
        <ele>1401</ele>
        <time>2013-02-22T14:01:37.000Z</time>
      </trkpt>
      <trkpt lat="44.7364" lon="5.91354">
        <ele>1401</ele>
        <time>2013-02-22T14:01:38.000Z</time>
      </trkpt>
      <trkpt lat="44.73641" lon="5.91351">
        <ele>1401</ele>
        <time>2013-02-22T14:01:39.000Z</time>
      </trkpt>
      <trkpt lat="44.73642" lon="5.91347">
        <ele>1402</ele>
        <time>2013-02-22T14:01:41.000Z</time>
      </trkpt>
      <trkpt lat="44.73643" lon="5.91345">
        <ele>1402</ele>
        <time>2013-02-22T14:01:42.000Z</time>
      </trkpt>
      <trkpt lat="44.73645" lon="5.9134">
        <ele>1400</ele>
        <time>2013-02-22T14:02:12.000Z</time>
      </trkpt>
      <trkpt lat="44.73652" lon="5.91336">
        <ele>1390</ele>
        <time>2013-02-22T14:02:13.000Z</time>
      </trkpt>
      <trkpt lat="44.73652" lon="5.91336">
        <ele>1390</ele>
        <time>2013-02-22T14:02:36.000Z</time>
      </trkpt>
      <trkpt lat="44.73656" lon="5.91344">
        <ele>1401</ele>
        <time>2013-02-22T14:02:37.000Z</time>
      </trkpt>
      <trkpt lat="44.73656" lon="5.91344">
        <ele>1401</ele>
        <time>2013-02-22T14:03:03.000Z</time>
      </trkpt>
      <trkpt lat="44.73664" lon="5.91345">
        <ele>1409</ele>
        <time>2013-02-22T14:03:04.000Z</time>
      </trkpt>
      <trkpt lat="44.73664" lon="5.91345">
        <ele>1409</ele>
        <time>2013-02-22T14:03:21.000Z</time>
      </trkpt>
      <trkpt lat="44.7367" lon="5.91341">
        <ele>1398</ele>
        <time>2013-02-22T14:03:22.000Z</time>
      </trkpt>
      <trkpt lat="44.7367" lon="5.91341">
        <ele>1398</ele>
        <time>2013-02-22T14:03:35.000Z</time>
      </trkpt>
      <trkpt lat="44.7367" lon="5.91334">
        <ele>1405</ele>
        <time>2013-02-22T14:03:36.000Z</time>
      </trkpt>
      <trkpt lat="44.7367" lon="5.91339">
        <ele>1403</ele>
        <time>2013-02-22T14:04:19.000Z</time>
      </trkpt>
      <trkpt lat="44.7367" lon="5.9134">
        <ele>1404</ele>
        <time>2013-02-22T14:04:20.000Z</time>
      </trkpt>
      <trkpt lat="44.73667" lon="5.91337">
        <ele>1406</ele>
        <time>2013-02-22T14:04:49.000Z</time>
      </trkpt>
      <trkpt lat="44.73667" lon="5.91336">
        <ele>1410</ele>
        <time>2013-02-22T14:04:50.000Z</time>
      </trkpt>
      <trkpt lat="44.73664" lon="5.91331">
        <ele>1412</ele>
        <time>2013-02-22T14:05:00.000Z</time>
      </trkpt>
      <trkpt lat="44.73664" lon="5.9133">
        <ele>1416</ele>
        <time>2013-02-22T14:05:01.000Z</time>
      </trkpt>
      <trkpt lat="44.73664" lon="5.91324">
        <ele>1427</ele>
        <time>2013-02-22T14:05:12.000Z</time>
      </trkpt>
      <trkpt lat="44.73664" lon="5.91324">
        <ele>1428</ele>
        <time>2013-02-22T14:05:13.000Z</time>
      </trkpt>
      <trkpt lat="44.73661" lon="5.91319">
        <ele>1430</ele>
        <time>2013-02-22T14:05:24.000Z</time>
      </trkpt>
      <trkpt lat="44.73661" lon="5.91319">
        <ele>1430</ele>
        <time>2013-02-22T14:05:25.000Z</time>
      </trkpt>
      <trkpt lat="44.73662" lon="5.91321">
        <ele>1426</ele>
        <time>2013-02-22T14:05:42.000Z</time>
      </trkpt>
      <trkpt lat="44.73678" lon="5.91336">
        <ele>1406</ele>
        <time>2013-02-22T14:45:02.000Z</time>
      </trkpt>
      <trkpt lat="44.73674" lon="5.91339">
        <ele>1400</ele>
        <time>2013-02-22T14:45:11.000Z</time>
      </trkpt>
      <trkpt lat="44.73674" lon="5.9134">
        <ele>1401</ele>
        <time>2013-02-22T14:45:12.000Z</time>
      </trkpt>
      <trkpt lat="44.73672" lon="5.91335">
        <ele>1397</ele>
        <time>2013-02-22T14:45:18.000Z</time>
      </trkpt>
      <trkpt lat="44.73672" lon="5.91333">
        <ele>1394</ele>
        <time>2013-02-22T14:45:19.000Z</time>
      </trkpt>
      <trkpt lat="44.7367" lon="5.91328">
        <ele>1407</ele>
        <time>2013-02-22T14:45:54.000Z</time>
      </trkpt>
      <trkpt lat="44.73669" lon="5.91327">
        <ele>1408</ele>
        <time>2013-02-22T14:45:55.000Z</time>
      </trkpt>
      <trkpt lat="44.73669" lon="5.91321">
        <ele>1410</ele>
        <time>2013-02-22T14:45:58.000Z</time>
      </trkpt>
      <trkpt lat="44.73668" lon="5.91319">
        <ele>1412</ele>
        <time>2013-02-22T14:45:59.000Z</time>
      </trkpt>
      <trkpt lat="44.73668" lon="5.91313">
        <ele>1407</ele>
        <time>2013-02-22T14:46:04.000Z</time>
      </trkpt>
      <trkpt lat="44.73668" lon="5.91311">
        <ele>1407</ele>
        <time>2013-02-22T14:46:05.000Z</time>
      </trkpt>
      <trkpt lat="44.73666" lon="5.91306">
        <ele>1407</ele>
        <time>2013-02-22T14:46:12.000Z</time>
      </trkpt>
      <trkpt lat="44.73666" lon="5.91305">
        <ele>1407</ele>
        <time>2013-02-22T14:46:13.000Z</time>
      </trkpt>
      <trkpt lat="44.73664" lon="5.913">
        <ele>1407</ele>
        <time>2013-02-22T14:46:20.000Z</time>
      </trkpt>
      <trkpt lat="44.73663" lon="5.913">
        <ele>1406</ele>
        <time>2013-02-22T14:46:21.000Z</time>
      </trkpt>
      <trkpt lat="44.7366" lon="5.91304">
        <ele>1400</ele>
        <time>2013-02-22T14:46:27.000Z</time>
      </trkpt>
      <trkpt lat="44.7366" lon="5.91305">
        <ele>1400</ele>
        <time>2013-02-22T14:46:28.000Z</time>
      </trkpt>
      <trkpt lat="44.73658" lon="5.91311">
        <ele>1397</ele>
        <time>2013-02-22T14:46:31.000Z</time>
      </trkpt>
      <trkpt lat="44.73657" lon="5.91313">
        <ele>1398</ele>
        <time>2013-02-22T14:46:32.000Z</time>
      </trkpt>
      <trkpt lat="44.73656" lon="5.91317">
        <ele>1400</ele>
        <time>2013-02-22T14:46:36.000Z</time>
      </trkpt>
      <trkpt lat="44.73655" lon="5.91318">
        <ele>1397</ele>
        <time>2013-02-22T14:46:37.000Z</time>
      </trkpt>
      <trkpt lat="44.73653" lon="5.91323">
        <ele>1395</ele>
        <time>2013-02-22T14:46:41.000Z</time>
      </trkpt>
      <trkpt lat="44.73653" lon="5.91324">
        <ele>1395</ele>
        <time>2013-02-22T14:46:42.000Z</time>
      </trkpt>
      <trkpt lat="44.7365" lon="5.91329">
        <ele>1398</ele>
        <time>2013-02-22T14:46:45.000Z</time>
      </trkpt>
      <trkpt lat="44.7365" lon="5.91331">
        <ele>1399</ele>
        <time>2013-02-22T14:46:46.000Z</time>
      </trkpt>
      <trkpt lat="44.73646" lon="5.91328">
        <ele>1404</ele>
        <time>2013-02-22T14:47:18.000Z</time>
      </trkpt>
      <trkpt lat="44.73646" lon="5.91328">
        <ele>1406</ele>
        <time>2013-02-22T14:47:19.000Z</time>
      </trkpt>
      <trkpt lat="44.73647" lon="5.91322">
        <ele>1405</ele>
        <time>2013-02-22T14:47:23.000Z</time>
      </trkpt>
      <trkpt lat="44.73648" lon="5.9132">
        <ele>1403</ele>
        <time>2013-02-22T14:47:24.000Z</time>
      </trkpt>
      <trkpt lat="44.7365" lon="5.91316">
        <ele>1401</ele>
        <time>2013-02-22T14:47:26.000Z</time>
      </trkpt>
      <trkpt lat="44.73651" lon="5.91314">
        <ele>1400</ele>
        <time>2013-02-22T14:47:27.000Z</time>
      </trkpt>
      <trkpt lat="44.73653" lon="5.91311">
        <ele>1400</ele>
        <time>2013-02-22T14:47:28.000Z</time>
      </trkpt>
      <trkpt lat="44.73654" lon="5.91308">
        <ele>1398</ele>
        <time>2013-02-22T14:47:29.000Z</time>
      </trkpt>
      <trkpt lat="44.73656" lon="5.91305">
        <ele>1398</ele>
        <time>2013-02-22T14:47:30.000Z</time>
      </trkpt>
      <trkpt lat="44.73658" lon="5.91301">
        <ele>1398</ele>
        <time>2013-02-22T14:47:31.000Z</time>
      </trkpt>
      <trkpt lat="44.7366" lon="5.91297">
        <ele>1398</ele>
        <time>2013-02-22T14:47:32.000Z</time>
      </trkpt>
      <trkpt lat="44.73662" lon="5.91293">
        <ele>1398</ele>
        <time>2013-02-22T14:47:33.000Z</time>
      </trkpt>
      <trkpt lat="44.73663" lon="5.9129">
        <ele>1398</ele>
        <time>2013-02-22T14:47:34.000Z</time>
      </trkpt>
      <trkpt lat="44.73665" lon="5.91286">
        <ele>1399</ele>
        <time>2013-02-22T14:47:35.000Z</time>
      </trkpt>
      <trkpt lat="44.73666" lon="5.91283">
        <ele>1399</ele>
        <time>2013-02-22T14:47:36.000Z</time>
      </trkpt>
      <trkpt lat="44.73668" lon="5.9128">
        <ele>1398</ele>
        <time>2013-02-22T14:47:37.000Z</time>
      </trkpt>
      <trkpt lat="44.73669" lon="5.91277">
        <ele>1397</ele>
        <time>2013-02-22T14:47:38.000Z</time>
      </trkpt>
      <trkpt lat="44.7367" lon="5.91274">
        <ele>1397</ele>
        <time>2013-02-22T14:47:39.000Z</time>
      </trkpt>
      <trkpt lat="44.73672" lon="5.91271">
        <ele>1398</ele>
        <time>2013-02-22T14:47:40.000Z</time>
      </trkpt>
      <trkpt lat="44.73673" lon="5.91268">
        <ele>1398</ele>
        <time>2013-02-22T14:47:41.000Z</time>
      </trkpt>
      <trkpt lat="44.73674" lon="5.91265">
        <ele>1396</ele>
        <time>2013-02-22T14:47:42.000Z</time>
      </trkpt>
      <trkpt lat="44.73675" lon="5.91262">
        <ele>1396</ele>
        <time>2013-02-22T14:47:43.000Z</time>
      </trkpt>
      <trkpt lat="44.73676" lon="5.91259">
        <ele>1397</ele>
        <time>2013-02-22T14:47:44.000Z</time>
      </trkpt>
      <trkpt lat="44.73677" lon="5.91256">
        <ele>1397</ele>
        <time>2013-02-22T14:47:45.000Z</time>
      </trkpt>
      <trkpt lat="44.73679" lon="5.9125">
        <ele>1396</ele>
        <time>2013-02-22T14:47:47.000Z</time>
      </trkpt>
      <trkpt lat="44.73679" lon="5.91248">
        <ele>1395</ele>
        <time>2013-02-22T14:47:48.000Z</time>
      </trkpt>
      <trkpt lat="44.7368" lon="5.91243">
        <ele>1395</ele>
        <time>2013-02-22T14:47:50.000Z</time>
      </trkpt>
      <trkpt lat="44.7368" lon="5.9124">
        <ele>1394</ele>
        <time>2013-02-22T14:47:51.000Z</time>
      </trkpt>
      <trkpt lat="44.7368" lon="5.91235">
        <ele>1394</ele>
        <time>2013-02-22T14:47:53.000Z</time>
      </trkpt>
      <trkpt lat="44.7368" lon="5.91233">
        <ele>1395</ele>
        <time>2013-02-22T14:47:54.000Z</time>
      </trkpt>
      <trkpt lat="44.73679" lon="5.91228">
        <ele>1395</ele>
        <time>2013-02-22T14:47:56.000Z</time>
      </trkpt>
      <trkpt lat="44.73679" lon="5.91226">
        <ele>1397</ele>
        <time>2013-02-22T14:47:57.000Z</time>
      </trkpt>
      <trkpt lat="44.73677" lon="5.9122">
        <ele>1398</ele>
        <time>2013-02-22T14:48:00.000Z</time>
      </trkpt>
      <trkpt lat="44.73676" lon="5.91219">
        <ele>1398</ele>
        <time>2013-02-22T14:48:01.000Z</time>
      </trkpt>
      <trkpt lat="44.73675" lon="5.91213">
        <ele>1398</ele>
        <time>2013-02-22T14:48:04.000Z</time>
      </trkpt>
      <trkpt lat="44.73674" lon="5.91211">
        <ele>1399</ele>
        <time>2013-02-22T14:48:05.000Z</time>
      </trkpt>
      <trkpt lat="44.73673" lon="5.91207">
        <ele>1402</ele>
        <time>2013-02-22T14:48:08.000Z</time>
      </trkpt>
      <trkpt lat="44.73672" lon="5.91205">
        <ele>1400</ele>
        <time>2013-02-22T14:48:09.000Z</time>
      </trkpt>
      <trkpt lat="44.73671" lon="5.91199">
        <ele>1402</ele>
        <time>2013-02-22T14:48:13.000Z</time>
      </trkpt>
      <trkpt lat="44.73671" lon="5.91198">
        <ele>1403</ele>
        <time>2013-02-22T14:48:14.000Z</time>
      </trkpt>
      <trkpt lat="44.7367" lon="5.91192">
        <ele>1402</ele>
        <time>2013-02-22T14:48:19.000Z</time>
      </trkpt>
      <trkpt lat="44.7367" lon="5.9119">
        <ele>1401</ele>
        <time>2013-02-22T14:48:20.000Z</time>
      </trkpt>
      <trkpt lat="44.73669" lon="5.91184">
        <ele>1403</ele>
        <time>2013-02-22T14:48:24.000Z</time>
      </trkpt>
      <trkpt lat="44.73669" lon="5.91183">
        <ele>1401</ele>
        <time>2013-02-22T14:48:25.000Z</time>
      </trkpt>
      <trkpt lat="44.7367" lon="5.91177">
        <ele>1401</ele>
        <time>2013-02-22T14:48:31.000Z</time>
      </trkpt>
      <trkpt lat="44.7367" lon="5.91176">
        <ele>1401</ele>
        <time>2013-02-22T14:48:32.000Z</time>
      </trkpt>
      <trkpt lat="44.7367" lon="5.9117">
        <ele>1405</ele>
        <time>2013-02-22T14:48:37.000Z</time>
      </trkpt>
      <trkpt lat="44.7367" lon="5.91168">
        <ele>1404</ele>
        <time>2013-02-22T14:48:38.000Z</time>
      </trkpt>
      <trkpt lat="44.73668" lon="5.91163">
        <ele>1400</ele>
        <time>2013-02-22T14:48:44.000Z</time>
      </trkpt>
      <trkpt lat="44.73667" lon="5.91162">
        <ele>1399</ele>
        <time>2013-02-22T14:48:45.000Z</time>
      </trkpt>
      <trkpt lat="44.73664" lon="5.91158">
        <ele>1400</ele>
        <time>2013-02-22T14:48:47.000Z</time>
      </trkpt>
      <trkpt lat="44.73663" lon="5.91156">
        <ele>1399</ele>
        <time>2013-02-22T14:48:48.000Z</time>
      </trkpt>
      <trkpt lat="44.73661" lon="5.91152">
        <ele>1401</ele>
        <time>2013-02-22T14:48:51.000Z</time>
      </trkpt>
      <trkpt lat="44.7366" lon="5.91151">
        <ele>1401</ele>
        <time>2013-02-22T14:48:52.000Z</time>
      </trkpt>
      <trkpt lat="44.73658" lon="5.91148">
        <ele>1403</ele>
        <time>2013-02-22T14:48:54.000Z</time>
      </trkpt>
      <trkpt lat="44.73657" lon="5.91146">
        <ele>1403</ele>
        <time>2013-02-22T14:48:55.000Z</time>
      </trkpt>
      <trkpt lat="44.73654" lon="5.91142">
        <ele>1402</ele>
        <time>2013-02-22T14:48:59.000Z</time>
      </trkpt>
      <trkpt lat="44.73653" lon="5.91141">
        <ele>1402</ele>
        <time>2013-02-22T14:49:00.000Z</time>
      </trkpt>
      <trkpt lat="44.73649" lon="5.91138">
        <ele>1400</ele>
        <time>2013-02-22T14:49:04.000Z</time>
      </trkpt>
      <trkpt lat="44.73649" lon="5.91137">
        <ele>1399</ele>
        <time>2013-02-22T14:49:05.000Z</time>
      </trkpt>
      <trkpt lat="44.73646" lon="5.91133">
        <ele>1400</ele>
        <time>2013-02-22T14:49:07.000Z</time>
      </trkpt>
      <trkpt lat="44.73645" lon="5.91131">
        <ele>1401</ele>
        <time>2013-02-22T14:49:08.000Z</time>
      </trkpt>
      <trkpt lat="44.73642" lon="5.91127">
        <ele>1401</ele>
        <time>2013-02-22T14:49:10.000Z</time>
      </trkpt>
      <trkpt lat="44.73641" lon="5.91126">
        <ele>1402</ele>
        <time>2013-02-22T14:49:11.000Z</time>
      </trkpt>
      <trkpt lat="44.73638" lon="5.91122">
        <ele>1400</ele>
        <time>2013-02-22T14:49:16.000Z</time>
      </trkpt>
      <trkpt lat="44.73637" lon="5.91121">
        <ele>1400</ele>
        <time>2013-02-22T14:49:17.000Z</time>
      </trkpt>
      <trkpt lat="44.73634" lon="5.91116">
        <ele>1403</ele>
        <time>2013-02-22T14:49:20.000Z</time>
      </trkpt>
      <trkpt lat="44.73633" lon="5.91115">
        <ele>1402</ele>
        <time>2013-02-22T14:49:21.000Z</time>
      </trkpt>
      <trkpt lat="44.73631" lon="5.9111">
        <ele>1408</ele>
        <time>2013-02-22T14:49:24.000Z</time>
      </trkpt>
      <trkpt lat="44.73631" lon="5.91109">
        <ele>1405</ele>
        <time>2013-02-22T14:49:25.000Z</time>
      </trkpt>
      <trkpt lat="44.73628" lon="5.91105">
        <ele>1403</ele>
        <time>2013-02-22T14:49:27.000Z</time>
      </trkpt>
      <trkpt lat="44.73627" lon="5.91103">
        <ele>1403</ele>
        <time>2013-02-22T14:49:28.000Z</time>
      </trkpt>
      <trkpt lat="44.73626" lon="5.91099">
        <ele>1404</ele>
        <time>2013-02-22T14:49:30.000Z</time>
      </trkpt>
      <trkpt lat="44.73624" lon="5.91097">
        <ele>1405</ele>
        <time>2013-02-22T14:49:31.000Z</time>
      </trkpt>
      <trkpt lat="44.73622" lon="5.91093">
        <ele>1406</ele>
        <time>2013-02-22T14:49:33.000Z</time>
      </trkpt>
      <trkpt lat="44.73622" lon="5.91091">
        <ele>1406</ele>
        <time>2013-02-22T14:49:34.000Z</time>
      </trkpt>
      <trkpt lat="44.73619" lon="5.91087">
        <ele>1406</ele>
        <time>2013-02-22T14:49:37.000Z</time>
      </trkpt>
      <trkpt lat="44.73618" lon="5.91085">
        <ele>1405</ele>
        <time>2013-02-22T14:49:38.000Z</time>
      </trkpt>
      <trkpt lat="44.73616" lon="5.91082">
        <ele>1404</ele>
        <time>2013-02-22T14:49:40.000Z</time>
      </trkpt>
      <trkpt lat="44.73614" lon="5.91081">
        <ele>1401</ele>
        <time>2013-02-22T14:49:41.000Z</time>
      </trkpt>
      <trkpt lat="44.73612" lon="5.91077">
        <ele>1406</ele>
        <time>2013-02-22T14:49:43.000Z</time>
      </trkpt>
      <trkpt lat="44.7361" lon="5.91076">
        <ele>1404</ele>
        <time>2013-02-22T14:49:44.000Z</time>
      </trkpt>
      <trkpt lat="44.73607" lon="5.91072">
        <ele>1405</ele>
        <time>2013-02-22T14:49:46.000Z</time>
      </trkpt>
      <trkpt lat="44.73606" lon="5.9107">
        <ele>1405</ele>
        <time>2013-02-22T14:49:47.000Z</time>
      </trkpt>
      <trkpt lat="44.73602" lon="5.91067">
        <ele>1405</ele>
        <time>2013-02-22T14:49:50.000Z</time>
      </trkpt>
      <trkpt lat="44.73601" lon="5.91066">
        <ele>1405</ele>
        <time>2013-02-22T14:49:51.000Z</time>
      </trkpt>
      <trkpt lat="44.73597" lon="5.91063">
        <ele>1407</ele>
        <time>2013-02-22T14:49:55.000Z</time>
      </trkpt>
      <trkpt lat="44.73597" lon="5.91062">
        <ele>1405</ele>
        <time>2013-02-22T14:49:56.000Z</time>
      </trkpt>
      <trkpt lat="44.73594" lon="5.91057">
        <ele>1408</ele>
        <time>2013-02-22T14:49:59.000Z</time>
      </trkpt>
      <trkpt lat="44.73594" lon="5.91056">
        <ele>1406</ele>
        <time>2013-02-22T14:50:00.000Z</time>
      </trkpt>
      <trkpt lat="44.73592" lon="5.9105">
        <ele>1405</ele>
        <time>2013-02-22T14:50:03.000Z</time>
      </trkpt>
      <trkpt lat="44.73592" lon="5.91049">
        <ele>1407</ele>
        <time>2013-02-22T14:50:04.000Z</time>
      </trkpt>
      <trkpt lat="44.73591" lon="5.91043">
        <ele>1413</ele>
        <time>2013-02-22T14:50:08.000Z</time>
      </trkpt>
      <trkpt lat="44.73591" lon="5.91041">
        <ele>1412</ele>
        <time>2013-02-22T14:50:09.000Z</time>
      </trkpt>
      <trkpt lat="44.73591" lon="5.91037">
        <ele>1411</ele>
        <time>2013-02-22T14:50:12.000Z</time>
      </trkpt>
      <trkpt lat="44.73591" lon="5.91035">
        <ele>1411</ele>
        <time>2013-02-22T14:50:13.000Z</time>
      </trkpt>
      <trkpt lat="44.73592" lon="5.91029">
        <ele>1408</ele>
        <time>2013-02-22T14:50:19.000Z</time>
      </trkpt>
      <trkpt lat="44.73591" lon="5.91028">
        <ele>1407</ele>
        <time>2013-02-22T14:50:20.000Z</time>
      </trkpt>
      <trkpt lat="44.73591" lon="5.91023">
        <ele>1408</ele>
        <time>2013-02-22T14:50:25.000Z</time>
      </trkpt>
      <trkpt lat="44.73591" lon="5.91022">
        <ele>1410</ele>
        <time>2013-02-22T14:50:26.000Z</time>
      </trkpt>
      <trkpt lat="44.7359" lon="5.91016">
        <ele>1411</ele>
        <time>2013-02-22T14:50:30.000Z</time>
      </trkpt>
      <trkpt lat="44.73589" lon="5.91014">
        <ele>1409</ele>
        <time>2013-02-22T14:50:31.000Z</time>
      </trkpt>
      <trkpt lat="44.73587" lon="5.91009">
        <ele>1410</ele>
        <time>2013-02-22T14:50:36.000Z</time>
      </trkpt>
      <trkpt lat="44.73587" lon="5.91008">
        <ele>1410</ele>
        <time>2013-02-22T14:50:37.000Z</time>
      </trkpt>
      <trkpt lat="44.73585" lon="5.91004">
        <ele>1413</ele>
        <time>2013-02-22T14:50:42.000Z</time>
      </trkpt>
      <trkpt lat="44.73584" lon="5.91003">
        <ele>1413</ele>
        <time>2013-02-22T14:50:43.000Z</time>
      </trkpt>
      <trkpt lat="44.73582" lon="5.90998">
        <ele>1414</ele>
        <time>2013-02-22T14:50:50.000Z</time>
      </trkpt>
      <trkpt lat="44.73582" lon="5.90997">
        <ele>1414</ele>
        <time>2013-02-22T14:50:51.000Z</time>
      </trkpt>
      <trkpt lat="44.73581" lon="5.90992">
        <ele>1408</ele>
        <time>2013-02-22T14:50:54.000Z</time>
      </trkpt>
      <trkpt lat="44.7358" lon="5.90989">
        <ele>1409</ele>
        <time>2013-02-22T14:50:55.000Z</time>
      </trkpt>
      <trkpt lat="44.7358" lon="5.90983">
        <ele>1407</ele>
        <time>2013-02-22T14:50:58.000Z</time>
      </trkpt>
      <trkpt lat="44.73579" lon="5.90982">
        <ele>1407</ele>
        <time>2013-02-22T14:50:59.000Z</time>
      </trkpt>
      <trkpt lat="44.73579" lon="5.90977">
        <ele>1410</ele>
        <time>2013-02-22T14:51:03.000Z</time>
      </trkpt>
      <trkpt lat="44.73579" lon="5.90975">
        <ele>1411</ele>
        <time>2013-02-22T14:51:04.000Z</time>
      </trkpt>
      <trkpt lat="44.73578" lon="5.9097">
        <ele>1413</ele>
        <time>2013-02-22T14:51:09.000Z</time>
      </trkpt>
      <trkpt lat="44.73579" lon="5.90968">
        <ele>1413</ele>
        <time>2013-02-22T14:51:10.000Z</time>
      </trkpt>
      <trkpt lat="44.7358" lon="5.90963">
        <ele>1414</ele>
        <time>2013-02-22T14:51:13.000Z</time>
      </trkpt>
      <trkpt lat="44.73581" lon="5.90962">
        <ele>1410</ele>
        <time>2013-02-22T14:51:14.000Z</time>
      </trkpt>
      <trkpt lat="44.73583" lon="5.90957">
        <ele>1411</ele>
        <time>2013-02-22T14:51:17.000Z</time>
      </trkpt>
      <trkpt lat="44.73584" lon="5.90956">
        <ele>1411</ele>
        <time>2013-02-22T14:51:18.000Z</time>
      </trkpt>
      <trkpt lat="44.73587" lon="5.90952">
        <ele>1413</ele>
        <time>2013-02-22T14:51:21.000Z</time>
      </trkpt>
      <trkpt lat="44.73588" lon="5.9095">
        <ele>1413</ele>
        <time>2013-02-22T14:51:22.000Z</time>
      </trkpt>
      <trkpt lat="44.7359" lon="5.90947">
        <ele>1412</ele>
        <time>2013-02-22T14:51:24.000Z</time>
      </trkpt>
      <trkpt lat="44.73592" lon="5.90946">
        <ele>1412</ele>
        <time>2013-02-22T14:51:25.000Z</time>
      </trkpt>
      <trkpt lat="44.73594" lon="5.90943">
        <ele>1411</ele>
        <time>2013-02-22T14:51:27.000Z</time>
      </trkpt>
      <trkpt lat="44.73596" lon="5.90941">
        <ele>1411</ele>
        <time>2013-02-22T14:51:28.000Z</time>
      </trkpt>
      <trkpt lat="44.73598" lon="5.90937">
        <ele>1410</ele>
        <time>2013-02-22T14:51:30.000Z</time>
      </trkpt>
      <trkpt lat="44.736" lon="5.90936">
        <ele>1410</ele>
        <time>2013-02-22T14:51:31.000Z</time>
      </trkpt>
      <trkpt lat="44.73602" lon="5.90933">
        <ele>1409</ele>
        <time>2013-02-22T14:51:33.000Z</time>
      </trkpt>
      <trkpt lat="44.73603" lon="5.90931">
        <ele>1409</ele>
        <time>2013-02-22T14:51:34.000Z</time>
      </trkpt>
      <trkpt lat="44.73605" lon="5.90927">
        <ele>1409</ele>
        <time>2013-02-22T14:51:37.000Z</time>
      </trkpt>
      <trkpt lat="44.73606" lon="5.90926">
        <ele>1411</ele>
        <time>2013-02-22T14:51:38.000Z</time>
      </trkpt>
      <trkpt lat="44.73609" lon="5.90921">
        <ele>1408</ele>
        <time>2013-02-22T14:51:43.000Z</time>
      </trkpt>
      <trkpt lat="44.73609" lon="5.90921">
        <ele>1409</ele>
        <time>2013-02-22T14:51:44.000Z</time>
      </trkpt>
      <trkpt lat="44.73613" lon="5.90917">
        <ele>1411</ele>
        <time>2013-02-22T14:51:51.000Z</time>
      </trkpt>
      <trkpt lat="44.73613" lon="5.90917">
        <ele>1409</ele>
        <time>2013-02-22T14:51:52.000Z</time>
      </trkpt>
      <trkpt lat="44.73616" lon="5.90912">
        <ele>1415</ele>
        <time>2013-02-22T14:51:58.000Z</time>
      </trkpt>
      <trkpt lat="44.73616" lon="5.90911">
        <ele>1415</ele>
        <time>2013-02-22T14:51:59.000Z</time>
      </trkpt>
      <trkpt lat="44.73619" lon="5.90909">
        <ele>1413</ele>
        <time>2013-02-22T14:52:51.000Z</time>
      </trkpt>
      <trkpt lat="44.73621" lon="5.90909">
        <ele>1413</ele>
        <time>2013-02-22T14:52:52.000Z</time>
      </trkpt>
      <trkpt lat="44.73625" lon="5.9091">
        <ele>1412</ele>
        <time>2013-02-22T14:52:54.000Z</time>
      </trkpt>
      <trkpt lat="44.73626" lon="5.9091">
        <ele>1412</ele>
        <time>2013-02-22T14:52:55.000Z</time>
      </trkpt>
      <trkpt lat="44.7363" lon="5.90911">
        <ele>1414</ele>
        <time>2013-02-22T14:52:58.000Z</time>
      </trkpt>
      <trkpt lat="44.73633" lon="5.90911">
        <ele>1413</ele>
        <time>2013-02-22T14:52:59.000Z</time>
      </trkpt>
      <trkpt lat="44.73635" lon="5.90912">
        <ele>1413</ele>
        <time>2013-02-22T14:53:00.000Z</time>
      </trkpt>
      <trkpt lat="44.73638" lon="5.90913">
        <ele>1414</ele>
        <time>2013-02-22T14:53:01.000Z</time>
      </trkpt>
      <trkpt lat="44.7364" lon="5.90913">
        <ele>1414</ele>
        <time>2013-02-22T14:53:02.000Z</time>
      </trkpt>
      <trkpt lat="44.73643" lon="5.90913">
        <ele>1414</ele>
        <time>2013-02-22T14:53:03.000Z</time>
      </trkpt>
      <trkpt lat="44.73645" lon="5.90914">
        <ele>1414</ele>
        <time>2013-02-22T14:53:04.000Z</time>
      </trkpt>
      <trkpt lat="44.73649" lon="5.90914">
        <ele>1414</ele>
        <time>2013-02-22T14:53:05.000Z</time>
      </trkpt>
      <trkpt lat="44.73653" lon="5.90915">
        <ele>1414</ele>
        <time>2013-02-22T14:53:06.000Z</time>
      </trkpt>
      <trkpt lat="44.73657" lon="5.90915">
        <ele>1415</ele>
        <time>2013-02-22T14:53:07.000Z</time>
      </trkpt>
      <trkpt lat="44.73662" lon="5.90916">
        <ele>1414</ele>
        <time>2013-02-22T14:53:08.000Z</time>
      </trkpt>
      <trkpt lat="44.73668" lon="5.90916">
        <ele>1412</ele>
        <time>2013-02-22T14:53:09.000Z</time>
      </trkpt>
      <trkpt lat="44.73674" lon="5.90916">
        <ele>1411</ele>
        <time>2013-02-22T14:53:10.000Z</time>
      </trkpt>
      <trkpt lat="44.7368" lon="5.90915">
        <ele>1410</ele>
        <time>2013-02-22T14:53:11.000Z</time>
      </trkpt>
      <trkpt lat="44.73686" lon="5.90915">
        <ele>1410</ele>
        <time>2013-02-22T14:53:12.000Z</time>
      </trkpt>
      <trkpt lat="44.73692" lon="5.90914">
        <ele>1410</ele>
        <time>2013-02-22T14:53:13.000Z</time>
      </trkpt>
      <trkpt lat="44.73698" lon="5.90914">
        <ele>1410</ele>
        <time>2013-02-22T14:53:14.000Z</time>
      </trkpt>
      <trkpt lat="44.73703" lon="5.90914">
        <ele>1410</ele>
        <time>2013-02-22T14:53:15.000Z</time>
      </trkpt>
      <trkpt lat="44.73709" lon="5.90915">
        <ele>1410</ele>
        <time>2013-02-22T14:53:16.000Z</time>
      </trkpt>
      <trkpt lat="44.73716" lon="5.90915">
        <ele>1408</ele>
        <time>2013-02-22T14:53:17.000Z</time>
      </trkpt>
      <trkpt lat="44.73721" lon="5.90916">
        <ele>1408</ele>
        <time>2013-02-22T14:53:18.000Z</time>
      </trkpt>
      <trkpt lat="44.73727" lon="5.90915">
        <ele>1406</ele>
        <time>2013-02-22T14:53:19.000Z</time>
      </trkpt>
      <trkpt lat="44.73733" lon="5.90914">
        <ele>1405</ele>
        <time>2013-02-22T14:53:20.000Z</time>
      </trkpt>
      <trkpt lat="44.73738" lon="5.90913">
        <ele>1405</ele>
        <time>2013-02-22T14:53:21.000Z</time>
      </trkpt>
      <trkpt lat="44.73743" lon="5.9091">
        <ele>1406</ele>
        <time>2013-02-22T14:53:22.000Z</time>
      </trkpt>
      <trkpt lat="44.73749" lon="5.90906">
        <ele>1405</ele>
        <time>2013-02-22T14:53:23.000Z</time>
      </trkpt>
      <trkpt lat="44.73753" lon="5.90903">
        <ele>1404</ele>
        <time>2013-02-22T14:53:24.000Z</time>
      </trkpt>
      <trkpt lat="44.73758" lon="5.90899">
        <ele>1403</ele>
        <time>2013-02-22T14:53:25.000Z</time>
      </trkpt>
      <trkpt lat="44.73764" lon="5.90895">
        <ele>1401</ele>
        <time>2013-02-22T14:53:26.000Z</time>
      </trkpt>
      <trkpt lat="44.73769" lon="5.90893">
        <ele>1401</ele>
        <time>2013-02-22T14:53:27.000Z</time>
      </trkpt>
      <trkpt lat="44.73775" lon="5.90892">
        <ele>1401</ele>
        <time>2013-02-22T14:53:28.000Z</time>
      </trkpt>
      <trkpt lat="44.7378" lon="5.90892">
        <ele>1398</ele>
        <time>2013-02-22T14:53:29.000Z</time>
      </trkpt>
      <trkpt lat="44.73785" lon="5.90891">
        <ele>1398</ele>
        <time>2013-02-22T14:53:30.000Z</time>
      </trkpt>
      <trkpt lat="44.7379" lon="5.90891">
        <ele>1395</ele>
        <time>2013-02-22T14:53:31.000Z</time>
      </trkpt>
      <trkpt lat="44.73796" lon="5.90892">
        <ele>1394</ele>
        <time>2013-02-22T14:53:32.000Z</time>
      </trkpt>
      <trkpt lat="44.73801" lon="5.90892">
        <ele>1394</ele>
        <time>2013-02-22T14:53:33.000Z</time>
      </trkpt>
      <trkpt lat="44.73806" lon="5.90892">
        <ele>1396</ele>
        <time>2013-02-22T14:53:34.000Z</time>
      </trkpt>
      <trkpt lat="44.73811" lon="5.90892">
        <ele>1392</ele>
        <time>2013-02-22T14:53:35.000Z</time>
      </trkpt>
      <trkpt lat="44.73816" lon="5.90892">
        <ele>1396</ele>
        <time>2013-02-22T14:53:36.000Z</time>
      </trkpt>
      <trkpt lat="44.7382" lon="5.90891">
        <ele>1392</ele>
        <time>2013-02-22T14:53:37.000Z</time>
      </trkpt>
      <trkpt lat="44.73825" lon="5.9089">
        <ele>1392</ele>
        <time>2013-02-22T14:53:38.000Z</time>
      </trkpt>
      <trkpt lat="44.73828" lon="5.90888">
        <ele>1390</ele>
        <time>2013-02-22T14:53:39.000Z</time>
      </trkpt>
      <trkpt lat="44.73831" lon="5.90887">
        <ele>1389</ele>
        <time>2013-02-22T14:53:40.000Z</time>
      </trkpt>
      <trkpt lat="44.73834" lon="5.90885">
        <ele>1389</ele>
        <time>2013-02-22T14:53:41.000Z</time>
      </trkpt>
      <trkpt lat="44.73836" lon="5.90882">
        <ele>1388</ele>
        <time>2013-02-22T14:53:42.000Z</time>
      </trkpt>
      <trkpt lat="44.7384" lon="5.90881">
        <ele>1387</ele>
        <time>2013-02-22T14:53:56.000Z</time>
      </trkpt>
      <trkpt lat="44.7384" lon="5.90881">
        <ele>1386</ele>
        <time>2013-02-22T14:53:57.000Z</time>
      </trkpt>
      <trkpt lat="44.73844" lon="5.90884">
        <ele>1376</ele>
        <time>2013-02-22T14:55:01.000Z</time>
      </trkpt>
      <trkpt lat="44.73844" lon="5.90884">
        <ele>1379</ele>
        <time>2013-02-22T14:55:02.000Z</time>
      </trkpt>
      <trkpt lat="44.73844" lon="5.90878">
        <ele>1389</ele>
        <time>2013-02-22T14:56:28.000Z</time>
      </trkpt>
      <trkpt lat="44.73844" lon="5.90878">
        <ele>1388</ele>
        <time>2013-02-22T14:56:29.000Z</time>
      </trkpt>
      <trkpt lat="44.73847" lon="5.90874">
        <ele>1391</ele>
        <time>2013-02-22T14:56:35.000Z</time>
      </trkpt>
      <trkpt lat="44.73848" lon="5.90873">
        <ele>1392</ele>
        <time>2013-02-22T14:56:36.000Z</time>
      </trkpt>
      <trkpt lat="44.73851" lon="5.90871">
        <ele>1385</ele>
        <time>2013-02-22T14:56:39.000Z</time>
      </trkpt>
      <trkpt lat="44.73852" lon="5.90871">
        <ele>1389</ele>
        <time>2013-02-22T14:56:40.000Z</time>
      </trkpt>
      <trkpt lat="44.73856" lon="5.90869">
        <ele>1391</ele>
        <time>2013-02-22T14:56:43.000Z</time>
      </trkpt>
      <trkpt lat="44.73857" lon="5.90868">
        <ele>1392</ele>
        <time>2013-02-22T14:56:44.000Z</time>
      </trkpt>
      <trkpt lat="44.73861" lon="5.90866">
        <ele>1389</ele>
        <time>2013-02-22T14:56:47.000Z</time>
      </trkpt>
      <trkpt lat="44.73862" lon="5.90865">
        <ele>1389</ele>
        <time>2013-02-22T14:56:48.000Z</time>
      </trkpt>
      <trkpt lat="44.73865" lon="5.90863">
        <ele>1387</ele>
        <time>2013-02-22T14:56:52.000Z</time>
      </trkpt>
      <trkpt lat="44.73866" lon="5.90863">
        <ele>1385</ele>
        <time>2013-02-22T14:56:53.000Z</time>
      </trkpt>
      <trkpt lat="44.7387" lon="5.90862">
        <ele>1390</ele>
        <time>2013-02-22T14:56:56.000Z</time>
      </trkpt>
      <trkpt lat="44.73871" lon="5.90862">
        <ele>1389</ele>
        <time>2013-02-22T14:56:57.000Z</time>
      </trkpt>
      <trkpt lat="44.73874" lon="5.90861">
        <ele>1395</ele>
        <time>2013-02-22T14:56:59.000Z</time>
      </trkpt>
      <trkpt lat="44.73876" lon="5.9086">
        <ele>1394</ele>
        <time>2013-02-22T14:57:00.000Z</time>
      </trkpt>
      <trkpt lat="44.73879" lon="5.90857">
        <ele>1389</ele>
        <time>2013-02-22T14:57:03.000Z</time>
      </trkpt>
      <trkpt lat="44.7388" lon="5.90857">
        <ele>1387</ele>
        <time>2013-02-22T14:57:04.000Z</time>
      </trkpt>
      <trkpt lat="44.73884" lon="5.90857">
        <ele>1385</ele>
        <time>2013-02-22T14:57:10.000Z</time>
      </trkpt>
      <trkpt lat="44.73885" lon="5.90858">
        <ele>1386</ele>
        <time>2013-02-22T14:57:11.000Z</time>
      </trkpt>
      <trkpt lat="44.73889" lon="5.9086">
        <ele>1377</ele>
        <time>2013-02-22T14:58:06.000Z</time>
      </trkpt>
      <trkpt lat="44.73889" lon="5.9086">
        <ele>1377</ele>
        <time>2013-02-22T14:58:07.000Z</time>
      </trkpt>
      <trkpt lat="44.73885" lon="5.90858">
        <ele>1389</ele>
        <time>2013-02-22T14:59:19.000Z</time>
      </trkpt>
      <trkpt lat="44.73884" lon="5.90858">
        <ele>1390</ele>
        <time>2013-02-22T14:59:20.000Z</time>
      </trkpt>
      <trkpt lat="44.73888" lon="5.90857">
        <ele>1383</ele>
        <time>2013-02-22T15:00:08.000Z</time>
      </trkpt>
      <trkpt lat="44.73889" lon="5.90858">
        <ele>1384</ele>
        <time>2013-02-22T15:00:09.000Z</time>
      </trkpt>
      <trkpt lat="44.73891" lon="5.90852">
        <ele>1382</ele>
        <time>2013-02-22T15:01:03.000Z</time>
      </trkpt>
      <trkpt lat="44.73891" lon="5.90852">
        <ele>1382</ele>
        <time>2013-02-22T15:01:04.000Z</time>
      </trkpt>
      <trkpt lat="44.7389" lon="5.90858">
        <ele>1384</ele>
        <time>2013-02-22T15:01:49.000Z</time>
      </trkpt>
      <trkpt lat="44.7389" lon="5.90858">
        <ele>1378</ele>
        <time>2013-02-22T15:01:50.000Z</time>
      </trkpt>
      <trkpt lat="44.73893" lon="5.90856">
        <ele>1366</ele>
        <time>2013-02-22T15:02:07.000Z</time>
      </trkpt>
      <trkpt lat="44.73894" lon="5.90856">
        <ele>1364</ele>
        <time>2013-02-22T15:02:08.000Z</time>
      </trkpt>
    </trkseg>
  </trk>
</gpx>